# Wetter Temperatur Luftdruck Luftfeuchtigkeit Sichtweite Windgeschwindigkeit Windrichtung Zeit
1 Clouds 5 1010 90 10000 8.75 280 15:55 01.02.2023
2 Thunderstorm 5 1008 93 9000 12.35 250 13:42 01.02.2023
3 Rain 4 1009 88 6000 11.32 250 13:19 01.02.2023
4 Rain 6 1010 89 9000 8.23 260 12:26 01.02.2023
5 Clouds 5 1011 88 10000 9.77 270 09:54 01.02.2023
6 Rain 5 1010 91 10000 9.26 250 06:19 01.02.2023
7 Clouds 6 1014 77 10000 10.8 270 22:26 31.01.2023
8 Clouds 6 1014 79 10000 11.32 270 20:46 31.01.2023
9 Clouds 7 1014 79 10000 11.83 280 19:24 31.01.2023
10 Clouds 7 1014 79 10000 11.83 280 19:24 31.01.2023
11 Clouds 8 1012 84 10000 10.8 280 17:31 31.01.2023
12 Clouds 7 1012 95 7000 8.23 250 15:36 31.01.2023
13 Clouds 7 1012 95 7000 8.23 250 15:18 31.01.2023
14 Drizzle 6 1014 95 4600 8.75 250 12:56 31.01.2023
15 Clouds 5 1015 94 9000 7.72 250 11:27 31.01.2023
16 Clouds 5 1015 90 10000 7.2 240 10:18 31.01.2023
17 Clouds 5 1016 90 10000 7.2 240 09:44 31.01.2023
18 Rain 4 1017 90 10000 6.69 240 08:36 31.01.2023
19 Clouds 3 1018 93 10000 6.17 240 06:23 31.01.2023
20 Clouds 3 1019 89 10000 5.14 280 01:54 31.01.2023
21 Clouds 4 1018 88 10000 8.23 300 23:26 30.01.2023
22 Clouds 5 1018 87 10000 7.72 290 22:49 30.01.2023
23 Clouds 5 1018 80 10000 6.69 300 21:38 30.01.2023
24 Clouds 5 1016 86 10000 6.69 290 20:44 30.01.2023
25 Clouds 6 1014 80 10000 8.75 300 18:26 30.01.2023
26 Clouds 6 1013 83 10000 8.23 310 17:23 30.01.2023
27 Clouds 7 1009 79 10000 11.83 290 14:47 30.01.2023
28 Clouds 7 1008 80 10000 10.8 290 13:39 30.01.2023
29 Clouds 6 1008 87 10000 9.26 270 12:18 30.01.2023
30 Clouds 6 1008 86 10000 9.26 270 10:21 30.01.2023
31 Clouds 6 1008 85 10000 9.26 270 09:53 30.01.2023
32 Rain 5 1008 90 10000 9.26 270 08:23 30.01.2023
33 Drizzle 5 1008 95 6000 7.72 250 04:32 30.01.2023
34 Drizzle 3 1012 93 7000 9.26 230 00:50 30.01.2023
35 Mist 3 1014 94 4400 8.75 240 23:31 29.01.2023
36 Clouds 3 1015 90 9000 8.23 240 22:36 29.01.2023
37 Clouds 3 1016 90 7000 8.23 230 20:54 29.01.2023
38 Clouds 3 1017 91 7000 7.2 220 20:22 29.01.2023
39 Clouds 2 1018 94 7000 8.23 230 19:33 29.01.2023
40 Clouds 3 1019 91 7000 6.69 230 17:56 29.01.2023
41 Clouds 3 1020 89 10000 8.23 230 16:48 29.01.2023
42 Clouds 3 1020 88 10000 7.72 230 16:19 29.01.2023
43 Clouds 4 1022 84 10000 6.69 240 14:20 29.01.2023
44 Clouds 4 1023 85 10000 7.2 240 13:18 29.01.2023
45 Clouds 4 1023 84 10000 7.2 240 12:38 29.01.2023
46 Clouds 4 1024 84 10000 5.66 230 12:19 29.01.2023
47 Clouds 3 1024 85 10000 5.66 230 11:37 29.01.2023
48 Clouds 3 1024 86 10000 5.66 230 10:53 29.01.2023
49 Clouds 2 1025 94 6000 5.14 230 08:45 29.01.2023
50 Clouds 2 1026 89 10000 3.09 230 04:49 29.01.2023
51 Clouds 2 1028 89 10000 3.09 230 23:51 28.01.2023
52 Clouds 2 1028 85 10000 3.09 220 21:28 28.01.2023
53 Clouds 2 1029 84 10000 3.09 230 19:58 28.01.2023
54 Clouds 2 1029 84 10000 3.09 230 19:24 28.01.2023
55 Clouds 2 1029 83 10000 2.57 210 17:49 28.01.2023
56 Clouds 2 1029 82 10000 2.57 250 16:57 28.01.2023
57 Clouds 3 1028 79 10000 3.09 240 16:19 28.01.2023
58 Clouds 3 1028 78 10000 3.09 250 15:37 28.01.2023
59 Clouds 3 1029 77 10000 3.09 260 13:51 28.01.2023
60 Clouds 2 1029 77 10000 3.09 220 12:45 28.01.2023
61 Clouds 0 1030 81 10000 1.54 220 10:41 28.01.2023
62 Clouds -1 1030 90 10000 1.54 210 10:20 28.01.2023
63 Clouds 0 1029 82 10000 2.57 300 05:57 28.01.2023
64 Clouds 1 1029 77 10000 2.06 20 01:32 28.01.2023
65 Clouds 1 1029 77 10000 1.03 0 00:22 28.01.2023
66 Clouds 2 1029 76 10000 3.6 40 20:45 27.01.2023
67 Clouds 3 1028 79 10000 4.63 30 17:59 27.01.2023
68 Clouds 3 1028 80 10000 4.63 30 17:39 27.01.2023
69 Clouds 3 1028 80 10000 4.12 60 17:18 27.01.2023
70 Clouds 3 1028 83 10000 4.12 70 16:33 27.01.2023
71 Clouds 4 1028 82 10000 4.63 40 14:53 27.01.2023
72 Clouds 4 1028 84 10000 5.66 30 14:24 27.01.2023
73 Clouds 4 1028 86 10000 4.63 50 12:48 27.01.2023
74 Clouds 3 1027 93 10000 4.12 30 08:39 27.01.2023
75 Clouds 4 1025 91 10000 5.14 20 04:55 27.01.2023
76 Clouds 4 1024 91 10000 3.6 20 22:54 26.01.2023
77 Clouds 3 1024 94 10000 2.57 50 21:39 26.01.2023
78 Clouds 4 1023 88 10000 4.12 20 20:36 26.01.2023
79 Clouds 4 1023 88 10000 3.09 30 19:21 26.01.2023
80 Clouds 5 1022 88 10000 3.6 350 17:42 26.01.2023
81 Clouds 5 1022 93 9000 1.54 320 16:27 26.01.2023
82 Clouds 5 1022 97 10000 2.06 320 15:55 26.01.2023
83 Mist 5 1022 99 5000 1.03 0 15:31 26.01.2023
84 Mist 5 1022 96 5000 2.06 310 14:58 26.01.2023
85 Fog 3 1022 99 550 1.54 300 13:30 26.01.2023
86 Mist 0 1023 99 1300 1.03 250 11:38 26.01.2023
87 Drizzle 0 1023 98 1900 1.54 260 10:31 26.01.2023
88 Drizzle 0 1023 99 1400 1.54 240 09:44 26.01.2023
89 Drizzle 0 1023 95 3500 2.57 240 08:26 26.01.2023
90 Mist -1 1023 98 2400 2.06 240 06:27 26.01.2023
91 Mist -2 1025 95 3800 3.09 200 23:40 25.01.2023
92 Mist -2 1026 95 4300 3.09 210 22:36 25.01.2023
93 Mist -2 1026 94 5000 3.6 210 21:25 25.01.2023
94 Mist -2 1026 94 5000 3.6 180 20:48 25.01.2023
95 Clouds -2 1028 90 6000 2.57 250 18:24 25.01.2023
96 Clouds -2 1029 90 8000 3.09 230 15:58 25.01.2023
97 Mist -1 1030 93 5000 3.6 260 14:30 25.01.2023
98 Clouds -1 1034 92 8000 2.57 200 11:53 25.01.2023
99 Clouds -1 1035 89 9000 1.54 210 09:52 25.01.2023
100 Clouds -1 1035 89 10000 2.06 240 09:18 25.01.2023
101 Clouds -1 1036 89 10000 2.57 210 06:26 25.01.2023
102 Clouds 0 1039 86 10000 0.51 0 00:30 25.01.2023
103 Clouds 0 1039 90 10000 2.57 160 21:55 24.01.2023
104 Clouds 0 1039 93 10000 1.54 140 21:27 24.01.2023
105 Clouds 1 1039 89 10000 2.57 130 19:38 24.01.2023
106 Clouds 1 1039 88 10000 3.09 150 18:30 24.01.2023
107 Clouds 1 1039 88 10000 3.09 150 17:18 24.01.2023
108 Clouds 1 1039 87 10000 2.06 120 16:52 24.01.2023
109 Clouds 2 1040 84 10000 2.06 130 14:49 24.01.2023
110 Clouds 2 1041 84 10000 2.57 110 12:28 24.01.2023
111 Clouds 2 1041 84 10000 3.09 80 10:36 24.01.2023
112 Clouds 2 1040 84 10000 3.09 90 08:21 24.01.2023
113 Clouds 2 1040 84 10000 2.06 120 07:50 24.01.2023
114 Clouds 3 1039 83 10000 2.57 110 05:21 24.01.2023
115 Clouds 3 1040 91 10000 1.54 90 00:46 24.01.2023
116 Clouds 3 1040 91 10000 2.06 70 23:43 23.01.2023
117 Clouds 3 1039 91 10000 2.06 70 21:50 23.01.2023
118 Clouds 3 1039 91 10000 2.06 70 19:45 23.01.2023
119 Clouds 3 1038 90 10000 2.57 70 17:44 23.01.2023
120 Clouds 4 1038 87 10000 3.09 40 15:35 23.01.2023
121 Clouds 4 1038 87 10000 2.57 30 14:21 23.01.2023
122 Clouds 3 1038 90 10000 2.06 50 13:22 23.01.2023
123 Clouds 3 1038 90 10000 2.06 50 12:48 23.01.2023
124 Clouds 3 1038 91 10000 2.57 70 11:43 23.01.2023
125 Clouds 2 1037 94 10000 3.09 80 08:42 23.01.2023
126 Clouds 2 1036 93 10000 2.57 50 05:40 23.01.2023
127 Clouds 3 1035 90 10000 3.6 20 23:28 22.01.2023
128 Clouds 3 1034 89 10000 3.09 30 21:46 22.01.2023
129 Clouds 3 1034 89 10000 3.6 40 20:53 22.01.2023
130 Clouds 3 1033 89 10000 4.63 60 19:53 22.01.2023
131 Clouds 3 1033 89 10000 4.63 50 19:20 22.01.2023
132 Drizzle 3 1033 88 10000 4.12 40 18:18 22.01.2023
133 Clouds 3 1033 88 10000 4.63 20 17:44 22.01.2023
134 Clouds 3 1033 85 10000 4.63 20 16:55 22.01.2023
135 Clouds 3 1032 85 10000 5.66 30 14:55 22.01.2023
136 Clouds 3 1032 85 10000 5.66 30 13:50 22.01.2023
137 Clouds 2 1032 88 10000 5.66 20 12:54 22.01.2023
138 Clouds 2 1032 85 10000 5.66 20 11:56 22.01.2023
139 Clouds 1 1032 85 10000 5.66 10 09:56 22.01.2023
140 Clouds 1 1032 85 10000 5.66 10 08:44 22.01.2023
141 Clouds 1 1032 86 10000 5.66 30 02:54 22.01.2023
142 Clouds 0 1033 87 10000 4.12 20 23:42 21.01.2023
143 Clouds 1 1033 87 10000 4.12 20 22:47 21.01.2023
144 Clouds 1 1033 91 10000 5.14 20 20:59 21.01.2023
145 Clouds 0 1032 92 10000 3.6 330 18:49 21.01.2023
146 Clouds 1 1032 94 7000 2.57 30 15:27 21.01.2023
147 Clouds 1 1032 94 6000 2.57 10 13:31 21.01.2023
148 Mist 1 1032 94 4900 3.09 10 12:52 21.01.2023
149 Mist 1 1032 95 5000 3.6 50 11:28 21.01.2023
150 Clouds 1 1031 95 6000 3.6 20 10:47 21.01.2023
151 Clouds 0 1030 95 6000 2.57 310 08:28 21.01.2023
152 Clouds -1 1027 94 7000 2.06 40 02:18 21.01.2023
153 Clouds -1 1024 92 10000 2.06 40 22:27 20.01.2023
154 Clouds -1 1023 90 10000 2.06 40 21:36 20.01.2023
155 Clear -1 1022 90 10000 1.54 40 20:42 20.01.2023
156 Clear 0 1021 88 10000 1.54 40 18:36 20.01.2023
157 Clouds 3 1017 77 10000 0.51 0 15:53 20.01.2023
158 Clouds 2 1016 79 10000 1.54 200 14:41 20.01.2023
159 Clouds 2 1015 83 10000 3.09 240 12:45 20.01.2023
160 Clouds 1 1014 89 10000 2.57 180 09:37 20.01.2023
161 Clouds 1 1012 90 10000 1.54 220 08:22 20.01.2023
162 Clouds 0 1009 93 6000 4.12 210 02:34 20.01.2023
163 Clear 0 1007 88 10000 4.12 240 22:59 19.01.2023
164 Clear 0 1007 88 10000 4.12 240 22:32 19.01.2023
165 Clear 1 1005 85 10000 3.09 220 20:22 19.01.2023
166 Clouds 1 1005 87 10000 2.06 210 19:20 19.01.2023
167 Clouds 5 1002 74 10000 5.66 280 15:39 19.01.2023
168 Clouds 3 1000 91 10000 3.09 200 10:53 19.01.2023
169 Clouds 2 999 91 10000 4.12 220 08:59 19.01.2023
170 Clouds 2 997 84 10000 6.69 210 23:52 18.01.2023
171 Snow 1 996 83 10000 6.17 190 20:56 18.01.2023
172 Clear 1 996 84 10000 5.66 190 20:19 18.01.2023
173 Clear 1 996 84 10000 5.66 190 20:19 18.01.2023
174 Clear 1 996 84 10000 5.66 190 19:37 18.01.2023
175 Clear 1 996 82 10000 4.63 180 17:34 18.01.2023
176 Clear 3 995 75 10000 4.12 200 15:24 18.01.2023
177 Clear 1 994 81 10000 3.09 210 13:29 18.01.2023
178 Clear -1 994 88 10000 2.57 200 11:20 18.01.2023
179 Clear -3 992 89 10000 3.09 180 08:44 18.01.2023
180 Clear -1 990 87 10000 3.09 180 01:28 18.01.2023
181 Clear 0 989 85 10000 4.12 210 23:46 17.01.2023
182 Clear 0 988 84 10000 3.6 220 20:38 17.01.2023
183 Clear 1 988 84 10000 4.12 210 19:34 17.01.2023
184 Clear 1 988 84 10000 4.12 210 19:34 17.01.2023
185 Clear 1 987 83 10000 3.6 210 18:30 17.01.2023
186 Clouds 3 986 79 10000 4.63 220 16:34 17.01.2023
187 Clouds 4 985 78 10000 6.69 240 14:57 17.01.2023
188 Clouds 4 985 77 10000 6.69 250 14:20 17.01.2023
189 Clouds 3 985 82 10000 7.72 250 12:48 17.01.2023
190 Clouds 3 985 83 10000 6.69 250 11:44 17.01.2023
191 Clear 1 983 94 10000 6.69 250 09:35 17.01.2023
192 Clouds 2 982 94 10000 7.72 250 08:20 17.01.2023
193 Rain 3 979 95 10000 9.26 270 05:51 17.01.2023
194 Clouds 4 976 91 10000 3.09 170 00:57 17.01.2023
195 Rain 4 976 90 10000 3.09 160 23:45 16.01.2023
196 Rain 4 977 87 10000 5.66 150 21:59 16.01.2023
197 Drizzle 4 978 89 10000 5.66 130 20:49 16.01.2023
198 Clouds 4 978 90 10000 5.14 130 19:42 16.01.2023
199 Rain 5 979 86 10000 5.66 140 18:55 16.01.2023
200 Clouds 5 979 86 10000 5.66 140 18:21 16.01.2023
201 Clouds 5 980 86 10000 6.17 140 17:55 16.01.2023
202 Drizzle 5 980 87 10000 6.17 140 17:19 16.01.2023
203 Drizzle 5 983 86 10000 5.66 130 13:40 16.01.2023
204 Clouds 5 987 85 10000 6.17 140 11:58 16.01.2023
205 Clouds 4 989 89 10000 5.14 140 10:21 16.01.2023
206 Clouds 4 992 92 10000 4.44 181 07:35 16.01.2023
207 Clouds 5 998 89 10000 6.69 240 22:42 15.01.2023
208 Clouds 5 997 90 10000 8.75 240 20:48 15.01.2023
209 Clouds 5 997 90 10000 8.23 240 20:24 15.01.2023
210 Clouds 5 996 91 10000 9.77 240 18:55 15.01.2023
211 Drizzle 5 994 87 10000 13.38 240 16:48 15.01.2023
212 Rain 6 993 78 10000 10.29 230 13:44 15.01.2023
213 Clouds 4 996 90 10000 11.17 230 12:19 15.01.2023
214 Clouds 6 994 73 10000 11.83 230 11:28 15.01.2023
215 Clear 6 994 77 10000 9.26 220 10:21 15.01.2023
216 Clouds 7 994 80 10000 9.77 230 07:38 15.01.2023
217 Clouds 9 994 93 10000 11.83 290 23:33 14.01.2023
218 Clouds 10 992 92 10000 8.23 230 22:43 14.01.2023
219 Drizzle 11 992 92 10000 8.23 220 21:36 14.01.2023
220 Clouds 10 992 95 10000 7.2 210 21:18 14.01.2023
221 Clouds 10 992 95 6000 7.72 210 20:42 14.01.2023
222 Drizzle 10 993 95 8000 7.72 210 20:21 14.01.2023
223 Clouds 9 994 93 10000 8.23 200 17:50 14.01.2023
224 Rain 7 998 95 10000 8.75 160 15:36 14.01.2023
225 Rain 7 998 95 10000 8.75 160 15:18 14.01.2023
226 Rain 7 1001 95 10000 7.72 170 14:19 14.01.2023
227 Rain 6 1004 94 10000 8.75 170 12:49 14.01.2023
228 Rain 6 1008 90 10000 5.14 180 10:49 14.01.2023
229 Clear 5 1010 93 10000 4.12 200 08:22 14.01.2023
230 Clouds 6 1010 91 10000 6.17 250 02:35 14.01.2023
231 Rain 7 1008 89 10000 7.2 260 22:59 13.01.2023
232 Rain 7 1008 89 10000 7.2 260 22:41 13.01.2023
233 Rain 7 1008 93 10000 8.74 256 21:58 13.01.2023
234 Clouds 7 1006 90 10000 9.26 250 20:35 13.01.2023
235 Rain 7 1004 88 10000 7.72 250 19:27 13.01.2023
236 Clouds 7 1003 85 10000 10.29 240 17:40 13.01.2023
237 Clouds 8 1001 85 10000 10.8 240 14:58 13.01.2023
238 Clouds 8 1000 85 10000 10.29 250 12:25 13.01.2023
239 Clouds 8 1000 85 10000 10.29 250 12:25 13.01.2023
240 Clouds 8 1000 78 10000 8.75 220 10:43 13.01.2023
241 Clouds 8 1000 78 10000 8.23 220 10:23 13.01.2023
242 Clouds 8 1000 79 10000 9.26 230 09:44 13.01.2023
243 Clouds 8 1000 80 10000 8.75 230 08:51 13.01.2023
244 Clouds 8 1000 81 10000 7.2 210 06:57 13.01.2023
245 Clouds 8 1000 84 10000 6.69 220 06:27 13.01.2023
246 Clouds 9 1000 88 10000 7.2 230 02:29 13.01.2023
247 Clouds 10 1000 95 10000 6.69 210 22:57 12.01.2023
248 Rain 10 1000 95 10000 9.26 230 21:59 12.01.2023
249 Rain 10 1001 97 10000 10.03 232 20:52 12.01.2023
250 Rain 10 1001 95 6000 7.2 220 18:39 12.01.2023
251 Rain 10 1001 98 4100 5.14 220 17:20 12.01.2023
252 Clouds 11 1002 94 10000 6.17 230 15:45 12.01.2023
253 Clouds 11 1001 91 10000 8.23 230 14:43 12.01.2023
254 Clouds 11 1001 91 10000 9.26 230 14:20 12.01.2023
255 Clouds 10 1001 95 10000 9.77 230 12:44 12.01.2023
256 Drizzle 9 1000 95 5000 9.77 220 10:27 12.01.2023
257 Rain 8 1002 94 10000 8.23 210 07:38 12.01.2023
258 Clouds 8 1006 85 10000 9.77 230 01:40 12.01.2023
259 Clouds 8 1006 87 10000 9.77 220 23:58 11.01.2023
260 Clouds 8 1008 90 10000 9.71 220 23:39 11.01.2023
261 Rain 9 1007 83 10000 7.72 220 23:20 11.01.2023
262 Clouds 8 1008 82 10000 5.14 210 21:41 11.01.2023
263 Clear 7 1009 85 10000 3.6 210 19:40 11.01.2023
264 Clouds 8 1008 86 10000 5.14 210 18:26 11.01.2023
265 Clouds 8 1008 85 10000 6.69 240 16:34 11.01.2023
266 Clouds 10 1007 86 10000 7.2 250 14:40 11.01.2023
267 Clouds 10 1007 95 10000 5.14 250 12:38 11.01.2023
268 Clouds 10 1007 96 10000 2.06 210 11:54 11.01.2023
269 Rain 9 1006 95 5000 5.14 320 09:49 11.01.2023
270 Mist 9 1005 99 3900 6.17 220 07:38 11.01.2023
271 Drizzle 9 1004 96 10000 6.17 210 07:20 11.01.2023
272 Drizzle 6 1008 95 7000 7.72 180 23:58 10.01.2023
273 Mist 5 1009 95 5000 8.23 170 22:45 10.01.2023
274 Rain 6 1010 91 10000 7.2 160 21:30 10.01.2023
275 Rain 6 1012 87 10000 6.69 190 19:57 10.01.2023
276 Rain 6 1012 87 10000 6.69 190 19:37 10.01.2023
277 Rain 7 1013 82 10000 5.66 180 18:47 10.01.2023
278 Rain 6 1014 85 10000 6.17 180 17:54 10.01.2023
279 Clouds 7 1015 85 10000 5.66 200 15:55 10.01.2023
280 Clouds 7 1015 85 10000 5.14 210 15:24 10.01.2023
281 Clouds 7 1015 85 10000 5.66 220 14:25 10.01.2023
282 Clouds 7 1016 90 10000 6.69 230 12:21 10.01.2023
283 Clouds 5 1014 94 10000 4.63 230 08:58 10.01.2023
284 Clouds 5 1014 94 10000 5.14 220 08:29 10.01.2023
285 Clouds 4 1013 95 10000 4.12 220 07:26 10.01.2023
286 Clouds 4 1011 95 10000 4.12 230 04:52 10.01.2023
287 Clouds 6 1004 95 10000 4.63 250 22:59 09.01.2023
288 Clouds 6 1003 95 10000 4.63 250 21:49 09.01.2023
289 Clouds 6 1002 95 10000 3.6 250 20:43 09.01.2023
290 Clouds 6 1001 98 10000 3.09 260 19:21 09.01.2023
291 Clouds 6 999 98 10000 3.6 250 17:54 09.01.2023
292 Clouds 6 998 97 10000 3.09 260 17:19 09.01.2023
293 Clouds 7 997 94 10000 2.57 230 16:32 09.01.2023
294 Clouds 7 996 91 10000 3.09 190 15:23 09.01.2023
295 Drizzle 7 996 91 10000 4.12 210 14:43 09.01.2023
296 Clouds 7 996 91 10000 4.63 200 12:56 09.01.2023
297 Clouds 7 996 91 10000 4.63 200 12:35 09.01.2023
298 Clouds 7 996 91 10000 4.12 190 11:21 09.01.2023
299 Clear 5 995 95 10000 3.09 210 08:43 09.01.2023
300 Clouds 7 994 95 10000 3.09 210 06:39 09.01.2023
301 Rain 6 994 91 10000 3.6 150 02:54 09.01.2023
302 Clear 5 996 92 10000 4.63 140 22:54 08.01.2023
303 Clear 5 997 92 10000 3.09 140 21:24 08.01.2023
304 Clouds 5 998 92 10000 2.57 140 20:58 08.01.2023
305 Clear 6 998 91 10000 3.09 170 19:48 08.01.2023
306 Clouds 9 998 84 10000 6.69 190 17:53 08.01.2023
307 Rain 9 998 86 10000 2.06 160 17:20 08.01.2023
308 Clouds 10 999 75 10000 5.66 200 15:39 08.01.2023
309 Clear 10 1000 74 10000 5.14 200 14:41 08.01.2023
310 Clear 10 1000 74 10000 5.66 200 13:57 08.01.2023
311 Clear 10 1000 74 10000 6.17 200 13:25 08.01.2023
312 Clear 10 1001 80 10000 4.63 210 12:19 08.01.2023
313 Clouds 9 1001 89 10000 4.12 190 09:38 08.01.2023
314 Rain 9 1003 91 10000 6.3 212 08:45 08.01.2023
315 Clear 9 1002 85 10000 4.12 180 07:21 08.01.2023
316 Clouds 9 1004 81 10000 6.17 170 23:35 07.01.2023
317 Clouds 9 1005 81 10000 5.14 170 22:45 07.01.2023
318 Rain 8 1005 83 10000 4.63 160 22:20 07.01.2023
319 Rain 8 1005 83 10000 5.14 150 21:36 07.01.2023
320 Clear 8 1007 83 10000 4.63 150 20:29 07.01.2023
321 Clear 8 1007 83 10000 5.66 140 19:28 07.01.2023
322 Clouds 9 1008 84 10000 5.66 150 18:22 07.01.2023
323 Clouds 9 1008 84 10000 5.66 150 17:43 07.01.2023
324 Clouds 10 1009 81 10000 5.14 150 16:54 07.01.2023
325 Clear 10 1009 81 10000 5.66 150 16:29 07.01.2023
326 Clouds 10 1009 83 10000 4.63 150 15:45 07.01.2023
327 Clouds 11 1010 81 10000 4.63 160 15:22 07.01.2023
328 Clouds 11 1010 82 10000 5.14 170 14:26 07.01.2023
329 Clouds 11 1011 85 10000 5.14 170 13:43 07.01.2023
330 Clouds 11 1011 85 10000 5.14 190 13:22 07.01.2023
331 Clear 10 1012 88 10000 4.63 190 12:21 07.01.2023
332 Clouds 9 1013 94 10000 4.12 180 10:57 07.01.2023
333 Clouds 10 1013 91 10000 3.09 180 10:23 07.01.2023
334 Clouds 10 1013 95 10000 3.09 200 08:21 07.01.2023
335 Clouds 10 1014 95 10000 3.6 210 07:43 07.01.2023
336 Clouds 10 1014 95 10000 4.12 210 06:49 07.01.2023
337 Clear 6 1016 93 10000 2.57 200 23:55 06.01.2023
338 Clouds 6 1017 91 10000 3.91 216 22:22 06.01.2023
339 Clear 6 1016 89 10000 2.06 220 21:58 06.01.2023
340 Clear 6 1016 88 10000 2.06 200 20:52 06.01.2023
341 Clear 7 1016 85 10000 2.57 230 19:56 06.01.2023
342 Clear 7 1016 85 10000 2.57 230 19:38 06.01.2023
343 Clear 7 1016 88 10000 3.09 240 19:20 06.01.2023
344 Clear 7 1016 84 10000 3.09 220 18:24 06.01.2023
345 Clear 8 1015 83 10000 4.63 250 16:55 06.01.2023
346 Clear 9 1015 80 10000 4.63 250 16:23 06.01.2023
347 Clear 9 1015 80 10000 5.66 250 15:53 06.01.2023
348 Clear 9 1015 80 10000 5.14 260 15:34 06.01.2023
349 Clouds 10 1014 76 10000 7.72 270 13:48 06.01.2023
350 Clouds 10 1014 87 10000 7.72 270 12:21 06.01.2023
351 Clouds 10 1013 92 8000 7.2 230 10:57 06.01.2023
352 Rain 10 1012 91 10000 6.69 210 08:54 06.01.2023
353 Clouds 10 1014 95 10000 4.63 200 05:31 06.01.2023
354 Clouds 9 1017 94 10000 3.6 200 23:48 05.01.2023
355 Clear 8 1018 94 10000 2.57 200 22:54 05.01.2023
356 Clouds 8 1018 95 10000 2.06 200 21:22 05.01.2023
357 Clouds 8 1019 94 10000 1.54 200 19:18 05.01.2023
358 Clouds 8 1019 85 10000 3.09 260 17:26 05.01.2023
359 Clouds 8 1018 84 10000 4.12 290 15:59 05.01.2023
360 Clouds 8 1018 84 10000 4.12 290 15:59 05.01.2023
361 Clouds 8 1018 84 10000 4.12 290 15:38 05.01.2023
362 Clouds 10 1017 80 10000 6.17 290 14:34 05.01.2023
363 Clouds 9 1016 83 10000 7.72 290 12:42 05.01.2023
364 Clear 8 1016 88 10000 6.17 300 11:44 05.01.2023
365 Clouds 8 1014 86 10000 7.2 300 09:50 05.01.2023
366 Clouds 9 1012 88 10000 8.75 280 08:25 05.01.2023
367 Clouds 9 1011 91 10000 9.77 280 07:18 05.01.2023
368 Clouds 10 1009 91 10000 10.29 270 03:35 05.01.2023
369 Rain 10 1008 90 10000 9.77 260 22:53 04.01.2023
370 Clouds 11 1007 88 10000 10.8 260 21:33 04.01.2023
371 Rain 11 1007 92 10000 8.75 260 20:26 04.01.2023
372 Rain 11 1007 91 10000 8.23 250 19:56 04.01.2023
373 Clouds 11 1007 91 10000 8.23 260 19:31 04.01.2023
374 Clouds 11 1007 91 10000 9.26 260 18:25 04.01.2023
375 Clouds 12 1007 93 10000 8.75 260 16:32 04.01.2023
376 Mist 12 1007 96 3300 7.2 240 15:34 04.01.2023
377 Drizzle 11 1008 96 9000 8.23 230 13:53 04.01.2023
378 Rain 11 1009 95 9000 9.77 230 11:40 04.01.2023
379 Drizzle 11 1010 93 10000 10.29 230 11:19 04.01.2023
380 Rain 11 1010 92 10000 10.8 220 10:42 04.01.2023
381 Rain 11 1010 93 10000 10.29 220 10:21 04.01.2023
382 Drizzle 9 1011 95 10000 9.26 220 07:40 04.01.2023
383 Clear 7 1019 83 10000 6.69 190 01:48 04.01.2023
384 Clear 7 1021 87 10000 5.14 190 23:59 03.01.2023
385 Clear 7 1021 87 10000 5.14 190 23:32 03.01.2023
386 Clear 7 1022 87 10000 5.66 190 22:41 03.01.2023
387 Clear 6 1024 94 10000 4.63 180 20:52 03.01.2023
388 Clouds 6 1025 94 10000 2.57 180 19:21 03.01.2023
389 Clouds 6 1025 94 9000 2.06 170 17:36 03.01.2023
390 Clouds 6 1025 94 10000 3.6 180 15:54 03.01.2023
391 Clouds 5 1026 93 10000 2.06 190 13:53 03.01.2023
392 Clouds 6 1026 91 9000 1.03 0 13:30 03.01.2023
393 Clouds 5 1027 95 8000 2.57 220 12:57 03.01.2023
394 Clouds 5 1027 93 6000 3.6 220 12:29 03.01.2023
395 Clouds 4 1027 95 7000 3.09 220 10:32 03.01.2023
396 Clouds 3 1025 95 10000 2.57 210 06:41 03.01.2023
397 Clear 4 1025 97 10000 3.53 246 04:22 03.01.2023
398 Clouds 4 1024 95 10000 4.12 240 03:43 03.01.2023
399 Clouds 5 1023 92 10000 4.63 230 01:39 03.01.2023
400 Clouds 6 1021 94 10000 3.6 250 22:42 02.01.2023
401 Clouds 6 1020 94 10000 4.12 260 22:18 02.01.2023
402 Clouds 7 1019 91 10000 4.63 250 20:40 02.01.2023
403 Clouds 8 1018 89 10000 6.69 240 19:44 02.01.2023
404 Clouds 9 1016 86 10000 5.14 260 17:29 02.01.2023
405 Clouds 9 1015 90 6000 4.63 260 15:19 02.01.2023
406 Clouds 9 1013 90 10000 7.72 280 13:23 02.01.2023
407 Clouds 11 1011 91 10000 9.77 250 11:41 02.01.2023
408 Rain 13 1010 89 10000 8.23 220 10:43 02.01.2023
409 Clouds 12 1009 95 10000 5.14 200 07:33 02.01.2023
410 Rain 10 1012 97 10000 3.6 140 00:58 02.01.2023
411 Rain 11 1013 85 10000 5.14 190 22:32 01.01.2023
412 Clear 11 1014 86 10000 2.57 180 21:30 01.01.2023
413 Rain 11 1014 85 10000 3.09 160 20:47 01.01.2023
414 Clouds 10 1014 86 10000 3.09 160 19:44 01.01.2023
415 Clear 11 1014 83 10000 3.09 220 18:24 01.01.2023
416 Clouds 12 1015 79 10000 4.12 220 17:21 01.01.2023
417 Clouds 12 1015 78 10000 4.63 210 16:33 01.01.2023
418 Clear 12 1013 72 10000 6.69 230 14:59 01.01.2023
419 Clear 13 1013 66 10000 8.23 230 13:40 01.01.2023
420 Clear 13 1012 63 10000 9.26 240 12:41 01.01.2023
421 Clear 14 1012 59 10000 10.29 240 11:38 01.01.2023
422 Clear 14 1011 61 10000 11.32 230 10:36 01.01.2023
423 Clear 14 1009 66 10000 10.29 230 08:54 01.01.2023
424 Clear 14 1008 65 10000 10.8 240 08:22 01.01.2023
425 Clouds 15 1007 63 10000 9.77 230 07:23 01.01.2023
426 Clouds 15 1006 67 10000 10.29 230 03:21 01.01.2023
427 Clouds 16 1005 66 10000 11.32 230 23:43 31.12.2022
428 Clear 15 1004 71 10000 8.75 220 22:35 31.12.2022
429 Clouds 15 1004 77 10000 7.72 220 21:41 31.12.2022
430 Clouds 15 1004 81 10000 8.23 220 21:19 31.12.2022
431 Clouds 14 1004 87 10000 7.72 220 19:42 31.12.2022
432 Rain 14 1004 90 10000 8.75 230 18:45 31.12.2022
433 Clouds 14 1005 98 10000 11.08 230 18:19 31.12.2022
434 Rain 13 1005 98 10000 11.04 230 17:48 31.12.2022
435 Rain 13 1004 98 10000 11.75 232 16:59 31.12.2022
436 Rain 14 1004 96 10000 5.66 230 16:29 31.12.2022
437 Rain 14 1003 96 10000 7.72 230 14:45 31.12.2022
438 Rain 14 1003 93 4300 7.72 230 13:44 31.12.2022
439 Clouds 13 1003 96 10000 8.75 240 12:40 31.12.2022
440 Clouds 13 1003 96 10000 8.75 240 12:20 31.12.2022
441 Clouds 13 1003 96 10000 8.75 240 12:20 31.12.2022
442 Rain 13 1003 96 10000 6.17 220 11:50 31.12.2022
443 Rain 11 1003 99 8000 2.57 190 10:37 31.12.2022
444 Drizzle 11 1003 99 3900 3.09 170 09:55 31.12.2022
445 Drizzle 11 1003 99 3900 3.09 170 09:35 31.12.2022
446 Rain 11 1003 95 10000 3.6 190 07:49 31.12.2022
447 Clouds 12 1001 90 10000 6.17 220 00:59 31.12.2022
448 Clouds 12 1001 90 10000 6.17 220 23:50 30.12.2022
449 Clouds 11 1000 91 10000 6.69 210 22:50 30.12.2022
450 Clouds 10 999 95 10000 8.23 210 21:50 30.12.2022
451 Clouds 9 998 95 7000 7.72 200 21:30 30.12.2022
452 Drizzle 8 999 94 8000 8.75 180 19:24 30.12.2022
453 Drizzle 9 1000 78 10000 9.77 160 17:53 30.12.2022
454 Rain 9 1000 77 10000 9.77 160 17:33 30.12.2022
455 Clear 8 1003 80 10000 7.2 160 15:58 30.12.2022
456 Clear 7 1004 82 10000 6.69 160 14:54 30.12.2022
457 Clear 7 1007 83 10000 7.2 170 12:52 30.12.2022
458 Clear 5 1009 90 10000 4.63 200 08:23 30.12.2022
459 Clouds 7 1008 83 10000 7.2 240 03:44 30.12.2022
460 Clouds 7 1007 84 10000 6.69 230 02:25 30.12.2022
461 Clouds 7 1006 91 10000 8.39 236 23:18 29.12.2022
462 Rain 7 1004 91 10000 5.66 260 21:46 29.12.2022
463 Rain 7 1003 91 10000 6.17 230 20:54 29.12.2022
464 Clouds 7 1003 89 10000 7.72 230 20:30 29.12.2022
465 Clouds 9 1003 86 10000 4.63 210 18:37 29.12.2022
466 Clouds 8 1003 88 10000 4.63 220 17:53 29.12.2022
467 Clouds 8 1002 88 10000 6.69 240 17:20 29.12.2022
468 Clouds 9 1002 85 10000 7.72 230 16:54 29.12.2022
469 Clouds 9 1001 84 10000 8.23 240 15:47 29.12.2022
470 Clouds 10 999 81 10000 9.26 230 13:37 29.12.2022
471 Clouds 10 999 80 10000 8.23 220 11:48 29.12.2022
472 Clouds 10 998 89 10000 8.23 220 09:29 29.12.2022
473 Clouds 10 999 88 10000 7.2 200 03:34 29.12.2022
474 Clouds 9 1001 92 10000 7.72 210 23:28 28.12.2022
475 Drizzle 8 1002 92 10000 7.72 190 21:55 28.12.2022
476 Drizzle 8 1003 92 10000 7.2 190 21:19 28.12.2022
477 Rain 8 1004 88 10000 7.2 190 19:54 28.12.2022
478 Rain 9 1005 93 10000 5.66 190 18:25 28.12.2022
479 Drizzle 9 1007 95 7000 7.2 220 16:20 28.12.2022
480 Clouds 9 1008 94 10000 7.72 220 13:46 28.12.2022
481 Clouds 9 1008 95 10000 7.72 220 12:48 28.12.2022
482 Clouds 8 1009 95 10000 7.72 220 11:33 28.12.2022
483 Drizzle 7 1008 95 10000 8.75 220 09:30 28.12.2022
484 Clouds 6 1009 95 7000 8.23 210 07:31 28.12.2022
485 Rain 6 1009 95 5000 7.2 200 06:44 28.12.2022
486 Clear 6 1016 82 10000 5.66 200 00:56 28.12.2022
487 Clear 4 1019 94 10000 3.6 190 21:29 27.12.2022
488 Clouds 4 1020 93 10000 4.12 210 19:50 27.12.2022
489 Clouds 4 1021 90 10000 3.6 210 18:21 27.12.2022
490 Clouds 5 1021 86 10000 3.6 210 16:59 27.12.2022
491 Clouds 5 1021 86 10000 3.6 210 16:59 27.12.2022
492 Clouds 5 1021 88 10000 5.14 230 15:54 27.12.2022
493 Clear 6 1022 85 10000 5.66 240 14:23 27.12.2022
494 Clouds 5 1022 88 10000 6.69 240 12:23 27.12.2022
495 Clear 3 1021 94 10000 6.17 250 09:47 27.12.2022
496 Clouds 3 1020 91 10000 6.69 240 09:24 27.12.2022
497 Clouds 3 1020 91 10000 6.17 240 08:47 27.12.2022
498 Clear 3 1017 89 10000 6.69 240 04:54 27.12.2022
499 Clouds 3 1016 89 10000 5.66 240 23:39 26.12.2022
500 Clear 3 1015 89 10000 5.66 240 21:50 26.12.2022
501 Clear 3 1015 85 10000 5.14 240 20:43 26.12.2022
502 Clouds 4 1015 87 10000 5.71 247 19:51 26.12.2022
503 Clouds 4 1015 87 10000 5.12 254 18:42 26.12.2022
504 Clouds 6 1012 78 10000 8.23 280 16:53 26.12.2022
505 Clouds 7 1011 86 10000 9.26 270 15:37 26.12.2022
506 Drizzle 10 1008 89 10000 7.72 230 12:58 26.12.2022
507 Clouds 9 1009 93 10000 4.63 220 09:44 26.12.2022
508 Drizzle 8 1008 99 4100 2.57 220 05:43 26.12.2022
509 Fog 7 1008 99 1100 2.06 230 23:41 25.12.2022
510 Mist 7 1008 99 1300 1.03 290 22:50 25.12.2022
511 Fog 7 1008 99 800 1.03 290 22:19 25.12.2022
512 Drizzle 7 1008 99 4400 1.03 50 19:56 25.12.2022
513 Mist 7 1008 99 4400 1.03 50 19:56 25.12.2022
514 Rain 7 1009 99 5000 2.57 110 17:52 25.12.2022
515 Rain 7 1010 99 6000 2.57 130 17:34 25.12.2022
516 Rain 7 1010 99 6000 2.06 120 16:40 25.12.2022
517 Rain 7 1013 99 10000 3.09 140 13:30 25.12.2022
518 Rain 7 1013 99 10000 3.09 140 13:30 25.12.2022
519 Clouds 7 1013 96 10000 2.57 120 11:38 25.12.2022
520 Fog 4 1015 99 700 1.54 120 04:19 25.12.2022
521 Clear 5 1015 95 10000 2.57 210 22:55 24.12.2022
522 Clouds 8 1013 91 10000 3.6 240 19:53 24.12.2022
523 Clouds 8 1012 92 10000 4.63 260 17:34 24.12.2022
524 Clouds 10 1010 92 10000 5.14 250 15:37 24.12.2022
525 Clouds 10 1010 95 10000 3.6 250 14:30 24.12.2022
526 Clouds 9 1009 93 10000 5.14 260 12:20 24.12.2022
527 Clouds 8 1008 96 10000 3.09 250 10:23 24.12.2022
528 Clouds 8 1007 96 10000 4.12 240 09:37 24.12.2022
529 Clouds 7 1007 96 10000 4.63 250 08:36 24.12.2022
530 Drizzle 6 1003 96 5000 2.57 100 02:52 24.12.2022
531 Rain 6 1002 96 9000 3.6 70 00:29 24.12.2022
532 Rain 6 1002 99 8000 3.6 60 22:30 23.12.2022
533 Rain 6 1002 99 7000 3.6 60 21:43 23.12.2022
534 Rain 6 1001 99 5000 3.09 70 19:40 23.12.2022
535 Rain 6 1001 99 5000 3.09 80 19:22 23.12.2022
536 Rain 6 1002 99 5000 3.09 80 18:53 23.12.2022
537 Rain 6 1002 99 5000 2.06 90 18:22 23.12.2022
538 Rain 7 1002 96 4800 2.57 100 17:48 23.12.2022
539 Mist 7 1003 99 5000 2.06 110 15:52 23.12.2022
540 Clouds 7 1003 95 7000 1.03 110 14:33 23.12.2022
541 Mist 6 1005 99 2700 1.03 0 10:34 23.12.2022
542 Fog 6 1005 99 700 2.06 240 09:36 23.12.2022
543 Fog 6 1004 99 550 1.03 260 07:43 23.12.2022
544 Mist 6 1003 98 2700 1.03 0 06:50 23.12.2022
545 Rain 6 1001 98 2100 1.03 0 02:45 23.12.2022
546 Rain 6 1002 94 6000 1.54 150 23:20 22.12.2022
547 Rain 6 1003 94 10000 3.09 200 21:56 22.12.2022
548 Clouds 7 1004 91 10000 3.6 220 19:56 22.12.2022
549 Clear 7 1004 88 10000 3.6 220 19:22 22.12.2022
550 Clear 7 1004 91 10000 4.12 220 17:59 22.12.2022
551 Rain 6 1004 91 10000 4.12 230 16:54 22.12.2022
552 Clear 6 1004 91 10000 4.12 240 16:30 22.12.2022
553 Clear 8 1003 88 10000 6.69 250 15:30 22.12.2022
554 Clear 8 1003 88 10000 4.63 260 14:30 22.12.2022
555 Clouds 7 1003 96 10000 4.12 270 13:31 22.12.2022
556 Clouds 8 1002 96 8000 3.6 270 12:32 22.12.2022
557 Mist 8 1002 99 2500 1.54 260 10:32 22.12.2022
558 Mist 8 1002 99 2800 2.06 240 09:59 22.12.2022
559 Drizzle 7 1001 99 2900 2.57 220 09:19 22.12.2022
560 Drizzle 7 1001 99 2900 2.57 220 09:19 22.12.2022
561 Clouds 7 1001 99 6000 1.54 190 07:54 22.12.2022
562 Clouds 7 1003 99 6000 3.09 190 04:19 22.12.2022
563 Mist 7 1005 96 5000 3.6 190 00:48 22.12.2022
564 Clouds 7 1006 95 9000 3.09 210 22:42 21.12.2022
565 Clouds 6 1006 95 10000 2.06 200 21:51 21.12.2022
566 Clouds 7 1007 92 10000 3.09 200 21:20 21.12.2022
567 Clouds 7 1007 93 10000 3.09 200 20:40 21.12.2022
568 Clouds 5 1007 95 8000 2.06 180 19:58 21.12.2022
569 Rain 6 1007 95 8000 2.06 180 19:39 21.12.2022
570 Rain 5 1007 95 7000 2.57 180 19:20 21.12.2022
571 Clouds 6 1008 95 7000 2.57 210 18:43 21.12.2022
572 Clouds 5 1008 95 7000 3.09 190 17:34 21.12.2022
573 Clouds 8 1008 93 9000 3.6 220 14:24 21.12.2022
574 Mist 8 1009 96 5000 2.06 230 12:30 21.12.2022
575 Mist 8 1009 99 3600 2.06 230 11:41 21.12.2022
576 Fog 7 1009 99 1000 1.54 210 11:19 21.12.2022
577 Clouds 7 1010 98 10000 2.76 212 08:51 21.12.2022
578 Fog 7 1009 99 450 1.54 230 06:59 21.12.2022
579 Mist 9 1009 99 4000 2.57 200 00:32 21.12.2022
580 Rain 9 1009 99 5000 2.57 200 22:38 20.12.2022
581 Drizzle 10 1009 95 8000 3.09 210 21:18 20.12.2022
582 Drizzle 10 1009 95 9000 3.6 210 20:18 20.12.2022
583 Drizzle 10 1009 95 10000 3.6 210 18:49 20.12.2022
584 Clouds 10 1009 95 10000 4.12 210 18:26 20.12.2022
585 Clouds 10 1009 95 10000 4.12 210 18:26 20.12.2022
586 Rain 10 1009 95 10000 4.12 210 17:51 20.12.2022
587 Rain 10 1009 95 10000 4.63 220 17:28 20.12.2022
588 Rain 10 1009 95 10000 4.63 220 17:28 20.12.2022
589 Rain 10 1009 92 10000 4.12 200 16:32 20.12.2022
590 Drizzle 10 1009 95 10000 5.66 210 14:57 20.12.2022
591 Drizzle 10 1009 95 10000 5.66 210 14:36 20.12.2022
592 Rain 10 1010 94 10000 4.12 210 13:56 20.12.2022
593 Rain 11 1010 84 10000 6.17 200 12:40 20.12.2022
594 Clear 10 1011 89 10000 5.14 190 11:56 20.12.2022
595 Clouds 10 1011 91 10000 4.63 190 10:47 20.12.2022
596 Rain 9 1012 94 10000 4.12 180 08:23 20.12.2022
597 Clouds 7 1014 87 10000 3.09 190 00:27 20.12.2022
598 Clouds 7 1014 90 10000 3.6 190 22:36 19.12.2022
599 Clear 8 1014 87 10000 4.63 200 21:39 19.12.2022
600 Clouds 7 1014 91 10000 4.12 200 19:53 19.12.2022
601 Clouds 7 1013 94 10000 4.12 180 19:31 19.12.2022
602 Rain 7 1014 95 10000 4.12 180 18:24 19.12.2022
603 Rain 8 1014 96 10000 4.63 200 16:35 19.12.2022
604 Rain 8 1014 96 10000 4.63 200 16:35 19.12.2022
605 Rain 6 1015 95 10000 4.12 190 13:24 19.12.2022
606 Mist 4 1015 99 5000 4.63 170 11:55 19.12.2022
607 Rain 2 1016 98 5000 4.63 160 09:19 19.12.2022
608 Rain 2 1017 92 9000 4.63 150 07:32 19.12.2022
609 Rain 0 1021 63 10000 3.6 160 02:22 19.12.2022
610 Clear -2 1023 81 10000 4.63 140 22:20 18.12.2022
611 Clear -2 1023 81 10000 4.63 140 21:41 18.12.2022
612 Clear -2 1023 81 10000 5.66 150 21:20 18.12.2022
613 Clear -2 1024 81 10000 6.69 130 19:49 18.12.2022
614 Clear -2 1024 80 10000 6.69 130 19:31 18.12.2022
615 Clear -2 1026 80 10000 6.69 130 17:53 18.12.2022
616 Clear -2 1027 84 10000 6.17 130 16:28 18.12.2022
617 Clear -2 1027 85 10000 6.17 120 15:39 18.12.2022
618 Clear -3 1027 87 10000 5.66 120 15:19 18.12.2022
619 Clear -3 1028 87 10000 3.09 130 13:37 18.12.2022
620 Clear -4 1029 88 10000 2.57 120 12:52 18.12.2022
621 Clear -4 1030 88 10000 2.06 130 12:19 18.12.2022
622 Clear -7 1030 91 10000 2.06 120 10:22 18.12.2022
623 Clear -8 1030 90 10000 1.54 130 08:47 18.12.2022
624 Clear -8 1030 90 10000 1.54 130 07:21 18.12.2022
625 Clear -8 1029 90 10000 1.03 130 06:21 18.12.2022
626 Clouds -8 1029 93 8000 1.03 0 03:40 18.12.2022
627 Clouds -7 1029 94 10000 3.15 186 00:45 18.12.2022
628 Clouds -7 1028 93 6000 1.54 140 22:21 17.12.2022
629 Clouds -4 1028 93 10000 3.14 192 19:42 17.12.2022
630 Mist -4 1027 93 5000 2.57 170 17:18 17.12.2022
631 Clear -3 1026 92 10000 3.18 196 14:44 17.12.2022
632 Mist -4 1026 92 3100 2.06 210 11:55 17.12.2022
633 Mist -5 1026 92 2700 2.06 210 10:49 17.12.2022
634 Mist -5 1025 93 2000 2.06 230 09:46 17.12.2022
635 Mist -6 1025 93 3800 1.54 210 08:34 17.12.2022
636 Clouds -5 1023 92 10000 2.48 200 06:46 17.12.2022
637 Clouds -3 1021 89 7000 1.54 140 23:58 16.12.2022
638 Clouds -5 1020 92 6000 1.03 0 21:38 16.12.2022
639 Clouds -4 1019 100 8000 0.51 0 20:24 16.12.2022
640 Clouds -5 1018 93 7000 1.03 210 17:19 16.12.2022
641 Clear 1 1016 83 10000 2.06 140 14:50 16.12.2022
642 Mist -1 1016 91 5000 1.54 120 13:50 16.12.2022
643 Clouds 0 1015 84 10000 2.35 127 12:21 16.12.2022
644 Mist -3 1015 90 5000 1.54 100 10:47 16.12.2022
645 Mist -3 1014 90 4000 1.03 0 09:33 16.12.2022
646 Clouds -4 1012 90 10000 1.54 160 08:26 16.12.2022
647 Clouds -4 1012 90 9000 1.54 140 07:54 16.12.2022
648 Clouds -3 1009 91 8000 2.06 130 23:53 15.12.2022
649 Clouds -3 1009 86 10000 2.06 160 22:33 15.12.2022
650 Clear -4 1008 86 10000 3.09 180 20:54 15.12.2022
651 Clear -3 1008 88 10000 2.06 180 19:37 15.12.2022
652 Clear -2 1007 91 10000 3.09 150 18:30 15.12.2022
653 Clear -1 1007 86 10000 2.57 200 17:27 15.12.2022
654 Clear 1 1007 81 10000 3.6 210 15:41 15.12.2022
655 Clear 1 1007 83 10000 5.14 220 14:37 15.12.2022
656 Clouds 0 1007 86 10000 4.63 220 12:47 15.12.2022
657 Clouds -2 1007 88 10000 4.12 220 10:41 15.12.2022
658 Clear -5 1006 91 10000 3.09 210 08:55 15.12.2022
659 Clear -6 1005 91 10000 2.57 210 07:58 15.12.2022
660 Clear -6 1004 95 10000 1.03 0 05:36 15.12.2022
661 Clear -8 1003 94 8000 2.06 180 22:35 14.12.2022
662 Fog -7 1003 95 350 0.51 0 21:23 14.12.2022
663 Fog -7 1003 95 1000 1.54 210 20:36 14.12.2022
664 Mist -7 1003 94 3800 1.03 170 19:34 14.12.2022
665 Clear -5 1002 88 10000 1.03 140 16:58 14.12.2022
666 Clear -4 1002 88 10000 2.57 140 16:19 14.12.2022
667 Clear -3 1002 85 10000 1.03 0 14:50 14.12.2022
668 Clear -3 1003 80 10000 2.06 90 12:56 14.12.2022
669 Clear -6 1004 86 10000 1.03 0 10:45 14.12.2022
670 Clear -7 1004 86 10000 1.54 90 10:21 14.12.2022
671 Clear -8 1005 86 10000 2.06 130 06:37 14.12.2022
672 Fog -6 1009 96 650 1.03 140 21:57 13.12.2022
673 Fog -6 1009 96 4000 1.54 140 21:37 13.12.2022
674 Mist -5 1009 96 2700 1.54 150 20:47 13.12.2022
675 Fog -5 1010 94 2100 2.06 170 19:21 13.12.2022
676 Clouds -3 1011 92 6000 2.06 190 16:40 13.12.2022
677 Clouds -2 1011 88 9000 1.54 180 14:59 13.12.2022
678 Clouds -1 1011 88 9000 1.54 180 14:59 13.12.2022
679 Clouds -2 1011 88 7000 1.54 170 13:37 13.12.2022
680 Fog -4 1012 92 450 2.57 180 10:49 13.12.2022
681 Fog -4 1012 93 500 2.57 160 10:26 13.12.2022
682 Clouds -5 1012 90 7000 0.51 0 08:30 13.12.2022
683 Clouds -5 1012 90 7000 0.51 0 08:30 13.12.2022
684 Clouds -6 1013 93 6000 1.03 90 22:37 12.12.2022
685 Clouds -6 1013 93 6000 1.03 90 22:37 12.12.2022
686 Fog -6 1013 93 1800 1.54 110 21:59 12.12.2022
687 Mist -5 1013 93 4400 1.03 140 20:30 12.12.2022
688 Clear -4 1013 92 10000 0.51 0 18:25 12.12.2022
689 Clear -1 1013 82 10000 1.54 200 15:41 12.12.2022
690 Clear 0 1013 79 10000 1.03 0 14:25 12.12.2022
691 Mist -6 1013 91 5000 1.03 100 09:46 12.12.2022
692 Mist -6 1013 94 4100 1.54 120 09:18 12.12.2022
693 Fog -6 1012 94 800 1.03 170 04:52 12.12.2022
694 Mist -4 1011 94 2600 1.54 270 01:51 12.12.2022
695 Mist -3 1011 91 5000 2.06 100 22:18 11.12.2022
696 Clouds -2 1011 92 7000 0.51 120 20:40 11.12.2022
697 Clouds -2 1011 92 7000 1.54 150 19:39 11.12.2022
698 Clouds -1 1011 89 9000 2.06 130 18:55 11.12.2022
699 Clouds -1 1011 89 9000 2.06 130 17:55 11.12.2022
700 Clouds -1 1011 89 10000 1.54 120 17:26 11.12.2022
701 Clouds -1 1010 89 10000 1.54 90 16:49 11.12.2022
702 Clouds -1 1010 91 10000 0.51 0 15:45 11.12.2022
703 Clouds -1 1010 88 10000 2.57 160 13:39 11.12.2022
704 Clouds -1 1011 87 10000 2.06 130 12:42 11.12.2022
705 Clouds -1 1011 87 10000 3.09 130 10:44 11.12.2022
706 Clouds -1 1011 87 10000 2.57 130 03:39 11.12.2022
707 Clouds -1 1011 86 10000 2.57 120 00:28 11.12.2022
708 Clouds -1 1012 87 10000 2.57 130 22:50 10.12.2022
709 Clouds -1 1012 89 10000 4.12 120 22:32 10.12.2022
710 Clouds -1 1012 89 10000 3.09 130 21:18 10.12.2022
711 Clouds -1 1012 89 10000 2.57 140 20:24 10.12.2022
712 Clouds 0 1011 86 10000 2.57 130 18:22 10.12.2022
713 Clouds 0 1011 85 10000 2.57 140 16:47 10.12.2022
714 Clouds 0 1011 85 10000 2.06 150 15:53 10.12.2022
715 Clouds 0 1011 85 10000 2.06 150 15:33 10.12.2022
716 Clouds 1 1010 82 10000 3.09 140 13:56 10.12.2022
717 Clouds 1 1010 83 10000 2.06 130 12:45 10.12.2022
718 Clouds 0 1010 88 10000 1.03 0 11:26 10.12.2022
719 Mist 0 1010 91 5000 1.54 160 10:26 10.12.2022
720 Clouds 0 1009 91 7000 2.06 140 07:42 10.12.2022
721 Clouds 0 1009 90 7000 1.54 120 07:18 10.12.2022
722 Clouds 0 1008 94 6000 2.06 130 23:53 09.12.2022
723 Clouds 0 1008 94 6000 1.54 140 22:43 09.12.2022
724 Mist 0 1008 94 5000 1.54 120 21:47 09.12.2022
725 Mist 0 1007 94 5000 1.03 0 21:20 09.12.2022
726 Mist 0 1007 97 5000 2.06 130 19:49 09.12.2022
727 Mist 0 1007 94 5000 2.06 160 18:36 09.12.2022
728 Clouds 0 1007 94 6000 2.57 190 17:44 09.12.2022
729 Mist 0 1006 94 5000 1.54 190 16:29 09.12.2022
730 Clouds 1 1006 94 6000 2.06 200 15:32 09.12.2022
731 Mist 0 1006 98 3300 2.57 210 14:23 09.12.2022
732 Fog -1 1007 94 450 2.06 170 10:51 09.12.2022
733 Fog -1 1007 96 400 0.51 0 10:29 09.12.2022
734 Fog -2 1006 97 2900 1.03 0 08:23 09.12.2022
735 Clear -1 1007 94 7000 1.54 150 03:18 09.12.2022
736 Clouds 0 1007 94 6000 1.03 210 23:36 08.12.2022
737 Fog -1 1006 96 800 1.03 0 20:56 08.12.2022
738 Fog -1 1006 96 500 1.03 190 20:20 08.12.2022
739 Clouds 1 1005 90 10000 2.57 250 16:51 08.12.2022
740 Clouds 4 1005 88 10000 4.12 250 14:43 08.12.2022
741 Clouds 4 1005 88 10000 4.63 280 14:20 08.12.2022
742 Clouds 2 1005 93 10000 4.12 280 10:49 08.12.2022
743 Clouds 2 1005 94 10000 5.14 260 09:34 08.12.2022
744 Clouds 2 1005 94 10000 6.17 250 08:58 08.12.2022
745 Clouds 2 1008 94 10000 3.09 230 22:44 07.12.2022
746 Clouds 2 1009 94 10000 3.09 240 22:19 07.12.2022
747 Clouds 2 1009 94 10000 3.09 240 22:19 07.12.2022
748 Clouds 2 1009 94 10000 3.09 240 21:47 07.12.2022
749 Clouds 1 1009 97 10000 1.54 250 20:36 07.12.2022
750 Clouds 2 1011 94 10000 4.63 290 18:41 07.12.2022
751 Rain 3 1011 92 10000 4.12 270 16:21 07.12.2022
752 Clouds 4 1011 92 10000 4.12 300 14:40 07.12.2022
753 Clouds 3 1012 94 10000 5.66 260 11:37 07.12.2022
754 Clouds 3 1013 95 10000 5.66 270 10:36 07.12.2022
755 Clouds 2 1012 94 10000 4.12 270 09:36 07.12.2022
756 Clouds 2 1012 94 10000 3.09 290 08:36 07.12.2022
757 Clouds 3 1012 94 10000 4.63 280 05:28 07.12.2022
758 Clouds 2 1013 95 10000 3.6 270 03:55 07.12.2022
759 Mist 2 1014 97 5000 1.54 220 22:35 06.12.2022
760 Fog 0 1015 94 700 0.51 0 19:45 06.12.2022
761 Clear 1 1016 94 10000 1.54 250 17:39 06.12.2022
762 Clouds 1 1016 94 10000 2.57 280 16:40 06.12.2022
763 Clouds 4 1016 91 10000 1.54 300 15:40 06.12.2022
764 Clouds 4 1016 91 10000 2.57 300 14:55 06.12.2022
765 Clouds 4 1017 91 10000 2.57 310 14:24 06.12.2022
766 Clouds 4 1017 94 10000 3.09 300 12:51 06.12.2022
767 Clouds 4 1017 94 10000 3.6 300 12:28 06.12.2022
768 Clouds 4 1017 94 6000 3.6 340 07:59 06.12.2022
769 Clouds 4 1017 94 10000 3.6 350 05:56 06.12.2022
770 Mist 3 1018 97 3700 1.54 270 01:25 06.12.2022
771 Clouds 2 1019 94 7000 1.54 240 22:34 05.12.2022
772 Clouds 2 1019 97 10000 1.03 200 20:55 05.12.2022
773 Clouds 2 1019 97 10000 1.03 200 20:55 05.12.2022
774 Clouds 2 1019 94 7000 1.03 240 20:26 05.12.2022
775 Rain 2 1019 97 9000 0.51 0 19:45 05.12.2022
776 Rain 2 1019 97 10000 0.51 60 17:49 05.12.2022
777 Rain 2 1018 97 9000 1.54 50 16:42 05.12.2022
778 Drizzle 3 1018 94 7000 1.54 70 15:22 05.12.2022
779 Rain 4 1019 94 10000 1.54 100 12:59 05.12.2022
780 Rain 4 1019 94 10000 1.54 100 12:40 05.12.2022
781 Rain 4 1019 94 7000 2.06 120 12:19 05.12.2022
782 Drizzle 4 1019 94 9000 2.57 70 10:58 05.12.2022
783 Clouds 4 1019 87 10000 5.14 50 00:21 05.12.2022
784 Clouds 4 1019 87 10000 5.66 50 22:45 04.12.2022
785 Clouds 4 1019 87 10000 5.66 40 22:20 04.12.2022
786 Clouds 3 1020 93 10000 5.66 40 21:59 04.12.2022
787 Clouds 3 1020 89 9000 5.14 50 20:53 04.12.2022
788 Clouds 3 1020 89 10000 5.14 60 19:39 04.12.2022
789 Clouds 3 1020 89 10000 5.14 60 19:18 04.12.2022
790 Clouds 2 1019 90 10000 6.17 50 17:24 04.12.2022
791 Clouds 2 1019 90 10000 5.66 50 16:59 04.12.2022
792 Clouds 2 1019 90 10000 6.17 50 16:36 04.12.2022
793 Clouds 2 1019 90 10000 6.17 50 16:18 04.12.2022
794 Clouds 2 1020 90 10000 5.66 50 14:46 04.12.2022
795 Clouds 2 1020 88 10000 4.63 70 13:38 04.12.2022
796 Clouds 1 1021 90 9000 6.17 70 12:44 04.12.2022
797 Clouds 1 1021 90 10000 4.63 60 11:59 04.12.2022
798 Clouds 0 1021 90 9000 5.66 60 09:40 04.12.2022
799 Clouds 0 1021 90 9000 5.14 80 07:33 04.12.2022
800 Clouds -1 1021 89 9000 4.12 80 02:22 04.12.2022
801 Clouds -1 1022 88 9000 4.63 80 23:43 03.12.2022
802 Clouds 0 1022 87 10000 4.63 80 22:24 03.12.2022
803 Clouds 0 1022 87 10000 4.12 90 21:39 03.12.2022
804 Clouds 0 1022 86 10000 4.12 80 20:35 03.12.2022
805 Clouds 0 1022 86 9000 2.57 100 18:40 03.12.2022
806 Clouds 1 1022 86 10000 3.09 90 17:27 03.12.2022
807 Clouds 1 1022 83 10000 4.63 100 15:48 03.12.2022
808 Clouds 1 1024 84 10000 5.66 80 12:56 03.12.2022
809 Clouds 0 1024 86 10000 5.14 60 12:28 03.12.2022
810 Clouds 0 1025 87 10000 3.6 80 10:30 03.12.2022
811 Clouds 0 1025 86 10000 4.63 80 07:58 03.12.2022
812 Clouds 3 1025 85 10000 5.14 70 01:31 03.12.2022
813 Clouds 3 1025 88 10000 3.6 50 23:26 02.12.2022
814 Clouds 2 1026 86 10000 3.6 40 21:34 02.12.2022
815 Clouds 2 1027 86 10000 4.12 60 19:37 02.12.2022
816 Clouds 2 1026 87 10000 5.14 70 16:23 02.12.2022
817 Clouds 2 1026 87 10000 5.66 70 15:53 02.12.2022
818 Clouds 2 1026 87 10000 5.14 70 14:28 02.12.2022
819 Clouds 2 1026 87 10000 5.14 70 13:42 02.12.2022
820 Clouds 2 1027 88 8000 4.63 80 11:48 02.12.2022
821 Clouds 1 1027 91 6000 5.14 60 10:26 02.12.2022
822 Clouds 1 1026 91 7000 4.63 70 07:48 02.12.2022
823 Clouds 1 1026 91 6000 5.14 70 07:18 02.12.2022
824 Clouds 2 1028 92 8000 2.57 70 22:50 01.12.2022
825 Clouds 2 1028 91 10000 3.6 60 21:41 01.12.2022
826 Clouds 2 1028 91 10000 3.6 50 20:37 01.12.2022
827 Clouds 2 1028 94 7000 4.63 70 18:58 01.12.2022
828 Clouds 3 1028 91 8000 2.57 80 17:21 01.12.2022
829 Clouds 4 1028 91 10000 3.09 70 14:32 01.12.2022
830 Clouds 4 1029 93 6000 3.6 80 11:20 01.12.2022
831 Mist 4 1028 93 5000 3.6 60 09:54 01.12.2022
832 Mist 4 1028 95 5000 3.09 50 09:36 01.12.2022
833 Mist 4 1027 95 5000 2.57 60 06:38 01.12.2022
834 Clouds 5 1027 95 6000 3.09 70 22:41 30.11.2022
835 Mist 5 1027 95 5000 3.09 50 21:45 30.11.2022
836 Mist 5 1027 95 4800 2.57 50 21:18 30.11.2022
837 Clouds 5 1026 95 7000 2.06 60 20:23 30.11.2022
838 Clouds 5 1026 95 6000 2.57 60 18:50 30.11.2022
839 Clouds 5 1025 94 7000 3.09 40 18:31 30.11.2022
840 Clouds 5 1025 94 7000 2.57 40 16:38 30.11.2022
841 Mist 5 1025 95 5000 2.57 70 14:46 30.11.2022
842 Mist 5 1024 95 5000 3.09 60 14:26 30.11.2022
843 Mist 5 1024 95 5000 3.09 60 14:26 30.11.2022
844 Mist 5 1024 95 5000 2.57 60 12:21 30.11.2022
845 Mist 5 1024 95 4400 2.57 60 09:38 30.11.2022
846 Clouds 4 1023 97 6000 2.06 80 08:27 30.11.2022
847 Mist 4 1023 97 4600 3.09 60 06:42 30.11.2022
848 Rain 5 1021 97 3100 2.57 100 23:29 29.11.2022
849 Rain 5 1021 97 3100 2.57 100 23:29 29.11.2022
850 Drizzle 5 1021 97 2900 3.09 100 22:19 29.11.2022
851 Mist 5 1020 97 3100 3.6 110 20:52 29.11.2022
852 Drizzle 5 1020 97 2500 3.6 110 20:28 29.11.2022
853 Mist 6 1019 94 2700 3.09 100 18:44 29.11.2022
854 Drizzle 6 1019 94 2600 3.6 120 16:51 29.11.2022
855 Drizzle 6 1018 97 3000 2.57 130 15:38 29.11.2022
856 Drizzle 6 1018 94 2700 2.06 120 14:48 29.11.2022
857 Drizzle 5 1018 97 5000 2.57 140 12:38 29.11.2022
858 Rain 5 1018 95 3500 2.57 130 11:31 29.11.2022
859 Mist 5 1017 95 5000 2.57 130 10:31 29.11.2022
860 Mist 5 1017 95 3700 2.57 120 09:28 29.11.2022
861 Mist 5 1016 95 5000 1.54 110 07:27 29.11.2022
862 Drizzle 5 1014 94 4200 2.06 110 00:33 29.11.2022
863 Rain 5 1014 94 10000 2.06 120 23:27 28.11.2022
864 Rain 5 1013 94 10000 1.54 110 22:22 28.11.2022
865 Clouds 5 1013 94 10000 2.06 120 21:43 28.11.2022
866 Drizzle 5 1013 95 10000 2.57 120 20:30 28.11.2022
867 Drizzle 5 1012 94 10000 2.06 120 19:37 28.11.2022
868 Rain 5 1012 94 10000 3.09 130 18:29 28.11.2022
869 Rain 5 1012 94 10000 3.09 130 17:35 28.11.2022
870 Clouds 5 1011 95 10000 4.12 130 15:19 28.11.2022
871 Rain 5 1011 95 10000 4.12 130 13:57 28.11.2022
872 Drizzle 5 1011 95 10000 3.6 130 13:37 28.11.2022
873 Rain 5 1011 95 10000 5.14 140 11:49 28.11.2022
874 Mist 5 1011 95 4500 4.12 140 09:27 28.11.2022
875 Mist 5 1011 95 4500 4.12 140 09:27 28.11.2022
876 Rain 6 1011 87 10000 5.14 140 04:58 28.11.2022
877 Rain 6 1011 87 10000 5.14 140 04:40 28.11.2022
878 Rain 6 1012 90 10000 4.63 130 03:23 28.11.2022
879 Rain 6 1013 92 10000 5.66 120 00:43 28.11.2022
880 Rain 6 1016 92 10000 3.6 130 22:28 27.11.2022
881 Rain 6 1016 91 10000 4.63 130 21:19 27.11.2022
882 Rain 6 1017 93 10000 2.57 130 19:28 27.11.2022
883 Rain 6 1019 90 10000 3.09 120 16:45 27.11.2022
884 Rain 6 1021 87 10000 2.57 140 14:29 27.11.2022
885 Rain 5 1022 91 10000 3.09 150 12:31 27.11.2022
886 Clear 3 1023 94 10000 3.09 130 10:40 27.11.2022
887 Clear 3 1024 95 10000 4.12 140 07:57 27.11.2022
888 Clouds 5 1028 96 7000 2.06 190 23:43 26.11.2022
889 Mist 6 1027 99 4300 1.54 150 21:58 26.11.2022
890 Clouds 7 1027 96 7000 2.57 180 20:51 26.11.2022
891 Mist 7 1028 96 5000 2.06 150 19:22 26.11.2022
892 Clouds 8 1028 96 7000 3.09 190 16:59 26.11.2022
893 Clouds 8 1028 96 7000 2.57 200 15:38 26.11.2022
894 Mist 7 1028 96 3500 3.09 200 12:55 26.11.2022
895 Fog 6 1028 99 750 2.57 210 11:24 26.11.2022
896 Fog 4 1027 99 500 2.57 220 09:45 26.11.2022
897 Fog 4 1027 99 500 2.06 220 08:49 26.11.2022
898 Clouds 6 1022 91 10000 2.98 256 00:20 26.11.2022
899 Clear 7 1020 92 10000 2.06 260 21:41 25.11.2022
900 Clouds 7 1020 91 10000 3.75 261 21:20 25.11.2022
901 Clouds 8 1018 89 10000 3.09 240 19:48 25.11.2022
902 Clouds 9 1016 89 10000 2.57 210 16:43 25.11.2022
903 Clouds 9 1014 90 10000 4.63 220 13:50 25.11.2022
904 Clouds 5 1012 92 10000 3.09 140 09:21 25.11.2022
905 Rain 5 1012 92 10000 2.57 130 08:40 25.11.2022
906 Clouds 5 1011 91 10000 3.6 140 06:53 25.11.2022
907 Clear 4 1011 91 10000 3.09 140 03:35 25.11.2022
908 Fog 4 1012 94 5000 2.57 130 23:53 24.11.2022
909 Fog 4 1013 91 700 1.54 140 22:50 24.11.2022
910 Fog 4 1012 94 900 2.06 140 21:58 24.11.2022
911 Fog 5 1012 91 5000 2.57 160 19:53 24.11.2022
912 Clouds 6 1012 90 10000 2.06 160 18:19 24.11.2022
913 Clear 6 1011 87 10000 2.57 150 17:38 24.11.2022
914 Clear 6 1011 87 10000 2.57 180 17:20 24.11.2022
915 Clouds 9 1010 83 10000 4.12 230 14:37 24.11.2022
916 Clouds 10 1009 81 10000 4.63 220 13:45 24.11.2022
917 -273 0 0 0 0 0 11:54 24.11.2022
918 Clouds 9 1008 84 10000 4.12 210 11:53 24.11.2022
919 Clouds 7 1008 89 10000 3.6 200 10:34 24.11.2022
920 Clouds 5 1007 91 10000 4.29 214 07:44 24.11.2022
921 Clouds 5 1003 91 10000 2.57 160 01:56 24.11.2022
922 Clouds 6 1002 91 10000 3.6 170 23:32 23.11.2022
923 Rain 6 1001 85 10000 4.12 150 21:56 23.11.2022
924 Clouds 6 1001 83 10000 4.12 150 21:19 23.11.2022
925 Clear 6 1000 83 10000 4.12 140 19:58 23.11.2022
926 Clear 6 1000 83 10000 4.12 150 18:58 23.11.2022
927 Clear 6 1000 83 10000 4.12 150 18:35 23.11.2022
928 Clouds 9 999 81 10000 3.6 150 16:24 23.11.2022
929 Clouds 9 999 83 10000 5.14 180 13:39 23.11.2022
930 Clouds 9 999 83 10000 4.63 170 13:19 23.11.2022
931 Clouds 8 999 86 10000 4.63 170 11:59 23.11.2022
932 Clouds 8 999 70 10000 4.63 170 11:41 23.11.2022
933 Clouds 7 999 91 10000 4.12 150 10:42 23.11.2022
934 Clouds 7 999 91 10000 4.12 150 09:42 23.11.2022
935 Clouds 7 999 89 10000 4.12 150 09:24 23.11.2022
936 Clouds 7 998 89 10000 3.09 140 08:36 23.11.2022
937 Clouds 6 997 91 8000 4.63 140 05:22 23.11.2022
938 Clouds 6 997 91 10000 4.63 140 04:22 23.11.2022
939 Clouds 4 997 89 10000 4.63 130 22:59 22.11.2022
940 Clouds 4 997 91 10000 4.63 130 22:33 22.11.2022
941 Clouds 4 997 90 10000 4.12 120 21:34 22.11.2022
942 Clouds 4 997 89 10000 4.63 120 20:45 22.11.2022
943 Clouds 4 997 89 10000 4.63 120 20:45 22.11.2022
944 Clouds 4 997 91 10000 4.63 120 19:54 22.11.2022
945 Clouds 5 996 88 10000 4.63 110 17:56 22.11.2022
946 Clouds 5 996 89 10000 4.63 110 17:21 22.11.2022
947 Clouds 5 996 88 10000 4.63 110 17:21 22.11.2022
948 Clouds 5 996 88 10000 4.63 110 17:21 22.11.2022
949 Clouds 6 996 88 10000 4.12 120 15:51 22.11.2022
950 Clear 6 996 88 10000 5.14 130 13:44 22.11.2022
951 Clouds 3 996 92 7000 4.63 130 11:40 22.11.2022
952 Clouds 2 995 93 6000 4.63 130 09:20 22.11.2022
953 Clouds 1 995 93 6000 5.14 130 07:20 22.11.2022
954 Snow 0 996 93 10000 5.14 120 01:49 22.11.2022
955 Mist 0 997 93 3200 6.17 120 23:40 21.11.2022
956 Clouds -1 998 93 10000 5.66 120 22:43 21.11.2022
957 Clear -1 998 90 10000 3.6 120 21:59 21.11.2022
958 Clear -1 998 90 10000 5.14 120 20:53 21.11.2022
959 Clouds -1 999 92 10000 4.12 110 19:42 21.11.2022
960 Clouds 0 1000 90 10000 4.63 130 18:54 21.11.2022
961 Clear 0 1000 90 10000 4.63 120 18:25 21.11.2022
962 Clear 1 1001 88 10000 4.12 120 16:56 21.11.2022
963 Clear 1 1001 87 10000 4.12 120 16:37 21.11.2022
964 Clear 2 1001 84 10000 3.09 130 15:50 21.11.2022
965 Clear 2 1001 84 10000 3.09 130 15:50 21.11.2022
966 Clear 3 1002 81 10000 3.6 140 14:55 21.11.2022
967 Clear 3 1002 84 10000 3.6 160 13:44 21.11.2022
968 Clear 0 1004 94 10000 2.57 170 11:38 21.11.2022
969 Fog -4 1005 98 350 1.03 110 09:18 21.11.2022
970 Fog -4 1005 93 450 1.03 150 07:39 21.11.2022
971 Clear -2 1005 93 10000 2.06 80 22:43 20.11.2022
972 Clear -1 1006 93 10000 1.54 100 21:36 20.11.2022
973 Clear -1 1006 93 10000 1.54 90 21:36 20.11.2022
974 Clear -1 1006 91 10000 1.54 120 20:32 20.11.2022
975 Clear -1 1007 92 10000 1.03 150 18:39 20.11.2022
976 Clouds 0 1008 92 10000 1.54 170 16:46 20.11.2022
977 Clouds 1 1009 90 10000 1.54 170 15:30 20.11.2022
978 Mist 1 1009 90 3700 0.51 230 14:54 20.11.2022
979 Clouds 2 1010 87 10000 3.6 250 13:34 20.11.2022
980 Clouds 1 1010 88 7000 2.06 260 12:44 20.11.2022
981 Snow 1 1010 90 10000 2.57 260 11:31 20.11.2022
982 Snow 1 1010 90 10000 2.57 260 10:51 20.11.2022
983 Snow 0 1010 93 10000 1.54 260 09:29 20.11.2022
984 Clouds 0 1010 91 10000 2.57 220 08:41 20.11.2022
985 Clouds 0 1011 90 10000 1.54 270 07:30 20.11.2022
986 Clouds 0 1011 93 10000 1.03 250 05:23 20.11.2022
987 Clouds 0 1013 95 9000 1.54 240 01:23 20.11.2022
988 Clouds 0 1013 93 10000 1.03 250 00:42 20.11.2022
989 Clouds 0 1013 93 10000 1.54 240 00:24 20.11.2022
990 Clouds 0 1013 91 10000 1.03 220 23:54 19.11.2022
991 Clouds -1 1013 93 10000 1.03 0 23:25 19.11.2022
992 Clouds -1 1013 93 10000 1.54 240 22:41 19.11.2022
993 Clouds -1 1014 93 10000 1.54 290 21:36 19.11.2022
994 Clouds -1 1014 93 10000 1.54 290 21:18 19.11.2022
995 Clear -2 1014 96 10000 1.03 240 20:38 19.11.2022
996 Clear -1 1014 93 10000 1.54 250 19:35 19.11.2022
997 Clear 0 1014 89 10000 1.54 300 17:43 19.11.2022
998 Clear 0 1014 86 10000 2.06 300 17:25 19.11.2022
999 Clear 1 1014 82 10000 3.09 310 16:35 19.11.2022
1000 Clear 3 1015 77 10000 1.03 0 14:43 19.11.2022
1001 Clear 2 1015 74 10000 1.54 210 12:54 19.11.2022
1002 Clear 1 1016 76 10000 1.03 0 11:20 19.11.2022
1003 Clear -2 1016 87 10000 2.06 50 09:45 19.11.2022
1004 Clear -4 1015 85 10000 2.57 70 07:52 19.11.2022
1005 Clear -3 1015 85 10000 4.12 70 04:44 19.11.2022
1006 Clear -2 1013 85 10000 4.12 80 00:43 19.11.2022
1007 Clear -1 1012 83 10000 5.14 100 23:30 18.11.2022
1008 Clear -1 1012 82 10000 5.14 100 23:30 18.11.2022
1009 Clear 0 1012 80 10000 5.14 100 22:22 18.11.2022
1010 Clear 0 1011 79 10000 4.63 110 21:35 18.11.2022
1011 Clear 1 1011 78 10000 5.66 100 20:56 18.11.2022
1012 Clear 1 1011 77 10000 6.69 100 20:21 18.11.2022
1013 Clear 1 1010 77 10000 6.17 90 19:36 18.11.2022
1014 Clouds 1 1009 81 10000 4.63 100 17:45 18.11.2022
1015 Clouds 1 1008 87 10000 6.69 90 15:59 18.11.2022
1016 Clouds 2 1006 91 6000 6.17 90 11:52 18.11.2022
1017 Clouds 2 1004 92 10000 6.17 90 10:22 18.11.2022
1018 Clouds 3 1002 92 10000 6.17 90 07:52 18.11.2022
1019 Clouds 4 1001 92 10000 5.66 90 05:27 18.11.2022
1020 Clouds 5 999 92 10000 5.14 100 02:25 18.11.2022
1021 Rain 5 998 90 10000 5.66 100 23:29 17.11.2022
1022 Clouds 5 997 92 10000 6.69 110 20:48 17.11.2022
1023 Clouds 5 996 90 10000 7.2 110 19:54 17.11.2022
1024 Clouds 5 996 92 10000 6.69 110 19:25 17.11.2022
1025 Clouds 5 996 92 10000 7.72 110 18:27 17.11.2022
1026 Clouds 5 995 92 10000 7.72 110 17:30 17.11.2022
1027 Drizzle 5 995 92 10000 7.72 110 15:45 17.11.2022
1028 Clouds 5 994 90 10000 9.77 110 12:19 17.11.2022
1029 Rain 4 994 92 10000 9.26 110 10:35 17.11.2022
1030 Clouds 5 995 88 10000 10.29 110 07:35 17.11.2022
1031 Clouds 7 1000 87 10000 9.26 120 00:54 17.11.2022
1032 Clouds 7 1001 89 10000 6.69 120 23:21 16.11.2022
1033 Clouds 7 1001 90 10000 7.2 110 22:19 16.11.2022
1034 Clouds 7 1002 92 10000 6.17 110 20:31 16.11.2022
1035 Clouds 7 1002 92 10000 6.17 110 18:49 16.11.2022
1036 Clouds 7 1002 92 10000 6.17 110 18:49 16.11.2022
1037 Clouds 7 1002 92 10000 6.17 120 18:30 16.11.2022
1038 Clouds 7 1002 92 10000 6.69 110 15:41 16.11.2022
1039 Rain 8 1002 92 6000 6.17 120 11:54 16.11.2022
1040 Rain 9 1001 89 10000 6.69 120 07:45 16.11.2022
1041 Rain 12 1002 80 10000 4.63 110 01:42 16.11.2022
1042 Clear 12 1003 81 10000 3.6 110 23:36 15.11.2022
1043 Clear 12 1004 82 10000 4.63 120 21:42 15.11.2022
1044 Clear 12 1005 81 10000 3.6 120 20:19 15.11.2022
1045 Clear 11 1005 82 10000 4.12 120 18:53 15.11.2022
1046 Clouds 11 1006 83 10000 4.75 131 17:37 15.11.2022
1047 Clear 13 1006 73 10000 2.57 140 16:20 15.11.2022
1048 Clouds 14 1007 71 10000 4.12 170 15:39 15.11.2022
1049 Clouds 15 1007 71 10000 4.63 180 14:41 15.11.2022
1050 Clouds 14 1008 81 10000 4.12 150 12:58 15.11.2022
1051 Clouds 12 1009 85 10000 3.6 130 11:22 15.11.2022
1052 Clear 11 1009 88 10000 3.09 130 09:43 15.11.2022
1053 Clouds 7 1009 88 10000 2.57 140 03:48 15.11.2022
1054 Clouds 7 1010 88 10000 3.6 130 00:26 15.11.2022
1055 Clouds 7 1010 89 10000 4.12 110 22:52 14.11.2022
1056 Clear 6 1012 91 10000 4.12 110 20:53 14.11.2022
1057 Clear 6 1012 89 10000 4.63 110 20:30 14.11.2022
1058 Clear 6 1013 89 10000 3.6 110 18:28 14.11.2022
1059 Clouds 7 1015 87 10000 5.14 120 13:21 14.11.2022
1060 Clouds 7 1016 86 9000 5.66 110 11:49 14.11.2022
1061 Clouds 7 1016 87 8000 6.17 110 11:28 14.11.2022
1062 Clouds 7 1017 88 8000 5.14 130 08:48 14.11.2022
1063 Clouds 6 1016 89 10000 5.14 120 07:53 14.11.2022
1064 Clouds 7 1017 87 10000 6.69 120 05:46 14.11.2022
1065 Clouds 8 1021 87 10000 3.09 100 23:24 13.11.2022
1066 Clouds 8 1022 89 10000 5.66 110 21:43 13.11.2022
1067 Clouds 8 1022 89 10000 5.66 110 21:43 13.11.2022
1068 Clouds 8 1022 89 10000 5.14 110 20:54 13.11.2022
1069 Clouds 7 1023 91 10000 5.14 110 19:24 13.11.2022
1070 Clouds 7 1024 90 10000 5.66 120 17:51 13.11.2022
1071 Clear 7 1024 87 10000 4.63 100 16:56 13.11.2022
1072 Clear 12 1024 72 10000 3.6 110 14:54 13.11.2022
1073 Clear 11 1025 75 10000 4.12 110 13:26 13.11.2022
1074 Clear 10 1025 78 10000 4.12 110 12:34 13.11.2022
1075 Clear 10 1026 81 10000 3.6 110 12:34 13.11.2022
1076 Clear 10 1025 78 10000 4.12 110 12:34 13.11.2022
1077 Clear 10 1025 78 10000 4.12 110 12:34 13.11.2022
1078 Clear 7 1026 87 10000 3.09 110 10:51 13.11.2022
1079 Fog 4 1027 93 6000 1.54 90 07:39 13.11.2022
1080 Clear 5 1029 95 10000 1.54 90 00:44 13.11.2022
1081 Clear 6 1030 93 10000 2.57 130 21:59 12.11.2022
1082 Mist 6 1030 96 2000 1.54 140 21:23 12.11.2022
1083 Clear 6 1030 92 10000 2.06 90 19:55 12.11.2022
1084 Clear 8 1031 85 10000 0 0 17:56 12.11.2022
1085 Clear 11 1031 79 10000 1.54 140 16:22 12.11.2022
1086 Clear 12 1031 75 10000 1.54 130 14:59 12.11.2022
1087 Clear 10 1032 83 10000 1.03 0 11:59 12.11.2022
1088 Fog 2 1032 93 450 1.03 0 08:47 12.11.2022
1089 Clear 4 1031 93 8000 0.51 0 01:59 12.11.2022
1090 Mist 6 1030 95 2500 2.06 170 21:46 11.11.2022
1091 Clear 8 1030 93 10000 1.03 240 20:45 11.11.2022
1092 Clouds 9 1030 91 10000 3.88 227 19:39 11.11.2022
1093 Clear 8 1030 92 10000 1.54 210 19:19 11.11.2022
1094 Clear 10 1029 88 10000 2.06 180 17:54 11.11.2022
1095 Clear 13 1029 81 10000 5.14 230 15:50 11.11.2022
1096 Clear 14 1028 79 10000 6.69 230 14:20 11.11.2022
1097 Clouds 13 1029 82 10000 5.14 230 13:28 11.11.2022
1098 Clouds 10 1028 91 10000 3.6 210 09:37 11.11.2022
1099 Clouds 10 1028 89 10000 4.63 220 09:37 11.11.2022
1100 Clouds 10 1028 89 10000 4.63 220 09:37 11.11.2022
1101 Clouds 10 1027 89 10000 4.63 220 08:27 11.11.2022
1102 Clear 9 1026 91 10000 3.6 210 05:28 11.11.2022
1103 Clear 10 1025 85 10000 4.12 230 23:21 10.11.2022
1104 Clear 11 1025 85 10000 4.12 220 22:35 10.11.2022
1105 Clear 12 1025 84 10000 4.63 230 21:33 10.11.2022
1106 Clear 12 1024 83 10000 4.12 230 20:50 10.11.2022
1107 Clouds 13 1024 80 10000 4.12 220 20:22 10.11.2022
1108 Clouds 13 1024 80 10000 5.66 230 19:43 10.11.2022
1109 Clouds 13 1024 81 10000 5.14 220 18:32 10.11.2022
1110 Clouds 14 1023 82 10000 6.17 220 16:26 10.11.2022
1111 Clouds 14 1022 82 10000 7.2 240 13:59 10.11.2022
1112 Clouds 13 1021 84 10000 7.2 230 12:50 10.11.2022
1113 Clouds 10 1019 93 10000 5.66 230 08:50 10.11.2022
1114 Clear 9 1015 94 10000 3.6 230 04:39 10.11.2022
1115 Clear 10 1013 92 10000 5.14 250 00:31 10.11.2022
1116 Clouds 11 1012 90 10000 5.66 240 22:45 09.11.2022
1117 Clouds 11 1010 90 10000 7.2 260 20:50 09.11.2022
1118 Rain 12 1010 85 10000 6.69 240 20:31 09.11.2022
1119 Rain 11 1010 90 10000 7.25 237 19:43 09.11.2022
1120 Clouds 12 1009 83 10000 7.2 230 19:24 09.11.2022
1121 Clouds 14 1007 75 10000 5.66 220 16:57 09.11.2022
1122 Clouds 15 1007 74 10000 8.23 220 14:51 09.11.2022
1123 Clouds 15 1007 74 10000 6.17 230 14:26 09.11.2022
1124 Clouds 15 1007 74 10000 6.17 230 14:26 09.11.2022
1125 Clouds 14 1007 75 10000 8.23 230 13:34 09.11.2022
1126 Clouds 15 1007 76 10000 7.2 230 12:51 09.11.2022
1127 Clouds 13 1006 82 10000 3.6 220 09:28 09.11.2022
1128 Clouds 13 1005 83 10000 4.12 200 07:47 09.11.2022
1129 Clouds 13 1005 84 10000 4.12 170 02:33 09.11.2022
1130 Clear 13 1005 77 10000 3.6 180 22:35 08.11.2022
1131 Clear 14 1005 75 10000 4.12 180 21:37 08.11.2022
1132 Clear 14 1005 74 10000 4.63 180 20:47 08.11.2022
1133 Clear 14 1005 73 10000 4.63 190 20:18 08.11.2022
1134 Clear 14 1005 69 10000 5.14 190 19:24 08.11.2022
1135 Clear 15 1005 68 10000 5.14 180 17:35 08.11.2022
1136 Clear 16 1005 67 10000 4.63 190 15:22 08.11.2022
1137 Clear 15 1005 69 10000 6.17 180 14:31 08.11.2022
1138 Clear 15 1005 69 10000 6.17 180 14:31 08.11.2022
1139 Clear 15 1005 69 10000 6.17 180 14:31 08.11.2022
1140 Clear 15 1006 71 10000 6.69 180 13:28 08.11.2022
1141 Clear 13 1007 81 10000 5.66 150 10:58 08.11.2022
1142 Clear 10 1008 88 10000 4.63 160 07:43 08.11.2022
1143 Clear 11 1009 88 10000 5.14 190 05:27 08.11.2022
1144 Clouds 13 1010 85 10000 4.12 190 22:58 07.11.2022
1145 Clouds 13 1010 85 10000 4.63 200 21:52 07.11.2022
1146 Rain 13 1010 85 10000 4.63 200 20:54 07.11.2022
1147 Drizzle 13 1010 84 10000 4.63 200 19:42 07.11.2022
1148 Clouds 13 1009 85 10000 4.63 200 17:43 07.11.2022
1149 Clouds 13 1009 82 10000 6.17 220 15:40 07.11.2022
1150 Clouds 13 1009 83 10000 6.17 220 14:57 07.11.2022
1151 Clouds 13 1009 83 10000 6.17 220 14:57 07.11.2022
1152 Clouds 13 1009 87 10000 7.2 230 13:51 07.11.2022
1153 Clouds 13 1009 80 10000 8.23 220 12:32 07.11.2022
1154 Clouds 13 1008 82 10000 5.14 210 10:46 07.11.2022
1155 Clouds 12 1008 83 10000 5.66 210 09:19 07.11.2022
1156 Clouds 11 1007 86 10000 5.66 210 06:55 07.11.2022
1157 Clouds 11 1006 84 10000 5.66 210 02:20 07.11.2022
1158 Clouds 10 1006 83 10000 6.69 210 00:36 07.11.2022
1159 Clouds 8 1005 87 10000 5.14 150 21:52 06.11.2022
1160 Rain 9 1006 85 10000 6.17 180 21:18 06.11.2022
1161 Rain 11 1007 73 10000 5.66 170 19:58 06.11.2022
1162 Clear 11 1007 76 10000 5.66 160 19:30 06.11.2022
1163 Clear 11 1007 78 10000 4.63 160 18:21 06.11.2022
1164 Clouds 11 1008 77 10000 5.66 160 17:46 06.11.2022
1165 Clouds 11 1008 77 10000 5.66 160 17:19 06.11.2022
1166 Clear 12 1008 77 10000 6.17 160 16:30 06.11.2022
1167 Clear 12 1008 79 10000 5.14 170 15:39 06.11.2022
1168 Clear 13 1011 78 10000 6.69 200 12:48 06.11.2022
1169 Clear 12 1011 79 10000 6.69 200 11:42 06.11.2022
1170 Clouds 11 1012 81 10000 6.17 200 10:35 06.11.2022
1171 Clouds 9 1012 88 10000 5.66 200 07:44 06.11.2022
1172 Clear 9 1014 85 10000 4.63 190 00:46 06.11.2022
1173 Clouds 9 1015 85 10000 4.63 190 22:49 05.11.2022
1174 Clear 10 1016 82 10000 4.12 210 19:20 05.11.2022
1175 Clouds 10 1015 82 10000 3.09 200 16:58 05.11.2022
1176 Clouds 11 1015 80 10000 5.66 230 15:28 05.11.2022
1177 Clear 12 1015 78 10000 5.14 230 14:33 05.11.2022
1178 Clear 11 1015 80 10000 5.66 230 12:34 05.11.2022
1179 Clear 6 1015 94 10000 3.09 220 09:37 05.11.2022
1180 Fog 4 1014 97 900 1.54 230 07:25 05.11.2022
1181 Clouds 4 1014 95 10000 3.47 235 06:57 05.11.2022
1182 Clouds 6 1013 95 10000 3.43 253 02:35 05.11.2022
1183 Fog 6 1011 96 900 1.03 270 23:33 04.11.2022
1184 Mist 7 1011 96 3000 1.03 250 22:01 04.11.2022
1185 Clear 8 1009 92 10000 2.06 270 19:51 04.11.2022
1186 Clouds 10 1008 88 10000 3.09 260 17:45 04.11.2022
1187 Clouds 12 1007 81 10000 4.12 270 16:30 04.11.2022
1188 Clouds 13 1005 80 10000 6.69 250 13:21 04.11.2022
1189 Clouds 12 1005 82 10000 5.66 260 12:21 04.11.2022
1190 Clouds 10 1003 88 10000 5.14 230 09:31 04.11.2022
1191 Clouds 10 1002 87 10000 4.63 230 08:21 04.11.2022
1192 Clouds 11 1001 87 10000 6.17 220 07:26 04.11.2022
1193 Clouds 11 999 91 10000 4.63 150 00:58 04.11.2022
1194 Rain 12 1000 82 10000 4.63 140 22:25 03.11.2022
1195 Clear 12 1001 82 10000 4.63 130 20:48 03.11.2022
1196 Clear 12 1002 82 10000 4.63 140 19:43 03.11.2022
1197 Clear 12 1003 82 10000 6.17 130 18:46 03.11.2022
1198 Clear 12 1003 82 10000 5.66 130 17:40 03.11.2022
1199 Clear 13 1006 79 10000 5.14 130 15:49 03.11.2022
1200 Clear 13 1008 76 10000 5.66 160 13:51 03.11.2022
1201 Clear 13 1009 76 10000 6.17 160 12:35 03.11.2022
1202 Clear 13 1010 77 10000 5.66 170 11:44 03.11.2022
1203 Clear 9 1012 85 10000 4.63 150 08:51 03.11.2022
1204 Clear 9 1013 85 10000 3.6 160 06:47 03.11.2022
1205 Clear 8 1018 84 10000 3.09 160 21:24 02.11.2022
1206 Clear 9 1018 84 10000 3.6 180 20:34 02.11.2022
1207 Clear 9 1019 83 10000 3.6 180 19:47 02.11.2022
1208 Clear 13 1019 73 10000 3.6 210 16:35 02.11.2022
1209 Clouds 13 1019 71 10000 6.69 240 15:35 02.11.2022
1210 Clouds 14 1018 69 10000 9.77 250 14:25 02.11.2022
1211 Clouds 13 1017 74 10000 9.26 260 12:38 02.11.2022
1212 Clouds 13 1015 78 10000 9.26 240 10:45 02.11.2022
1213 Clear 12 1014 80 10000 7.72 220 08:48 02.11.2022
1214 Clear 12 1013 80 10000 4.63 190 04:48 02.11.2022
1215 Clear 11 1015 77 10000 4.63 190 23:52 01.11.2022
1216 Clear 12 1015 78 10000 3.6 190 22:19 01.11.2022
1217 Clouds 13 1016 78 10000 5.79 203 21:26 01.11.2022
1218 Clear 12 1015 78 10000 3.6 190 20:25 01.11.2022
1219 Clear 12 1015 78 10000 3.09 180 19:42 01.11.2022
1220 Clear 13 1015 77 10000 3.6 190 18:33 01.11.2022
1221 Clear 14 1015 72 10000 3.6 200 17:21 01.11.2022
1222 Clouds 16 1014 67 10000 7.72 220 15:54 01.11.2022
1223 Clouds 17 1014 65 10000 7.2 230 13:35 01.11.2022
1224 Clouds 16 1013 65 10000 9.26 240 12:27 01.11.2022
1225 Clear 16 1012 68 10000 9.26 240 11:22 01.11.2022
1226 Clouds 15 1011 85 10000 4.12 200 09:49 01.11.2022
1227 Clouds 14 1011 91 10000 3.09 170 08:38 01.11.2022
1228 Clouds 13 1010 89 9000 3.6 150 07:29 01.11.2022
1229 Clouds 13 1010 91 8000 3.6 160 06:47 01.11.2022
1230 Clouds 13 1010 91 7000 4.12 140 05:56 01.11.2022
1231 Mist 13 1011 92 5000 5.14 140 03:37 01.11.2022
1232 Clear 13 1014 91 10000 5.66 120 21:46 31.10.2022
1233 Clear 13 1016 91 10000 3.6 90 20:30 31.10.2022
1234 Clear 13 1016 91 10000 3.09 80 18:50 31.10.2022
1235 Clouds 13 1017 92 8000 2.57 90 17:48 31.10.2022
1236 Clouds 14 1017 92 6000 2.57 100 16:42 31.10.2022
1237 Fog 14 1020 88 9000 2.06 130 13:24 31.10.2022
1238 Fog 11 1021 92 150 0.51 0 10:21 31.10.2022
1239 Fog 10 1021 94 200 0.51 0 08:37 31.10.2022
1240 Fog 11 1020 94 250 0.51 0 04:49 31.10.2022
1241 Clouds 13 1019 90 10000 3.05 260 02:20 31.10.2022
1242 Clouds 13 1018 90 10000 3.46 242 23:18 30.10.2022
1243 Fog 13 1017 93 350 0.51 0 20:49 30.10.2022
1244 Fog 13 1017 93 650 0.51 160 20:27 30.10.2022
1245 Mist 15 1016 90 10000 1.54 120 18:29 30.10.2022
1246 Clear 19 1016 82 10000 2.06 140 16:18 30.10.2022
1247 Clear 21 1017 73 10000 2.06 200 13:53 30.10.2022
1248 Clear 21 1017 74 10000 2.06 180 13:18 30.10.2022
1249 Clouds 19 1017 77 10000 1.54 190 11:42 30.10.2022
1250 Mist 14 1017 87 7000 0.51 0 09:37 30.10.2022
1251 Fog 12 1016 92 1400 2.06 170 08:38 30.10.2022
1252 Clouds 12 1016 94 8000 2.06 190 03:58 30.10.2022
1253 Clear 14 1016 91 10000 3.09 130 00:28 30.10.2022
1254 Clear 15 1016 95 10000 3.09 130 23:45 29.10.2022
1255 Clouds 16 1017 89 8000 2.06 120 21:27 29.10.2022
1256 Clear 17 1017 85 10000 2.57 130 18:21 29.10.2022
1257 Clear 19 1018 83 10000 2.06 140 17:20 29.10.2022
1258 Clear 20 1018 81 10000 2.06 160 15:38 29.10.2022
1259 Clear 18 1019 84 10000 2.06 110 14:48 29.10.2022
1260 Clear 15 1020 92 10000 2.06 140 12:35 29.10.2022
1261 Clear 14 1020 92 10000 2.57 120 11:53 29.10.2022
1262 Fog 11 1020 94 550 1.03 180 07:38 29.10.2022
1263 Fog 11 1020 94 400 2.06 200 06:45 29.10.2022
1264 Fog 12 1020 93 450 1.54 200 05:53 29.10.2022
1265 Clouds 17 1020 86 10000 3.09 250 23:43 28.10.2022
1266 Clear 18 1018 79 10000 5.66 260 21:29 28.10.2022
1267 Clouds 19 1016 77 10000 3.09 220 19:36 28.10.2022
1268 Clear 19 1016 79 10000 2.57 200 18:32 28.10.2022
1269 Clear 21 1015 76 10000 2.57 170 16:46 28.10.2022
1270 Clear 22 1016 70 10000 5.14 220 14:46 28.10.2022
1271 Clear 21 1017 70 10000 4.12 210 13:20 28.10.2022
1272 Clear 19 1017 77 10000 2.57 180 11:54 28.10.2022
1273 Clear 17 1017 82 10000 2.57 160 11:31 28.10.2022
1274 Clear 16 1017 83 10000 2.06 140 10:41 28.10.2022
1275 Clear 13 1017 95 10000 2.57 140 08:40 28.10.2022
1276 Clear 13 1017 89 10000 2.06 140 05:59 28.10.2022
1277 Clear 14 1019 87 10000 1.54 150 00:47 28.10.2022
1278 Clear 15 1019 87 10000 2.06 140 23:45 27.10.2022
1279 Clear 15 1019 86 10000 1.54 130 22:32 27.10.2022
1280 Clear 16 1019 83 10000 3.6 150 20:53 27.10.2022
1281 Clear 18 1020 78 10000 3.6 140 18:30 27.10.2022
1282 Clear 19 1020 76 10000 4.12 140 16:38 27.10.2022
1283 Clear 16 1023 87 10000 3.6 150 11:35 27.10.2022
1284 Clouds 11 1022 94 8000 1.54 140 07:41 27.10.2022
1285 Fog 11 1021 93 7000 2.06 180 02:50 27.10.2022
1286 Mist 12 1020 91 6000 1.54 180 23:53 26.10.2022
1287 Clear 13 1020 91 10000 2.57 200 22:41 26.10.2022
1288 Clouds 13 1019 90 10000 1.54 210 21:33 26.10.2022
1289 Clear 16 1016 83 10000 2.57 150 18:21 26.10.2022
1290 Clear 17 1015 77 10000 3.6 150 14:54 26.10.2022
1291 Clear 15 1015 83 10000 2.57 130 13:34 26.10.2022
1292 Clear 14 1015 87 10000 3.09 140 12:32 26.10.2022
1293 Clouds 8 1015 93 8000 2.06 150 09:20 26.10.2022
1294 Clouds 7 1015 96 8000 2.06 130 08:53 26.10.2022
1295 Clouds 8 1015 93 6000 2.06 120 07:52 26.10.2022
1296 Clear 9 1016 94 10000 1.03 0 00:40 26.10.2022
1297 Clear 10 1016 91 10000 1.54 170 22:59 25.10.2022
1298 Clear 11 1016 93 10000 1.54 150 21:46 25.10.2022
1299 Clear 12 1016 89 10000 2.57 210 20:46 25.10.2022
1300 Clear 13 1015 84 10000 2.06 220 18:58 25.10.2022
1301 Clouds 15 1015 80 10000 4.63 230 17:49 25.10.2022
1302 Clouds 15 1014 81 10000 5.14 240 13:40 25.10.2022
1303 Clouds 15 1013 86 10000 4.63 240 11:38 25.10.2022
1304 Clouds 14 1013 87 10000 4.63 240 11:38 25.10.2022
1305 Clouds 14 1012 88 10000 4.12 230 10:36 25.10.2022
1306 Clouds 13 1011 91 10000 4.12 230 08:44 25.10.2022
1307 Clouds 13 1011 91 10000 4.12 220 08:18 25.10.2022
1308 Clouds 13 1011 91 10000 4.12 210 07:54 25.10.2022
1309 Clouds 13 1011 91 10000 3.6 220 06:55 25.10.2022
1310 Clouds 13 1010 89 10000 5.14 220 03:41 25.10.2022
1311 Clear 12 1009 91 10000 2.57 200 00:34 25.10.2022
1312 Clouds 13 1008 89 10000 4.12 210 23:21 24.10.2022
1313 Clouds 13 1009 89 10000 5.75 219 22:18 24.10.2022
1314 Clouds 13 1008 86 10000 4.12 220 21:32 24.10.2022
1315 Clouds 13 1008 88 10000 5.49 217 20:41 24.10.2022
1316 Clear 14 1007 85 10000 4.63 230 18:52 24.10.2022
1317 Rain 16 1006 77 10000 6.69 210 17:35 24.10.2022
1318 Clouds 17 1006 72 10000 7.2 220 16:33 24.10.2022
1319 Clouds 18 1005 71 10000 7.72 220 14:22 24.10.2022
1320 Rain 18 1005 71 10000 6.69 210 13:27 24.10.2022
1321 Clouds 18 1004 74 10000 6.17 190 11:32 24.10.2022
1322 Clear 14 1004 86 10000 3.6 170 07:57 24.10.2022
1323 Clear 15 1006 88 10000 4.12 170 00:50 24.10.2022
1324 Clear 15 1006 86 10000 4.12 140 20:43 23.10.2022
1325 Clear 15 1006 84 10000 5.14 130 19:50 23.10.2022
1326 Clear 16 1007 86 10000 5.66 130 17:55 23.10.2022
1327 Clouds 16 1008 86 10000 5.14 130 17:27 23.10.2022
1328 Clear 16 1010 87 10000 3.6 120 15:19 23.10.2022
1329 Clear 14 1013 88 10000 2.57 120 12:59 23.10.2022
1330 Clear 11 1013 93 10000 2.06 130 10:59 23.10.2022
1331 Mist 8 1014 95 4300 0.51 0 07:53 23.10.2022
1332 Fog 11 1015 93 350 1.03 170 23:39 22.10.2022
1333 Mist 12 1015 91 2700 1.54 210 22:31 22.10.2022
1334 Clear 12 1015 91 10000 2.06 210 21:42 22.10.2022
1335 Clear 13 1015 90 10000 2.57 210 20:49 22.10.2022
1336 Clear 15 1014 88 10000 2.57 220 19:45 22.10.2022
1337 Clouds 15 1014 87 10000 2.57 210 19:24 22.10.2022
1338 Clouds 16 1013 84 10000 4.12 230 17:36 22.10.2022
1339 Clouds 17 1012 81 10000 5.14 230 15:37 22.10.2022
1340 Clouds 18 1012 80 10000 6.69 230 14:39 22.10.2022
1341 Clouds 18 1012 80 10000 5.14 220 13:39 22.10.2022
1342 Fog 12 1011 99 5000 1.03 180 09:59 22.10.2022
1343 Fog 11 1011 99 5000 1.03 180 09:36 22.10.2022
1344 Fog 11 1010 95 700 1.54 160 07:45 22.10.2022
1345 Fog 12 1009 91 400 2.06 150 02:55 22.10.2022
1346 Fog 14 1009 91 6000 1.54 150 23:46 21.10.2022
1347 Rain 15 1008 91 10000 1.54 150 21:35 21.10.2022
1348 Rain 14 1008 94 9000 2.57 160 20:57 21.10.2022
1349 Rain 15 1008 90 10000 1.03 0 19:26 21.10.2022
1350 Clouds 17 1008 84 10000 3.09 220 16:51 21.10.2022
1351 Clear 17 1007 80 10000 5.14 190 13:57 21.10.2022
1352 Clear 17 1007 83 10000 3.6 170 12:57 21.10.2022
1353 Clear 13 1008 93 10000 3.09 130 10:59 21.10.2022
1354 Mist 12 1008 93 3800 2.06 140 09:49 21.10.2022
1355 Clouds 11 1007 93 6000 2.06 130 08:39 21.10.2022
1356 Mist 11 1008 95 5000 2.57 140 07:26 21.10.2022
1357 Clouds 10 1011 92 6000 2.57 130 00:28 21.10.2022
1358 Clear 11 1011 89 10000 3.09 140 22:25 20.10.2022
1359 Rain 11 1012 88 10000 6.17 140 20:37 20.10.2022
1360 Rain 11 1013 88 10000 4.63 130 19:35 20.10.2022
1361 Rain 12 1013 78 10000 4.63 140 17:53 20.10.2022
1362 Rain 12 1013 79 10000 4.63 140 17:33 20.10.2022
1363 Clear 11 1016 77 10000 6.69 130 12:37 20.10.2022
1364 Clear 10 1016 79 10000 7.72 130 12:18 20.10.2022
1365 Clear 9 1017 81 10000 6.69 120 11:20 20.10.2022
1366 Clear 8 1018 86 10000 7.2 120 10:45 20.10.2022
1367 Clear 6 1019 89 10000 5.14 110 08:18 20.10.2022
1368 Clear 6 1021 89 10000 3.6 100 05:38 20.10.2022
1369 Clear 7 1024 87 10000 4.12 110 01:50 20.10.2022
1370 Clear 8 1025 89 10000 2.57 100 22:46 19.10.2022
1371 Clear 8 1025 88 10000 2.57 90 21:57 19.10.2022
1372 Clear 9 1026 86 10000 2.06 110 21:18 19.10.2022
1373 Clouds 11 1026 82 10000 1.54 140 18:50 19.10.2022
1374 Clouds 12 1026 75 10000 2.06 140 17:38 19.10.2022
1375 Clouds 14 1027 70 10000 3.6 150 15:58 19.10.2022
1376 Clouds 13 1028 73 10000 2.06 80 13:52 19.10.2022
1377 Clouds 11 1029 82 10000 1.54 40 09:42 19.10.2022
1378 Clouds 11 1028 84 10000 2.06 40 08:35 19.10.2022
1379 Clouds 11 1028 89 10000 2.06 300 06:30 19.10.2022
1380 Clouds 10 1028 88 10000 2.06 270 01:26 19.10.2022
1381 Clouds 12 1028 79 10000 2.57 280 23:19 18.10.2022
1382 Clouds 13 1028 78 10000 3.6 290 21:45 18.10.2022
1383 Clouds 12 1028 84 10000 2.06 260 20:59 18.10.2022
1384 Clouds 12 1027 84 10000 2.06 280 20:19 18.10.2022
1385 Clear 14 1026 79 10000 4.63 300 18:25 18.10.2022
1386 Clouds 15 1026 75 10000 4.63 300 16:52 18.10.2022
1387 Clouds 15 1026 77 10000 6.69 290 14:51 18.10.2022
1388 Clouds 15 1026 88 10000 3.6 230 12:35 18.10.2022
1389 Clouds 13 1026 93 10000 2.57 230 11:22 18.10.2022
1390 Mist 13 1025 94 1800 2.06 250 09:59 18.10.2022
1391 Fog 13 1025 94 650 2.06 270 07:58 18.10.2022
1392 Fog 12 1025 95 350 0.51 0 05:42 18.10.2022
1393 Clear 14 1024 92 10000 2.57 260 22:54 17.10.2022
1394 Clouds 15 1023 92 10000 3.09 260 20:56 17.10.2022
1395 Clouds 16 1023 92 10000 3.09 260 20:34 17.10.2022
1396 Clouds 16 1022 92 10000 4.12 230 19:52 17.10.2022
1397 Clouds 17 1022 92 10000 3.09 220 19:34 17.10.2022
1398 Rain 17 1021 95 10000 3.6 240 17:28 17.10.2022
1399 Rain 17 1020 94 10000 3.09 210 15:54 17.10.2022
1400 Mist 17 1019 90 1700 6.17 240 14:35 17.10.2022
1401 Clear 19 1018 82 10000 5.14 190 12:29 17.10.2022
1402 Clear 12 1017 93 10000 2.57 140 07:25 17.10.2022
1403 Clouds 12 1019 89 10000 1.03 0 00:27 17.10.2022
1404 Clear 11 1019 90 10000 1.03 0 22:26 16.10.2022
1405 Clear 11 1019 89 10000 1.03 0 21:20 16.10.2022
1406 Clear 12 1018 86 10000 1.03 0 19:50 16.10.2022
1407 Clear 14 1017 80 10000 1.54 230 18:37 16.10.2022
1408 Clear 17 1016 67 10000 3.6 240 17:43 16.10.2022
1409 Clouds 18 1015 63 10000 6.17 250 16:24 16.10.2022
1410 Clouds 18 1015 62 10000 7.2 240 15:50 16.10.2022
1411 Clear 16 1013 78 10000 7.72 220 12:25 16.10.2022
1412 Clear 15 1013 83 10000 7.2 220 11:22 16.10.2022
1413 Clear 14 1012 87 10000 5.14 210 10:26 16.10.2022
1414 Clear 11 1009 88 10000 3.09 190 04:51 16.10.2022
1415 Clear 14 1008 90 10000 3.6 210 23:42 15.10.2022
1416 Clouds 15 1006 92 10000 3.09 220 21:30 15.10.2022
1417 Clouds 15 1006 92 10000 3.09 210 20:57 15.10.2022
1418 Clouds 15 1006 92 10000 3.09 210 20:57 15.10.2022
1419 Clouds 15 1006 92 10000 3.09 210 20:57 15.10.2022
1420 Clouds 15 1005 91 10000 6.02 211 19:30 15.10.2022
1421 Clouds 15 1005 89 10000 4.12 180 17:23 15.10.2022
1422 Rain 17 1005 78 10000 5.14 190 15:45 15.10.2022
1423 Clouds 16 1006 80 10000 4.63 190 13:26 15.10.2022
1424 Clouds 14 1007 87 10000 3.6 180 11:43 15.10.2022
1425 Mist 12 1006 95 3700 2.06 170 09:28 15.10.2022
1426 Mist 12 1006 96 5000 3.09 210 07:37 15.10.2022
1427 Drizzle 14 1006 94 6000 3.6 250 00:40 15.10.2022
1428 Clouds 14 1007 92 10000 3.09 180 22:42 14.10.2022
1429 Clouds 14 1007 92 10000 3.09 170 22:22 14.10.2022
1430 Clouds 14 1008 90 10000 3.28 198 20:51 14.10.2022
1431 Clouds 15 1008 86 10000 2.57 130 18:51 14.10.2022
1432 Clouds 15 1010 84 10000 3.6 150 16:19 14.10.2022
1433 Clouds 15 1012 81 10000 4.12 180 12:57 14.10.2022
1434 Clouds 13 1013 90 10000 3.09 180 11:36 14.10.2022
1435 Mist 12 1013 92 4700 3.09 200 08:32 14.10.2022
1436 Mist 12 1013 94 4300 1.54 200 06:51 14.10.2022
1437 Mist 12 1013 92 3800 1.54 200 06:18 14.10.2022
1438 Mist 12 1014 94 3900 1.54 200 05:42 14.10.2022
1439 Mist 12 1014 94 5000 2.06 190 03:20 14.10.2022
1440 Drizzle 13 1015 92 3600 2.06 220 23:42 13.10.2022
1441 Clouds 13 1015 89 10000 2.06 210 21:45 13.10.2022
1442 Clouds 13 1015 89 10000 2.57 230 21:20 13.10.2022
1443 Clouds 14 1015 89 10000 2.57 210 19:43 13.10.2022
1444 Clouds 14 1015 88 10000 3.6 210 18:52 13.10.2022
1445 Rain 14 1015 84 10000 2.57 230 18:21 13.10.2022
1446 Clouds 15 1015 81 10000 4.63 220 15:58 13.10.2022
1447 Clouds 15 1015 80 10000 4.63 220 15:40 13.10.2022
1448 Clouds 15 1015 79 10000 4.63 240 14:18 13.10.2022
1449 Clouds 15 1016 80 10000 3.6 210 12:44 13.10.2022
1450 Clouds 12 1017 88 10000 4.12 200 11:27 13.10.2022
1451 Rain 9 1017 91 10000 1.03 180 08:50 13.10.2022
1452 Rain 8 1017 91 10000 2.06 150 07:38 13.10.2022
1453 Clouds 7 1018 91 10000 1.03 170 06:28 13.10.2022
1454 Clear 7 1020 91 10000 1.54 180 01:46 13.10.2022
1455 Clear 8 1020 91 10000 1.03 150 00:41 13.10.2022
1456 Clear 8 1020 89 10000 1.54 150 22:45 12.10.2022
1457 Clear 8 1021 89 10000 0.51 0 21:51 12.10.2022
1458 Clear 8 1021 89 10000 1.03 0 21:20 12.10.2022
1459 Clear 9 1021 88 10000 1.03 160 20:39 12.10.2022
1460 Clear 11 1021 79 10000 1.54 160 19:24 12.10.2022
1461 Clear 13 1021 73 10000 3.09 160 18:19 12.10.2022
1462 Clear 14 1021 69 10000 3.6 180 17:43 12.10.2022
1463 Clear 16 1023 62 10000 4.12 140 14:51 12.10.2022
1464 Clear 14 1024 68 10000 4.12 160 13:54 12.10.2022
1465 Clear 13 1025 72 10000 3.09 140 12:31 12.10.2022
1466 Clear 5 1025 93 10000 1.03 120 09:37 12.10.2022
1467 Fog 5 1025 96 600 1.03 140 07:42 12.10.2022
1468 Mist 5 1025 96 6000 1.03 0 06:44 12.10.2022
1469 Fog 5 1025 96 800 1.03 100 06:22 12.10.2022
1470 Clouds 9 1026 91 10000 2.31 213 00:55 12.10.2022
1471 Clouds 10 1026 88 10000 0.51 180 21:43 11.10.2022
1472 Clouds 11 1026 87 10000 1.54 200 20:38 11.10.2022
1473 Clouds 13 1025 77 10000 4.12 310 18:28 11.10.2022
1474 Clouds 15 1025 69 10000 3.6 250 16:37 11.10.2022
1475 Clouds 15 1026 68 10000 4.63 300 14:35 11.10.2022
1476 Clear 13 1026 74 10000 4.12 260 12:44 11.10.2022
1477 Clear 9 1025 91 10000 2.06 240 10:28 11.10.2022
1478 Fog 6 1025 95 550 1.03 210 09:30 11.10.2022
1479 Fog 6 1025 95 550 1.03 210 09:30 11.10.2022
1480 Mist 7 1023 95 1000 1.03 260 05:39 11.10.2022
1481 Clear 8 1021 92 10000 2.06 260 02:22 11.10.2022
1482 Clear 8 1020 92 10000 2.57 270 00:29 11.10.2022
1483 Clear 10 1019 91 10000 3.45 270 21:35 10.10.2022
1484 Clouds 12 1016 91 10000 5.14 310 19:49 10.10.2022
1485 Rain 13 1014 89 9000 4.12 260 18:33 10.10.2022
1486 Clouds 15 1013 72 10000 4.63 230 16:58 10.10.2022
1487 Clear 17 1013 64 10000 6.17 220 15:24 10.10.2022
1488 Clouds 15 1013 73 10000 5.14 220 12:54 10.10.2022
1489 Clear 14 1013 77 10000 3.6 200 11:56 10.10.2022
1490 Clear 6 1014 91 10000 2.57 130 08:59 10.10.2022
1491 Clear 6 1015 90 10000 1.54 130 05:43 10.10.2022
1492 Clear 6 1015 90 10000 2.06 130 04:56 10.10.2022
1493 Clear 8 1018 86 10000 3.6 130 00:33 10.10.2022
1494 Clear 8 1019 86 10000 2.57 130 23:31 09.10.2022
1495 Clear 8 1019 88 10000 2.57 120 22:19 09.10.2022
1496 Clear 10 1019 82 10000 3.6 110 21:26 09.10.2022
1497 Clear 11 1020 80 10000 2.57 110 20:24 09.10.2022
1498 Clear 11 1020 77 10000 3.09 120 19:46 09.10.2022
1499 Clear 14 1020 61 10000 3.09 120 18:44 09.10.2022
1500 Clouds 15 1022 62 10000 5.14 160 16:57 09.10.2022
1501 Clouds 15 1022 62 10000 5.14 160 16:57 09.10.2022
1502 Clouds 15 1022 66 10000 5.14 160 16:37 09.10.2022
1503 Clouds 15 1023 68 10000 4.12 150 15:45 09.10.2022
1504 Clouds 15 1024 66 10000 4.12 170 14:34 09.10.2022
1505 Clouds 14 1024 73 10000 5.14 190 13:51 09.10.2022
1506 Clouds 14 1025 75 10000 4.12 200 12:46 09.10.2022
1507 Clear 10 1026 89 10000 2.57 180 10:54 09.10.2022
1508 Fog 5 1025 94 250 1.54 160 08:31 09.10.2022
1509 Fog 7 1024 96 900 1.03 200 04:19 09.10.2022
1510 Clouds 8 1024 94 10000 3.19 240 03:20 09.10.2022
1511 Clouds 9 1024 93 10000 3.23 247 00:40 09.10.2022
1512 Clear 9 1024 90 10000 0.51 0 23:32 08.10.2022
1513 Clear 9 1023 91 10000 2.57 240 22:35 08.10.2022
1514 Clear 10 1022 86 10000 3.6 270 20:33 08.10.2022
1515 Clear 11 1021 84 10000 4.12 280 19:27 08.10.2022
1516 Clouds 13 1019 76 10000 5.14 290 17:39 08.10.2022
1517 Rain 14 1018 75 10000 3.6 290 15:35 08.10.2022
1518 Clouds 13 1018 81 10000 8.75 270 13:33 08.10.2022
1519 Clouds 14 1017 82 10000 6.17 260 11:24 08.10.2022
1520 Clouds 13 1016 86 10000 5.66 250 10:33 08.10.2022
1521 Clear 11 1015 92 10000 4.63 240 09:25 08.10.2022
1522 Clouds 11 1014 89 10000 5.14 230 06:20 08.10.2022
1523 Clear 11 1014 85 10000 2.57 200 02:34 08.10.2022
1524 Clear 12 1016 82 10000 2.57 190 23:49 07.10.2022
1525 Clear 11 1016 83 10000 2.06 190 23:20 07.10.2022
1526 Clear 12 1016 81 10000 2.57 190 22:19 07.10.2022
1527 Clear 14 1017 77 10000 3.09 180 20:24 07.10.2022
1528 Clouds 16 1018 70 10000 5.14 210 18:29 07.10.2022
1529 Clear 17 1018 68 10000 5.66 220 16:58 07.10.2022
1530 Clouds 17 1019 69 10000 7.2 220 15:48 07.10.2022
1531 Clear 17 1020 69 10000 6.69 220 14:35 07.10.2022
1532 Clear 14 1023 76 10000 5.66 220 11:48 07.10.2022
1533 Clouds 9 1024 87 10000 2.57 200 09:26 07.10.2022
1534 Clear 8 1024 89 10000 2.57 170 08:47 07.10.2022
1535 Clear 7 1025 91 10000 2.06 170 05:51 07.10.2022
1536 Clear 9 1028 85 10000 1.54 210 00:41 07.10.2022
1537 Clear 11 1028 84 10000 1.54 220 22:50 06.10.2022
1538 Clear 12 1028 80 10000 3.6 210 21:42 06.10.2022
1539 Clear 11 1028 81 10000 3.09 210 21:21 06.10.2022
1540 Clouds 12 1028 79 10000 3.09 220 19:50 06.10.2022
1541 Clouds 12 1028 78 10000 3.09 220 19:50 06.10.2022
1542 Clear 14 1028 71 10000 4.12 240 18:37 06.10.2022
1543 Clear 14 1028 71 10000 4.12 240 18:37 06.10.2022
1544 Clear 16 1027 66 10000 6.69 250 17:50 06.10.2022
1545 Clouds 16 1027 66 10000 7.2 260 14:24 06.10.2022
1546 Clouds 14 1026 79 10000 8.23 250 11:24 06.10.2022
1547 Clear 12 1021 86 10000 6.17 250 06:53 06.10.2022
1548 Clear 13 1018 87 10000 6.17 250 03:34 06.10.2022
1549 Clouds 17 1013 77 10000 9.26 230 23:20 05.10.2022
1550 Clouds 17 1012 81 10000 3.6 190 19:58 05.10.2022
1551 Clouds 18 1012 73 10000 4.12 210 18:42 05.10.2022
1552 Clouds 18 1012 72 10000 5.14 210 17:34 05.10.2022
1553 Clouds 19 1012 69 10000 9.26 220 15:55 05.10.2022
1554 Clouds 18 1012 71 10000 7.2 210 14:47 05.10.2022
1555 Clouds 17 1013 72 10000 7.2 210 13:55 05.10.2022
1556 Clouds 15 1014 85 10000 7.2 220 12:20 05.10.2022
1557 Clouds 13 1014 91 10000 3.6 190 09:21 05.10.2022
1558 Clouds 13 1015 91 10000 3.09 190 07:42 05.10.2022
1559 Clouds 13 1015 88 10000 3.09 190 05:39 05.10.2022
1560 Clouds 14 1016 90 10000 5.18 205 04:18 05.10.2022
1561 Clouds 13 1017 85 10000 2.06 200 00:46 05.10.2022
1562 Clouds 13 1017 87 10000 2.57 200 00:24 05.10.2022
1563 Clouds 12 1018 87 10000 2.57 210 22:37 04.10.2022
1564 Clear 13 1018 84 10000 2.06 190 20:39 04.10.2022
1565 Clear 15 1018 78 10000 3.09 210 18:58 04.10.2022
1566 Clear 15 1018 77 10000 3.09 210 18:37 04.10.2022
1567 Clear 17 1018 64 10000 4.63 210 17:48 04.10.2022
1568 Clear 18 1018 62 10000 6.17 220 16:35 04.10.2022
1569 Clear 16 1020 77 10000 5.14 200 12:58 04.10.2022
1570 Clear 11 1021 96 10000 1.54 190 09:46 04.10.2022
1571 Clouds 9 1021 98 10000 1.54 210 07:24 04.10.2022
1572 Mist 9 1023 96 3200 1.03 180 02:27 04.10.2022
1573 Fog 10 1024 98 900 1.03 230 23:41 03.10.2022
1574 Clear 11 1024 95 10000 1.03 260 21:53 03.10.2022
1575 Clear 11 1024 95 10000 1.54 250 21:23 03.10.2022
1576 Clear 12 1024 92 10000 1.03 290 20:19 03.10.2022
1577 Clouds 14 1024 86 10000 3.09 290 18:35 03.10.2022
1578 Clouds 16 1024 81 10000 4.12 300 17:26 03.10.2022
1579 Clouds 17 1025 75 10000 6.17 290 15:49 03.10.2022
1580 Clouds 17 1025 78 10000 5.66 290 14:21 03.10.2022
1581 Clouds 16 1025 81 10000 6.69 290 12:31 03.10.2022
1582 Clouds 14 1025 90 10000 4.12 280 10:40 03.10.2022
1583 Clear 12 1024 98 10000 4.55 284 09:44 03.10.2022
1584 Clouds 9 1023 99 10000 3.09 260 07:32 03.10.2022
1585 Clear 10 1023 98 10000 3.58 275 03:38 03.10.2022
1586 Clear 10 1020 95 10000 3.6 270 22:55 02.10.2022
1587 Clouds 11 1019 92 10000 3.09 260 21:33 02.10.2022
1588 Clouds 13 1018 88 10000 4.12 300 19:39 02.10.2022
1589 Clouds 15 1016 83 10000 6.69 300 17:55 02.10.2022
1590 Clouds 16 1015 82 10000 5.66 280 16:50 02.10.2022
1591 Clouds 15 1015 86 10000 7.72 290 16:27 02.10.2022
1592 Clouds 15 1014 81 10000 6.69 300 14:57 02.10.2022
1593 Clouds 16 1014 74 10000 8.23 280 13:46 02.10.2022
1594 Clouds 15 1014 85 10000 7.72 280 12:39 02.10.2022
1595 Clear 14 1013 89 10000 6.17 260 11:43 02.10.2022
1596 Rain 14 1013 89 10000 6.17 260 11:23 02.10.2022
1597 Clouds 12 1013 95 10000 5.14 250 09:49 02.10.2022
1598 Clouds 11 1012 96 10000 3.6 260 08:27 02.10.2022
1599 Clear 11 1011 96 10000 4.12 230 05:19 02.10.2022
1600 Clear 11 1010 96 10000 5.14 250 00:58 02.10.2022
1601 Clouds 12 1009 94 10000 5.14 240 00:38 02.10.2022
1602 Clouds 12 1009 94 10000 5.14 240 23:28 01.10.2022
1603 Clouds 12 1008 93 10000 4.12 240 21:39 01.10.2022
1604 Clouds 13 1005 92 10000 5.34 273 18:54 01.10.2022
1605 Clouds 14 1003 85 10000 7.72 280 17:46 01.10.2022
1606 Rain 15 1001 83 10000 8.75 280 15:29 01.10.2022
1607 Rain 16 1001 85 10000 6.69 250 13:52 01.10.2022
1608 Clouds 14 1000 93 10000 6.17 230 12:34 01.10.2022
1609 Clouds 12 1000 96 10000 5.66 240 11:22 01.10.2022
1610 Clouds 12 999 94 10000 6.17 220 10:53 01.10.2022
1611 Clouds 11 999 96 10000 6.69 210 10:30 01.10.2022
1612 Clouds 10 999 96 7000 6.69 190 09:25 01.10.2022
1613 Clouds 11 1000 94 10000 8.75 190 08:27 01.10.2022
1614 Rain 11 1004 80 10000 5.66 180 03:47 01.10.2022
1615 Rain 11 1004 81 10000 5.14 170 03:22 01.10.2022
1616 Clear 10 1007 86 10000 3.6 160 23:21 30.09.2022
1617 Clear 10 1007 86 10000 3.6 160 22:19 30.09.2022
1618 Clear 10 1008 84 10000 3.6 170 21:21 30.09.2022
1619 Clouds 11 1008 83 10000 3.09 170 20:30 30.09.2022
1620 Clear 14 1008 74 10000 3.09 200 18:45 30.09.2022
1621 Clouds 15 1008 72 10000 5.14 210 16:55 30.09.2022
1622 Clouds 15 1009 74 10000 5.14 240 14:49 30.09.2022
1623 Clouds 15 1010 76 10000 4.63 220 13:24 30.09.2022
1624 Clear 14 1009 84 10000 3.6 220 11:56 30.09.2022
1625 Clear 10 1009 94 10000 2.06 210 09:45 30.09.2022
1626 Fog 7 1008 96 1500 1.03 0 08:19 30.09.2022
1627 Fog 8 1007 98 500 1.54 210 04:24 30.09.2022
1628 Clear 9 1006 95 10000 2.57 210 02:22 30.09.2022
1629 Drizzle 10 1005 95 10000 1.03 250 22:23 29.09.2022
1630 Clear 10 1005 95 10000 1.03 0 21:25 29.09.2022
1631 Clouds 11 1005 94 10000 2.22 284 19:58 29.09.2022
1632 Clouds 11 1004 91 10000 2.33 286 18:31 29.09.2022
1633 Rain 14 1002 77 10000 3.6 300 16:30 29.09.2022
1634 Clouds 14 1002 77 10000 4.63 300 15:51 29.09.2022
1635 Clouds 14 1002 76 10000 5.14 260 15:27 29.09.2022
1636 Clouds 12 1002 88 10000 3.6 240 12:54 29.09.2022
1637 Fog 5 1000 98 1000 0 0 08:52 29.09.2022
1638 Fog 4 999 98 500 1.03 0 05:36 29.09.2022
1639 Fog 5 999 98 6000 1.03 0 02:42 29.09.2022
1640 Clouds 7 999 98 9000 1.54 160 23:29 28.09.2022
1641 Clouds 7 998 95 9000 2.06 180 22:25 28.09.2022
1642 Clouds 8 998 93 10000 2.06 170 21:28 28.09.2022
1643 Clouds 9 998 92 10000 2.06 160 20:18 28.09.2022
1644 Clouds 12 997 81 10000 2.06 190 17:42 28.09.2022
1645 Clouds 12 996 79 10000 1.54 0 14:45 28.09.2022
1646 Clouds 11 996 89 10000 1.03 0 12:40 28.09.2022
1647 Drizzle 8 995 96 10000 1.03 0 10:24 28.09.2022
1648 Drizzle 7 994 96 10000 0.51 0 08:25 28.09.2022
1649 Rain 7 994 98 6000 1.03 0 06:42 28.09.2022
1650 Mist 6 995 96 2400 1.03 0 01:51 28.09.2022
1651 Clear 7 996 96 10000 2.57 200 01:30 28.09.2022
1652 Clear 7 996 96 10000 2.57 200 22:54 27.09.2022
1653 Clouds 8 996 96 10000 2.06 220 21:24 27.09.2022
1654 Clear 8 996 96 10000 2.57 230 20:37 27.09.2022
1655 Clouds 9 995 94 10000 3.09 250 19:47 27.09.2022
1656 Clouds 11 995 92 10000 5.14 250 18:31 27.09.2022
1657 Clouds 11 995 93 10000 3.09 240 17:43 27.09.2022
1658 Clouds 11 994 93 10000 5.66 250 15:29 27.09.2022
1659 Clouds 11 994 94 10000 5.14 250 14:45 27.09.2022
1660 Rain 11 994 94 10000 6.17 260 12:40 27.09.2022
1661 Rain 11 993 95 10000 5.14 270 10:58 27.09.2022
1662 Clouds 10 992 97 10000 4.63 260 08:46 27.09.2022
1663 Drizzle 10 992 96 10000 4.12 260 06:39 27.09.2022
1664 Rain 11 992 96 10000 1.54 200 01:57 27.09.2022
1665 Rain 11 992 96 10000 3.6 200 01:27 27.09.2022
1666 Rain 11 992 96 10000 3.6 200 01:27 27.09.2022
1667 Rain 11 993 96 10000 4.12 180 23:25 26.09.2022
1668 Clouds 11 994 96 10000 4.63 200 22:34 26.09.2022
1669 Drizzle 11 994 96 7000 5.66 200 20:45 26.09.2022
1670 Clouds 11 995 96 10000 6.17 190 19:31 26.09.2022
1671 Drizzle 11 996 96 10000 6.69 180 18:32 26.09.2022
1672 Drizzle 11 997 96 10000 7.2 180 16:34 26.09.2022
1673 Rain 12 998 91 10000 8.75 200 14:28 26.09.2022
1674 Rain 12 1001 89 10000 5.14 200 11:30 26.09.2022
1675 Clouds 12 1001 87 10000 6.17 200 10:39 26.09.2022
1676 Clouds 12 1001 88 10000 5.14 210 10:20 26.09.2022
1677 Clear 11 1001 92 10000 4.63 200 09:55 26.09.2022
1678 Clear 10 1002 95 10000 4.12 200 09:24 26.09.2022
1679 Clouds 10 1003 93 10000 5.66 210 07:56 26.09.2022
1680 Clear 9 1007 96 10000 3.6 210 02:54 26.09.2022
1681 Clear 8 1010 95 10000 1.03 240 23:50 25.09.2022
1682 Fog 8 1010 97 1000 1.03 190 22:45 25.09.2022
1683 Clear 10 1011 93 10000 1.03 270 21:35 25.09.2022
1684 Clear 11 1011 88 10000 2.06 260 20:48 25.09.2022
1685 Clouds 12 1011 88 10000 2.06 260 19:43 25.09.2022
1686 Clouds 14 1011 81 10000 3.09 300 18:43 25.09.2022
1687 Clouds 14 1011 75 10000 2.57 320 18:20 25.09.2022
1688 Clouds 15 1012 77 10000 3.6 320 16:45 25.09.2022
1689 Rain 15 1012 80 10000 3.6 350 15:45 25.09.2022
1690 Rain 15 1013 84 10000 4.63 350 14:29 25.09.2022
1691 Clouds 15 1013 84 10000 5.66 360 12:57 25.09.2022
1692 Clouds 13 1013 93 10000 4.63 340 10:36 25.09.2022
1693 Clouds 10 1013 99 10000 2.57 290 08:25 25.09.2022
1694 Clouds 12 1013 97 10000 3.09 300 06:23 25.09.2022
1695 Clouds 12 1013 97 10000 3.09 300 06:23 25.09.2022
1696 Clouds 12 1013 97 10000 2.57 310 03:20 25.09.2022
1697 Clouds 12 1012 97 10000 5.66 340 22:50 24.09.2022
1698 Clouds 13 1012 97 10000 4.12 300 21:19 24.09.2022
1699 Clouds 14 1011 97 10000 2.57 200 19:23 24.09.2022
1700 Clouds 15 1011 95 10000 3.09 200 18:18 24.09.2022
1701 Clouds 15 1012 95 10000 3.09 200 16:36 24.09.2022
1702 Clouds 14 1012 95 10000 2.57 190 15:23 24.09.2022
1703 Clouds 14 1012 97 10000 3.09 180 13:50 24.09.2022
1704 Rain 13 1012 97 6000 3.09 180 12:58 24.09.2022
1705 Rain 13 1012 96 4200 3.09 170 11:42 24.09.2022
1706 Rain 12 1012 96 4400 2.57 160 09:54 24.09.2022
1707 Rain 12 1011 96 6000 2.57 160 08:47 24.09.2022
1708 Rain 11 1011 98 5000 2.57 180 07:39 24.09.2022
1709 Rain 12 1012 96 4800 2.57 160 04:50 24.09.2022
1710 Rain 12 1012 96 5000 2.06 140 03:43 24.09.2022
1711 Rain 13 1013 91 10000 1.03 160 22:39 23.09.2022
1712 Rain 13 1014 91 10000 0.51 100 21:31 23.09.2022
1713 Rain 13 1014 90 10000 1.03 110 20:57 23.09.2022
1714 Rain 13 1014 90 10000 0.51 0 20:20 23.09.2022
1715 Rain 15 1014 83 10000 0.51 270 18:51 23.09.2022
1716 Clear 17 1015 64 10000 3.6 210 15:23 23.09.2022
1717 Clear 14 1017 80 10000 3.6 170 11:28 23.09.2022
1718 Clear 9 1017 90 10000 2.06 140 09:35 23.09.2022
1719 Clear 7 1018 93 10000 2.06 130 05:59 23.09.2022
1720 Clear 9 1020 90 10000 2.06 130 00:41 23.09.2022
1721 Clear 9 1020 89 10000 1.54 130 23:22 22.09.2022
1722 Clear 10 1020 87 10000 1.54 130 22:27 22.09.2022
1723 Clear 11 1020 83 10000 2.06 130 21:18 22.09.2022
1724 Clear 13 1021 75 10000 2.06 120 19:58 22.09.2022
1725 Clear 18 1021 53 10000 2.57 180 17:38 22.09.2022
1726 Clouds 17 1023 63 10000 3.09 170 13:20 22.09.2022
1727 Clear 12 1024 82 10000 1.54 170 10:37 22.09.2022
1728 Fog 5 1024 93 2900 0.51 0 08:58 22.09.2022
1729 Fog 4 1024 95 500 0.51 0 07:36 22.09.2022
1730 Fog 5 1025 94 600 0.51 210 04:37 22.09.2022
1731 Clear 8 1026 94 10000 0.51 260 23:33 21.09.2022
1732 Clear 9 1025 91 10000 0 0 21:52 21.09.2022
1733 Clear 10 1025 87 10000 1.03 170 20:54 21.09.2022
1734 Clouds 16 1025 63 10000 2.57 240 17:55 21.09.2022
1735 Clear 17 1026 62 10000 1.03 0 17:22 21.09.2022
1736 Clouds 17 1026 53 10000 1.03 0 15:18 21.09.2022
1737 Clear 16 1027 68 10000 2.06 230 13:38 21.09.2022
1738 Clear 14 1027 82 10000 1.54 260 11:34 21.09.2022
1739 Clear 12 1027 90 10000 1.54 260 10:50 21.09.2022
1740 Clear 9 1027 95 10000 1.03 0 09:38 21.09.2022
1741 Fog 4 1026 98 450 0.51 230 08:23 21.09.2022
1742 Fog 5 1026 98 550 1.03 250 02:52 21.09.2022
1743 Fog 6 1025 95 600 1.03 250 02:33 21.09.2022
1744 Fog 6 1025 97 550 1.03 260 01:50 21.09.2022
1745 Fog 7 1025 94 550 0.51 240 23:50 20.09.2022
1746 Clear 9 1024 94 10000 1.03 260 21:40 20.09.2022
1747 Clear 10 1023 90 10000 2.06 270 20:26 20.09.2022
1748 Clouds 14 1022 77 10000 4.63 280 17:53 20.09.2022
1749 Clear 14 1022 80 10000 2.06 270 15:18 20.09.2022
1750 Clouds 13 1022 86 10000 2.06 310 13:59 20.09.2022
1751 Clouds 13 1021 90 10000 2.06 270 11:28 20.09.2022
1752 Clouds 10 1020 96 10000 5.14 300 08:30 20.09.2022
1753 Clouds 9 1020 96 10000 2.57 320 07:32 20.09.2022
1754 Clouds 10 1019 96 10000 4.63 310 04:33 20.09.2022
1755 Clear 9 1018 96 10000 2.57 280 01:32 20.09.2022
1756 Clear 10 1018 96 10000 3.67 283 22:41 19.09.2022
1757 Clouds 10 1018 94 10000 3.09 270 21:28 19.09.2022
1758 Clouds 10 1017 96 10000 2.06 290 20:39 19.09.2022
1759 Rain 13 1016 79 10000 7.2 320 18:45 19.09.2022
1760 Clouds 15 1016 76 10000 8.23 330 16:48 19.09.2022
1761 Rain 14 1015 89 10000 5.14 270 13:47 19.09.2022
1762 Clouds 15 1015 87 10000 5.14 290 11:57 19.09.2022
1763 Clear 11 1015 94 10000 4.12 280 09:44 19.09.2022
1764 Clear 9 1014 99 10000 1.54 250 08:32 19.09.2022
1765 Clear 9 1012 96 10000 3.6 300 03:39 19.09.2022
1766 Clear 9 1010 96 10000 4.12 300 00:48 19.09.2022
1767 Clouds 10 1008 94 10000 4.12 300 22:33 18.09.2022
1768 Clouds 10 1008 95 9000 6.69 300 21:26 18.09.2022
1769 Clouds 11 1007 90 10000 6.17 290 19:40 18.09.2022
1770 Rain 11 1007 94 10000 7.98 301 17:52 18.09.2022
1771 Clouds 13 1008 78 10000 7.72 320 16:49 18.09.2022
1772 Rain 11 1008 82 10000 12.35 300 14:51 18.09.2022
1773 Clouds 12 1008 87 10000 6.17 270 13:41 18.09.2022
1774 Rain 12 1008 88 10000 8.23 260 12:20 18.09.2022
1775 Clouds 10 1009 92 10000 5.14 270 09:44 18.09.2022
1776 Clouds 9 1010 93 10000 6.17 270 03:35 18.09.2022
1777 Rain 9 1010 91 10000 4.63 270 01:22 18.09.2022
1778 Clouds 9 1010 88 10000 2.57 300 23:36 17.09.2022
1779 Rain 11 1009 94 10000 4.12 290 20:56 17.09.2022
1780 Rain 11 1008 94 10000 5.66 310 19:40 17.09.2022
1781 Rain 11 1008 94 10000 5.66 310 19:40 17.09.2022
1782 Rain 11 1008 92 10000 7.2 310 18:43 17.09.2022
1783 Rain 11 1007 94 10000 7.2 280 14:54 17.09.2022
1784 Rain 10 1008 94 10000 8.75 290 13:38 17.09.2022
1785 Clouds 12 1008 85 10000 8.23 280 10:50 17.09.2022
1786 Clouds 10 1008 94 10000 4.63 250 08:33 17.09.2022
1787 Clouds 10 1007 96 10000 5.66 270 06:21 17.09.2022
1788 Rain 12 1006 96 10000 5.14 280 23:56 16.09.2022
1789 Rain 12 1005 96 10000 7.2 270 22:42 16.09.2022
1790 Rain 11 1004 95 10000 8.23 260 20:54 16.09.2022
1791 Rain 11 1003 95 9000 12.86 260 19:50 16.09.2022
1792 Rain 13 1004 82 10000 8.75 280 16:26 16.09.2022
1793 Clouds 15 1005 74 10000 9.26 280 14:53 16.09.2022
1794 Clouds 16 1005 70 10000 10.29 270 13:26 16.09.2022
1795 Clear 13 1006 84 10000 7.72 250 10:46 16.09.2022
1796 Clear 10 1006 96 10000 5.66 250 08:19 16.09.2022
1797 Clouds 10 1006 96 10000 5.66 250 06:48 16.09.2022
1798 Clouds 10 1006 95 10000 4.12 250 05:58 16.09.2022
1799 Clear 11 1006 93 10000 5.14 260 02:35 16.09.2022
1800 Clear 12 1006 92 10000 4.12 260 22:20 15.09.2022
1801 Clear 12 1006 92 10000 4.12 260 22:20 15.09.2022
1802 Clouds 12 1006 91 10000 3.09 290 20:39 15.09.2022
1803 Clouds 13 1005 89 10000 2.57 260 19:45 15.09.2022
1804 Rain 15 1005 81 10000 6.17 280 18:26 15.09.2022
1805 Clouds 15 1005 83 10000 4.63 300 17:29 15.09.2022
1806 Clouds 15 1005 80 10000 6.17 320 15:50 15.09.2022
1807 Clouds 16 1005 76 10000 3.6 300 13:19 15.09.2022
1808 Clouds 15 1005 82 9000 8.23 330 11:48 15.09.2022
1809 Clouds 15 1004 84 10000 4.12 270 09:52 15.09.2022
1810 Clear 13 1004 93 10000 3.6 260 07:45 15.09.2022
1811 Clouds 13 1004 93 10000 4.19 268 03:49 15.09.2022
1812 Clear 12 1004 92 10000 1.54 220 23:43 14.09.2022
1813 Clear 14 1004 81 10000 1.54 290 21:26 14.09.2022
1814 Clouds 17 1003 71 10000 3.09 40 19:33 14.09.2022
1815 Clouds 18 1003 67 10000 2.57 320 18:32 14.09.2022
1816 Clouds 19 1004 69 10000 3.09 330 16:44 14.09.2022
1817 Clouds 19 1005 67 10000 2.57 280 15:34 14.09.2022
1818 Clouds 19 1005 67 10000 2.57 280 13:36 14.09.2022
1819 Clouds 16 1006 84 10000 1.54 290 10:52 14.09.2022
1820 Clouds 14 1006 91 10000 1.54 250 09:41 14.09.2022
1821 Clouds 11 1006 97 10000 0.51 0 06:53 14.09.2022
1822 Clouds 11 1006 97 10000 0.51 0 06:34 14.09.2022
1823 Clouds 11 1007 94 10000 1.54 210 06:34 14.09.2022
1824 Clouds 11 1006 97 10000 0.51 0 06:34 14.09.2022
1825 Clear 11 1007 96 10000 1.03 260 04:24 14.09.2022
1826 Clear 12 1008 92 10000 0.51 0 01:46 14.09.2022
1827 Clear 12 1008 89 10000 1.03 240 01:27 14.09.2022
1828 Clear 12 1008 90 10000 1.03 240 00:42 14.09.2022
1829 Clear 13 1008 86 10000 1.54 240 23:54 13.09.2022
1830 Clear 13 1008 86 10000 1.54 240 23:36 13.09.2022
1831 Clear 13 1009 86 10000 1.03 250 23:18 13.09.2022
1832 Clouds 14 1009 82 10000 3.09 300 21:44 13.09.2022
1833 Clouds 18 1008 69 10000 4.63 310 19:38 13.09.2022
1834 Clear 20 1008 66 10000 6.17 310 17:41 13.09.2022
1835 Clouds 21 1008 60 10000 7.72 280 15:54 13.09.2022
1836 Clouds 21 1008 64 10000 6.17 270 14:31 13.09.2022
1837 Clouds 19 1009 84 10000 6.17 300 12:31 13.09.2022
1838 Mist 16 1008 96 2700 3.09 250 08:43 13.09.2022
1839 Rain 15 1008 95 10000 2.06 220 05:22 13.09.2022
1840 Clear 16 1010 83 10000 2.06 150 23:37 12.09.2022
1841 Clear 16 1011 81 10000 3.09 140 22:49 12.09.2022
1842 Clear 17 1011 80 10000 2.57 140 21:37 12.09.2022
1843 Clear 19 1012 73 10000 2.57 150 20:25 12.09.2022
1844 Clear 22 1013 59 10000 3.09 200 18:44 12.09.2022
1845 Clear 23 1014 50 10000 6.17 180 16:32 12.09.2022
1846 Clear 23 1014 50 10000 5.14 190 16:32 12.09.2022
1847 Clear 23 1014 50 10000 5.14 190 16:32 12.09.2022
1848 Clear 22 1015 56 10000 5.66 200 14:36 12.09.2022
1849 Clear 18 1016 87 10000 2.06 150 11:29 12.09.2022
1850 Clear 15 1016 92 10000 1.03 0 09:46 12.09.2022
1851 Fog 10 1017 97 1800 1.03 80 04:50 12.09.2022
1852 Clear 10 1017 97 10000 0.51 70 04:24 12.09.2022
1853 Clear 13 1018 89 10000 1.03 0 23:34 11.09.2022
1854 Clear 14 1018 88 10000 1.54 20 22:18 11.09.2022
1855 Clear 15 1018 80 10000 1.54 340 20:48 11.09.2022
1856 Clear 18 1018 71 10000 3.09 350 19:56 11.09.2022
1857 Clear 19 1018 68 10000 3.09 360 19:23 11.09.2022
1858 Clear 20 1018 62 10000 4.12 350 18:21 11.09.2022
1859 Clear 21 1018 64 10000 4.63 320 16:46 11.09.2022
1860 Clouds 21 1019 66 10000 3.09 0 14:39 11.09.2022
1861 Clouds 18 1019 78 10000 2.06 10 12:50 11.09.2022
1862 Mist 14 1018 98 1300 2.06 310 09:25 11.09.2022
1863 Mist 14 1018 98 1300 2.06 310 09:25 11.09.2022
1864 Mist 14 1017 96 4500 2.06 300 07:19 11.09.2022
1865 Clouds 14 1015 96 10000 2.57 350 00:54 11.09.2022
1866 Clear 15 1014 93 10000 2.06 340 23:20 10.09.2022
1867 Clear 16 1013 90 10000 4.12 20 21:33 10.09.2022
1868 Clouds 17 1012 86 10000 3.09 30 19:49 10.09.2022
1869 Clouds 18 1012 84 10000 4.12 30 19:29 10.09.2022
1870 Clouds 19 1012 83 10000 3.09 20 18:58 10.09.2022
1871 Clouds 20 1011 78 10000 1.03 0 16:57 10.09.2022
1872 Clouds 19 1011 79 10000 1.03 0 14:45 10.09.2022
1873 Clouds 19 1012 80 10000 1.54 210 12:55 10.09.2022
1874 Clouds 17 1011 92 10000 1.03 0 11:36 10.09.2022
1875 Clouds 16 1011 94 10000 1.03 0 10:24 10.09.2022
1876 Clouds 15 1010 96 10000 2.06 150 08:37 10.09.2022
1877 Clouds 14 1010 96 10000 1.54 140 07:57 10.09.2022
1878 Clouds 14 1010 96 10000 2.06 160 02:48 10.09.2022
1879 Clouds 14 1009 95 10000 2.06 120 23:35 09.09.2022
1880 Clear 14 1009 95 10000 1.03 140 22:21 09.09.2022
1881 Rain 15 1009 93 10000 1.54 80 20:48 09.09.2022
1882 Rain 16 1008 91 10000 3.6 140 19:25 09.09.2022
1883 Clear 16 1008 93 10000 2.57 110 18:55 09.09.2022
1884 Rain 18 1008 87 10000 3.09 130 16:34 09.09.2022
1885 Rain 18 1008 82 10000 3.6 190 14:27 09.09.2022
1886 Clouds 19 1008 80 10000 5.66 210 12:59 09.09.2022
1887 Clear 16 1008 91 10000 4.12 200 10:23 09.09.2022
1888 Clear 13 1008 96 10000 2.57 190 07:18 09.09.2022
1889 Fog 13 1007 98 4500 3.09 170 03:30 09.09.2022
1890 Fog 14 1008 97 1600 0.51 130 22:19 08.09.2022
1891 Fog 14 1008 95 550 1.03 120 21:47 08.09.2022
1892 Fog 15 1008 95 900 1.03 190 20:46 08.09.2022
1893 Clear 15 1007 95 10000 0 0 20:21 08.09.2022
1894 Clouds 17 1008 93 10000 1.54 260 18:34 08.09.2022
1895 Drizzle 17 1007 93 10000 1.54 320 16:47 08.09.2022
1896 Rain 17 1007 95 7000 4.63 300 14:42 08.09.2022
1897 Rain 17 1008 92 4300 0.51 0 13:27 08.09.2022
1898 Rain 17 1007 94 8000 2.06 220 12:35 08.09.2022
1899 Rain 17 1007 89 10000 2.06 100 10:58 08.09.2022
1900 Clear 16 1008 93 10000 2.06 130 09:20 08.09.2022
1901 Clouds 15 1008 96 7000 2.57 90 06:43 08.09.2022
1902 Fog 15 1010 93 4200 2.06 70 03:18 08.09.2022
1903 Fog 15 1010 95 1100 0.51 0 02:36 08.09.2022
1904 Fog 15 1010 92 1300 0.51 250 02:18 08.09.2022
1905 Clear 18 1012 85 10000 0.51 0 22:55 07.09.2022
1906 Clear 19 1012 81 10000 1.54 70 21:44 07.09.2022
1907 Clear 20 1012 80 10000 1.03 90 21:20 07.09.2022
1908 Clear 21 1011 73 10000 1.03 360 20:22 07.09.2022
1909 Clouds 23 1012 69 10000 2.06 270 18:41 07.09.2022
1910 Clouds 23 1012 63 10000 3.6 250 15:41 07.09.2022
1911 Clear 19 1013 84 10000 1.03 0 10:51 07.09.2022
1912 Clear 18 1013 85 10000 1.03 0 10:32 07.09.2022
1913 Rain 15 1013 86 10000 3.6 140 07:45 07.09.2022
1914 Rain 16 1012 81 10000 2.57 80 04:59 07.09.2022
1915 Clear 16 1014 79 10000 3.09 90 00:26 07.09.2022
1916 Clear 18 1015 73 10000 4.12 80 21:48 06.09.2022
1917 Clear 18 1015 73 10000 4.12 80 21:27 06.09.2022
1918 Clear 20 1015 64 10000 4.63 80 19:27 06.09.2022
1919 Clear 22 1016 62 10000 4.12 110 18:29 06.09.2022
1920 Clear 22 1016 56 10000 5.14 90 17:23 06.09.2022
1921 Clear 22 1016 56 10000 6.17 90 16:41 06.09.2022
1922 Clear 22 1017 60 10000 5.66 90 15:55 06.09.2022
1923 Clear 18 1017 75 10000 4.63 100 13:47 06.09.2022
1924 Clouds 18 1017 71 10000 4.63 90 13:27 06.09.2022
1925 Clear 17 1017 70 10000 5.66 90 12:56 06.09.2022
1926 Rain 18 1018 65 10000 4.63 100 10:54 06.09.2022
1927 Clear 17 1017 67 10000 5.66 90 08:58 06.09.2022
1928 Clear 17 1017 67 10000 5.14 100 07:52 06.09.2022
1929 Clear 17 1017 68 10000 6.17 90 06:18 06.09.2022
1930 Clear 19 1019 61 10000 4.63 90 00:45 06.09.2022
1931 Clear 21 1019 52 10000 6.17 90 22:44 05.09.2022
1932 Clear 23 1019 46 10000 5.14 90 21:38 05.09.2022
1933 Clear 24 1019 46 10000 5.66 90 20:18 05.09.2022
1934 Clear 27 1019 41 10000 5.14 100 18:53 05.09.2022
1935 Clear 27 1019 41 10000 4.12 110 18:24 05.09.2022
1936 Clear 28 1019 39 10000 4.12 100 17:47 05.09.2022
1937 Clear 27 1020 47 10000 5.14 100 15:53 05.09.2022
1938 Clear 26 1021 50 10000 5.66 130 14:34 05.09.2022
1939 Clear 25 1021 54 10000 5.66 130 12:51 05.09.2022
1940 Clear 20 1022 63 10000 4.63 110 10:35 05.09.2022
1941 Clear 17 1022 66 10000 4.12 110 08:45 05.09.2022
1942 Clear 16 1021 67 10000 3.09 90 03:47 05.09.2022
1943 Clear 16 1021 67 10000 3.09 90 03:47 05.09.2022
1944 Clear 19 1021 59 10000 4.12 90 00:18 05.09.2022
1945 Clear 20 1021 60 10000 4.12 80 22:28 04.09.2022
1946 Clear 20 1020 59 10000 3.6 80 21:55 04.09.2022
1947 Clear 22 1020 54 10000 3.6 90 20:21 04.09.2022
1948 Clear 25 1019 46 10000 3.6 100 18:34 04.09.2022
1949 Clear 26 1019 40 10000 3.6 100 17:31 04.09.2022
1950 Clear 25 1019 44 10000 4.63 140 15:43 04.09.2022
1951 Clear 25 1019 46 10000 4.63 100 14:25 04.09.2022
1952 Clear 22 1020 53 10000 4.12 80 12:34 04.09.2022
1953 Clear 19 1020 60 10000 3.6 100 10:59 04.09.2022
1954 Clear 16 1019 64 10000 4.12 120 09:34 04.09.2022
1955 Clear 12 1017 69 10000 3.09 90 06:34 04.09.2022
1956 Clear 15 1017 61 10000 4.63 80 02:51 04.09.2022
1957 Clear 18 1016 50 10000 5.14 90 22:53 03.09.2022
1958 Clear 20 1015 46 10000 4.12 90 21:26 03.09.2022
1959 Clear 20 1015 45 10000 4.12 90 20:55 03.09.2022
1960 Clear 23 1014 40 10000 6.17 110 18:41 03.09.2022
1961 Clear 24 1014 35 10000 5.66 110 17:19 03.09.2022
1962 Clear 24 1014 38 10000 6.17 120 15:49 03.09.2022
1963 Clear 24 1015 36 10000 6.17 100 14:42 03.09.2022
1964 Clear 23 1015 41 10000 8.23 110 13:50 03.09.2022
1965 Clear 20 1016 53 10000 5.66 100 11:33 03.09.2022
1966 Clear 16 1016 64 10000 4.63 110 09:36 03.09.2022
1967 Clouds 12 1016 77 10000 5.26 99 07:53 03.09.2022
1968 Clear 13 1016 72 10000 4.12 90 04:55 03.09.2022
1969 Clear 14 1016 66 10000 4.63 80 02:49 03.09.2022
1970 Clear 18 1016 56 10000 5.66 110 23:46 02.09.2022
1971 Clear 18 1016 55 10000 4.63 90 22:27 02.09.2022
1972 Clear 19 1016 51 10000 4.12 90 20:56 02.09.2022
1973 Clear 20 1016 49 10000 4.63 90 20:22 02.09.2022
1974 Clear 22 1016 44 10000 4.12 120 18:51 02.09.2022
1975 Clear 23 1016 44 10000 4.63 110 18:26 02.09.2022
1976 Clear 24 1016 41 10000 5.14 120 17:28 02.09.2022
1977 Clear 24 1016 42 10000 5.66 130 16:32 02.09.2022
1978 Clear 22 1018 47 10000 6.17 110 13:50 02.09.2022
1979 Clear 20 1019 56 10000 4.63 100 11:36 02.09.2022
1980 Clear 15 1020 67 10000 3.09 90 09:46 02.09.2022
1981 Clear 13 1020 76 10000 4.12 90 08:49 02.09.2022
1982 Clear 11 1020 86 10000 3.09 70 06:50 02.09.2022
1983 Clear 11 1020 83 10000 3.6 80 06:24 02.09.2022
1984 Clear 13 1021 73 10000 3.6 70 01:41 02.09.2022
1985 Clear 17 1021 61 10000 4.63 70 22:24 01.09.2022
1986 Clear 18 1021 59 10000 4.12 70 21:39 01.09.2022
1987 Clear 18 1021 56 10000 4.12 70 21:20 01.09.2022
1988 Clear 19 1022 56 10000 4.3 66 20:31 01.09.2022
1989 Clear 22 1021 43 10000 4.12 70 18:38 01.09.2022
1990 Clear 23 1022 37 10000 4.63 60 16:58 01.09.2022
1991 Clear 23 1022 41 10000 4.12 90 15:29 01.09.2022
1992 Clear 23 1023 44 10000 3.6 80 13:48 01.09.2022
1993 Clear 22 1023 48 10000 5.14 90 12:57 01.09.2022
1994 Clear 20 1024 52 10000 3.6 90 11:52 01.09.2022
1995 Clear 20 1024 55 10000 3.6 90 11:29 01.09.2022
1996 Clear 16 1024 74 10000 3.09 90 09:49 01.09.2022
1997 Clear 13 1023 84 10000 2.57 60 07:50 01.09.2022
1998 Clear 13 1023 83 10000 2.57 50 05:58 01.09.2022
1999 Clear 14 1024 73 10000 3.09 60 01:31 01.09.2022
2000 Clear 14 1024 73 10000 3.09 60 01:31 01.09.2022
2001 Clear 14 1024 73 10000 3.09 60 01:31 01.09.2022
2002 Clear 16 1023 65 10000 3.6 40 23:19 31.08.2022
2003 Clear 18 1023 57 10000 2.57 60 21:20 31.08.2022
2004 Clear 21 1022 45 10000 4.12 70 19:23 31.08.2022
2005 Clear 23 1023 38 10000 3.6 60 17:25 31.08.2022
2006 Clear 23 1023 41 10000 4.63 70 15:44 31.08.2022
2007 Clear 22 1024 47 10000 6.17 80 13:56 31.08.2022
2008 Clouds 20 1025 57 10000 5.14 50 12:19 31.08.2022
2009 Clear 17 1025 69 10000 5.14 60 10:30 31.08.2022
2010 Clear 13 1025 80 10000 3.09 60 08:32 31.08.2022
2011 Clear 12 1024 77 10000 3.6 60 03:46 31.08.2022
2012 Clear 16 1023 66 10000 5.14 60 22:44 30.08.2022
2013 Clear 18 1022 67 10000 4.63 60 21:33 30.08.2022
2014 Clear 19 1022 66 10000 4.12 50 20:47 30.08.2022
2015 Clouds 22 1021 62 10000 4.98 49 17:25 30.08.2022
2016 Clouds 22 1022 63 10000 4.12 60 14:42 30.08.2022
2017 Clouds 21 1023 68 10000 4.12 80 13:24 30.08.2022
2018 Clouds 18 1023 77 10000 2.06 70 11:21 30.08.2022
2019 Clouds 17 1023 75 10000 2.06 50 10:35 30.08.2022
2020 Clouds 11 1022 94 10000 0.51 0 06:50 30.08.2022
2021 Clear 14 1022 86 10000 1.54 60 01:45 30.08.2022
2022 Clear 14 1022 86 10000 1.54 60 01:45 30.08.2022
2023 Clear 14 1022 86 10000 1.54 60 01:45 30.08.2022
2024 Clear 17 1022 77 10000 3.09 60 22:54 29.08.2022
2025 Clear 18 1021 76 10000 4.12 60 22:20 29.08.2022
2026 Clouds 18 1021 75 10000 3.22 25 21:24 29.08.2022
2027 Clear 20 1020 65 10000 4.63 20 19:48 29.08.2022
2028 Clouds 23 1020 59 10000 5.14 10 17:50 29.08.2022
2029 Clouds 23 1020 59 10000 4.63 320 17:24 29.08.2022
2030 Clouds 24 1021 58 10000 5.14 340 16:22 29.08.2022
2031 Clouds 24 1021 59 10000 4.63 330 14:44 29.08.2022
2032 Clouds 21 1021 68 10000 3.6 340 12:52 29.08.2022
2033 Clouds 19 1021 80 10000 3.09 340 10:56 29.08.2022
2034 Clouds 17 1021 91 10000 3.6 310 09:45 29.08.2022
2035 Clouds 16 1020 93 10000 3.09 280 08:28 29.08.2022
2036 Clouds 15 1020 81 10000 3.6 280 02:49 29.08.2022
2037 Clouds 16 1020 75 10000 3.6 290 23:55 28.08.2022
2038 Clouds 17 1020 70 10000 4.63 300 22:36 28.08.2022
2039 Clouds 17 1020 69 10000 4.12 290 21:43 28.08.2022
2040 Clouds 17 1019 66 10000 4.63 310 20:54 28.08.2022
2041 Clouds 19 1019 60 10000 7.2 320 19:20 28.08.2022
2042 Clouds 19 1019 61 10000 7.2 340 18:20 28.08.2022
2043 Clouds 21 1019 58 10000 6.17 330 16:57 28.08.2022
2044 Clouds 21 1019 58 10000 6.69 300 16:22 28.08.2022
2045 Clouds 20 1019 56 10000 7.2 310 14:36 28.08.2022
2046 Clouds 20 1019 59 10000 8.75 300 12:32 28.08.2022
2047 Clear 19 1019 66 10000 6.17 300 10:43 28.08.2022
2048 Clouds 17 1018 71 10000 4.63 300 09:49 28.08.2022
2049 Clouds 15 1018 78 10000 2.57 280 08:37 28.08.2022
2050 Clear 12 1018 92 10000 1.03 270 07:43 28.08.2022
2051 Clouds 13 1017 89 10000 3.09 300 02:48 28.08.2022
2052 Clouds 14 1017 85 10000 3.09 300 00:27 28.08.2022
2053 Clouds 16 1017 77 10000 3.09 300 22:36 27.08.2022
2054 Clouds 18 1017 72 10000 5.14 320 21:36 27.08.2022
2055 Clouds 19 1016 67 10000 5.66 330 19:49 27.08.2022
2056 Clouds 21 1016 57 10000 6.17 320 17:43 27.08.2022
2057 Clouds 23 1015 59 10000 6.69 330 15:53 27.08.2022
2058 Clouds 22 1015 62 10000 6.69 320 15:24 27.08.2022
2059 Clouds 20 1016 73 10000 5.66 340 12:28 27.08.2022
2060 Clouds 20 1015 75 10000 5.14 330 11:32 27.08.2022
2061 Clouds 20 1015 75 10000 5.14 330 11:32 27.08.2022
2062 Clouds 19 1015 78 10000 5.14 330 09:49 27.08.2022
2063 Clouds 19 1014 82 10000 4.63 340 08:22 27.08.2022
2064 Clouds 19 1014 83 10000 4.63 330 03:40 27.08.2022
2065 Clouds 20 1015 86 10000 5.14 340 23:58 26.08.2022
2066 Clouds 20 1014 86 10000 7.2 340 22:50 26.08.2022
2067 Clouds 21 1014 83 10000 5.14 330 21:30 26.08.2022
2068 Clouds 22 1013 82 10000 4.12 330 19:23 26.08.2022
2069 Rain 23 1013 82 10000 5.66 310 17:25 26.08.2022
2070 Clouds 27 1012 66 10000 6.17 340 15:35 26.08.2022
2071 Clouds 28 1013 59 10000 2.57 90 14:42 26.08.2022
2072 Clear 28 1013 60 10000 2.06 0 12:53 26.08.2022
2073 Clear 27 1014 63 10000 1.54 140 11:35 26.08.2022
2074 Clear 25 1014 70 10000 1.54 0 10:46 26.08.2022
2075 Clear 19 1013 88 10000 1.03 0 07:32 26.08.2022
2076 Clear 22 1014 77 10000 3.6 110 02:31 26.08.2022
2077 Clear 23 1014 71 10000 3.09 100 23:44 25.08.2022
2078 Clear 25 1014 64 10000 3.6 80 21:40 25.08.2022
2079 Clear 26 1014 61 10000 3.09 90 20:51 25.08.2022
2080 Clear 29 1014 53 10000 3.6 100 19:24 25.08.2022
2081 Clear 28 1014 51 10000 5.66 90 18:18 25.08.2022
2082 Clear 29 1015 52 10000 4.63 110 17:31 25.08.2022
2083 Clear 29 1015 53 10000 5.14 130 16:25 25.08.2022
2084 Clear 29 1016 54 10000 4.63 120 15:27 25.08.2022
2085 Clouds 27 1018 59 10000 4.12 130 12:47 25.08.2022
2086 Clear 24 1019 69 10000 3.6 100 10:49 25.08.2022
2087 Clear 22 1019 77 10000 3.6 110 09:44 25.08.2022
2088 Clear 17 1019 84 10000 3.09 80 06:45 25.08.2022
2089 Clear 21 1019 64 10000 3.09 120 01:57 25.08.2022
2090 Clear 23 1020 57 10000 3.6 90 23:28 24.08.2022
2091 Clear 24 1019 55 10000 4.12 90 22:43 24.08.2022
2092 Clear 26 1019 52 10000 4.12 90 21:37 24.08.2022
2093 Clear 26 1019 51 10000 4.12 90 21:19 24.08.2022
2094 Clear 30 1018 37 10000 3.09 130 19:34 24.08.2022
2095 Clear 32 1018 37 10000 3.6 110 16:49 24.08.2022
2096 Clear 31 1018 38 10000 4.63 140 15:52 24.08.2022
2097 Clear 30 1019 39 10000 3.09 170 13:49 24.08.2022
2098 Clear 27 1019 49 10000 4.12 120 12:24 24.08.2022
2099 Clear 26 1019 51 10000 4.12 140 11:18 24.08.2022
2100 Clear 19 1018 72 10000 3.09 130 08:28 24.08.2022
2101 Clear 20 1018 67 10000 3.09 110 03:54 24.08.2022
2102 Clear 22 1017 52 10000 4.63 110 23:53 23.08.2022
2103 Clear 23 1017 55 10000 3.6 110 22:35 23.08.2022
2104 Clear 24 1017 53 10000 3.6 120 21:49 23.08.2022
2105 Clear 26 1016 43 10000 4.12 110 20:40 23.08.2022
2106 Clear 28 1015 41 10000 4.12 120 18:55 23.08.2022
2107 Clear 29 1016 39 10000 4.12 140 17:56 23.08.2022
2108 Clear 30 1016 34 10000 4.63 140 17:21 23.08.2022
2109 Clear 29 1016 38 10000 5.66 150 15:54 23.08.2022
2110 Clear 28 1016 41 10000 5.14 120 13:54 23.08.2022
2111 Clear 27 1016 46 10000 6.69 130 12:46 23.08.2022
2112 Clear 23 1017 58 10000 6.17 130 10:57 23.08.2022
2113 Clear 22 1017 62 10000 5.14 130 10:33 23.08.2022
2114 Clear 20 1016 70 10000 4.63 130 08:58 23.08.2022
2115 Clear 19 1016 71 10000 4.63 130 08:38 23.08.2022
2116 Clear 19 1016 72 10000 3.09 120 08:18 23.08.2022
2117 Clear 18 1016 72 10000 3.6 110 07:25 23.08.2022
2118 Clear 19 1015 71 10000 3.6 110 06:22 23.08.2022
2119 Clear 20 1015 65 10000 4.12 130 01:44 23.08.2022
2120 Clear 21 1015 66 10000 3.09 110 00:26 23.08.2022
2121 Clouds 21 1015 67 10000 3.6 90 23:32 22.08.2022
2122 Clouds 21 1015 74 10000 3.44 73 22:24 22.08.2022
2123 Clouds 23 1014 67 10000 4.3 44 20:29 22.08.2022
2124 Clear 24 1014 52 10000 3.6 60 19:41 22.08.2022
2125 Clouds 25 1014 52 10000 2.57 90 18:37 22.08.2022
2126 Clouds 25 1015 52 10000 2.57 70 15:46 22.08.2022
2127 Clouds 25 1015 52 10000 2.06 150 15:18 22.08.2022
2128 Clouds 23 1017 68 10000 3.6 90 11:45 22.08.2022
2129 Clear 19 1017 82 10000 3.09 70 09:24 22.08.2022
2130 Clear 16 1016 91 10000 1.54 40 05:51 22.08.2022
2131 Clear 17 1016 88 10000 2.57 30 02:28 22.08.2022
2132 Clouds 17 1017 91 10000 2.04 10 00:36 22.08.2022
2133 Clear 19 1016 77 10000 2.57 10 23:32 21.08.2022
2134 Clear 21 1016 64 10000 4.63 350 21:55 21.08.2022
2135 Clear 21 1015 68 10000 6.17 350 21:19 21.08.2022
2136 Clear 21 1015 75 10000 6.17 350 20:20 21.08.2022
2137 Clear 24 1014 56 10000 3.6 300 18:49 21.08.2022
2138 Clear 25 1014 43 10000 2.06 0 16:50 21.08.2022
2139 Clear 25 1015 53 10000 4.12 280 15:52 21.08.2022
2140 Clear 24 1015 55 10000 4.63 240 14:57 21.08.2022
2141 Clouds 23 1015 60 10000 5.14 290 13:51 21.08.2022
2142 Clouds 24 1015 60 10000 6.17 250 12:56 21.08.2022
2143 Clear 20 1016 72 10000 4.12 230 10:41 21.08.2022
2144 Clear 17 1016 84 10000 1.54 230 09:21 21.08.2022
2145 Clear 16 1016 82 10000 1.03 0 08:46 21.08.2022
2146 Clear 15 1016 87 10000 0.51 0 08:28 21.08.2022
2147 Clear 12 1015 94 10000 0.51 200 06:37 21.08.2022
2148 Clear 14 1017 86 10000 0.51 110 01:50 21.08.2022
2149 Clear 16 1017 76 10000 1.54 90 23:34 20.08.2022
2150 Clear 18 1017 71 10000 3.09 20 21:57 20.08.2022
2151 Clear 20 1016 65 10000 3.09 30 20:56 20.08.2022
2152 Clouds 21 1016 62 10000 4.12 10 19:49 20.08.2022
2153 Clear 22 1016 58 10000 3.09 300 18:50 20.08.2022
2154 Clear 23 1016 55 10000 4.12 320 18:26 20.08.2022
2155 Clouds 24 1016 51 10000 5.66 310 17:21 20.08.2022
2156 Clouds 24 1016 54 10000 4.12 310 16:23 20.08.2022
2157 Clear 23 1016 60 10000 4.12 320 14:35 20.08.2022
2158 Clouds 22 1016 70 10000 4.12 300 12:19 20.08.2022
2159 Clouds 21 1016 78 10000 3.6 310 11:42 20.08.2022
2160 Clouds 19 1015 93 10000 3.6 310 09:25 20.08.2022
2161 Rain 18 1014 94 10000 1.54 250 07:31 20.08.2022
2162 Clouds 18 1014 92 10000 2.06 290 05:48 20.08.2022
2163 Clear 18 1014 79 10000 1.54 270 00:58 20.08.2022
2164 Clear 18 1013 77 10000 1.54 300 23:52 19.08.2022
2165 Clear 19 1013 70 10000 1.54 80 22:48 19.08.2022
2166 Clear 21 1012 62 10000 2.06 20 21:34 19.08.2022
2167 Clouds 23 1011 63 10000 3 22 19:40 19.08.2022
2168 Clear 27 1012 46 10000 6.17 290 16:32 19.08.2022
2169 Clear 25 1013 52 10000 3.6 290 14:22 19.08.2022
2170 Clear 23 1013 59 10000 1.54 0 12:45 19.08.2022
2171 Clouds 20 1013 72 10000 2.57 10 10:41 19.08.2022
2172 Clear 18 1013 83 10000 2.06 300 09:36 19.08.2022
2173 Clouds 17 1012 93 10000 1.54 270 04:56 19.08.2022
2174 Clouds 17 1013 89 10000 2.57 350 00:43 19.08.2022
2175 Clear 17 1013 89 10000 2.57 10 00:20 19.08.2022
2176 Clear 18 1013 85 10000 3.09 360 22:59 18.08.2022
2177 Clouds 18 1013 85 10000 4.63 350 22:26 18.08.2022
2178 Clouds 18 1013 84 10000 3.6 340 21:51 18.08.2022
2179 Clouds 19 1012 82 10000 5.14 350 20:56 18.08.2022
2180 Clouds 21 1012 76 10000 4.63 340 19:54 18.08.2022
2181 Clouds 22 1012 76 10000 5.14 340 19:21 18.08.2022
2182 Clouds 23 1012 70 10000 4.63 320 17:41 18.08.2022
2183 Clouds 24 1012 72 10000 5.66 300 16:25 18.08.2022
2184 Clouds 23 1012 75 10000 6.17 310 14:22 18.08.2022
2185 Clouds 24 1012 72 10000 3.6 280 13:45 18.08.2022
2186 Clouds 22 1012 81 10000 3.09 270 12:31 18.08.2022
2187 Clouds 21 1012 85 10000 3.09 290 11:21 18.08.2022
2188 Clouds 20 1012 88 10000 4.12 250 09:43 18.08.2022
2189 Clouds 19 1011 92 10000 4.63 270 07:57 18.08.2022
2190 Clouds 19 1011 92 9000 3.09 240 07:18 18.08.2022
2191 Clear 18 1010 96 10000 1.03 180 02:59 18.08.2022
2192 Clear 20 1010 83 10000 2.06 80 22:51 17.08.2022
2193 Clouds 19 1011 93 10000 4.38 4 21:26 17.08.2022
2194 Clouds 21 1011 96 10000 5.27 328 19:59 17.08.2022
2195 Clouds 29 1009 39 10000 3.09 100 18:39 17.08.2022
2196 Clouds 28 1009 55 10000 4.12 120 17:28 17.08.2022
2197 Clear 29 1010 52 10000 3.09 130 16:21 17.08.2022
2198 Clear 29 1010 49 10000 4.12 110 14:48 17.08.2022
2199 Clear 29 1011 51 10000 3.09 100 12:52 17.08.2022
2200 Clear 27 1011 62 10000 2.06 0 11:36 17.08.2022
2201 Clouds 20 1011 87 9000 2.06 80 09:31 17.08.2022
2202 Clouds 18 1011 96 10000 2.25 49 07:36 17.08.2022
2203 Clear 18 1011 90 10000 1.03 40 02:21 17.08.2022
2204 Clouds 20 1011 85 10000 1.5 48 23:49 16.08.2022
2205 Clouds 21 1010 83 10000 2.04 356 21:59 16.08.2022
2206 Clear 23 1009 69 10000 1.54 290 20:51 16.08.2022
2207 Rain 24 1008 65 10000 5.14 300 19:50 16.08.2022
2208 Clouds 27 1008 52 10000 2.57 330 18:34 16.08.2022
2209 Rain 27 1008 53 10000 5.66 290 17:40 16.08.2022
2210 Clouds 28 1008 49 10000 4.12 260 15:47 16.08.2022
2211 Clear 29 1008 51 10000 5.14 220 14:55 16.08.2022
2212 Clear 29 1008 50 10000 5.14 220 14:37 16.08.2022
2213 Clear 26 1007 58 10000 1.54 220 12:43 16.08.2022
2214 Clear 23 1007 78 10000 2.57 180 10:35 16.08.2022
2215 Clear 22 1007 81 10000 2.57 140 09:44 16.08.2022
2216 Clear 20 1006 87 10000 1.54 200 08:45 16.08.2022
2217 Clouds 18 1006 91 7000 1.54 160 07:33 16.08.2022
2218 Clear 19 1005 87 10000 2.06 250 01:42 16.08.2022
2219 Clear 20 1004 86 10000 1.54 160 22:30 15.08.2022
2220 Clear 20 1004 86 10000 1.54 160 22:30 15.08.2022
2221 Clear 21 1004 86 10000 1.03 150 21:54 15.08.2022
2222 Clouds 21 1004 80 10000 0.51 0 20:52 15.08.2022
2223 Rain 21 1004 83 10000 2.06 90 20:19 15.08.2022
2224 Rain 21 1004 83 10000 2.06 90 20:19 15.08.2022
2225 Clear 26 1003 61 10000 3.09 110 18:41 15.08.2022
2226 Rain 28 1003 48 10000 3.09 220 17:36 15.08.2022
2227 Clouds 27 1003 55 10000 8.23 210 16:22 15.08.2022
2228 Clear 30 1003 45 10000 3.6 160 13:57 15.08.2022
2229 Clear 27 1003 47 10000 2.06 110 12:37 15.08.2022
2230 Clear 24 1003 63 10000 2.06 130 10:18 15.08.2022
2231 Clear 21 1003 73 10000 2.06 120 08:51 15.08.2022
2232 Clear 21 1004 74 10000 1.54 80 06:33 15.08.2022
2233 Clear 23 1005 65 10000 3.09 90 02:57 15.08.2022
2234 Clear 25 1006 62 10000 3.6 90 23:22 14.08.2022
2235 Clear 26 1006 57 10000 2.57 90 21:42 14.08.2022
2236 Clear 28 1006 50 10000 5.14 110 20:33 14.08.2022
2237 Clear 30 1006 42 10000 5.14 90 19:36 14.08.2022
2238 Clouds 31 1007 40 10000 6.17 110 18:21 14.08.2022
2239 Clear 30 1007 41 10000 4.12 140 17:27 14.08.2022
2240 Clear 31 1008 41 10000 6.69 110 16:22 14.08.2022
2241 Clear 30 1009 48 10000 5.14 120 14:55 14.08.2022
2242 Clear 30 1010 47 10000 5.14 110 13:51 14.08.2022
2243 Clear 29 1010 52 10000 5.14 120 13:31 14.08.2022
2244 Clear 29 1010 53 10000 5.14 120 13:31 14.08.2022
2245 Clear 28 1011 53 10000 3.6 120 12:35 14.08.2022
2246 Clear 26 1012 63 10000 4.12 120 11:22 14.08.2022
2247 Clear 23 1012 70 10000 3.09 110 08:57 14.08.2022
2248 Clear 20 1013 80 10000 3.09 70 06:40 14.08.2022
2249 Rain 20 1013 78 10000 3.09 80 05:37 14.08.2022
2250 Clear 22 1015 70 10000 2.57 70 01:36 14.08.2022
2251 Clear 23 1015 65 10000 2.06 60 23:22 13.08.2022
2252 Clear 24 1015 61 10000 2.06 70 22:28 13.08.2022
2253 Clear 27 1015 51 10000 3.6 100 20:51 13.08.2022
2254 Clear 28 1015 46 10000 5.14 100 19:49 13.08.2022
2255 Clear 29 1015 43 10000 5.14 90 19:18 13.08.2022
2256 Clear 30 1016 37 10000 4.63 60 17:22 13.08.2022
2257 Clear 30 1017 36 10000 5.66 50 14:51 13.08.2022
2258 Clear 30 1017 36 10000 3.6 90 14:24 13.08.2022
2259 Clear 30 1018 36 10000 3.6 70 13:34 13.08.2022
2260 Clear 28 1019 39 10000 2.06 90 11:33 13.08.2022
2261 Clear 23 1019 53 10000 0.51 0 09:26 13.08.2022
2262 Clear 17 1019 71 10000 0.51 130 07:43 13.08.2022
2263 Clear 20 1019 56 10000 2.57 90 01:56 13.08.2022
2264 Clear 21 1019 54 10000 2.57 90 23:36 12.08.2022
2265 Clear 25 1018 47 10000 2.57 100 21:40 12.08.2022
2266 Clear 29 1018 29 10000 4.12 90 19:50 12.08.2022
2267 Clear 30 1018 29 10000 5.14 70 19:24 12.08.2022
2268 Clear 31 1018 29 10000 3.09 100 18:31 12.08.2022
2269 Clear 31 1019 29 10000 4.12 110 16:27 12.08.2022
2270 Clear 30 1019 35 10000 2.06 0 15:23 12.08.2022
2271 Clear 30 1020 29 10000 4.12 110 13:56 12.08.2022
2272 Clear 28 1021 37 10000 3.09 80 12:51 12.08.2022
2273 Clear 21 1021 61 10000 2.06 90 09:28 12.08.2022
2274 Clear 18 1021 72 10000 2.06 50 07:47 12.08.2022
2275 Clear 16 1021 81 10000 2.06 60 06:25 12.08.2022
2276 Clear 19 1021 72 10000 3.6 70 01:45 12.08.2022
2277 Clear 21 1021 65 10000 3.09 60 00:20 12.08.2022
2278 Clear 21 1021 65 10000 3.09 50 23:29 11.08.2022
2279 Clear 24 1021 58 10000 2.57 40 21:57 11.08.2022
2280 Clear 24 1021 56 10000 2.57 40 21:35 11.08.2022
2281 Clear 28 1020 38 10000 4.12 50 20:32 11.08.2022
2282 Clear 28 1020 37 10000 4.63 40 19:57 11.08.2022
2283 Clear 29 1021 36 10000 4.63 40 19:32 11.08.2022
2284 Clear 30 1021 34 10000 3.09 70 17:47 11.08.2022
2285 Clear 29 1022 33 10000 3.6 60 16:32 11.08.2022
2286 Clear 29 1022 44 10000 2.57 40 15:21 11.08.2022
2287 Clear 27 1024 38 10000 3.09 70 12:41 11.08.2022
2288 Clear 22 1024 62 10000 1.03 0 09:54 11.08.2022
2289 Clear 15 1024 87 10000 1.54 50 06:59 11.08.2022
2290 Clear 16 1024 85 10000 1.03 80 03:46 11.08.2022
2291 Clear 19 1025 83 10000 3.09 40 00:35 11.08.2022
2292 Clear 22 1024 63 10000 3.09 40 22:22 10.08.2022
2293 Clear 23 1024 56 10000 3.09 40 21:24 10.08.2022
2294 Clear 24 1024 55 10000 4.12 50 20:54 10.08.2022
2295 Clear 27 1025 43 10000 4.12 40 19:24 10.08.2022
2296 Clear 28 1025 37 10000 4.12 60 17:55 10.08.2022
2297 Clear 28 1025 39 10000 4.12 30 16:35 10.08.2022
2298 Clear 26 1027 44 10000 3.09 70 13:35 10.08.2022
2299 Clear 24 1028 60 10000 3.09 70 12:35 10.08.2022
2300 Clear 19 1028 79 10000 2.57 70 09:25 10.08.2022
2301 Clear 17 1028 78 10000 2.57 70 08:33 10.08.2022
2302 Clear 14 1028 92 10000 1.54 50 07:18 10.08.2022
2303 Clear 15 1028 91 10000 1.54 60 03:25 10.08.2022
2304 Clear 18 1028 77 10000 4.63 10 23:34 09.08.2022
2305 Clear 18 1028 76 10000 5.14 10 22:56 09.08.2022
2306 Clear 21 1028 74 10000 5.14 20 21:36 09.08.2022
2307 Clear 23 1027 65 10000 5.66 20 20:30 09.08.2022
2308 Clear 24 1027 59 10000 3.6 30 18:44 09.08.2022
2309 Clear 25 1028 47 10000 3.09 30 17:28 09.08.2022
2310 Clear 25 1028 47 10000 3.09 30 17:28 09.08.2022
2311 Clear 25 1028 48 10000 3.6 360 16:41 09.08.2022
2312 Clouds 25 1028 48 10000 2.57 0 15:58 09.08.2022
2313 Clouds 22 1029 68 10000 2.57 40 12:52 09.08.2022
2314 Clear 18 1029 76 10000 2.57 40 09:56 09.08.2022
2315 Clear 16 1029 87 10000 3.6 40 08:50 09.08.2022
2316 Clear 14 1028 92 10000 2.06 30 07:53 09.08.2022
2317 Clear 13 1028 93 10000 0.51 0 04:25 09.08.2022
2318 Clouds 16 1027 92 10000 3 8 23:35 08.08.2022
2319 Clouds 16 1027 91 10000 3.23 4 22:56 08.08.2022
2320 Clouds 17 1027 93 10000 3.38 358 22:22 08.08.2022
2321 Clouds 18 1026 85 10000 3.37 348 21:22 08.08.2022
2322 Clear 20 1026 73 10000 3.6 360 19:51 08.08.2022
2323 Clouds 21 1025 66 10000 3.09 20 18:58 08.08.2022
2324 Clear 22 1026 62 10000 3.6 310 16:47 08.08.2022
2325 Clouds 22 1026 66 10000 4.63 350 15:45 08.08.2022
2326 Clear 22 1026 67 10000 3.09 290 14:33 08.08.2022
2327 Clouds 21 1026 59 10000 1.54 0 12:29 08.08.2022
2328 Clear 19 1026 72 10000 3.09 330 10:19 08.08.2022
2329 Clear 11 1025 95 10000 2.06 290 06:54 08.08.2022
2330 Clear 11 1024 93 10000 0.51 340 03:34 08.08.2022
2331 Clear 17 1024 70 10000 4.12 20 22:44 07.08.2022
2332 Clear 19 1023 60 10000 3.09 10 21:40 07.08.2022
2333 Clear 21 1023 49 10000 4.12 10 20:42 07.08.2022
2334 Clear 21 1023 61 10000 3.09 300 20:18 07.08.2022
2335 Clear 21 1023 59 10000 3.09 300 19:41 07.08.2022
2336 Clear 23 1023 54 10000 3.09 290 18:40 07.08.2022
2337 Clear 23 1024 43 10000 3.09 300 17:18 07.08.2022
2338 Clear 23 1024 42 10000 3.09 260 16:38 07.08.2022
2339 Clear 23 1024 43 10000 2.06 0 15:25 07.08.2022
2340 Clouds 21 1025 50 10000 2.57 280 13:44 07.08.2022
2341 Clear 20 1026 64 10000 2.06 0 12:18 07.08.2022
2342 Clear 19 1026 61 10000 1.54 0 10:37 07.08.2022
2343 Clear 13 1027 91 10000 0.51 0 08:26 07.08.2022
2344 Clear 10 1026 95 10000 0.51 260 04:26 07.08.2022
2345 Clear 11 1027 91 10000 0 0 01:50 07.08.2022
2346 Clouds 14 1027 87 10000 3.2 360 22:28 06.08.2022
2347 Clear 16 1027 77 10000 4.63 350 21:43 06.08.2022
2348 Clouds 19 1026 65 10000 4.12 330 19:42 06.08.2022
2349 Clouds 20 1026 61 10000 2.57 0 18:33 06.08.2022
2350 Clear 20 1027 52 10000 2.57 300 17:44 06.08.2022
2351 Clouds 20 1027 67 10000 4.12 320 15:21 06.08.2022
2352 Clouds 20 1027 67 10000 3.6 280 13:50 06.08.2022
2353 Clouds 19 1027 66 10000 4.12 290 12:21 06.08.2022
2354 Clouds 18 1027 64 10000 4.63 300 10:40 06.08.2022
2355 Clear 16 1026 82 10000 1.54 230 09:24 06.08.2022
2356 Clouds 11 1024 92 10000 1.03 270 03:56 06.08.2022
2357 Clear 12 1023 90 10000 1.54 260 00:46 06.08.2022
2358 Clear 13 1022 78 10000 3.09 290 22:35 05.08.2022
2359 Clear 17 1020 70 10000 4.63 310 20:50 05.08.2022
2360 Clear 19 1019 63 10000 8.23 300 18:56 05.08.2022
2361 Clouds 19 1018 71 10000 6.28 315 18:38 05.08.2022
2362 Clouds 21 1017 64 10000 6.69 300 16:52 05.08.2022
2363 Clouds 20 1017 85 10000 3.6 240 15:25 05.08.2022
2364 Clouds 19 1017 87 10000 4.12 240 14:38 05.08.2022
2365 Clouds 18 1016 90 10000 3.09 260 13:38 05.08.2022
2366 Clouds 18 1016 93 10000 2.57 290 13:18 05.08.2022
2367 Rain 17 1015 96 10000 2.06 280 11:55 05.08.2022
2368 Clouds 17 1015 97 10000 2.57 316 09:18 05.08.2022
2369 Clouds 17 1015 96 10000 3.09 290 07:57 05.08.2022
2370 Clear 17 1014 93 10000 3.6 310 04:48 05.08.2022
2371 Clouds 19 1014 92 10000 4.12 340 23:36 04.08.2022
2372 Clear 20 1013 89 10000 4.63 340 21:37 04.08.2022
2373 Clear 20 1013 89 10000 4.63 340 21:18 04.08.2022
2374 Clear 22 1012 84 10000 5.14 340 20:38 04.08.2022
2375 Clear 22 1012 89 10000 4.63 10 19:00 04.08.2022
2376 Clear 22 1012 90 10000 4.63 10 18:34 04.08.2022
2377 Thunderstorm 28 1011 66 10000 6.69 300 16:54 04.08.2022
2378 Clear 34 1010 34 10000 4.63 210 13:34 04.08.2022
2379 Clear 30 1011 49 10000 3.09 140 11:42 04.08.2022
2380 Clear 27 1012 63 10000 2.57 140 10:24 04.08.2022
2381 Clear 21 1012 85 10000 3.6 120 07:50 04.08.2022
2382 Clear 18 1014 94 10000 1.54 140 03:33 04.08.2022
2383 Clear 20 1014 91 10000 2.06 80 01:42 04.08.2022
2384 Clouds 19 1015 91 10000 2.85 52 23:41 03.08.2022
2385 Clouds 23 1015 82 10000 3.37 8 21:39 03.08.2022
2386 Clear 27 1013 62 10000 2.57 230 20:22 03.08.2022
2387 Clear 30 1013 45 10000 4.12 220 19:28 03.08.2022
2388 Clear 31 1013 41 10000 4.12 220 17:41 03.08.2022
2389 Clear 31 1013 42 10000 5.14 250 16:24 03.08.2022
2390 Clear 30 1014 53 10000 5.14 260 14:43 03.08.2022
2391 Clear 27 1014 59 10000 6.69 220 11:53 03.08.2022
2392 Clear 20 1014 81 10000 1.54 220 08:20 03.08.2022
2393 Clear 17 1014 90 10000 1.03 190 04:46 03.08.2022
2394 Clear 18 1014 86 10000 1.54 170 03:28 03.08.2022
2395 Clear 19 1015 84 10000 1.54 170 01:18 03.08.2022
2396 Clear 19 1015 84 10000 1.54 170 01:18 03.08.2022
2397 Clear 21 1015 79 10000 1.54 170 23:18 02.08.2022
2398 Clear 23 1014 71 10000 1.03 200 21:55 02.08.2022
2399 Clear 24 1014 60 10000 1.54 260 21:21 02.08.2022
2400 Clear 27 1014 44 10000 4.12 220 18:59 02.08.2022
2401 Clear 26 1015 49 10000 5.66 210 16:27 02.08.2022
2402 Clear 23 1017 48 10000 3.6 210 12:53 02.08.2022
2403 Clear 15 1018 85 10000 2.57 130 09:40 02.08.2022
2404 Clear 11 1018 96 10000 1.54 150 07:56 02.08.2022
2405 Clear 10 1018 98 10000 1.03 0 07:25 02.08.2022
2406 Fog 9 1019 98 650 0.51 150 04:55 02.08.2022
2407 Clear 13 1019 84 10000 1.54 10 23:52 01.08.2022
2408 Clear 14 1019 81 10000 3.09 350 22:50 01.08.2022
2409 Clear 16 1019 82 10000 3.46 354 20:57 01.08.2022
2410 Clouds 18 1018 70 10000 4.12 340 19:41 01.08.2022
2411 Clouds 19 1018 68 10000 4.12 340 18:43 01.08.2022
2412 Clouds 20 1018 60 10000 5.14 330 16:54 01.08.2022
2413 Clouds 20 1018 70 10000 5.14 320 16:29 01.08.2022
2414 Clouds 20 1018 70 10000 4.63 330 15:31 01.08.2022
2415 Clouds 20 1017 70 10000 5.66 310 14:43 01.08.2022
2416 Clouds 20 1017 70 10000 5.66 310 14:43 01.08.2022
2417 Clouds 19 1017 76 10000 4.63 330 12:52 01.08.2022
2418 Clouds 17 1016 90 10000 5.14 330 10:30 01.08.2022
2419 Clouds 16 1015 97 10000 5.14 300 08:41 01.08.2022
2420 Clouds 17 1014 97 10000 4.12 300 06:50 01.08.2022
2421 Clouds 18 1013 97 10000 3.6 300 04:29 01.08.2022
2422 Clouds 18 1013 98 10000 3.09 290 00:56 01.08.2022
2423 Rain 19 1013 96 10000 3.09 210 22:42 31.07.2022
2424 Clouds 19 1013 96 10000 2.57 170 21:46 31.07.2022
2425 Clouds 19 1013 96 10000 3.09 200 20:18 31.07.2022
2426 Clouds 18 1013 95 6000 3.09 210 18:38 31.07.2022
2427 Rain 20 1014 81 10000 4.12 290 16:22 31.07.2022
2428 Rain 24 1014 62 10000 5.14 180 13:59 31.07.2022
2429 Rain 24 1015 58 10000 4.12 180 12:55 31.07.2022
2430 Clear 21 1016 65 10000 2.57 160 10:53 31.07.2022
2431 Clear 17 1016 83 10000 1.54 150 08:29 31.07.2022
2432 Clear 16 1017 92 10000 1.03 230 05:20 31.07.2022
2433 Clear 16 1018 91 10000 1.54 290 01:20 31.07.2022
2434 Clear 18 1018 84 10000 3.6 330 22:40 30.07.2022
2435 Clear 19 1018 83 10000 1.54 350 21:50 30.07.2022
2436 Clear 19 1018 82 10000 1.54 350 21:32 30.07.2022
2437 Clouds 20 1017 76 10000 6.69 340 20:28 30.07.2022
2438 Clouds 21 1017 73 10000 6.17 340 19:50 30.07.2022
2439 Clear 25 1016 53 10000 2.57 20 17:53 30.07.2022
2440 Clouds 25 1017 55 10000 3.09 290 16:38 30.07.2022
2441 Clouds 25 1017 53 10000 2.06 300 15:30 30.07.2022
2442 Clouds 24 1017 59 10000 3.09 310 13:23 30.07.2022
2443 Clear 22 1017 70 10000 2.06 320 12:22 30.07.2022
2444 Clear 22 1017 70 10000 2.06 270 11:51 30.07.2022
2445 Clear 20 1017 79 10000 2.57 240 10:19 30.07.2022
2446 Clear 16 1017 92 10000 2.06 230 08:54 30.07.2022
2447 Clear 15 1016 92 10000 1.03 0 06:58 30.07.2022
2448 Clear 18 1017 79 10000 1.54 40 02:33 30.07.2022
2449 Clouds 18 1017 81 10000 2.52 48 23:57 29.07.2022
2450 Clouds 20 1017 70 10000 2.57 350 21:38 29.07.2022
2451 Clear 21 1016 68 10000 4.63 20 20:50 29.07.2022
2452 Rain 21 1016 63 10000 4.12 20 19:46 29.07.2022
2453 Clear 24 1016 46 10000 4.12 50 17:25 29.07.2022
2454 Clear 24 1017 43 10000 5.14 60 14:50 29.07.2022
2455 Clear 23 1017 51 10000 4.63 60 12:52 29.07.2022
2456 Clear 15 1018 76 10000 4.12 70 08:52 29.07.2022
2457 Clear 15 1018 75 10000 4.12 80 08:24 29.07.2022
2458 Clear 14 1018 77 10000 4.12 60 06:40 29.07.2022
2459 Clouds 14 1020 78 10000 3.3 41 01:19 29.07.2022
2460 Clear 18 1018 57 10000 4.63 50 21:45 28.07.2022
2461 Clouds 18 1019 61 10000 3.7 30 20:54 28.07.2022
2462 Clear 19 1018 53 10000 5.14 30 20:20 28.07.2022
2463 Clear 20 1018 52 10000 4.63 40 19:40 28.07.2022
2464 Clear 21 1019 49 10000 4.63 40 18:25 28.07.2022
2465 Clear 21 1019 46 10000 3.6 50 17:42 28.07.2022
2466 Clear 21 1019 46 10000 3.6 40 16:41 28.07.2022
2467 Clouds 20 1020 52 10000 4.63 60 14:50 28.07.2022
2468 Clouds 18 1020 59 10000 3.09 0 12:41 28.07.2022
2469 Clouds 16 1021 73 10000 0.51 0 09:45 28.07.2022
2470 Clouds 11 1020 90 10000 1.03 220 06:21 28.07.2022
2471 Clouds 10 1020 92 10000 1.54 200 05:26 28.07.2022
2472 Clouds 11 1020 84 10000 1.03 260 00:44 28.07.2022
2473 Clear 15 1020 68 10000 4.63 340 22:31 27.07.2022
2474 Clear 17 1019 60 10000 5.66 350 20:25 27.07.2022
2475 Clouds 18 1019 57 10000 6.17 320 19:34 27.07.2022
2476 Clouds 19 1019 57 10000 7.2 330 17:23 27.07.2022
2477 Clouds 20 1019 48 10000 5.66 300 15:52 27.07.2022
2478 Clouds 19 1019 57 10000 5.14 330 14:48 27.07.2022
2479 Clouds 19 1019 56 10000 5.66 310 14:30 27.07.2022
2480 Clouds 18 1019 61 10000 5.66 320 12:48 27.07.2022
2481 Clear 13 1018 90 10000 3.09 260 07:53 27.07.2022
2482 Clouds 11 1018 92 10000 2.06 250 06:19 27.07.2022
2483 Clear 13 1018 84 10000 2.57 280 00:48 27.07.2022
2484 Clear 16 1017 74 10000 4.63 310 22:25 26.07.2022
2485 Clear 17 1017 70 10000 5.14 320 21:20 26.07.2022
2486 Clouds 17 1017 70 10000 4.88 323 20:25 26.07.2022
2487 Clouds 19 1016 62 10000 6.69 310 18:42 26.07.2022
2488 Clouds 19 1016 60 10000 5.66 310 17:58 26.07.2022
2489 Clouds 19 1016 52 10000 5.66 310 15:58 26.07.2022
2490 Clouds 18 1016 63 10000 5.14 320 15:18 26.07.2022
2491 Clouds 19 1015 65 10000 7.2 330 13:20 26.07.2022
2492 Clouds 18 1014 81 10000 5.66 310 11:20 26.07.2022
2493 Rain 17 1012 95 8000 5.14 300 08:55 26.07.2022
2494 Clouds 17 1011 86 10000 4.12 250 05:49 26.07.2022
2495 Clear 19 1010 68 10000 3.6 240 00:37 26.07.2022
2496 Clear 18 1010 76 10000 3.09 250 23:32 25.07.2022
2497 Clear 20 1009 70 10000 7.2 270 22:26 25.07.2022
2498 Clouds 20 1009 72 10000 4.87 277 21:43 25.07.2022
2499 Clouds 22 1008 71 10000 4.63 270 20:42 25.07.2022
2500 Clouds 21 1008 73 10000 5.66 270 19:46 25.07.2022
2501 Clear 23 1007 75 10000 7.2 280 18:19 25.07.2022
2502 Clouds 22 1007 83 10000 4.63 280 17:27 25.07.2022
2503 Clear 30 1006 51 10000 7.72 250 15:20 25.07.2022
2504 Clear 29 1006 46 10000 4.63 200 12:22 25.07.2022
2505 Clear 26 1007 55 10000 5.14 190 09:58 25.07.2022
2506 Clear 19 1009 80 10000 2.57 140 06:32 25.07.2022
2507 Clear 22 1013 76 10000 2.57 140 23:55 24.07.2022
2508 Clear 22 1014 74 10000 2.57 140 23:18 24.07.2022
2509 Clear 22 1014 73 10000 2.06 140 22:34 24.07.2022
2510 Clear 25 1014 66 10000 2.57 210 21:28 24.07.2022
2511 Clear 26 1014 63 10000 3.6 210 20:53 24.07.2022
2512 Clear 28 1014 48 10000 3.09 220 20:27 24.07.2022
2513 Clear 29 1014 46 10000 5.14 230 18:56 24.07.2022
2514 Clear 29 1015 42 10000 6.69 250 16:48 24.07.2022
2515 Clear 30 1016 48 10000 5.66 220 15:51 24.07.2022
2516 Clear 29 1016 42 10000 6.69 230 14:40 24.07.2022
2517 Clear 27 1018 49 10000 6.17 200 12:55 24.07.2022
2518 Clear 26 1018 49 10000 6.17 210 12:19 24.07.2022
2519 Clear 25 1018 54 10000 4.63 200 11:26 24.07.2022
2520 Clear 19 1019 73 10000 3.09 150 09:23 24.07.2022
2521 Clear 15 1019 88 10000 2.57 140 07:53 24.07.2022
2522 Clear 12 1019 93 10000 2.06 140 06:34 24.07.2022
2523 Clear 12 1020 95 10000 1.54 160 01:50 24.07.2022
2524 Clear 17 1020 75 10000 3.6 360 22:25 23.07.2022
2525 Clear 19 1019 68 10000 5.66 310 20:41 23.07.2022
2526 Clear 20 1019 64 10000 4.12 310 18:52 23.07.2022
2527 Clouds 22 1019 60 10000 6.17 320 17:48 23.07.2022
2528 Clouds 22 1019 60 10000 6.69 300 17:24 23.07.2022
2529 Clouds 21 1019 62 10000 5.14 290 15:51 23.07.2022
2530 Clouds 20 1019 66 10000 5.66 300 15:21 23.07.2022
2531 Clouds 20 1019 67 10000 5.14 280 14:47 23.07.2022
2532 Clouds 19 1019 70 10000 4.63 300 13:54 23.07.2022
2533 Clouds 18 1019 75 10000 4.63 290 11:47 23.07.2022
2534 Clouds 17 1018 79 10000 4.12 310 10:28 23.07.2022
2535 Clouds 16 1018 82 10000 4.63 270 09:26 23.07.2022
2536 Clouds 13 1017 97 10000 1.54 230 06:40 23.07.2022
2537 Clear 13 1018 99 10000 0.51 250 03:37 23.07.2022
2538 Clouds 16 1018 87 10000 2.57 10 00:27 23.07.2022
2539 Clouds 16 1018 88 10000 2.69 329 21:28 22.07.2022
2540 Clouds 17 1018 79 10000 2.57 310 20:29 22.07.2022
2541 Clouds 18 1018 84 10000 3.91 310 18:42 22.07.2022
2542 Clouds 18 1019 75 10000 3.09 310 17:39 22.07.2022
2543 Clouds 19 1019 66 10000 2.06 280 15:46 22.07.2022
2544 Clouds 18 1020 77 10000 4.12 290 12:47 22.07.2022
2545 Clouds 16 1019 83 10000 5.14 310 10:22 22.07.2022
2546 Clouds 16 1019 88 10000 4.63 290 09:21 22.07.2022
2547 Clouds 15 1019 95 10000 3.6 280 07:57 22.07.2022
2548 Clouds 15 1018 96 10000 4.12 290 04:23 22.07.2022
2549 Clouds 19 1016 96 7000 3.09 240 23:36 21.07.2022
2550 Clouds 19 1016 96 10000 3.09 250 21:51 21.07.2022
2551 Clouds 20 1016 90 10000 2.57 230 19:45 21.07.2022
2552 Rain 19 1016 86 10000 5.14 260 18:36 21.07.2022
2553 Clouds 23 1016 74 10000 3.6 210 17:22 21.07.2022
2554 Rain 22 1016 82 10000 4.63 250 16:31 21.07.2022
2555 Clouds 23 1016 73 10000 4.63 210 14:46 21.07.2022
2556 Clouds 23 1017 77 10000 4.63 210 13:58 21.07.2022
2557 Clouds 20 1017 88 10000 5.14 220 12:18 21.07.2022
2558 Rain 19 1017 93 10000 2.57 180 10:21 21.07.2022
2559 Clouds 18 1016 92 10000 3.09 220 08:53 21.07.2022
2560 Clear 18 1016 92 10000 2.06 170 08:35 21.07.2022
2561 Clouds 19 1015 89 10000 2.57 310 07:22 21.07.2022
2562 Clear 20 1018 78 10000 5.14 240 03:25 21.07.2022
2563 Clear 22 1016 69 10000 4.63 360 23:22 20.07.2022
2564 Clear 24 1016 60 10000 4.63 20 22:20 20.07.2022
2565 Clear 27 1015 50 10000 5.14 20 20:49 20.07.2022
2566 Clear 28 1015 43 10000 7.72 340 19:47 20.07.2022
2567 Clear 30 1015 40 10000 6.17 330 19:19 20.07.2022
2568 Clear 31 1015 39 10000 7.2 340 18:33 20.07.2022
2569 Clear 34 1015 40 10000 6.69 310 17:42 20.07.2022
2570 Clear 36 1015 30 10000 4.63 300 15:59 20.07.2022
2571 Clear 36 1014 26 10000 5.14 230 14:54 20.07.2022
2572 Clear 37 1014 24 10000 6.17 220 13:53 20.07.2022
2573 Clear 34 1015 29 10000 5.66 190 11:32 20.07.2022
2574 Clear 23 1015 45 10000 2.57 140 07:39 20.07.2022
2575 Clear 23 1015 46 10000 3.6 110 02:44 20.07.2022
2576 Clear 25 1015 43 10000 3.6 110 00:44 20.07.2022
2577 Clear 27 1015 42 10000 3.09 110 23:37 19.07.2022
2578 Clear 28 1015 41 10000 3.09 80 22:21 19.07.2022
2579 Clear 29 1015 44 10000 3.09 90 21:18 19.07.2022
2580 Clear 33 1015 29 10000 3.6 80 20:23 19.07.2022
2581 Clear 34 1016 28 10000 2.06 100 18:43 19.07.2022
2582 Clear 35 1016 27 10000 3.09 110 17:57 19.07.2022
2583 Clear 36 1017 26 10000 3.6 110 16:31 19.07.2022
2584 Clear 34 1017 25 10000 3.09 120 14:36 19.07.2022
2585 Clear 31 1019 38 10000 3.09 140 11:39 19.07.2022
2586 Clear 28 1019 45 10000 1.54 120 10:47 19.07.2022
2587 Clear 24 1019 52 10000 1.54 110 09:22 19.07.2022
2588 Clear 22 1020 57 10000 1.03 140 08:32 19.07.2022
2589 Clear 16 1019 84 10000 1.03 80 07:19 19.07.2022
2590 Clear 15 1019 89 10000 0.51 0 05:28 19.07.2022
2591 Clear 15 1019 88 10000 0.51 220 04:53 19.07.2022
2592 Clear 17 1019 83 10000 1.03 160 01:19 19.07.2022
2593 Clear 19 1020 73 10000 1.03 0 23:47 18.07.2022
2594 Clear 20 1020 69 10000 1.03 0 23:18 18.07.2022
2595 Clear 22 1020 62 10000 2.06 30 22:18 18.07.2022
2596 Clear 27 1019 48 10000 3.6 30 20:51 18.07.2022
2597 Clear 29 1019 32 10000 2.06 330 19:33 18.07.2022
2598 Clear 30 1020 33 10000 3.6 250 17:52 18.07.2022
2599 Clear 29 1021 37 10000 3.09 250 15:58 18.07.2022
2600 Clear 29 1022 27 10000 2.06 0 15:19 18.07.2022
2601 Clear 27 1022 34 10000 3.09 140 13:26 18.07.2022
2602 Clear 25 1023 42 10000 3.09 210 11:31 18.07.2022
2603 Clear 21 1023 58 10000 2.57 160 09:53 18.07.2022
2604 Clear 16 1024 86 10000 1.03 0 07:48 18.07.2022
2605 Clear 14 1025 88 10000 1.03 160 02:34 18.07.2022
2606 Clear 17 1025 78 10000 1.03 100 22:55 17.07.2022
2607 Clear 18 1025 75 10000 1.54 110 22:28 17.07.2022
2608 Clear 19 1025 63 10000 2.06 90 21:35 17.07.2022
2609 Clear 21 1025 63 10000 2.06 30 20:45 17.07.2022
2610 Clear 21 1025 60 10000 2.06 0 19:49 17.07.2022
2611 Clear 22 1026 59 10000 2.57 340 19:20 17.07.2022
2612 Clear 23 1026 53 10000 3.09 320 17:42 17.07.2022
2613 Clear 23 1026 55 10000 3.09 320 17:22 17.07.2022
2614 Clear 23 1027 53 10000 3.09 320 16:28 17.07.2022
2615 Clear 22 1027 58 10000 2.57 0 15:37 17.07.2022
2616 Clear 22 1027 48 10000 3.09 300 13:51 17.07.2022
2617 Clear 20 1028 54 10000 3.6 320 12:42 17.07.2022
2618 Clouds 17 1028 67 10000 3.09 290 10:19 17.07.2022
2619 Clear 9 1027 95 10000 0.51 0 06:59 17.07.2022
2620 Clear 10 1026 91 10000 1.03 230 02:34 17.07.2022
2621 Clear 10 1026 91 10000 1.03 230 02:34 17.07.2022
2622 Clear 13 1026 82 10000 4.12 300 23:26 16.07.2022
2623 Clear 15 1026 69 10000 4.12 300 22:20 16.07.2022
2624 Clouds 17 1025 63 10000 5.66 330 20:30 16.07.2022
2625 Clouds 18 1024 61 10000 6.17 310 18:54 16.07.2022
2626 Clear 19 1024 53 10000 7.2 310 17:38 16.07.2022
2627 Clouds 18 1024 54 10000 8.75 320 15:54 16.07.2022
2628 Clouds 17 1022 69 10000 9.26 310 12:37 16.07.2022
2629 Clouds 16 1020 74 10000 7.72 310 10:28 16.07.2022
2630 Clouds 16 1019 80 10000 6.17 300 09:25 16.07.2022
2631 Clouds 16 1019 86 10000 6.69 310 08:41 16.07.2022
2632 Clouds 14 1018 94 10000 5.66 290 06:59 16.07.2022
2633 Clouds 15 1017 86 10000 5.14 250 03:35 16.07.2022
2634 Clouds 15 1018 90 10000 3.09 210 00:45 16.07.2022
2635 Rain 15 1019 92 10000 2.06 200 22:56 15.07.2022
2636 Clear 15 1020 92 10000 2.57 200 22:26 15.07.2022
2637 Clear 16 1020 86 10000 2.06 250 20:44 15.07.2022
2638 Clear 16 1021 79 10000 2.57 250 19:34 15.07.2022
2639 Clear 16 1021 82 10000 2.57 220 18:23 15.07.2022
2640 Rain 18 1021 75 10000 2.57 260 17:19 15.07.2022
2641 Clouds 18 1021 76 10000 4.12 280 14:24 15.07.2022
2642 Drizzle 15 1021 83 10000 8.23 300 12:38 15.07.2022
2643 Clouds 16 1021 77 10000 4.63 260 10:52 15.07.2022
2644 Clouds 13 1021 91 10000 4.63 270 07:55 15.07.2022
2645 Clouds 12 1020 91 10000 3.6 250 05:54 15.07.2022
2646 Clear 12 1020 92 10000 3.09 300 00:47 15.07.2022
2647 Clouds 13 1020 92 10000 3.09 300 23:25 14.07.2022
2648 Clouds 14 1020 90 10000 3.6 290 22:42 14.07.2022
2649 Clear 15 1019 88 10000 4.63 300 21:42 14.07.2022
2650 Clear 15 1019 88 10000 4.63 300 21:24 14.07.2022
2651 Clear 15 1019 88 10000 5.14 300 20:43 14.07.2022
2652 Clear 15 1019 88 10000 5.14 300 20:43 14.07.2022
2653 Clear 15 1019 88 10000 4.12 300 20:19 14.07.2022
2654 Clear 16 1019 82 10000 4.12 300 18:41 14.07.2022
2655 Clouds 18 1018 71 10000 7.2 310 16:21 14.07.2022
2656 Clouds 19 1018 67 10000 6.17 300 15:26 14.07.2022
2657 Clouds 20 1018 63 10000 6.17 300 13:52 14.07.2022
2658 Clouds 20 1019 55 10000 4.63 320 12:40 14.07.2022
2659 Clouds 19 1019 68 10000 4.12 290 11:41 14.07.2022
2660 Clouds 18 1019 71 10000 5.14 310 11:22 14.07.2022
2661 Clouds 17 1020 78 10000 3.09 320 09:49 14.07.2022
2662 Clouds 11 1020 98 10000 1.54 220 05:25 14.07.2022
2663 Clear 13 1020 88 10000 3.09 300 01:22 14.07.2022
2664 Clouds 14 1020 84 10000 3.6 330 00:52 14.07.2022
2665 Clear 17 1020 83 10000 5.14 330 22:32 13.07.2022
2666 Clear 17 1019 76 10000 5.66 330 21:55 13.07.2022
2667 Clear 19 1019 79 10000 6.17 330 20:45 13.07.2022
2668 Clear 22 1018 73 10000 7.72 340 19:21 13.07.2022
2669 Clear 24 1018 60 10000 6.17 340 17:42 13.07.2022
2670 Clear 28 1017 49 10000 6.17 320 16:29 13.07.2022
2671 Clear 27 1017 53 10000 7.72 310 15:24 13.07.2022
2672 Clear 28 1017 51 10000 4.63 260 12:55 13.07.2022
2673 Clear 23 1017 62 10000 3.6 230 10:46 13.07.2022
2674 Clear 23 1017 65 10000 3.6 230 10:24 13.07.2022
2675 Clear 22 1018 70 10000 2.57 220 09:24 13.07.2022
2676 Clear 19 1018 85 10000 2.06 180 06:46 13.07.2022
2677 Clear 19 1021 86 10000 1.03 160 02:38 13.07.2022
2678 Clear 19 1022 87 10000 1.54 170 23:52 12.07.2022
2679 Clear 19 1022 84 10000 0.51 0 22:18 12.07.2022
2680 Clear 21 1022 78 10000 1.03 280 21:35 12.07.2022
2681 Clear 23 1022 75 10000 1.03 0 20:42 12.07.2022
2682 Clear 24 1022 60 10000 1.03 0 19:37 12.07.2022
2683 Clear 25 1023 56 10000 3.6 320 17:55 12.07.2022
2684 Clear 25 1024 56 10000 3.6 330 16:20 12.07.2022
2685 Clear 24 1024 58 10000 2.06 0 14:31 12.07.2022
2686 Clear 23 1024 61 10000 2.06 0 13:21 12.07.2022
2687 Clear 20 1025 68 10000 2.06 230 11:42 12.07.2022
2688 Clear 19 1025 73 10000 1.54 260 10:25 12.07.2022
2689 Clouds 16 1025 83 10000 1.03 0 08:38 12.07.2022
2690 Clouds 16 1025 84 10000 1.54 270 07:38 12.07.2022
2691 Clouds 15 1024 86 10000 2.57 290 05:44 12.07.2022
2692 Clouds 15 1024 88 10000 1.03 0 04:18 12.07.2022
2693 Clouds 16 1024 88 10000 3.09 360 23:50 11.07.2022
2694 Clouds 16 1024 88 10000 5.14 340 22:37 11.07.2022
2695 Clouds 17 1023 80 10000 4.12 340 20:56 11.07.2022
2696 Clouds 17 1023 83 10000 4.63 330 20:32 11.07.2022
2697 Clouds 18 1023 79 10000 5.14 300 18:48 11.07.2022
2698 Clouds 18 1023 79 10000 5.14 320 18:23 11.07.2022
2699 Clouds 19 1023 79 10000 5.14 320 18:23 11.07.2022
2700 Clouds 19 1023 78 10000 4.63 300 16:26 11.07.2022
2701 Clouds 18 1023 81 10000 4.12 330 15:23 11.07.2022
2702 Clouds 17 1023 90 10000 4.12 330 12:42 11.07.2022
2703 Drizzle 16 1023 92 7000 4.63 310 11:23 11.07.2022
2704 Clouds 16 1022 92 10000 3.6 300 09:55 11.07.2022
2705 Clouds 15 1022 94 10000 3.09 290 09:25 11.07.2022
2706 Clouds 14 1022 95 10000 3.09 280 08:30 11.07.2022
2707 Clouds 14 1022 95 10000 2.06 280 00:59 11.07.2022
2708 Clouds 14 1022 95 10000 3.09 290 23:54 10.07.2022
2709 Clouds 14 1022 93 10000 3.09 290 22:45 10.07.2022
2710 Clouds 15 1022 86 10000 5.66 300 20:56 10.07.2022
2711 Clouds 16 1022 77 10000 5.66 300 20:36 10.07.2022
2712 Clouds 17 1022 73 10000 6.69 310 19:30 10.07.2022
2713 Clouds 17 1022 73 10000 6.69 310 19:30 10.07.2022
2714 Clouds 17 1022 72 10000 6.17 310 18:25 10.07.2022
2715 Clouds 18 1023 69 10000 6.69 300 17:35 10.07.2022
2716 Clouds 18 1022 67 10000 8.23 300 16:24 10.07.2022
2717 Clouds 16 1023 73 10000 7.2 310 14:47 10.07.2022
2718 Clouds 17 1023 66 10000 7.72 310 13:31 10.07.2022
2719 Clouds 17 1023 63 10000 7.2 320 11:57 10.07.2022
2720 Clouds 15 1023 73 10000 6.69 290 09:47 10.07.2022
2721 Clouds 15 1023 77 10000 5.14 300 08:44 10.07.2022
2722 Clear 13 1022 85 10000 4.12 290 07:24 10.07.2022
2723 Clear 14 1024 77 10000 4.63 290 23:58 09.07.2022
2724 Clouds 15 1024 74 10000 7.2 310 22:27 09.07.2022
2725 Clouds 15 1024 72 10000 5.14 300 21:49 09.07.2022
2726 Clouds 17 1024 63 10000 8.75 310 19:57 09.07.2022
2727 Clouds 18 1024 60 10000 8.23 330 18:32 09.07.2022
2728 Clouds 18 1024 60 10000 9.77 320 17:32 09.07.2022
2729 Clouds 19 1024 59 10000 9.26 330 16:44 09.07.2022
2730 Clouds 19 1024 64 10000 8.75 330 15:40 09.07.2022
2731 Clouds 19 1024 79 10000 8.23 310 14:27 09.07.2022
2732 Clouds 20 1024 75 10000 7.2 300 13:49 09.07.2022
2733 Rain 20 1024 70 10000 6.17 280 12:45 09.07.2022
2734 Clouds 20 1024 76 10000 6.17 290 11:22 09.07.2022
2735 Clouds 18 1025 81 10000 4.63 280 10:22 09.07.2022
2736 Clouds 15 1025 96 10000 2.57 250 07:45 09.07.2022
2737 Mist 13 1026 98 10000 1.03 260 04:57 09.07.2022
2738 Clouds 13 1027 94 10000 1.54 280 01:50 09.07.2022
2739 Clear 16 1027 82 10000 4.63 340 22:54 08.07.2022
2740 Clear 17 1027 74 10000 4.12 310 21:43 08.07.2022
2741 Clear 19 1027 71 10000 5.14 310 20:40 08.07.2022
2742 Clouds 20 1027 68 10000 8.23 310 19:52 08.07.2022
2743 Clouds 21 1028 70 10000 6.17 310 18:24 08.07.2022
2744 Clouds 19 1028 78 10000 4.12 290 16:40 08.07.2022
2745 Clouds 17 1029 86 10000 5.14 290 14:53 08.07.2022
2746 Clouds 17 1029 80 10000 5.66 280 13:29 08.07.2022
2747 Clouds 16 1029 81 10000 4.63 270 11:42 08.07.2022
2748 Clouds 16 1029 79 10000 5.66 310 10:29 08.07.2022
2749 Clear 15 1028 76 10000 5.66 290 08:33 08.07.2022
2750 Clouds 14 1027 64 10000 4.12 290 06:50 08.07.2022
2751 Clouds 15 1026 75 10000 4.12 300 01:31 08.07.2022
2752 Clouds 15 1025 75 10000 6.69 300 23:22 07.07.2022
2753 Clouds 15 1024 75 10000 6.69 300 22:35 07.07.2022
2754 Clouds 16 1023 72 10000 9.26 310 20:36 07.07.2022
2755 Clouds 17 1022 68 10000 8.23 320 18:20 07.07.2022
2756 Clouds 17 1021 71 10000 9.77 310 16:53 07.07.2022
2757 Clouds 16 1019 85 10000 9.26 320 14:35 07.07.2022
2758 Clouds 18 1018 82 10000 8.75 330 13:25 07.07.2022
2759 Clouds 17 1017 81 10000 6.17 340 12:24 07.07.2022
2760 Clouds 18 1017 81 10000 8.23 310 11:45 07.07.2022
2761 Clouds 17 1016 88 10000 8.75 320 11:27 07.07.2022
2762 Clouds 16 1016 95 10000 7.72 320 10:42 07.07.2022
2763 Clouds 16 1015 96 10000 7.2 310 10:24 07.07.2022
2764 Mist 15 1014 99 5000 5.66 250 06:58 07.07.2022
2765 Clouds 15 1017 97 7000 4.63 230 02:55 07.07.2022
2766 Rain 14 1018 96 10000 5.06 238 23:36 06.07.2022
2767 Rain 14 1020 92 10000 3.09 220 23:18 06.07.2022
2768 Rain 14 1020 94 10000 3.09 220 22:53 06.07.2022
2769 Rain 14 1020 89 10000 4.63 250 22:34 06.07.2022
2770 Clouds 17 1021 74 10000 5.66 260 20:54 06.07.2022
2771 Clouds 18 1020 77 10000 4.64 275 19:35 06.07.2022
2772 Clear 20 1022 62 10000 5.66 310 17:32 06.07.2022
2773 Clouds 21 1022 61 10000 4.63 280 15:59 06.07.2022
2774 Clouds 19 1023 66 10000 4.63 270 14:46 06.07.2022
2775 Clear 18 1023 69 10000 6.17 290 12:35 06.07.2022
2776 Clouds 17 1023 63 10000 5.66 300 11:48 06.07.2022
2777 Clouds 16 1023 67 10000 6.17 300 10:18 06.07.2022
2778 Clouds 16 1023 67 10000 6.17 300 10:18 06.07.2022
2779 Clear 14 1023 84 10000 4.12 270 07:46 06.07.2022
2780 Clear 14 1023 81 10000 3.6 260 07:23 06.07.2022
2781 Clear 11 1023 87 10000 2.57 260 02:55 06.07.2022
2782 Clear 14 1022 74 10000 2.57 290 22:45 05.07.2022
2783 Clear 14 1022 74 10000 2.57 290 22:45 05.07.2022
2784 Clouds 16 1022 63 10000 4.63 300 21:39 05.07.2022
2785 Clear 17 1021 71 10000 5.14 310 20:38 05.07.2022
2786 Clouds 18 1021 69 10000 6.69 310 19:41 05.07.2022
2787 Clouds 19 1021 68 10000 6.69 320 19:22 05.07.2022
2788 Clouds 20 1021 69 10000 6.69 320 17:47 05.07.2022
2789 Clear 20 1021 66 10000 6.69 260 16:44 05.07.2022
2790 Clouds 21 1021 49 10000 6.17 280 15:25 05.07.2022
2791 Clear 21 1021 51 10000 5.14 280 13:59 05.07.2022
2792 Clear 20 1021 50 10000 5.14 290 12:42 05.07.2022
2793 Clouds 20 1021 50 10000 5.66 260 11:32 05.07.2022
2794 Clouds 19 1021 55 10000 5.66 250 10:34 05.07.2022
2795 Clear 17 1021 75 10000 4.63 260 09:22 05.07.2022
2796 Clear 14 1021 87 10000 1.03 0 07:45 05.07.2022
2797 Clear 11 1020 97 10000 0.51 260 04:49 05.07.2022
2798 Clear 12 1020 94 10000 0.51 260 04:21 05.07.2022
2799 Clear 13 1020 85 10000 2.06 300 23:56 04.07.2022
2800 Clear 14 1020 81 10000 2.57 300 23:26 04.07.2022
2801 Clear 17 1019 69 10000 3.6 300 22:25 04.07.2022
2802 Clear 17 1019 72 10000 2.9 315 21:30 04.07.2022
2803 Clear 19 1019 80 10000 4.27 313 20:52 04.07.2022
2804 Clear 20 1018 67 10000 6.69 310 20:33 04.07.2022
2805 Clear 21 1018 67 10000 7.2 290 19:54 04.07.2022
2806 Clear 21 1018 67 10000 7.2 290 19:35 04.07.2022
2807 Clear 23 1018 47 10000 4.12 280 17:58 04.07.2022
2808 Clear 22 1018 56 10000 6.69 300 15:50 04.07.2022
2809 Clear 23 1018 49 10000 6.69 270 15:31 04.07.2022
2810 Clouds 21 1019 52 10000 5.66 260 13:29 04.07.2022
2811 Clouds 21 1019 56 10000 4.63 260 12:21 04.07.2022
2812 Clear 19 1019 62 10000 4.63 250 10:34 04.07.2022
2813 Clear 18 1019 66 10000 5.14 240 09:41 04.07.2022
2814 Clear 14 1019 94 10000 2.06 250 07:33 04.07.2022
2815 Mist 11 1018 98 10000 1.54 280 04:48 04.07.2022
2816 Clear 13 1018 94 10000 1.54 240 00:36 04.07.2022
2817 Clear 16 1018 87 10000 2.57 290 22:59 03.07.2022
2818 Clouds 17 1017 87 10000 3.34 330 20:58 03.07.2022
2819 Clouds 18 1016 84 10000 4.08 332 20:31 03.07.2022
2820 Clear 22 1016 73 10000 1.54 50 19:27 03.07.2022
2821 Clear 21 1016 79 10000 2.57 30 18:43 03.07.2022
2822 Clouds 22 1016 80 10000 5.14 340 17:43 03.07.2022
2823 Clear 25 1016 57 10000 3.6 270 15:54 03.07.2022
2824 Clear 26 1016 41 10000 3.6 0 14:59 03.07.2022
2825 Clear 26 1016 43 10000 5.14 320 14:18 03.07.2022
2826 Clear 26 1016 41 10000 3.09 240 13:48 03.07.2022
2827 Clear 26 1016 42 10000 2.06 0 12:33 03.07.2022
2828 Clear 26 1016 39 10000 2.06 330 11:29 03.07.2022
2829 Clear 25 1016 46 10000 2.57 320 10:39 03.07.2022
2830 Clear 23 1016 60 10000 1.03 0 09:42 03.07.2022
2831 Clear 16 1016 89 10000 0.51 0 07:35 03.07.2022
2832 Clear 16 1016 84 10000 0.51 0 03:46 03.07.2022
2833 Clouds 18 1018 84 10000 2.61 67 00:22 03.07.2022
2834 Clear 20 1018 70 10000 2.57 40 22:34 02.07.2022
2835 Clouds 20 1018 76 10000 2.23 30 21:28 02.07.2022
2836 Clear 23 1019 56 10000 2.06 240 19:52 02.07.2022
2837 Clear 24 1019 55 10000 2.06 210 19:20 02.07.2022
2838 Clear 25 1020 51 10000 3.6 220 17:51 02.07.2022
2839 Clear 25 1020 52 10000 4.63 240 17:33 02.07.2022
2840 Clear 24 1021 41 10000 5.66 180 14:52 02.07.2022
2841 Clear 23 1022 48 10000 5.66 200 12:22 02.07.2022
2842 Clouds 21 1022 51 10000 6.17 230 11:27 02.07.2022
2843 Clear 21 1023 55 10000 5.14 220 10:43 02.07.2022
2844 Clear 20 1022 62 10000 4.63 200 09:37 02.07.2022
2845 Clear 16 1022 82 10000 2.57 210 08:36 02.07.2022
2846 Clear 16 1022 84 10000 2.57 210 08:18 02.07.2022
2847 Clear 12 1021 92 10000 1.54 220 02:52 02.07.2022
2848 Clear 14 1021 87 10000 1.03 220 00:26 02.07.2022
2849 Clear 16 1019 76 10000 3.09 260 22:59 01.07.2022
2850 Clear 18 1019 67 10000 2.06 290 21:56 01.07.2022
2851 Clear 18 1019 66 10000 2.06 290 21:37 01.07.2022
2852 Clouds 18 1019 80 10000 3.13 261 20:56 01.07.2022
2853 Clouds 19 1018 73 10000 3.6 280 19:47 01.07.2022
2854 Clouds 21 1017 57 10000 5.14 240 17:58 01.07.2022
2855 Clear 20 1017 61 10000 5.14 250 16:35 01.07.2022
2856 Clouds 18 1016 82 10000 4.63 250 13:55 01.07.2022
2857 Clouds 16 1016 90 10000 4.12 250 12:59 01.07.2022
2858 Rain 15 1016 94 10000 4.12 250 10:46 01.07.2022
2859 Rain 16 1015 92 10000 4.12 260 10:18 01.07.2022
2860 Clouds 15 1013 95 10000 4.63 280 05:58 01.07.2022
2861 Clouds 18 1010 97 10000 2.06 30 01:30 01.07.2022
2862 Clear 23 1009 77 10000 3.6 70 23:28 30.06.2022
2863 Clear 24 1009 76 10000 4.12 70 22:45 30.06.2022
2864 Clear 24 1009 76 10000 4.12 70 22:45 30.06.2022
2865 Clear 24 1008 76 10000 3.6 60 22:27 30.06.2022
2866 Clear 26 1008 57 10000 3.6 70 21:50 30.06.2022
2867 Clear 26 1008 67 10000 5.14 70 20:41 30.06.2022
2868 Clear 28 1008 61 10000 4.12 60 19:55 30.06.2022
2869 Clear 28 1008 49 10000 4.12 60 19:35 30.06.2022
2870 Clear 29 1009 44 10000 4.63 50 18:43 30.06.2022
2871 Clear 28 1010 62 10000 4.63 50 17:49 30.06.2022
2872 Clear 29 1010 59 10000 3.09 100 16:56 30.06.2022
2873 Clear 29 1011 55 10000 1.54 0 15:52 30.06.2022
2874 Clear 27 1011 51 10000 3.09 0 13:51 30.06.2022
2875 Clear 27 1011 52 10000 4.12 110 13:18 30.06.2022
2876 Clear 26 1012 52 10000 3.09 120 12:32 30.06.2022
2877 Clear 23 1012 62 10000 5.14 110 10:21 30.06.2022
2878 Clear 22 1012 66 10000 5.14 120 09:41 30.06.2022
2879 Clear 19 1012 74 10000 1.54 100 08:26 30.06.2022
2880 Clear 18 1012 77 10000 1.54 110 07:41 30.06.2022
2881 Clear 17 1013 77 10000 2.06 100 03:53 30.06.2022
2882 Clear 20 1013 70 10000 3.6 110 23:39 29.06.2022
2883 Clear 22 1013 68 10000 3.09 120 22:41 29.06.2022
2884 Clear 22 1013 66 10000 2.57 130 22:19 29.06.2022
2885 Clear 26 1013 47 10000 3.09 130 20:35 29.06.2022
2886 Clear 26 1013 47 10000 3.6 140 19:57 29.06.2022
2887 Clear 27 1013 40 10000 4.63 130 18:46 29.06.2022
2888 Clear 27 1014 42 10000 3.6 130 17:38 29.06.2022
2889 Clear 28 1014 39 10000 4.63 120 16:24 29.06.2022
2890 Clear 27 1015 44 10000 6.17 150 13:52 29.06.2022
2891 Clear 26 1015 51 10000 5.14 120 12:38 29.06.2022
2892 Clear 20 1016 69 10000 3.6 110 10:18 29.06.2022
2893 Clear 19 1017 74 10000 3.09 120 09:27 29.06.2022
2894 Clear 14 1017 84 10000 2.57 80 06:57 29.06.2022
2895 Clear 14 1017 83 10000 3.09 90 04:46 29.06.2022
2896 Clear 16 1019 74 10000 2.57 80 00:54 29.06.2022
2897 Clear 16 1019 73 10000 2.57 80 00:35 29.06.2022
2898 Clear 18 1019 62 10000 1.54 60 22:52 28.06.2022
2899 Clear 20 1019 58 10000 1.03 80 22:18 28.06.2022
2900 Clear 22 1019 55 10000 0.51 120 21:49 28.06.2022
2901 Clear 22 1019 51 10000 1.03 110 21:29 28.06.2022
2902 Clear 23 1019 42 10000 1.54 0 20:18 28.06.2022
2903 Clear 23 1019 42 10000 1.54 210 19:32 28.06.2022
2904 Clear 23 1019 40 10000 2.57 260 18:40 28.06.2022
2905 Clear 23 1020 43 10000 2.06 220 17:36 28.06.2022
2906 Clear 23 1020 43 10000 2.06 210 15:55 28.06.2022
2907 Clear 23 1021 48 10000 3.09 230 14:59 28.06.2022
2908 Clouds 22 1021 49 10000 2.57 0 14:19 28.06.2022
2909 Clouds 22 1021 49 10000 4.12 230 13:47 28.06.2022
2910 Clouds 22 1021 54 10000 5.14 220 12:47 28.06.2022
2911 Clouds 19 1022 69 10000 4.63 250 10:44 28.06.2022
2912 Clear 17 1021 83 10000 4.63 260 09:25 28.06.2022
2913 Clear 16 1021 88 10000 4.12 250 08:43 28.06.2022
2914 Mist 14 1021 96 3700 2.57 220 07:20 28.06.2022
2915 Clouds 13 1020 96 10000 2.06 240 04:56 28.06.2022
2916 Clouds 15 1018 98 10000 1.54 230 23:56 27.06.2022
2917 Clear 15 1018 96 10000 1.54 280 23:28 27.06.2022
2918 Clouds 16 1018 96 10000 1.03 0 22:50 27.06.2022
2919 Clouds 17 1017 91 10000 2.57 290 21:30 27.06.2022
2920 Rain 17 1017 92 10000 3.09 330 20:38 27.06.2022
2921 Clouds 17 1016 92 10000 3.6 330 18:58 27.06.2022
2922 Clouds 17 1016 95 10000 4.12 340 17:46 27.06.2022
2923 Rain 18 1015 89 10000 4.12 300 16:18 27.06.2022
2924 Clouds 19 1015 84 10000 4.63 300 14:44 27.06.2022
2925 Clouds 19 1014 83 10000 2.06 290 13:25 27.06.2022
2926 Clouds 19 1014 84 10000 1.03 0 12:52 27.06.2022
2927 Clouds 16 1014 89 10000 4.63 20 10:22 27.06.2022
2928 Clouds 15 1014 91 10000 4.12 340 08:47 27.06.2022
2929 Clouds 15 1014 91 10000 4.63 350 08:19 27.06.2022
2930 Clouds 15 1014 94 10000 4.12 340 06:38 27.06.2022
2931 Rain 17 1015 90 10000 5.66 300 02:23 27.06.2022
2932 Rain 19 1015 78 10000 4.12 30 23:49 26.06.2022
2933 Rain 20 1015 75 10000 5.66 20 21:58 26.06.2022
2934 Clouds 22 1015 67 10000 4.12 310 20:43 26.06.2022
2935 Rain 24 1015 57 10000 4.12 310 19:27 26.06.2022
2936 Clear 25 1015 49 10000 2.06 320 18:28 26.06.2022
2937 Clear 25 1015 50 10000 2.57 280 16:21 26.06.2022
2938 Clear 24 1015 60 10000 3.09 280 14:40 26.06.2022
2939 Clouds 24 1015 61 10000 4.63 270 13:38 26.06.2022
2940 Clouds 24 1015 61 10000 6.69 270 13:18 26.06.2022
2941 Clouds 24 1014 66 10000 5.14 270 11:26 26.06.2022
2942 Clear 22 1014 74 10000 4.63 250 10:26 26.06.2022
2943 Clear 22 1013 73 10000 5.14 260 09:19 26.06.2022
2944 Clear 20 1012 77 10000 2.06 150 07:41 26.06.2022
2945 Clear 21 1011 74 10000 3.6 90 01:53 26.06.2022
2946 Clouds 21 1011 78 10000 2.57 230 00:20 26.06.2022
2947 Rain 21 1011 68 10000 0.51 210 23:41 25.06.2022
2948 Clear 23 1011 62 10000 2.06 290 22:57 25.06.2022
2949 Clear 23 1011 64 10000 2.57 280 22:27 25.06.2022
2950 Clouds 23 1012 66 10000 1.6 72 21:40 25.06.2022
2951 Clouds 23 1012 63 10000 0.83 28 21:18 25.06.2022
2952 Clear 26 1011 48 10000 2.06 170 20:27 25.06.2022
2953 Clear 27 1011 46 10000 2.06 180 19:21 25.06.2022
2954 Clear 28 1011 39 10000 3.6 220 17:57 25.06.2022
2955 Clear 28 1011 44 10000 2.57 0 17:22 25.06.2022
2956 Clear 26 1011 41 10000 3.6 250 15:36 25.06.2022
2957 Clear 26 1011 54 10000 4.12 240 13:34 25.06.2022
2958 Clouds 25 1011 53 10000 2.57 200 12:38 25.06.2022
2959 Clouds 23 1011 68 10000 4.12 250 10:35 25.06.2022
2960 Clear 21 1011 76 10000 3.09 220 09:20 25.06.2022
2961 Clear 20 1011 81 10000 3.6 220 08:37 25.06.2022
2962 Clear 19 1011 85 10000 4.63 220 08:18 25.06.2022
2963 Fog 17 1010 95 900 2.57 150 04:18 25.06.2022
2964 Clear 16 1008 95 10000 0.51 0 00:38 25.06.2022
2965 Clouds 19 1008 85 10000 1.54 300 22:55 24.06.2022
2966 Clear 21 1007 79 10000 3.09 320 21:42 24.06.2022
2967 Clouds 21 1007 76 10000 4.12 320 20:48 24.06.2022
2968 Clouds 22 1007 74 10000 3.6 310 20:19 24.06.2022
2969 Clear 22 1006 75 10000 5.66 260 19:21 24.06.2022
2970 Clouds 22 1006 73 10000 5.14 270 18:49 24.06.2022
2971 Clouds 22 1006 76 10000 1.26 126 18:30 24.06.2022
2972 Clouds 25 1005 58 10000 4.63 230 17:21 24.06.2022
2973 Clouds 26 1005 53 10000 4.63 210 15:47 24.06.2022
2974 Clouds 24 1005 66 10000 5.66 210 14:28 24.06.2022
2975 Rain 24 1005 64 10000 4.63 200 13:55 24.06.2022
2976 Clouds 26 1005 63 10000 4.63 220 11:45 24.06.2022
2977 Clouds 26 1005 63 10000 5.66 200 11:22 24.06.2022
2978 Clear 24 1005 62 10000 5.66 200 10:22 24.06.2022
2979 Clear 24 1006 57 10000 4.63 180 09:40 24.06.2022
2980 Clear 23 1006 54 10000 4.12 140 08:52 24.06.2022
2981 Clear 20 1006 62 10000 4.63 120 06:58 24.06.2022
2982 Clear 19 1006 62 10000 4.63 120 06:40 24.06.2022
2983 Clear 18 1006 65 10000 3.6 90 05:57 24.06.2022
2984 Clear 19 1009 61 10000 3.6 80 02:31 24.06.2022
2985 Clear 22 1010 49 10000 2.57 100 22:57 23.06.2022
2986 Clear 23 1010 48 10000 2.57 100 22:38 23.06.2022
2987 Clear 28 1010 37 10000 3.09 130 20:57 23.06.2022
2988 Clear 28 1010 36 10000 3.09 130 20:32 23.06.2022
2989 Clear 30 1010 27 10000 4.63 130 19:25 23.06.2022
2990 Clear 31 1011 27 10000 3.6 160 17:51 23.06.2022
2991 Clear 31 1011 28 10000 4.12 120 16:58 23.06.2022
2992 Clear 30 1012 25 10000 3.6 130 15:50 23.06.2022
2993 Clear 30 1012 32 10000 3.6 100 15:24 23.06.2022
2994 Clear 27 1013 42 10000 5.14 120 13:33 23.06.2022
2995 Clear 24 1014 49 10000 3.6 120 11:27 23.06.2022
2996 Clear 23 1014 57 10000 3.6 110 10:35 23.06.2022
2997 Clear 18 1014 76 10000 2.57 130 08:53 23.06.2022
2998 Clear 13 1014 91 10000 1.54 40 03:35 23.06.2022
2999 Clear 15 1014 82 10000 4.12 30 00:26 23.06.2022
3000 Clear 16 1014 78 10000 4.12 30 23:41 22.06.2022
3001 Clear 17 1013 73 10000 5.14 30 22:39 22.06.2022
3002 Clear 20 1013 66 10000 5.14 30 21:22 22.06.2022
3003 Clear 20 1013 66 10000 5.14 30 21:22 22.06.2022
3004 Clear 20 1013 60 10000 4.63 20 20:43 22.06.2022
3005 Clear 22 1012 53 10000 4.63 20 19:56 22.06.2022
3006 Clear 23 1012 46 10000 3.6 20 18:47 22.06.2022
3007 Clear 24 1012 41 10000 3.6 30 17:28 22.06.2022
3008 Clear 24 1013 43 10000 3.6 360 16:29 22.06.2022
3009 Clear 24 1013 45 10000 2.57 0 15:26 22.06.2022
3010 Clear 23 1014 50 10000 2.57 80 14:21 22.06.2022
3011 Clouds 22 1014 51 10000 2.57 330 13:41 22.06.2022
3012 Clouds 22 1014 53 10000 2.57 0 13:23 22.06.2022
3013 Clear 21 1014 52 10000 2.57 50 11:50 22.06.2022
3014 Clear 21 1014 52 10000 2.57 50 11:50 22.06.2022
3015 Clear 19 1014 59 10000 2.06 0 10:57 22.06.2022
3016 Clear 19 1014 60 10000 2.06 0 10:19 22.06.2022
3017 Clear 17 1014 67 10000 1.54 70 08:37 22.06.2022
3018 Clear 9 1013 93 10000 1.54 300 05:38 22.06.2022
3019 Clear 13 1014 82 10000 2.06 30 01:39 22.06.2022
3020 Clear 13 1014 81 10000 1.54 40 00:36 22.06.2022
3021 Clear 17 1013 67 10000 4.63 30 22:37 21.06.2022
3022 Clear 20 1013 56 10000 1.54 280 19:57 21.06.2022
3023 Clear 22 1013 48 10000 2.06 250 18:51 21.06.2022
3024 Clear 22 1013 43 10000 1.54 0 17:40 21.06.2022
3025 Clear 21 1015 50 10000 2.06 0 14:42 21.06.2022
3026 Clouds 19 1016 58 10000 2.57 230 11:52 21.06.2022
3027 Clouds 15 1016 73 10000 3.09 290 10:20 21.06.2022
3028 Clouds 14 1016 81 10000 2.57 270 08:50 21.06.2022
3029 Clear 11 1015 91 10000 0.51 0 07:35 21.06.2022
3030 Clear 10 1016 92 10000 3.6 270 03:21 21.06.2022
3031 Clouds 13 1015 83 10000 3.6 300 23:27 20.06.2022
3032 Clouds 15 1015 74 10000 5.66 300 21:58 20.06.2022
3033 Clouds 15 1015 73 10000 6.17 290 21:31 20.06.2022
3034 Clouds 16 1014 69 10000 6.69 310 19:57 20.06.2022
3035 Clouds 16 1014 65 10000 8.75 310 18:54 20.06.2022
3036 Clouds 17 1014 64 10000 7.72 310 18:24 20.06.2022
3037 Clouds 17 1014 60 10000 7.72 320 17:40 20.06.2022
3038 Clouds 18 1014 57 10000 7.72 310 16:21 20.06.2022
3039 Clouds 18 1013 59 10000 7.72 310 14:29 20.06.2022
3040 Rain 16 1013 68 10000 5.66 290 11:46 20.06.2022
3041 Clouds 16 1013 72 10000 5.14 290 09:49 20.06.2022
3042 Clouds 14 1012 85 10000 4.63 310 08:45 20.06.2022
3043 Clear 12 1012 90 10000 1.54 250 07:35 20.06.2022
3044 Clear 10 1012 92 10000 1.03 0 03:52 20.06.2022
3045 Rain 11 1013 91 10000 2.06 280 01:32 20.06.2022
3046 Clear 11 1013 88 10000 1.54 290 23:48 19.06.2022
3047 Clear 14 1013 79 10000 2.06 340 22:19 19.06.2022
3048 Clouds 14 1013 77 10000 3.09 330 21:42 19.06.2022
3049 Clouds 14 1012 81 10000 4.63 10 20:49 19.06.2022
3050 Rain 14 1013 83 10000 3.09 290 19:49 19.06.2022
3051 Rain 15 1013 81 10000 3.6 330 19:24 19.06.2022
3052 Rain 15 1013 79 10000 5.66 300 18:32 19.06.2022
3053 Clouds 16 1012 77 10000 6.17 310 17:43 19.06.2022
3054 Clouds 16 1012 76 10000 5.66 330 17:20 19.06.2022
3055 Clouds 16 1012 79 10000 3.6 340 16:28 19.06.2022
3056 Clouds 16 1011 80 10000 4.63 340 15:35 19.06.2022
3057 Clouds 15 1011 83 10000 3.6 350 14:43 19.06.2022
3058 Clouds 15 1011 86 10000 4.12 310 13:54 19.06.2022
3059 Clouds 16 1011 75 10000 5.14 300 12:26 19.06.2022
3060 Clouds 17 1010 62 10000 4.63 30 10:53 19.06.2022
3061 Clouds 16 1008 69 10000 9.26 60 09:31 19.06.2022
3062 Clouds 15 1009 77 10000 7.2 30 08:35 19.06.2022
3063 Clouds 15 1010 79 10000 6.69 360 07:36 19.06.2022
3064 Clear 14 1010 85 10000 4.63 40 04:33 19.06.2022
3065 Clear 15 1013 78 10000 3.6 40 01:28 19.06.2022
3066 Clear 16 1014 76 10000 2.57 60 00:23 19.06.2022
3067 Clear 17 1014 70 10000 4.12 20 23:35 18.06.2022
3068 Clear 17 1014 69 10000 3.6 10 22:36 18.06.2022
3069 Clear 19 1015 67 10000 5.14 10 20:55 18.06.2022
3070 Clear 20 1015 67 10000 4.63 10 20:26 18.06.2022
3071 Clear 21 1015 65 10000 4.12 20 19:31 18.06.2022
3072 Clear 22 1015 64 10000 5.14 350 18:44 18.06.2022
3073 Clear 24 1015 61 10000 5.66 360 17:30 18.06.2022
3074 Clouds 25 1016 61 10000 6.17 360 16:37 18.06.2022
3075 Clouds 26 1015 61 10000 3.6 330 15:22 18.06.2022
3076 Clouds 25 1016 63 10000 4.63 310 14:42 18.06.2022
3077 Clear 25 1016 62 10000 4.63 310 13:22 18.06.2022
3078 Clear 25 1016 63 10000 4.12 320 11:34 18.06.2022
3079 Clear 24 1016 59 10000 4.63 290 10:46 18.06.2022
3080 Clear 23 1015 64 10000 5.14 260 09:20 18.06.2022
3081 Clear 21 1015 69 10000 3.6 240 08:19 18.06.2022
3082 Clear 21 1015 69 10000 3.6 240 08:19 18.06.2022
3083 Clear 17 1015 76 10000 1.54 210 06:44 18.06.2022
3084 Clear 16 1016 77 10000 2.06 160 03:24 18.06.2022
3085 Clear 17 1017 73 10000 1.54 140 01:24 18.06.2022
3086 Clear 18 1018 70 10000 2.06 150 00:45 18.06.2022
3087 Clear 18 1019 67 10000 2.06 150 23:52 17.06.2022
3088 Clear 19 1019 61 10000 2.57 150 23:19 17.06.2022
3089 Clear 22 1020 52 10000 2.06 140 20:55 17.06.2022
3090 Clear 23 1021 53 10000 3.09 180 19:31 17.06.2022
3091 Clear 24 1021 52 10000 3.09 180 18:37 17.06.2022
3092 Clear 24 1022 50 10000 1.54 0 17:43 17.06.2022
3093 Clear 24 1022 52 10000 3.09 160 16:43 17.06.2022
3094 Clear 24 1022 50 10000 2.57 220 15:43 17.06.2022
3095 Clear 23 1023 51 10000 2.57 210 15:20 17.06.2022
3096 Rain 24 1023 48 10000 4.12 230 14:20 17.06.2022
3097 Clear 24 1023 48 10000 3.09 190 13:46 17.06.2022
3098 Clear 22 1023 50 10000 2.57 210 12:57 17.06.2022
3099 Clear 22 1024 51 10000 3.09 220 11:57 17.06.2022
3100 Clear 22 1024 51 10000 3.09 220 11:36 17.06.2022
3101 Clear 22 1024 51 10000 3.09 220 11:36 17.06.2022
3102 Clear 21 1024 53 10000 3.09 220 10:52 17.06.2022
3103 Clear 16 1024 72 10000 2.06 210 08:30 17.06.2022
3104 Clear 15 1024 78 10000 1.03 0 07:48 17.06.2022
3105 Clear 11 1024 87 10000 0.51 180 06:22 17.06.2022
3106 Clear 10 1024 87 10000 0.51 230 03:19 17.06.2022
3107 Clear 13 1023 76 10000 1.03 150 00:42 17.06.2022
3108 Clear 16 1024 63 10000 2.06 360 22:45 16.06.2022
3109 Clear 16 1023 64 10000 3.6 360 22:26 16.06.2022
3110 Clear 17 1023 59 10000 3.6 360 21:19 16.06.2022
3111 Clear 18 1022 56 10000 4.63 20 20:50 16.06.2022
3112 Clear 19 1022 54 10000 4.63 340 19:59 16.06.2022
3113 Clear 21 1023 50 10000 6.17 330 18:44 16.06.2022
3114 Clear 21 1023 47 10000 5.66 310 17:44 16.06.2022
3115 Clear 22 1022 45 10000 5.14 340 17:22 16.06.2022
3116 Clear 21 1023 44 10000 6.17 320 15:58 16.06.2022
3117 Clear 21 1022 43 10000 5.66 320 15:21 16.06.2022
3118 Clouds 20 1022 52 10000 5.66 350 13:55 16.06.2022
3119 Clouds 20 1022 56 10000 4.12 10 12:47 16.06.2022
3120 Clear 19 1021 57 10000 4.63 30 12:20 16.06.2022
3121 Clear 19 1021 61 10000 4.63 340 11:21 16.06.2022
3122 Clear 17 1021 63 10000 5.14 360 10:35 16.06.2022
3123 Clear 16 1021 68 10000 6.17 10 09:39 16.06.2022
3124 Clear 15 1021 75 10000 5.66 30 08:56 16.06.2022
3125 Clear 13 1020 86 10000 3.09 360 07:38 16.06.2022
3126 Clouds 11 1020 93 10000 2.68 354 05:51 16.06.2022
3127 Clear 12 1019 82 10000 3.6 30 03:56 16.06.2022
3128 Clouds 12 1020 84 10000 2.93 16 01:52 16.06.2022
3129 Clear 13 1019 79 10000 3.6 360 01:22 16.06.2022
3130 Clouds 13 1020 78 10000 3.07 15 00:22 16.06.2022
3131 Clear 15 1019 66 10000 4.63 360 22:53 15.06.2022
3132 Clear 17 1019 56 10000 4.12 360 21:48 15.06.2022
3133 Clear 17 1019 62 10000 6.17 10 21:19 15.06.2022
3134 Clear 19 1019 52 10000 6.17 360 20:37 15.06.2022
3135 Clear 19 1019 56 10000 6.69 360 20:18 15.06.2022
3136 Clear 20 1018 54 10000 6.69 350 18:41 15.06.2022
3137 Clear 23 1018 49 10000 6.17 320 17:53 15.06.2022
3138 Clear 23 1019 46 10000 3.09 0 16:27 15.06.2022
3139 Clear 23 1019 52 10000 2.57 0 15:22 15.06.2022
3140 Clouds 21 1019 54 10000 2.57 60 13:29 15.06.2022
3141 Clouds 22 1020 47 10000 2.57 60 12:47 15.06.2022
3142 Clouds 20 1020 51 10000 3.6 30 11:28 15.06.2022
3143 Clear 18 1020 63 10000 3.09 50 10:22 15.06.2022
3144 Clear 18 1020 61 10000 3.09 80 09:34 15.06.2022
3145 Clouds 13 1020 89 10000 2.06 80 07:58 15.06.2022
3146 Fog 8 1020 98 2200 1.03 80 05:58 15.06.2022
3147 Clear 10 1021 97 10000 1.03 40 02:56 15.06.2022
3148 Clear 10 1021 93 10000 0.51 110 01:37 15.06.2022
3149 Clear 12 1021 90 10000 1.03 30 00:41 15.06.2022
3150 Clear 13 1021 86 10000 1.03 0 23:38 14.06.2022
3151 Clear 15 1021 78 10000 2.57 60 22:51 14.06.2022
3152 Clear 16 1021 76 10000 2.57 40 21:47 14.06.2022
3153 Clear 16 1021 72 10000 3.6 30 21:26 14.06.2022
3154 Clear 17 1021 71 10000 3.6 30 20:41 14.06.2022
3155 Clouds 17 1021 68 10000 3.09 20 19:59 14.06.2022
3156 Clouds 18 1021 66 10000 2.57 340 18:45 14.06.2022
3157 Clouds 18 1022 65 10000 2.57 300 17:29 14.06.2022
3158 Clouds 18 1022 64 10000 2.06 0 16:43 14.06.2022
3159 Clouds 19 1022 61 10000 2.06 0 15:49 14.06.2022
3160 Clouds 19 1023 62 10000 2.57 230 14:57 14.06.2022
3161 Clouds 18 1023 63 10000 2.57 300 14:20 14.06.2022
3162 Clouds 18 1023 52 10000 2.57 270 13:39 14.06.2022
3163 Clouds 17 1023 68 10000 2.06 0 12:27 14.06.2022
3164 Clouds 16 1023 71 10000 3.09 290 11:27 14.06.2022
3165 Clouds 15 1023 71 10000 3.09 300 10:35 14.06.2022
3166 Clouds 15 1023 78 10000 2.57 260 09:45 14.06.2022
3167 Clouds 13 1023 86 10000 3.6 250 08:45 14.06.2022
3168 Clear 10 1023 92 10000 1.03 0 07:26 14.06.2022
3169 Clouds 8 1023 98 10000 1.03 0 04:44 14.06.2022
3170 Clear 9 1022 93 10000 1.54 220 02:45 14.06.2022
3171 Clear 10 1023 89 10000 2.06 300 00:27 14.06.2022
3172 Clear 11 1023 86 10000 2.57 300 23:21 13.06.2022
3173 Clear 13 1022 70 10000 3.6 320 22:25 13.06.2022
3174 Clouds 13 1022 68 10000 4.63 310 21:48 13.06.2022
3175 Clouds 15 1021 71 10000 6.17 340 20:23 13.06.2022
3176 Clouds 15 1021 72 10000 5.14 340 19:34 13.06.2022
3177 Clouds 17 1021 70 10000 8.23 320 17:58 13.06.2022
3178 Clouds 17 1021 61 10000 8.23 320 17:38 13.06.2022
3179 Clouds 17 1020 71 10000 6.17 310 16:40 13.06.2022
3180 Clear 17 1020 75 10000 5.66 310 15:37 13.06.2022
3181 Rain 17 1020 73 10000 7.2 310 14:42 13.06.2022
3182 Clouds 17 1020 73 10000 9.26 300 13:46 13.06.2022
3183 Rain 16 1019 55 10000 7.72 300 12:47 13.06.2022
3184 Clouds 16 1019 79 10000 6.17 290 11:26 13.06.2022
3185 Clouds 13 1019 89 10000 4.12 290 10:27 13.06.2022
3186 Clouds 13 1019 89 10000 4.12 290 10:27 13.06.2022
3187 Rain 15 1018 76 10000 7.2 270 09:38 13.06.2022
3188 Clear 13 1018 89 10000 3.09 230 07:51 13.06.2022
3189 Clear 10 1018 90 10000 1.54 220 05:49 13.06.2022
3190 Clear 10 1019 89 10000 2.57 220 02:55 13.06.2022
3191 Clear 11 1019 89 10000 1.54 260 01:37 13.06.2022
3192 Clear 13 1019 73 10000 3.09 320 00:22 13.06.2022
3193 Clouds 14 1020 77 10000 3.09 300 23:25 12.06.2022
3194 Clear 15 1019 71 10000 4.12 310 22:22 12.06.2022
3195 Clear 17 1019 74 10000 6.17 310 21:27 12.06.2022
3196 Clear 18 1019 62 10000 6.17 320 20:34 12.06.2022
3197 Clear 20 1019 71 10000 3.6 10 19:36 12.06.2022
3198 Clear 22 1019 50 10000 6.17 280 17:54 12.06.2022
3199 Clear 22 1019 49 10000 6.69 310 16:42 12.06.2022
3200 Clouds 22 1019 59 10000 6.17 260 15:24 12.06.2022
3201 Clear 22 1020 60 10000 5.66 260 14:31 12.06.2022
3202 Clear 22 1020 62 10000 5.14 250 13:55 12.06.2022
3203 Clear 21 1020 65 10000 4.12 270 12:58 12.06.2022
3204 Clear 22 1021 47 10000 4.12 270 11:47 12.06.2022
3205 Clear 21 1021 55 10000 4.12 240 10:45 12.06.2022
3206 Clear 18 1021 75 10000 3.6 210 09:28 12.06.2022
3207 Clear 17 1021 80 10000 2.06 210 08:49 12.06.2022
3208 Clear 14 1021 87 10000 1.03 0 07:40 12.06.2022
3209 Clear 10 1021 97 10000 0.51 270 05:39 12.06.2022
3210 Clear 12 1021 91 10000 1.54 160 03:38 12.06.2022
3211 Clouds 13 1022 93 10000 0.51 0 01:43 12.06.2022
3212 Clear 14 1022 82 10000 2.06 40 00:59 12.06.2022
3213 Clear 15 1022 78 10000 2.57 20 00:28 12.06.2022
3214 Clear 15 1022 77 10000 3.09 20 23:56 11.06.2022
3215 Clear 18 1021 63 10000 4.63 30 22:49 11.06.2022
3216 Clear 17 1021 72 10000 4.12 30 22:29 11.06.2022
3217 Clear 22 1021 43 10000 4.12 320 20:55 11.06.2022
3218 Clear 21 1021 67 10000 5.14 310 20:26 11.06.2022
3219 Clear 22 1021 64 10000 4.12 300 19:32 11.06.2022
3220 Clear 23 1021 56 10000 4.63 290 18:36 11.06.2022
3221 Clear 24 1021 42 10000 5.14 280 17:52 11.06.2022
3222 Clear 24 1021 43 10000 8.23 260 17:29 11.06.2022
3223 Clear 24 1021 59 10000 6.69 260 16:59 11.06.2022
3224 Clear 24 1021 43 10000 6.69 260 16:38 11.06.2022
3225 Clear 22 1021 50 10000 5.14 270 15:46 11.06.2022
3226 Clouds 22 1021 66 10000 6.17 280 13:54 11.06.2022
3227 Clouds 23 1021 63 10000 6.17 280 13:36 11.06.2022
3228 Rain 21 1021 69 10000 6.17 250 11:18 11.06.2022
3229 Clouds 20 1020 63 10000 7.2 240 10:22 11.06.2022
3230 Clouds 19 1020 77 10000 6.69 250 09:40 11.06.2022
3231 Clouds 18 1020 89 10000 2.57 240 07:58 11.06.2022
3232 Clear 15 1019 92 10000 2.06 220 06:31 11.06.2022
3233 Clear 16 1019 93 10000 2.06 220 05:22 11.06.2022
3234 Clouds 17 1020 91 10000 1.54 170 02:34 11.06.2022
3235 Clouds 18 1020 88 10000 1.54 220 01:41 11.06.2022
3236 Clouds 18 1020 87 10000 1.54 170 00:37 11.06.2022
3237 Rain 18 1020 84 10000 2.57 200 22:38 10.06.2022
3238 Clear 19 1020 82 10000 2.06 200 21:56 10.06.2022
3239 Clouds 19 1020 79 10000 2.06 210 20:55 10.06.2022
3240 Clouds 19 1020 79 10000 2.06 210 20:36 10.06.2022
3241 Clear 21 1020 68 10000 3.6 230 20:18 10.06.2022
3242 Clouds 21 1020 67 10000 4.12 220 19:18 10.06.2022
3243 Clouds 21 1020 67 10000 4.12 220 19:18 10.06.2022
3244 Clouds 21 1020 73 10000 4.63 210 18:20 10.06.2022
3245 Clouds 22 1020 72 10000 4.63 230 17:41 10.06.2022
3246 Clouds 21 1021 73 10000 4.63 220 16:59 10.06.2022
3247 Clouds 21 1021 74 10000 4.63 240 16:20 10.06.2022
3248 Clouds 20 1021 78 10000 4.63 210 15:36 10.06.2022
3249 Clouds 19 1021 78 10000 5.66 230 13:52 10.06.2022
3250 Clouds 19 1021 72 10000 6.17 230 12:48 10.06.2022
3251 Clouds 19 1021 69 10000 6.69 240 11:41 10.06.2022
3252 Clouds 19 1021 61 10000 6.69 210 10:44 10.06.2022
3253 Clouds 19 1021 63 10000 4.12 200 09:48 10.06.2022
3254 Clear 16 1021 74 10000 3.09 180 08:33 10.06.2022
3255 Clear 12 1021 94 10000 0.51 0 07:24 10.06.2022
3256 Clear 10 1021 98 10000 1.03 0 06:43 10.06.2022
3257 Mist 10 1020 98 3400 1.03 180 06:25 10.06.2022
3258 Fog 10 1020 98 400 0.51 160 03:52 10.06.2022
3259 Fog 11 1020 95 1100 1.03 190 01:41 10.06.2022
3260 Clear 12 1019 93 10000 2.06 290 00:32 10.06.2022
3261 Clear 12 1019 90 10000 2.06 300 23:39 09.06.2022
3262 Clouds 16 1018 77 10000 3.09 310 22:18 09.06.2022
3263 Clouds 17 1017 74 10000 3.6 310 21:33 09.06.2022
3264 Clouds 19 1016 67 10000 5.66 300 20:54 09.06.2022
3265 Clouds 19 1016 73 10000 5.66 300 20:21 09.06.2022
3266 Clouds 19 1015 69 10000 6.17 310 19:21 09.06.2022
3267 Clouds 20 1015 70 10000 6.17 310 18:28 09.06.2022
3268 Clouds 20 1014 67 10000 5.14 290 16:51 09.06.2022
3269 Clouds 21 1013 58 10000 4.12 300 15:49 09.06.2022
3270 Clouds 20 1012 73 10000 4.12 270 14:35 09.06.2022
3271 Clouds 20 1012 72 10000 5.14 250 13:54 09.06.2022
3272 Clouds 19 1012 77 10000 4.63 280 13:28 09.06.2022
3273 Clouds 17 1011 84 10000 5.14 260 11:54 09.06.2022
3274 Clouds 17 1011 86 10000 5.66 270 11:19 09.06.2022
3275 Clouds 16 1010 90 10000 4.12 250 09:45 09.06.2022
3276 Clouds 16 1009 91 10000 5.14 250 09:24 09.06.2022
3277 Clouds 14 1008 96 10000 4.63 250 07:52 09.06.2022
3278 Clouds 15 1007 96 7000 3.6 240 06:33 09.06.2022
3279 Clouds 14 1006 98 10000 3.09 170 02:52 09.06.2022
3280 Rain 15 1006 96 10000 2.06 130 23:48 08.06.2022
3281 Drizzle 15 1006 95 10000 1.03 130 22:58 08.06.2022
3282 Rain 15 1006 95 10000 1.03 130 22:27 08.06.2022
3283 Drizzle 15 1006 96 10000 1.03 0 21:55 08.06.2022
3284 Rain 15 1006 94 10000 2.06 270 21:21 08.06.2022
3285 Rain 16 1006 90 10000 5.66 270 20:21 08.06.2022
3286 Rain 17 1006 88 10000 6.17 260 19:38 08.06.2022
3287 Clouds 20 1005 60 10000 3.09 160 18:45 08.06.2022
3288 Clouds 22 1005 66 10000 5.14 190 17:25 08.06.2022
3289 Clouds 21 1006 59 10000 4.12 200 15:48 08.06.2022
3290 Clouds 21 1007 60 10000 3.6 190 13:52 08.06.2022
3291 Clouds 19 1007 75 10000 3.6 200 12:22 08.06.2022
3292 Clouds 19 1007 71 10000 3.6 200 11:33 08.06.2022
3293 Clouds 17 1008 81 10000 2.57 180 10:20 08.06.2022
3294 Clouds 15 1009 87 10000 3.09 150 09:22 08.06.2022
3295 Clouds 14 1009 93 10000 2.06 160 08:43 08.06.2022
3296 Clouds 11 1009 96 10000 1.54 150 06:35 08.06.2022
3297 Clear 9 1010 98 10000 1.03 150 03:58 08.06.2022
3298 Clear 10 1011 95 10000 0.51 0 00:49 08.06.2022
3299 Clear 12 1011 90 10000 2.06 250 23:30 07.06.2022
3300 Clear 12 1011 90 10000 2.57 260 22:48 07.06.2022
3301 Clear 13 1011 86 10000 2.57 260 22:30 07.06.2022
3302 Clouds 15 1011 78 10000 4.12 260 21:35 07.06.2022
3303 Clouds 15 1011 78 10000 5.14 270 20:59 07.06.2022
3304 Clouds 15 1011 77 10000 5.14 270 20:33 07.06.2022
3305 Clear 16 1011 78 10000 5.14 290 19:48 07.06.2022
3306 Clear 17 1010 78 10000 5.14 320 18:24 07.06.2022
3307 Clouds 17 1011 78 10000 4.63 280 17:27 07.06.2022
3308 Clouds 16 1011 78 10000 4.63 270 16:43 07.06.2022
3309 Clouds 17 1011 70 10000 5.14 260 15:56 07.06.2022
3310 Clouds 17 1011 59 10000 7.72 260 15:26 07.06.2022
3311 Clouds 17 1011 70 10000 7.2 230 14:52 07.06.2022
3312 Clouds 16 1011 80 10000 7.2 230 14:34 07.06.2022
3313 Clouds 16 1010 80 10000 7.2 240 13:32 07.06.2022
3314 Clouds 15 1010 80 10000 5.66 240 12:52 07.06.2022
3315 Clouds 15 1010 81 10000 8.75 230 11:48 07.06.2022
3316 Clouds 15 1010 87 10000 7.2 210 10:27 07.06.2022
3317 Clouds 14 1010 93 10000 6.69 190 08:53 07.06.2022
3318 Clouds 13 1010 93 10000 4.63 190 07:35 07.06.2022
3319 Clouds 12 1011 96 10000 4.12 180 06:38 07.06.2022
3320 Clouds 12 1011 96 10000 4.12 180 06:38 07.06.2022
3321 Rain 12 1011 94 10000 4.12 190 04:39 07.06.2022
3322 Clouds 12 1013 96 10000 2.06 220 01:27 07.06.2022
3323 Rain 12 1013 95 10000 5.66 240 23:52 06.06.2022
3324 Rain 13 1013 95 10000 4.63 230 22:54 06.06.2022
3325 Rain 13 1013 96 10000 5.66 230 22:29 06.06.2022
3326 Rain 15 1012 87 10000 6.17 250 20:43 06.06.2022
3327 Rain 16 1011 80 10000 6.69 240 19:24 06.06.2022
3328 Rain 18 1011 71 10000 5.66 250 18:48 06.06.2022
3329 Clear 19 1011 62 10000 6.17 210 18:21 06.06.2022
3330 Clear 21 1011 59 10000 6.17 210 17:24 06.06.2022
3331 Clear 20 1012 47 10000 8.23 230 16:18 06.06.2022
3332 Clear 21 1012 49 10000 8.75 230 15:23 06.06.2022
3333 Clouds 20 1012 65 10000 7.2 230 14:29 06.06.2022
3334 Clouds 20 1012 66 10000 7.72 230 13:21 06.06.2022
3335 Clouds 19 1012 70 10000 9.26 220 12:35 06.06.2022
3336 Clouds 18 1012 76 10000 9.26 230 11:50 06.06.2022
3337 Clouds 17 1012 82 10000 5.14 220 10:21 06.06.2022
3338 Clouds 16 1012 86 10000 8.23 220 09:24 06.06.2022
3339 Clouds 15 1011 93 10000 7.54 211 08:31 06.06.2022
3340 Clouds 16 1010 90 10000 7.2 220 07:28 06.06.2022
3341 Clouds 16 1010 95 10000 7.98 209 05:18 06.06.2022
3342 Clouds 17 1009 95 10000 7.26 206 02:42 06.06.2022
3343 Clouds 17 1009 97 10000 4.64 152 00:57 06.06.2022
3344 Clouds 18 1010 92 10000 4.12 150 00:37 06.06.2022
3345 Clouds 17 1010 93 10000 4.63 90 23:28 05.06.2022
3346 Clouds 17 1011 92 10000 5.14 70 22:33 05.06.2022
3347 Rain 21 1011 69 10000 4.12 70 20:46 05.06.2022
3348 Rain 20 1012 73 10000 4.12 90 19:38 05.06.2022
3349 Rain 22 1012 71 10000 2.57 90 18:29 05.06.2022
3350 Rain 23 1013 46 10000 3.6 100 17:51 05.06.2022
3351 Rain 23 1013 51 10000 3.6 100 17:24 05.06.2022
3352 Rain 22 1013 63 10000 3.6 110 16:49 05.06.2022
3353 Rain 24 1014 48 10000 3.6 110 16:30 05.06.2022
3354 Clear 24 1015 46 10000 5.66 100 14:24 05.06.2022
3355 Clear 23 1016 51 10000 6.17 100 12:49 05.06.2022
3356 Clear 22 1017 55 10000 5.14 110 11:43 05.06.2022
3357 Clear 21 1018 56 10000 5.66 110 10:33 05.06.2022
3358 Clear 19 1018 60 10000 4.63 110 09:59 05.06.2022
3359 Clear 15 1019 80 10000 3.09 100 08:32 05.06.2022
3360 Clear 14 1019 86 10000 3.6 80 07:43 05.06.2022
3361 Clear 11 1020 93 10000 2.06 70 05:22 05.06.2022
3362 Clear 11 1020 94 10000 2.57 50 03:46 05.06.2022
3363 Clear 13 1021 92 10000 3.6 30 01:32 05.06.2022
3364 Clear 13 1022 90 10000 4.12 30 00:33 05.06.2022
3365 Clear 13 1022 91 10000 3.26 4 22:22 04.06.2022
3366 Clear 19 1021 70 10000 3.6 20 20:31 04.06.2022
3367 Clear 20 1021 65 10000 3.6 360 18:45 04.06.2022
3368 Clear 21 1021 50 10000 3.6 360 16:47 04.06.2022
3369 Clear 21 1022 52 10000 2.57 0 16:18 04.06.2022
3370 Clear 20 1022 62 10000 3.6 50 14:53 04.06.2022
3371 Clear 18 1022 60 10000 4.63 10 12:38 04.06.2022
3372 Clear 16 1022 77 10000 3.6 30 11:22 04.06.2022
3373 Clear 15 1022 73 10000 4.12 20 10:49 04.06.2022
3374 Clear 13 1022 84 10000 4.12 20 09:45 04.06.2022
3375 Clear 12 1021 87 10000 4.12 30 08:43 04.06.2022
3376 Clear 11 1021 89 10000 4.12 20 07:42 04.06.2022
3377 Clear 10 1021 92 10000 4.12 20 05:30 04.06.2022
3378 Clear 11 1021 86 10000 5.14 20 02:20 04.06.2022
3379 Clear 13 1020 82 10000 5.14 20 00:19 04.06.2022
3380 Clear 14 1019 81 10000 5.66 20 22:40 03.06.2022
3381 Clear 16 1019 77 10000 6.69 20 21:39 03.06.2022
3382 Clear 17 1019 75 10000 6.17 10 20:38 03.06.2022
3383 Clear 21 1018 62 10000 5.66 20 18:54 03.06.2022
3384 Clear 22 1019 55 10000 2.57 20 16:52 03.06.2022
3385 Clear 21 1019 46 10000 2.57 50 15:40 03.06.2022
3386 Clouds 20 1020 48 10000 3.6 50 13:49 03.06.2022
3387 Clear 19 1021 56 10000 2.57 40 11:51 03.06.2022
3388 Clear 16 1021 67 10000 2.57 80 09:54 03.06.2022
3389 Clear 14 1021 80 10000 3.09 70 09:29 03.06.2022
3390 Clear 10 1022 94 10000 3.09 70 07:42 03.06.2022
3391 Clear 8 1022 95 10000 2.06 80 06:46 03.06.2022
3392 Clear 7 1022 98 10000 1.54 50 06:27 03.06.2022
3393 Clear 9 1022 91 10000 1.54 50 02:50 03.06.2022
3394 Clear 11 1022 78 10000 1.54 20 23:36 02.06.2022
3395 Clear 15 1021 67 10000 3.09 30 21:58 02.06.2022
3396 Clouds 17 1021 58 10000 2.57 300 20:34 02.06.2022
3397 Clear 17 1021 69 10000 3.09 300 19:54 02.06.2022
3398 Clear 17 1021 70 10000 3.6 300 19:36 02.06.2022
3399 Clouds 18 1021 66 10000 3.6 300 18:38 02.06.2022
3400 Clouds 18 1021 55 10000 3.6 310 16:28 02.06.2022
3401 Clouds 18 1021 57 10000 4.12 320 15:46 02.06.2022
3402 Clouds 15 1022 75 10000 5.14 260 13:30 02.06.2022
3403 Clouds 15 1022 75 10000 5.14 260 13:30 02.06.2022
3404 Clouds 15 1021 68 10000 4.63 270 12:46 02.06.2022
3405 Clouds 14 1021 79 10000 3.6 280 10:34 02.06.2022
3406 Clear 12 1020 86 10000 5.14 290 09:29 02.06.2022
3407 Clear 11 1020 91 10000 4.12 280 08:44 02.06.2022
3408 Clear 11 1020 93 10000 3.09 270 08:23 02.06.2022
3409 Fog 7 1019 96 350 1.03 240 06:21 02.06.2022
3410 Fog 8 1018 96 800 1.03 0 03:50 02.06.2022
3411 Clouds 9 1017 97 10000 1.54 240 00:55 02.06.2022
3412 Clouds 10 1016 95 10000 1.54 280 22:58 01.06.2022
3413 Clouds 11 1015 89 10000 3.6 310 21:59 01.06.2022
3414 Rain 12 1015 89 10000 2.57 300 21:24 01.06.2022
3415 Clouds 13 1015 84 10000 3.6 320 20:38 01.06.2022
3416 Clouds 13 1014 85 10000 3.6 260 19:52 01.06.2022
3417 Clouds 14 1014 76 10000 2.06 270 18:37 01.06.2022
3418 Clouds 15 1013 72 10000 5.14 340 16:58 01.06.2022
3419 Clouds 14 1013 73 10000 6.17 260 15:43 01.06.2022
3420 Clouds 15 1013 84 10000 4.12 270 14:49 01.06.2022
3421 Rain 13 1013 84 10000 4.63 250 13:23 01.06.2022
3422 Clouds 13 1013 90 10000 2.06 220 10:48 01.06.2022
3423 Clear 11 1013 94 10000 2.57 180 09:29 01.06.2022
3424 Clouds 11 1012 94 10000 1.54 210 08:19 01.06.2022
3425 Clouds 10 1012 95 10000 1.03 0 07:20 01.06.2022
3426 Rain 10 1012 89 10000 1.54 60 04:41 01.06.2022
3427 Clear 11 1013 83 10000 3.09 40 23:50 31.05.2022
3428 Clear 13 1013 72 10000 4.12 30 22:43 31.05.2022
3429 Clear 13 1013 80 10000 3.6 30 22:24 31.05.2022
3430 Clear 13 1012 77 10000 3.09 30 21:44 31.05.2022
3431 Clouds 14 1012 84 10000 2.97 24 20:44 31.05.2022
3432 Clouds 14 1012 83 10000 2.97 24 20:44 31.05.2022
3433 Clear 15 1012 66 10000 1.54 90 19:46 31.05.2022
3434 Clear 17 1012 64 10000 1.03 0 18:33 31.05.2022
3435 Clear 16 1012 53 10000 2.06 100 17:46 31.05.2022
3436 Clear 16 1013 66 10000 1.54 0 16:21 31.05.2022
3437 Clouds 16 1013 55 10000 1.54 100 15:37 31.05.2022
3438 Clouds 16 1013 63 10000 1.03 0 13:22 31.05.2022
3439 Clouds 15 1014 66 10000 2.06 100 12:19 31.05.2022
3440 Clear 14 1014 73 10000 1.54 0 10:52 31.05.2022
3441 Clear 10 1015 88 10000 1.54 140 08:35 31.05.2022
3442 Clear 8 1015 95 10000 1.03 70 06:38 31.05.2022
3443 Clear 8 1015 95 10000 1.03 70 04:34 31.05.2022
3444 Clear 9 1015 90 10000 0 0 23:49 30.05.2022
3445 Clear 9 1015 89 10000 0.51 0 23:25 30.05.2022
3446 Clear 10 1015 83 10000 0.51 0 22:42 30.05.2022
3447 Clear 11 1014 74 10000 1.54 30 21:42 30.05.2022
3448 Clouds 12 1014 80 10000 2.06 350 21:21 30.05.2022
3449 Clouds 13 1014 79 10000 2.06 290 19:45 30.05.2022
3450 Clear 13 1014 77 10000 3.6 310 18:26 30.05.2022
3451 Clouds 12 1014 79 10000 6.69 310 17:23 30.05.2022
3452 Clear 13 1013 78 10000 4.12 290 16:36 30.05.2022
3453 Clouds 13 1013 74 10000 2.57 270 13:44 30.05.2022
3454 Clouds 12 1012 77 10000 2.57 300 11:54 30.05.2022
3455 Clouds 11 1012 78 10000 3.6 290 10:26 30.05.2022
3456 Clear 10 1012 84 10000 3.09 290 09:19 30.05.2022
3457 Clear 8 1011 91 10000 2.06 260 06:28 30.05.2022
3458 Clear 8 1011 93 10000 1.54 260 05:38 30.05.2022
3459 Clouds 9 1012 93 10000 1.54 260 01:31 30.05.2022
3460 Clouds 9 1012 88 10000 4.63 290 22:49 29.05.2022
3461 Clouds 9 1012 88 10000 4.63 290 22:31 29.05.2022
3462 Clouds 10 1012 89 10000 4.97 316 20:51 29.05.2022
3463 Clouds 11 1012 83 10000 5.14 300 19:30 29.05.2022
3464 Clouds 11 1012 83 10000 6.17 320 18:35 29.05.2022
3465 Clouds 11 1012 88 10000 5.14 320 16:51 29.05.2022
3466 Clouds 11 1012 88 10000 7.2 310 15:47 29.05.2022
3467 Clouds 11 1012 89 10000 6.17 300 14:57 29.05.2022
3468 Clouds 10 1012 93 10000 6.17 310 13:46 29.05.2022
3469 Drizzle 10 1012 95 10000 5.66 290 11:34 29.05.2022
3470 Mist 10 1012 95 2500 4.63 290 10:38 29.05.2022
3471 Clouds 10 1012 93 10000 5.14 280 08:47 29.05.2022
3472 Clouds 9 1012 92 10000 4.63 260 05:48 29.05.2022
3473 Clouds 9 1013 90 10000 4.12 270 04:43 29.05.2022
3474 Clouds 9 1013 92 10000 4.12 270 03:41 29.05.2022
3475 Clouds 10 1015 93 10000 4.63 280 23:49 28.05.2022
3476 Clouds 10 1015 93 10000 4.63 270 23:26 28.05.2022
3477 Drizzle 10 1016 92 10000 4.12 270 22:33 28.05.2022
3478 Clouds 10 1016 91 10000 5.14 280 21:38 28.05.2022
3479 Clouds 12 1017 80 10000 6.17 310 19:41 28.05.2022
3480 Clear 13 1016 73 10000 8.75 310 18:47 28.05.2022
3481 Clouds 13 1017 64 10000 8.23 300 17:37 28.05.2022
3482 Clouds 13 1017 73 10000 9.26 300 16:38 28.05.2022
3483 Clouds 14 1017 71 10000 10.29 300 15:43 28.05.2022
3484 Clouds 14 1017 67 10000 9.77 300 14:24 28.05.2022
3485 Clouds 13 1017 81 10000 8.23 300 12:51 28.05.2022
3486 Rain 12 1017 81 10000 8.23 300 12:33 28.05.2022
3487 Clouds 12 1017 77 10000 10.8 310 11:22 28.05.2022
3488 Clouds 12 1016 86 10000 7.72 300 09:59 28.05.2022
3489 Clouds 11 1016 87 10000 7.72 300 09:21 28.05.2022
3490 Clouds 9 1016 91 10000 5.66 280 07:23 28.05.2022
3491 Clouds 8 1015 91 10000 6.17 270 05:48 28.05.2022
3492 Clouds 8 1016 92 10000 4.12 280 02:52 28.05.2022
3493 Clouds 10 1017 90 10000 5.14 260 00:33 28.05.2022
3494 Clouds 9 1017 91 10000 5.14 300 23:32 27.05.2022
3495 Clouds 11 1017 84 10000 7.2 270 21:50 27.05.2022
3496 Clear 11 1017 85 10000 6.69 270 20:56 27.05.2022
3497 Clouds 11 1017 85 10000 8.75 290 20:25 27.05.2022
3498 Clouds 11 1017 85 10000 8.23 290 19:48 27.05.2022
3499 Clouds 12 1017 83 10000 8.23 300 19:29 27.05.2022
3500 Rain 12 1017 84 9000 9.26 300 18:24 27.05.2022
3501 Clouds 14 1017 76 10000 10.8 290 16:40 27.05.2022
3502 Clouds 16 1017 54 10000 12.35 280 15:33 27.05.2022
3503 Clouds 15 1017 65 10000 10.8 290 14:44 27.05.2022
3504 Clouds 15 1016 71 10000 9.77 280 13:23 27.05.2022
3505 Clouds 14 1016 65 10000 10.29 270 11:34 27.05.2022
3506 Clouds 14 1016 70 10000 9.77 270 10:57 27.05.2022
3507 Clouds 14 1016 71 10000 9.77 270 10:32 27.05.2022
3508 Clouds 14 1016 73 10000 7.2 280 09:37 27.05.2022
3509 Clouds 13 1016 84 10000 5.66 280 08:19 27.05.2022
3510 Clear 11 1016 88 10000 3.6 270 06:45 27.05.2022
3511 Rain 14 1015 95 10000 4.63 260 02:53 27.05.2022
3512 Clouds 14 1016 96 9000 6.69 250 00:37 27.05.2022
3513 Drizzle 14 1016 90 10000 4.12 240 22:47 26.05.2022
3514 Drizzle 14 1016 89 10000 2.57 230 21:42 26.05.2022
3515 Mist 14 1017 91 2800 4.12 260 20:59 26.05.2022
3516 Clouds 16 1017 74 10000 6.17 280 19:27 26.05.2022
3517 Clouds 17 1017 73 10000 6.69 280 18:21 26.05.2022
3518 Clouds 17 1017 62 10000 7.2 260 16:56 26.05.2022
3519 Clouds 17 1017 70 10000 6.69 250 15:46 26.05.2022
3520 Clear 18 1018 67 10000 7.2 250 14:48 26.05.2022
3521 Clouds 18 1018 67 10000 8.75 260 13:23 26.05.2022
3522 Clouds 18 1017 67 10000 7.2 270 11:36 26.05.2022
3523 Clouds 16 1017 72 10000 7.72 280 10:24 26.05.2022
3524 Clouds 15 1016 75 10000 7.2 280 09:35 26.05.2022
3525 Clouds 14 1016 84 10000 7.2 270 08:37 26.05.2022
3526 Clouds 13 1014 94 7000 5.14 230 05:22 26.05.2022
3527 Rain 13 1014 88 10000 5.66 230 01:24 26.05.2022
3528 Rain 14 1014 84 10000 6.69 260 23:40 25.05.2022
3529 Clouds 14 1013 78 10000 2.06 260 22:30 25.05.2022
3530 Clear 15 1013 75 10000 3.09 230 21:33 25.05.2022
3531 Clear 15 1013 76 10000 2.57 240 20:38 25.05.2022
3532 Clear 16 1013 76 10000 1.54 250 19:31 25.05.2022
3533 Rain 16 1013 74 10000 6.17 230 18:20 25.05.2022
3534 Clouds 17 1012 70 10000 5.66 300 16:41 25.05.2022
3535 Clouds 18 1012 66 10000 6.17 240 15:58 25.05.2022
3536 Rain 18 1013 67 10000 5.66 240 14:56 25.05.2022
3537 Clouds 18 1013 65 10000 5.66 240 14:33 25.05.2022
3538 Clouds 18 1013 66 10000 5.66 240 13:58 25.05.2022
3539 Clouds 18 1013 58 10000 6.17 240 12:48 25.05.2022
3540 Clouds 16 1013 63 10000 5.66 220 10:58 25.05.2022
3541 Clouds 15 1013 75 10000 5.66 220 10:20 25.05.2022
3542 Clear 12 1013 91 10000 5.13 232 08:45 25.05.2022
3543 Clouds 11 1013 96 10000 2.89 215 07:23 25.05.2022
3544 Fog 9 1012 95 800 1.54 190 05:23 25.05.2022
3545 Clear 11 1010 88 10000 2.06 210 00:31 25.05.2022
3546 Clear 12 1010 83 10000 3.09 200 23:47 24.05.2022
3547 Clear 12 1009 86 10000 3.6 220 22:52 24.05.2022
3548 Clouds 13 1008 84 10000 2.57 220 21:46 24.05.2022
3549 Clouds 14 1008 82 10000 2.57 200 21:22 24.05.2022
3550 Clear 14 1008 83 10000 2.57 230 20:44 24.05.2022
3551 Clouds 16 1007 74 10000 6.69 240 18:59 24.05.2022
3552 Clouds 16 1006 68 10000 6.17 240 17:50 24.05.2022
3553 Clouds 17 1005 67 10000 9.77 230 16:36 24.05.2022
3554 Clouds 16 1004 79 10000 7.72 240 15:31 24.05.2022
3555 Clouds 17 1004 76 10000 6.69 210 14:37 24.05.2022
3556 Clouds 16 1004 80 10000 7.2 220 13:35 24.05.2022
3557 Clouds 14 1003 91 10000 4.63 220 12:19 24.05.2022
3558 Rain 16 1001 86 10000 5.14 210 09:51 24.05.2022
3559 Clouds 15 1001 90 10000 4.12 200 08:51 24.05.2022
3560 Clouds 14 1000 93 10000 2.57 220 07:44 24.05.2022
3561 Clouds 13 1000 94 10000 4.12 230 06:39 24.05.2022
3562 Clouds 14 999 92 10000 6.17 260 03:38 24.05.2022
3563 Clouds 16 996 95 10000 2.57 190 01:46 24.05.2022
3564 Rain 16 996 89 10000 4.12 130 00:30 24.05.2022
3565 Rain 18 996 75 10000 6.69 150 22:24 23.05.2022
3566 Rain 21 996 56 10000 5.66 140 21:50 23.05.2022
3567 Clouds 22 997 49 10000 6.17 150 20:46 23.05.2022
3568 Clear 23 997 46 10000 7.72 150 19:55 23.05.2022
3569 Clear 23 997 52 10000 6.17 140 19:24 23.05.2022
3570 Clear 24 998 49 10000 7.72 130 18:41 23.05.2022
3571 Clear 24 998 49 10000 7.72 130 18:41 23.05.2022
3572 Clear 24 999 50 10000 7.72 130 17:56 23.05.2022
3573 Clear 24 1001 46 10000 7.72 120 16:40 23.05.2022
3574 Clear 23 1003 52 10000 7.2 130 14:20 23.05.2022
3575 Clear 20 1005 58 10000 6.17 140 11:57 23.05.2022
3576 Clear 18 1006 63 10000 5.14 130 10:58 23.05.2022
3577 Clear 17 1007 67 10000 5.66 140 09:48 23.05.2022
3578 Clear 15 1007 70 10000 4.12 120 08:50 23.05.2022
3579 Clear 13 1007 75 10000 4.63 120 07:41 23.05.2022
3580 Clear 12 1008 78 10000 4.12 130 06:41 23.05.2022
3581 Clear 11 1009 78 10000 4.12 110 04:40 23.05.2022
3582 Clear 12 1011 77 10000 3.09 80 02:19 23.05.2022
3583 Clear 12 1012 77 10000 3.09 80 01:34 23.05.2022
3584 Clear 12 1012 75 10000 3.09 80 23:42 22.05.2022
3585 Clear 14 1013 68 10000 1.54 100 22:34 22.05.2022
3586 Clear 14 1013 64 10000 1.03 90 21:54 22.05.2022
3587 Clear 16 1013 60 10000 2.06 90 20:51 22.05.2022
3588 Clear 17 1013 59 10000 2.57 90 20:25 22.05.2022
3589 Clear 17 1014 55 10000 2.57 100 19:54 22.05.2022
3590 Clear 17 1014 55 10000 2.57 100 19:54 22.05.2022
3591 Clear 18 1014 54 10000 2.06 230 18:53 22.05.2022
3592 Clear 19 1014 48 10000 1.54 220 18:24 22.05.2022
3593 Clear 19 1015 49 10000 1.54 0 17:32 22.05.2022
3594 Clouds 19 1015 51 10000 3.09 50 16:25 22.05.2022
3595 Clouds 18 1016 53 10000 3.09 340 14:48 22.05.2022
3596 Clouds 17 1017 55 10000 1.54 0 13:38 22.05.2022
3597 Clouds 17 1017 59 10000 1.54 0 12:50 22.05.2022
3598 Clouds 16 1017 62 10000 1.54 0 11:37 22.05.2022
3599 Clouds 14 1018 74 10000 3.09 310 09:43 22.05.2022
3600 Clear 12 1018 88 10000 1.03 0 08:35 22.05.2022
3601 Clouds 9 1018 95 8000 1.03 0 07:21 22.05.2022
3602 Fog 7 1018 94 450 1.03 240 05:44 22.05.2022
3603 Clouds 10 1019 87 10000 2.66 281 01:43 22.05.2022
3604 Clear 10 1019 88 10000 2.57 300 00:43 22.05.2022
3605 Clear 12 1019 79 10000 3.09 300 23:55 21.05.2022
3606 Clear 12 1019 75 10000 3.6 310 23:20 21.05.2022
3607 Clouds 14 1019 72 10000 4.63 300 21:43 21.05.2022
3608 Clouds 15 1019 71 10000 5.66 310 21:25 21.05.2022
3609 Clouds 15 1018 68 10000 5.66 310 20:25 21.05.2022
3610 Clouds 16 1018 66 10000 6.17 310 19:35 21.05.2022
3611 Clouds 18 1018 57 10000 8.23 280 17:51 21.05.2022
3612 Clouds 18 1018 62 10000 8.23 280 16:53 21.05.2022
3613 Clouds 18 1018 61 10000 8.75 270 14:38 21.05.2022
3614 Clouds 17 1018 67 10000 8.23 280 13:53 21.05.2022
3615 Clouds 17 1017 68 10000 9.26 280 12:57 21.05.2022
3616 Clouds 17 1017 70 10000 9.26 280 12:37 21.05.2022
3617 Clouds 16 1016 76 10000 8.23 260 10:45 21.05.2022
3618 Clouds 15 1016 82 10000 8.23 260 09:48 21.05.2022
3619 Clouds 13 1016 92 10000 7.2 240 08:58 21.05.2022
3620 Clouds 13 1016 93 10000 7.2 240 08:34 21.05.2022
3621 Clouds 10 1016 95 10000 4.59 235 05:28 21.05.2022
3622 Clouds 12 1014 92 10000 7.2 290 00:58 21.05.2022
3623 Clouds 13 1012 93 10000 9.77 300 23:22 20.05.2022
3624 Mist 14 1010 94 5000 12.35 300 22:24 20.05.2022
3625 Clouds 14 1009 94 10000 5.66 270 21:55 20.05.2022
3626 Mist 16 1007 93 1800 7.2 280 20:58 20.05.2022
3627 Mist 16 1007 93 1800 7.2 280 20:58 20.05.2022
3628 Rain 16 1007 88 10000 6.17 140 20:29 20.05.2022
3629 Clouds 17 1008 86 5106 3.25 122 19:29 20.05.2022
3630 Drizzle 17 1011 79 10000 3.6 120 18:47 20.05.2022
3631 Rain 19 1012 69 10000 3.6 100 17:47 20.05.2022
3632 Clear 21 1015 54 10000 3.09 120 16:21 20.05.2022
3633 Clear 21 1015 54 10000 3.09 130 15:53 20.05.2022
3634 Clear 20 1018 61 10000 1.54 0 14:31 20.05.2022
3635 Clear 19 1018 65 10000 1.54 0 13:56 20.05.2022
3636 Clouds 17 1020 70 10000 1.54 0 11:51 20.05.2022
3637 Clouds 16 1021 77 10000 1.03 0 10:30 20.05.2022
3638 Clouds 14 1021 85 10000 2.57 280 08:58 20.05.2022
3639 Clear 13 1021 93 10000 1.54 240 07:40 20.05.2022
3640 Clear 11 1021 95 10000 1.03 0 06:38 20.05.2022
3641 Clouds 12 1020 92 10000 3.09 310 05:39 20.05.2022
3642 Clouds 16 1020 97 10000 5.61 279 01:18 20.05.2022
3643 Clouds 17 1018 96 10000 3.09 240 23:28 19.05.2022
3644 Clouds 18 1017 96 10000 4.12 240 22:33 19.05.2022
3645 Clouds 18 1017 95 10000 4.63 230 21:49 19.05.2022
3646 Clouds 18 1017 95 10000 4.63 230 21:49 19.05.2022
3647 Clouds 18 1017 95 10000 4.63 210 21:23 19.05.2022
3648 Clouds 18 1017 93 10000 2.57 210 20:43 19.05.2022
3649 Clear 18 1016 95 10000 1.03 0 19:54 19.05.2022
3650 Clouds 18 1016 94 7000 1.54 330 18:58 19.05.2022
3651 Thunderstorm 21 1017 83 10000 5.66 280 17:35 19.05.2022
3652 Clear 27 1015 50 10000 3.6 170 15:34 19.05.2022
3653 Clear 27 1016 53 10000 1.54 0 14:35 19.05.2022
3654 Clear 27 1016 54 10000 1.54 150 13:59 19.05.2022
3655 Clear 25 1018 57 10000 3.6 250 11:52 19.05.2022
3656 Clear 24 1018 53 10000 5.66 220 10:30 19.05.2022
3657 Clear 19 1018 79 10000 2.57 140 08:33 19.05.2022
3658 Clouds 16 1018 92 10000 3.11 169 06:57 19.05.2022
3659 Clouds 15 1019 92 6000 1.03 0 03:26 19.05.2022
3660 Clear 18 1019 84 10000 2.06 300 00:56 19.05.2022
3661 Clear 20 1019 76 10000 0.51 0 23:21 18.05.2022
3662 Clear 21 1019 71 10000 1.54 260 22:41 18.05.2022
3663 Clear 23 1019 60 10000 3.09 150 21:42 18.05.2022
3664 Clear 24 1019 61 10000 2.57 140 21:20 18.05.2022
3665 Clear 26 1019 55 10000 2.57 140 20:19 18.05.2022
3666 Clear 26 1019 55 10000 2.06 180 18:53 18.05.2022
3667 Clear 26 1019 51 10000 3.09 200 17:42 18.05.2022
3668 Clear 28 1019 43 10000 3.09 190 17:24 18.05.2022
3669 Clear 28 1019 46 10000 3.09 200 16:53 18.05.2022
3670 Clear 28 1020 38 10000 4.12 210 15:45 18.05.2022
3671 Clear 29 1020 45 10000 2.57 0 15:20 18.05.2022
3672 Clear 28 1020 49 10000 3.6 200 14:21 18.05.2022
3673 Clear 26 1021 59 10000 4.63 170 12:54 18.05.2022
3674 Clear 24 1021 61 10000 5.14 180 11:48 18.05.2022
3675 Clear 23 1021 68 10000 4.12 150 11:30 18.05.2022
3676 Clear 22 1021 67 10000 4.12 150 10:43 18.05.2022
3677 Clear 17 1021 88 10000 4.12 130 08:19 18.05.2022
3678 Clear 16 1021 91 10000 3.6 120 07:27 18.05.2022
3679 Clear 15 1021 91 10000 3.09 130 03:40 18.05.2022
3680 Clear 16 1021 87 10000 3.6 120 00:51 18.05.2022
3681 Clear 17 1021 85 10000 3.09 90 23:33 17.05.2022
3682 Clear 19 1020 79 10000 4.12 70 21:21 17.05.2022
3683 Clear 19 1020 77 10000 4.12 60 20:43 17.05.2022
3684 Clouds 20 1020 75 10000 4.63 70 19:41 17.05.2022
3685 Clouds 21 1019 70 10000 3.6 80 19:20 17.05.2022
3686 Clear 23 1019 61 10000 3.09 260 17:34 17.05.2022
3687 Clear 23 1019 61 10000 2.57 0 16:57 17.05.2022
3688 Clouds 23 1020 60 10000 3.09 0 15:59 17.05.2022
3689 Clouds 22 1020 64 10000 3.09 300 14:55 17.05.2022
3690 Clouds 22 1020 69 10000 4.63 310 14:28 17.05.2022
3691 Clouds 21 1020 71 10000 3.09 270 13:24 17.05.2022
3692 Clouds 18 1020 84 10000 3.09 280 10:42 17.05.2022
3693 Clouds 16 1019 90 10000 2.57 260 08:51 17.05.2022
3694 Clouds 14 1019 97 6000 1.54 250 07:56 17.05.2022
3695 Mist 14 1019 96 4200 1.03 240 06:26 17.05.2022
3696 Clouds 16 1018 94 6000 1.54 220 01:34 17.05.2022
3697 Rain 16 1018 93 10000 3.6 270 23:59 16.05.2022
3698 Rain 17 1017 90 10000 5.14 280 22:40 16.05.2022
3699 Rain 17 1017 88 10000 2.94 279 21:31 16.05.2022
3700 Clouds 22 1015 56 10000 3.6 180 20:43 16.05.2022
3701 Clouds 23 1014 53 10000 2.06 150 18:53 16.05.2022
3702 Clouds 24 1014 48 10000 4.12 150 17:34 16.05.2022
3703 Clear 25 1015 39 10000 4.12 170 15:36 16.05.2022
3704 Clear 24 1015 41 10000 5.66 110 13:48 16.05.2022
3705 Clear 23 1016 44 10000 6.17 110 12:46 16.05.2022
3706 Clear 19 1016 56 10000 4.63 120 10:47 16.05.2022
3707 Clear 15 1017 67 10000 4.12 100 08:37 16.05.2022
3708 Clear 11 1017 75 10000 3.6 90 06:32 16.05.2022
3709 Clear 12 1018 67 10000 3.6 90 02:33 16.05.2022
3710 Clear 17 1018 48 10000 5.14 70 22:52 15.05.2022
3711 Clear 18 1018 48 10000 4.63 70 22:28 15.05.2022
3712 Clear 18 1018 48 10000 4.63 70 21:38 15.05.2022
3713 Clear 20 1018 40 10000 2.06 70 20:53 15.05.2022
3714 Clear 22 1019 36 10000 2.06 0 18:53 15.05.2022
3715 Clear 22 1019 37 10000 2.06 0 17:45 15.05.2022
3716 Clear 22 1020 37 10000 2.57 0 15:44 15.05.2022
3717 Clear 20 1021 47 10000 2.57 0 13:49 15.05.2022
3718 Clear 18 1022 55 10000 2.57 150 12:22 15.05.2022
3719 Clear 17 1022 59 10000 2.06 0 11:38 15.05.2022
3720 Clear 17 1022 60 10000 2.06 0 11:38 15.05.2022
3721 Clear 17 1022 60 10000 2.06 0 11:38 15.05.2022
3722 Clear 14 1022 73 10000 2.06 110 10:20 15.05.2022
3723 Clear 9 1022 93 10000 0.51 0 07:46 15.05.2022
3724 Clear 7 1022 92 10000 1.28 88 06:57 15.05.2022
3725 Fog 6 1022 94 1000 1.03 80 04:44 15.05.2022
3726 Clear 10 1022 85 10000 1.03 0 00:48 15.05.2022
3727 Clouds 11 1023 83 10000 2.21 14 23:38 14.05.2022
3728 Clear 12 1022 74 10000 2.57 350 22:45 14.05.2022
3729 Clear 15 1021 58 10000 3.6 10 21:27 14.05.2022
3730 Clear 16 1021 55 10000 4.12 20 20:44 14.05.2022
3731 Clouds 17 1021 59 10000 4.63 350 19:21 14.05.2022
3732 Clouds 17 1021 59 10000 4.63 350 19:21 14.05.2022
3733 Clouds 18 1020 57 10000 5.66 350 18:59 14.05.2022
3734 Clouds 18 1020 56 10000 5.14 330 17:56 14.05.2022
3735 Clouds 19 1020 53 10000 6.17 310 16:37 14.05.2022
3736 Clouds 18 1021 57 10000 6.69 320 14:58 14.05.2022
3737 Clear 18 1021 55 10000 7.72 310 14:30 14.05.2022
3738 Clouds 18 1020 55 10000 6.69 290 12:23 14.05.2022
3739 Clouds 16 1020 62 10000 5.66 290 10:53 14.05.2022
3740 Clouds 16 1020 67 10000 4.63 300 10:20 14.05.2022
3741 Clear 15 1020 71 10000 4.63 290 09:53 14.05.2022
3742 Clear 14 1019 78 10000 3.6 270 08:46 14.05.2022
3743 Clear 10 1018 83 10000 3.09 240 05:43 14.05.2022
3744 Clear 11 1018 79 10000 3.09 210 02:32 14.05.2022
3745 Clouds 11 1018 72 10000 3.97 232 23:36 13.05.2022
3746 Clear 12 1019 66 10000 3.6 270 22:57 13.05.2022
3747 Clear 13 1018 62 10000 4.12 280 22:23 13.05.2022
3748 Clear 14 1018 58 10000 5.66 280 21:38 13.05.2022
3749 Clear 16 1018 48 10000 6.69 270 20:44 13.05.2022
3750 Clear 16 1017 56 10000 7.72 270 20:24 13.05.2022
3751 Clear 17 1017 54 10000 7.72 270 19:25 13.05.2022
3752 Clear 18 1017 53 10000 9.26 270 17:50 13.05.2022
3753 Clouds 17 1017 55 10000 7.72 270 17:27 13.05.2022
3754 Clouds 17 1017 56 10000 8.23 270 16:18 13.05.2022
3755 Clouds 17 1017 55 10000 7.72 280 15:20 13.05.2022
3756 Clouds 17 1017 61 10000 7.72 260 13:29 13.05.2022
3757 Clouds 15 1016 61 10000 7.2 260 12:25 13.05.2022
3758 Clear 15 1016 70 10000 6.17 250 10:53 13.05.2022
3759 Clear 12 1016 76 10000 5.66 240 09:33 13.05.2022
3760 Clear 11 1015 77 10000 5.66 230 08:24 13.05.2022
3761 Clear 11 1015 78 10000 4.12 230 07:42 13.05.2022
3762 Clear 9 1015 83 10000 3.6 190 06:33 13.05.2022
3763 Clear 10 1016 87 10000 2.57 210 02:48 13.05.2022
3764 Clear 10 1017 89 10000 1.54 120 23:56 12.05.2022
3765 Clear 12 1017 81 10000 3.6 10 22:44 12.05.2022
3766 Clear 14 1016 66 10000 2.57 300 21:54 12.05.2022
3767 Clear 17 1016 51 10000 4.63 290 20:27 12.05.2022
3768 Clear 18 1016 45 10000 6.17 270 18:51 12.05.2022
3769 Clear 19 1016 42 10000 5.66 250 17:23 12.05.2022
3770 Clear 18 1016 47 10000 5.66 280 15:55 12.05.2022
3771 Clear 18 1017 43 10000 5.66 260 14:40 12.05.2022
3772 Clear 18 1017 48 10000 5.66 280 13:38 12.05.2022
3773 Clouds 15 1017 69 10000 5.66 260 10:46 12.05.2022
3774 Clear 13 1016 75 10000 5.14 260 09:28 12.05.2022
3775 Clear 13 1016 75 10000 5.14 260 09:28 12.05.2022
3776 Clouds 12 1015 80 10000 5.66 270 08:51 12.05.2022
3777 Clouds 11 1014 84 10000 4.63 260 07:40 12.05.2022
3778 Clouds 10 1014 84 10000 4.63 270 07:40 12.05.2022
3779 Clear 10 1013 87 10000 4.63 270 06:19 12.05.2022
3780 Clouds 14 1008 80 10000 7.2 250 02:56 12.05.2022
3781 Rain 13 1008 84 10000 1.54 140 00:35 12.05.2022
3782 Clear 14 1008 80 10000 3.09 30 22:35 11.05.2022
3783 Clear 15 1008 76 10000 5.14 30 21:50 11.05.2022
3784 Clear 16 1007 70 10000 4.63 10 21:23 11.05.2022
3785 Clear 21 1007 45 10000 7.72 260 18:49 11.05.2022
3786 Clear 23 1007 35 10000 7.72 260 16:55 11.05.2022
3787 Clear 23 1008 40 10000 7.72 260 15:37 11.05.2022
3788 Clear 21 1008 46 10000 8.75 260 14:39 11.05.2022
3789 Clear 21 1008 49 10000 7.2 260 14:18 11.05.2022
3790 Clear 19 1009 66 10000 5.66 240 11:54 11.05.2022
3791 Clear 18 1009 69 10000 4.63 230 11:19 11.05.2022
3792 Clear 14 1010 86 10000 2.06 210 08:46 11.05.2022
3793 Clear 12 1011 91 10000 0.51 0 05:31 11.05.2022
3794 Clear 12 1011 91 10000 0.51 0 05:31 11.05.2022
3795 Clear 11 1013 89 10000 3.09 210 01:23 11.05.2022
3796 Clear 14 1014 91 10000 1.03 150 22:32 10.05.2022
3797 Clear 14 1014 92 10000 2.57 170 21:57 10.05.2022
3798 Rain 16 1013 83 10000 3.6 330 20:58 10.05.2022
3799 Rain 16 1013 86 10000 4.12 320 20:18 10.05.2022
3800 Rain 20 1012 70 10000 7.72 230 18:27 10.05.2022
3801 Rain 23 1012 40 10000 6.17 220 17:34 10.05.2022
3802 Rain 23 1014 49 10000 7.72 240 15:41 10.05.2022
3803 Clear 24 1016 46 10000 6.17 230 12:47 10.05.2022
3804 Clear 22 1017 51 10000 5.14 210 11:51 10.05.2022
3805 Clear 21 1017 57 10000 4.63 200 11:21 10.05.2022
3806 Clear 20 1017 60 10000 3.6 200 10:54 10.05.2022
3807 Clear 17 1017 69 10000 3.09 210 09:26 10.05.2022
3808 Clear 12 1018 79 10000 2.57 140 07:32 10.05.2022
3809 Clear 11 1019 79 10000 1.54 130 04:34 10.05.2022
3810 Clear 13 1021 70 10000 2.06 140 01:34 10.05.2022
3811 Clear 15 1022 65 10000 2.57 140 23:26 09.05.2022
3812 Clear 16 1022 60 10000 2.57 130 22:29 09.05.2022
3813 Clear 18 1022 54 10000 3.6 120 21:21 09.05.2022
3814 Clear 21 1022 43 10000 3.6 140 19:52 09.05.2022
3815 Clear 22 1023 39 10000 3.09 190 17:59 09.05.2022
3816 Clear 22 1024 36 10000 2.06 0 16:49 09.05.2022
3817 Clear 22 1025 36 10000 2.57 0 15:53 09.05.2022
3818 Clear 21 1025 37 10000 3.09 140 15:34 09.05.2022
3819 Clear 21 1025 37 10000 4.12 180 14:33 09.05.2022
3820 Clear 21 1026 38 10000 2.57 130 13:51 09.05.2022
3821 Clear 18 1027 44 10000 4.12 140 12:32 09.05.2022
3822 Clear 17 1027 51 10000 4.12 120 11:43 09.05.2022
3823 Clear 16 1027 54 10000 2.57 110 10:45 09.05.2022
3824 Clear 13 1028 64 10000 2.57 100 09:39 09.05.2022
3825 Clear 7 1028 84 10000 2.06 80 07:56 09.05.2022
3826 Clear 3 1028 91 10000 0.51 0 04:33 09.05.2022
3827 Clear 3 1028 91 10000 0.51 0 04:33 09.05.2022
3828 Clear 3 1028 91 10000 0.51 0 04:33 09.05.2022
3829 Clear 7 1029 83 10000 3.6 30 00:22 09.05.2022
3830 Clear 9 1028 74 10000 3.09 350 22:58 08.05.2022
3831 Clear 9 1028 76 10000 3.09 310 22:27 08.05.2022
3832 Clear 13 1027 58 10000 4.12 350 20:41 08.05.2022
3833 Clear 14 1027 54 10000 3.6 320 19:53 08.05.2022
3834 Clear 14 1027 51 10000 3.6 330 19:27 08.05.2022
3835 Clear 14 1027 54 10000 3.6 330 19:27 08.05.2022
3836 Clear 15 1027 46 10000 3.09 20 18:25 08.05.2022
3837 Clear 15 1027 43 10000 3.6 10 17:21 08.05.2022
3838 Clear 15 1027 45 10000 3.09 320 15:44 08.05.2022
3839 Clear 15 1028 44 10000 4.63 300 15:20 08.05.2022
3840 Clear 14 1028 56 10000 4.12 310 12:45 08.05.2022
3841 Clouds 11 1028 66 10000 3.6 360 10:56 08.05.2022
3842 Clouds 10 1028 71 10000 3.09 330 10:22 08.05.2022
3843 Clouds 10 1028 71 10000 3.6 340 09:51 08.05.2022
3844 Clear 6 1027 88 10000 1.03 0 07:41 08.05.2022
3845 Clouds 5 1027 89 10000 2.52 358 04:56 08.05.2022
3846 Clear 7 1027 84 10000 3.6 350 03:20 08.05.2022
3847 Clear 8 1026 81 10000 5.14 350 00:31 08.05.2022
3848 Clear 9 1026 81 10000 4.63 350 23:54 07.05.2022
3849 Clear 10 1025 83 10000 4.12 340 22:59 07.05.2022
3850 Clear 10 1025 82 10000 4.63 310 22:35 07.05.2022
3851 Clear 11 1024 85 10000 4.12 320 21:55 07.05.2022
3852 Clear 12 1024 76 10000 4.12 360 21:20 07.05.2022
3853 Clouds 15 1023 68 10000 6.17 360 19:59 07.05.2022
3854 Clouds 16 1023 68 10000 5.14 10 18:41 07.05.2022
3855 Clouds 18 1023 67 10000 3.6 330 16:24 07.05.2022
3856 Clouds 19 1022 55 10000 1.54 30 14:51 07.05.2022
3857 Clear 18 1023 55 10000 1.03 0 11:21 07.05.2022
3858 Rain 15 1023 82 10000 0.51 0 09:42 07.05.2022
3859 Rain 13 1022 89 10000 1.03 250 08:30 07.05.2022
3860 Clear 10 1022 91 10000 1.03 190 06:44 07.05.2022
3861 Clear 10 1022 93 10000 0.51 210 06:24 07.05.2022
3862 Clear 10 1022 90 10000 1.54 270 03:54 07.05.2022
3863 Clear 14 1023 72 10000 0.51 50 23:44 06.05.2022
3864 Clear 15 1023 66 10000 2.06 40 22:35 06.05.2022
3865 Clear 17 1023 55 10000 3.6 360 21:52 06.05.2022
3866 Clear 17 1022 59 10000 4.12 360 21:24 06.05.2022
3867 Clear 20 1022 45 10000 2.06 310 19:43 06.05.2022
3868 Clear 19 1022 57 10000 3.6 300 19:21 06.05.2022
3869 Clear 21 1022 50 10000 3.6 300 18:29 06.05.2022
3870 Clear 20 1023 48 10000 3.09 300 17:34 06.05.2022
3871 Clear 19 1023 42 10000 2.06 10 15:51 06.05.2022
3872 Clear 20 1023 43 10000 2.57 290 15:18 06.05.2022
3873 Clear 20 1024 46 10000 2.06 300 13:45 06.05.2022
3874 Clouds 20 1024 50 10000 4.12 260 12:47 06.05.2022
3875 Clear 18 1025 54 10000 2.06 190 11:58 06.05.2022
3876 Clear 16 1025 67 10000 2.06 0 10:41 06.05.2022
3877 Clear 15 1025 69 10000 2.06 170 09:47 06.05.2022
3878 Clear 13 1025 74 10000 2.06 150 09:18 06.05.2022
3879 Clear 8 1025 89 10000 0.51 0 07:40 06.05.2022
3880 Fog 6 1024 91 3100 0.51 90 06:26 06.05.2022
3881 Clouds 6 1024 90 9000 0.51 210 02:58 06.05.2022
3882 Clear 7 1024 89 10000 0.51 60 01:58 06.05.2022
3883 Clear 11 1024 71 10000 2.57 20 22:50 05.05.2022
3884 Clear 15 1023 55 10000 3.6 360 21:49 05.05.2022
3885 Clear 15 1022 56 10000 3.6 20 20:36 05.05.2022
3886 Clear 17 1022 44 10000 4.12 290 18:54 05.05.2022
3887 Clear 18 1022 40 10000 3.6 300 16:40 05.05.2022
3888 Clear 17 1022 41 10000 2.57 310 15:30 05.05.2022
3889 Clear 16 1022 46 10000 2.06 0 13:30 05.05.2022
3890 Clear 15 1022 51 10000 1.54 0 12:56 05.05.2022
3891 Clear 13 1022 60 10000 1.54 0 11:35 05.05.2022
3892 Clear 10 1022 73 10000 1.54 250 09:41 05.05.2022
3893 Clear 10 1022 73 10000 1.54 250 09:41 05.05.2022
3894 Clear 8 1022 80 10000 0.51 0 08:40 05.05.2022
3895 Fog 1 1021 95 2800 1.03 260 06:24 05.05.2022
3896 Clear 3 1020 89 10000 0.51 260 02:25 05.05.2022
3897 Clear 4 1020 86 10000 0.51 50 01:40 05.05.2022
3898 Clear 5 1019 80 10000 1.03 70 00:43 05.05.2022
3899 Clear 7 1019 75 10000 3.09 40 22:57 04.05.2022
3900 Clear 10 1018 65 10000 4.63 340 21:59 04.05.2022
3901 Clear 10 1018 65 10000 4.63 340 21:34 04.05.2022
3902 Clear 12 1018 58 10000 4.63 330 20:52 04.05.2022
3903 Clear 12 1017 57 10000 4.12 360 20:18 04.05.2022
3904 Clear 13 1017 56 10000 4.12 350 19:35 04.05.2022
3905 Clear 14 1017 53 10000 2.06 0 18:43 04.05.2022
3906 Clouds 14 1017 52 10000 2.06 280 18:19 04.05.2022
3907 Clouds 14 1017 52 10000 2.06 0 17:22 04.05.2022
3908 Clouds 14 1018 52 10000 2.57 330 15:34 04.05.2022
3909 Clouds 14 1018 53 10000 3.09 300 14:41 04.05.2022
3910 Clouds 14 1018 54 10000 3.6 310 14:19 04.05.2022
3911 Clouds 13 1019 57 10000 2.57 340 12:50 04.05.2022
3912 Clouds 12 1019 62 10000 2.57 310 11:40 04.05.2022
3913 Clouds 10 1019 65 10000 3.09 320 10:27 04.05.2022
3914 Clouds 8 1019 72 10000 1.03 0 09:22 04.05.2022
3915 Clouds 6 1019 83 10000 0.51 0 07:59 04.05.2022
3916 Clouds 4 1019 92 10000 0.51 230 05:34 04.05.2022
3917 Clear 3 1019 90 10000 0.51 0 02:37 04.05.2022
3918 Clear 6 1019 78 10000 3.09 340 23:20 03.05.2022
3919 Clear 7 1019 73 10000 4.12 10 21:55 03.05.2022
3920 Clear 8 1019 70 10000 4.12 10 21:31 03.05.2022
3921 Clear 9 1019 66 10000 4.12 360 20:52 03.05.2022
3922 Clouds 11 1018 62 10000 3.6 330 19:36 03.05.2022
3923 Clouds 12 1018 62 10000 4.63 330 18:47 03.05.2022
3924 Clouds 13 1018 61 10000 5.14 310 17:22 03.05.2022
3925 Clouds 12 1019 64 10000 4.63 290 16:20 03.05.2022
3926 Clouds 12 1019 67 10000 4.63 310 14:34 03.05.2022
3927 Clouds 12 1019 77 10000 3.6 330 12:46 03.05.2022
3928 Clouds 11 1019 81 10000 3.09 310 11:49 03.05.2022
3929 Clouds 10 1019 86 10000 4.63 310 10:50 03.05.2022
3930 Clouds 8 1018 85 10000 2.06 280 08:33 03.05.2022
3931 Clear 2 1018 91 10000 1.54 230 06:46 03.05.2022
3932 Clear 2 1018 91 10000 1.54 230 06:45 03.05.2022
3933 Clear 3 1018 86 10000 1.03 290 03:26 03.05.2022
3934 Clear 7 1019 65 10000 3.09 350 23:32 02.05.2022
3935 Clear 9 1019 57 10000 4.63 340 22:34 02.05.2022
3936 Clear 12 1018 37 10000 3.09 330 21:48 02.05.2022
3937 Clear 13 1018 47 10000 5.14 350 20:48 02.05.2022
3938 Clear 16 1018 51 10000 5.14 320 18:28 02.05.2022
3939 Clear 16 1018 49 10000 2.57 290 17:44 02.05.2022
3940 Clear 16 1018 49 10000 3.09 300 16:47 02.05.2022
3941 Clear 17 1019 49 10000 2.57 280 15:56 02.05.2022
3942 Clear 17 1019 46 10000 2.06 0 14:56 02.05.2022
3943 Clear 16 1020 45 10000 1.54 0 13:47 02.05.2022
3944 Clear 15 1021 51 10000 2.06 0 12:18 02.05.2022
3945 Clear 12 1021 67 10000 2.57 40 10:20 02.05.2022
3946 Clear 9 1021 78 10000 2.57 50 08:46 02.05.2022
3947 Clear 7 1021 86 10000 3.09 30 07:39 02.05.2022
3948 Clear 7 1022 75 10000 1.54 50 01:58 02.05.2022
3949 Clear 8 1022 75 10000 3.09 40 00:23 02.05.2022
3950 Clear 8 1023 74 10000 2.06 40 23:46 01.05.2022
3951 Clear 10 1023 70 10000 2.57 20 22:20 01.05.2022
3952 Clear 11 1022 64 10000 2.06 50 20:58 01.05.2022
3953 Clouds 12 1022 58 10000 0.51 0 19:49 01.05.2022
3954 Clouds 13 1022 55 10000 1.03 230 18:55 01.05.2022
3955 Clear 13 1022 50 10000 2.06 260 18:22 01.05.2022
3956 Clear 13 1023 55 10000 1.54 310 17:18 01.05.2022
3957 Clear 13 1023 55 10000 2.57 310 16:23 01.05.2022
3958 Clear 13 1023 56 10000 3.09 280 15:23 01.05.2022
3959 Clear 13 1024 60 10000 2.57 320 13:42 01.05.2022
3960 Clouds 10 1025 80 10000 2.06 320 10:53 01.05.2022
3961 Clear 7 1025 91 10000 2.06 290 08:53 01.05.2022
3962 Clear 7 1025 91 10000 2.06 290 08:53 01.05.2022
3963 Clouds 5 1024 93 6000 2.06 220 07:53 01.05.2022
3964 Clear 4 1024 92 10000 1.03 0 03:31 01.05.2022
3965 Clear 7 1025 81 10000 3.6 350 23:49 30.04.2022
3966 Clear 10 1025 62 10000 2.57 320 21:44 30.04.2022
3967 Clear 10 1024 57 10000 4.12 330 20:45 30.04.2022
3968 Clouds 11 1024 56 10000 4.12 320 19:41 30.04.2022
3969 Clouds 13 1024 54 10000 4.63 340 17:45 30.04.2022
3970 Clouds 13 1025 55 10000 3.6 340 16:42 30.04.2022
3971 Clouds 13 1025 55 10000 2.57 330 15:46 30.04.2022
3972 Clouds 12 1025 58 10000 3.6 350 14:43 30.04.2022
3973 Clouds 12 1026 66 10000 4.12 300 12:42 30.04.2022
3974 Clouds 11 1026 66 10000 3.6 350 11:33 30.04.2022
3975 Clouds 11 1026 70 10000 3.6 20 10:44 30.04.2022
3976 Clouds 8 1026 87 10000 2.57 320 09:25 30.04.2022
3977 Clouds 3 1026 93 10000 2.06 270 06:43 30.04.2022
3978 Clear 4 1028 91 10000 2.06 290 01:53 30.04.2022
3979 Clear 6 1028 84 10000 3.09 340 23:37 29.04.2022
3980 Clouds 7 1028 75 10000 4.12 350 22:31 29.04.2022
3981 Clouds 8 1028 74 10000 5.14 360 21:39 29.04.2022
3982 Clear 9 1028 72 10000 4.63 350 20:49 29.04.2022
3983 Clouds 10 1027 65 10000 6.17 340 19:45 29.04.2022
3984 Clouds 12 1028 63 10000 5.66 350 17:59 29.04.2022
3985 Clouds 12 1028 63 10000 5.66 350 17:23 29.04.2022
3986 Clouds 13 1028 60 10000 5.14 340 15:49 29.04.2022
3987 Clear 14 1029 59 10000 3.6 360 14:22 29.04.2022
3988 Clear 13 1029 62 10000 3.09 10 13:21 29.04.2022
3989 Clear 11 1030 67 10000 3.09 20 11:49 29.04.2022
3990 Clear 7 1030 88 10000 4.63 30 08:51 29.04.2022
3991 Clear 4 1030 94 10000 1.03 0 07:28 29.04.2022
3992 Mist 3 1030 95 8000 1.54 250 06:45 29.04.2022
3993 Clear 3 1030 93 10000 1.54 250 04:53 29.04.2022
3994 Clear 4 1031 89 10000 2.57 290 00:45 29.04.2022
3995 Clear 6 1031 82 10000 3.09 340 23:28 28.04.2022
3996 Clear 7 1031 82 10000 4.12 340 22:41 28.04.2022
3997 Clear 8 1031 80 10000 3.6 330 21:47 28.04.2022
3998 Clear 8 1030 76 10000 4.12 330 21:21 28.04.2022
3999 Clear 10 1030 69 10000 4.63 340 20:35 28.04.2022
4000 Clear 11 1030 60 10000 4.63 340 19:45 28.04.2022
4001 Clear 11 1030 60 10000 4.63 340 19:45 28.04.2022
4002 Clear 12 1030 59 10000 5.14 330 19:22 28.04.2022
4003 Clear 13 1030 58 10000 5.66 340 18:36 28.04.2022
4004 Clouds 13 1030 57 10000 4.12 340 17:26 28.04.2022
4005 Clouds 14 1030 60 10000 5.14 310 16:41 28.04.2022
4006 Clouds 14 1030 60 10000 5.14 310 16:19 28.04.2022
4007 Clouds 13 1030 67 10000 6.17 300 15:29 28.04.2022
4008 Clouds 13 1030 65 10000 4.63 330 14:36 28.04.2022
4009 Clouds 13 1030 70 10000 3.6 300 12:55 28.04.2022
4010 Clouds 12 1030 70 10000 3.09 350 11:59 28.04.2022
4011 Clouds 10 1030 76 10000 3.09 310 10:47 28.04.2022
4012 Clouds 10 1030 77 10000 3.09 290 10:26 28.04.2022
4013 Clouds 6 1030 85 10000 1.54 270 08:44 28.04.2022
4014 Clouds 2 1029 93 10000 1.54 240 07:37 28.04.2022
4015 Clouds 2 1029 96 6000 1.54 230 06:33 28.04.2022
4016 Clouds 1 1029 95 9000 1.54 270 05:39 28.04.2022
4017 Clouds 1 1029 94 7000 1.54 270 04:41 28.04.2022
4018 Clouds 5 1029 83 10000 2.41 350 00:36 28.04.2022
4019 Clouds 7 1028 78 10000 2.63 354 22:49 27.04.2022
4020 Clear 8 1027 67 10000 4.63 360 21:57 27.04.2022
4021 Clouds 8 1027 75 10000 3.21 353 21:27 27.04.2022
4022 Clear 10 1027 61 10000 4.63 360 20:43 27.04.2022
4023 Clouds 11 1026 57 10000 4.12 340 19:39 27.04.2022
4024 Clouds 11 1026 57 10000 4.12 340 19:39 27.04.2022
4025 Clouds 11 1026 57 10000 4.12 340 19:39 27.04.2022
4026 Clouds 11 1026 57 10000 4.12 340 19:39 27.04.2022
4027 Clouds 12 1026 59 10000 4.63 350 19:19 27.04.2022
4028 Clouds 12 1026 54 10000 3.6 350 18:35 27.04.2022
4029 Clouds 13 1026 54 10000 5.14 330 17:26 27.04.2022
4030 Clouds 14 1026 53 10000 3.6 290 15:43 27.04.2022
4031 Clouds 12 1026 57 10000 3.09 0 12:31 27.04.2022
4032 Clouds 11 1026 63 10000 2.57 290 11:23 27.04.2022
4033 Clouds 9 1026 71 10000 3.09 330 10:22 27.04.2022
4034 Fog 2 1024 93 2400 1.54 270 07:29 27.04.2022
4035 Mist 2 1023 95 7000 1.54 280 06:30 27.04.2022
4036 Clear 3 1023 89 10000 2.57 300 02:21 27.04.2022
4037 Clear 4 1022 87 10000 2.57 290 00:57 27.04.2022
4038 Clear 6 1022 85 10000 3.09 300 00:27 27.04.2022
4039 Clear 7 1021 82 10000 3.6 340 23:23 26.04.2022
4040 Clear 7 1021 80 10000 4.12 330 22:43 26.04.2022
4041 Clear 8 1021 76 10000 5.66 340 21:57 26.04.2022
4042 Clear 9 1020 70 10000 5.66 340 20:58 26.04.2022
4043 Clear 10 1019 70 10000 5.66 350 20:36 26.04.2022
4044 Clear 12 1018 65 10000 6.69 350 19:35 26.04.2022
4045 Clear 12 1018 64 10000 5.66 330 18:53 26.04.2022
4046 Clear 13 1018 61 10000 6.17 320 18:19 26.04.2022
4047 Clear 13 1018 62 10000 5.66 330 17:34 26.04.2022
4048 Clouds 15 1017 53 10000 2.06 0 14:58 26.04.2022
4049 Clouds 15 1017 55 10000 2.57 0 13:34 26.04.2022
4050 Clear 14 1017 56 10000 3.6 350 12:34 26.04.2022
4051 Clouds 12 1017 64 10000 3.09 20 10:57 26.04.2022
4052 Clouds 10 1016 74 10000 2.06 40 09:50 26.04.2022
4053 Clouds 7 1016 82 10000 3.09 60 08:29 26.04.2022
4054 Clear 6 1015 88 10000 2.06 40 04:38 26.04.2022
4055 Clear 7 1015 87 10000 2.06 50 03:25 26.04.2022
4056 Clear 8 1015 81 10000 4.63 20 00:39 26.04.2022
4057 Clear 9 1015 79 10000 4.63 10 23:44 25.04.2022
4058 Clear 11 1014 66 10000 4.63 10 21:49 25.04.2022
4059 Clear 11 1013 76 10000 2.06 270 20:49 25.04.2022
4060 Clear 12 1013 69 10000 3.6 200 19:39 25.04.2022
4061 Clear 12 1013 69 10000 3.6 200 19:39 25.04.2022
4062 Clouds 15 1013 48 10000 3.09 350 18:25 25.04.2022
4063 Clouds 15 1013 56 10000 2.57 360 17:39 25.04.2022
4064 Clouds 15 1013 56 10000 2.06 60 16:30 25.04.2022
4065 Clouds 14 1013 56 10000 3.09 70 15:19 25.04.2022
4066 Clouds 14 1013 60 10000 2.06 0 14:22 25.04.2022
4067 Clouds 11 1013 70 10000 3.6 90 12:40 25.04.2022
4068 Clouds 8 1012 83 10000 3.6 70 10:29 25.04.2022
4069 Clouds 7 1012 84 10000 3.6 70 09:36 25.04.2022
4070 Clouds 7 1011 86 10000 3.6 60 07:34 25.04.2022
4071 Rain 7 1010 86 10000 3.6 50 05:53 25.04.2022
4072 Clear 6 1009 87 10000 5.66 20 01:27 25.04.2022
4073 Clear 7 1008 89 10000 5.14 30 23:54 24.04.2022
4074 Clouds 7 1009 90 10000 5.24 34 23:20 24.04.2022
4075 Clear 8 1008 85 10000 4.63 20 22:37 24.04.2022
4076 Clear 8 1008 86 10000 6.17 20 21:54 24.04.2022
4077 Clouds 9 1007 85 10000 7.2 20 21:21 24.04.2022
4078 Rain 9 1007 83 10000 5.66 30 20:41 24.04.2022
4079 Rain 10 1007 78 10000 5.14 30 19:57 24.04.2022
4080 Clouds 11 1006 74 10000 5.66 50 18:37 24.04.2022
4081 Rain 12 1006 67 10000 6.69 50 17:41 24.04.2022
4082 Rain 13 1006 63 10000 6.69 40 17:20 24.04.2022
4083 Rain 13 1006 59 10000 7.72 40 16:51 24.04.2022
4084 Clear 14 1006 53 10000 8.23 50 16:23 24.04.2022
4085 Clouds 14 1006 50 10000 7.72 60 15:39 24.04.2022
4086 Clouds 14 1006 49 10000 7.2 60 14:33 24.04.2022
4087 Clouds 14 1006 53 10000 7.72 60 13:26 24.04.2022
4088 Clouds 14 1006 55 10000 7.72 70 12:46 24.04.2022
4089 Clear 13 1006 59 10000 7.2 50 11:49 24.04.2022
4090 Clear 11 1007 67 10000 6.17 50 10:37 24.04.2022
4091 Clear 10 1007 71 10000 7.2 40 09:43 24.04.2022
4092 Clear 8 1007 72 10000 4.63 50 07:42 24.04.2022
4093 Clear 7 1006 77 10000 5.66 60 05:38 24.04.2022
4094 Clear 9 1007 70 10000 5.66 60 01:58 24.04.2022
4095 Clear 10 1007 71 10000 5.66 70 00:45 24.04.2022
4096 Clear 10 1007 69 10000 6.69 60 23:46 23.04.2022
4097 Clear 11 1007 69 10000 5.66 50 23:25 23.04.2022
4098 Clear 12 1007 63 10000 7.72 60 21:58 23.04.2022
4099 Clear 13 1007 59 10000 7.72 60 21:36 23.04.2022
4100 Clear 15 1007 47 10000 6.17 60 20:59 23.04.2022
4101 Clear 16 1007 50 10000 7.72 90 19:56 23.04.2022
4102 Clear 17 1007 43 10000 7.2 80 19:20 23.04.2022
4103 Clear 17 1007 40 10000 7.72 100 18:53 23.04.2022
4104 Clear 17 1007 38 10000 8.23 80 18:31 23.04.2022
4105 Clear 17 1007 40 10000 7.2 80 17:44 23.04.2022
4106 Clear 17 1007 38 10000 7.2 100 16:44 23.04.2022
4107 Clear 17 1008 39 10000 6.69 90 15:36 23.04.2022
4108 Clear 15 1010 43 10000 7.72 100 12:59 23.04.2022
4109 Clear 13 1010 55 10000 8.23 90 11:24 23.04.2022
4110 Clear 10 1011 75 10000 4.63 90 09:39 23.04.2022
4111 Clear 8 1010 83 10000 5.66 70 07:52 23.04.2022
4112 Clear 10 1010 75 10000 5.66 80 03:56 23.04.2022
4113 Clouds 11 1011 82 10000 5.05 73 01:59 23.04.2022
4114 Clouds 13 1010 66 10000 5.66 90 23:34 22.04.2022
4115 Clouds 13 1009 62 10000 5.66 90 22:40 22.04.2022
4116 Clouds 14 1009 58 10000 5.14 80 21:55 22.04.2022
4117 Clouds 14 1009 58 10000 5.14 80 21:37 22.04.2022
4118 Clear 14 1009 64 10000 6.69 70 20:29 22.04.2022
4119 Clouds 15 1009 62 10000 6.17 70 19:23 22.04.2022
4120 Clear 15 1009 60 10000 8.75 70 18:53 22.04.2022
4121 Clear 15 1009 57 10000 9.26 70 18:20 22.04.2022
4122 Clear 16 1008 50 10000 8.23 80 16:53 22.04.2022
4123 Clouds 16 1009 49 10000 7.72 90 15:57 22.04.2022
4124 Clouds 17 1009 52 10000 7.2 100 15:23 22.04.2022
4125 Clouds 17 1009 52 10000 6.69 90 14:37 22.04.2022
4126 Clear 16 1010 56 10000 6.69 80 13:41 22.04.2022
4127 Clear 14 1010 61 10000 6.69 70 12:35 22.04.2022
4128 Clear 12 1011 70 10000 5.66 60 11:23 22.04.2022
4129 Clear 11 1011 71 10000 6.17 70 10:56 22.04.2022
4130 Clear 10 1011 75 10000 4.12 70 10:32 22.04.2022
4131 Clear 9 1011 78 10000 5.66 60 09:54 22.04.2022
4132 Clear 8 1011 81 10000 5.66 50 08:56 22.04.2022
4133 Clear 8 1011 83 10000 5.66 50 08:36 22.04.2022
4134 Clear 6 1011 85 10000 4.12 50 06:21 22.04.2022
4135 Clear 10 1013 79 10000 3.6 60 00:53 22.04.2022
4136 Clear 10 1013 76 10000 6.17 70 23:31 21.04.2022
4137 Clear 11 1013 75 10000 4.63 70 22:36 21.04.2022
4138 Clear 12 1014 70 10000 3.6 90 21:25 21.04.2022
4139 Clear 13 1014 65 10000 6.17 80 20:29 21.04.2022
4140 Clear 15 1013 58 10000 7.72 70 18:49 21.04.2022
4141 Clear 15 1013 57 10000 7.72 70 18:49 21.04.2022
4142 Clear 15 1013 55 10000 6.69 70 18:26 21.04.2022
4143 Clear 16 1013 49 10000 7.2 60 17:19 21.04.2022
4144 Clear 16 1014 47 10000 5.14 70 15:24 21.04.2022
4145 Clear 16 1014 46 10000 5.66 60 14:52 21.04.2022
4146 Clear 16 1014 46 10000 5.14 90 14:18 21.04.2022
4147 Clear 15 1015 48 10000 5.66 50 13:21 21.04.2022
4148 Clouds 15 1015 57 10000 5.15 59 12:22 21.04.2022
4149 Clear 9 1016 70 10000 4.12 60 09:33 21.04.2022
4150 Clear 8 1016 75 10000 4.12 50 08:38 21.04.2022
4151 Clear 5 1016 83 10000 3.09 40 06:44 21.04.2022
4152 Clear 6 1016 78 10000 3.6 50 03:41 21.04.2022
4153 Clear 7 1016 77 10000 3.6 50 03:22 21.04.2022
4154 Clear 8 1016 75 10000 4.12 60 02:44 21.04.2022
4155 Clear 8 1016 75 10000 4.12 60 02:44 21.04.2022
4156 Clear 10 1016 68 10000 4.12 50 00:35 21.04.2022
4157 Clear 10 1016 63 10000 3.09 60 23:37 20.04.2022
4158 Clouds 10 1017 74 10000 3.61 50 23:18 20.04.2022
4159 Clear 11 1016 58 10000 4.12 70 22:34 20.04.2022
4160 Clear 12 1016 54 10000 4.63 70 21:43 20.04.2022
4161 Clear 14 1016 47 10000 4.12 60 20:44 20.04.2022
4162 Clear 14 1016 47 10000 4.12 60 20:44 20.04.2022
4163 Clear 14 1016 53 10000 4.63 50 20:21 20.04.2022
4164 Clear 14 1016 53 10000 4.63 50 20:21 20.04.2022
4165 Clear 15 1016 44 10000 3.6 70 19:44 20.04.2022
4166 Clear 15 1016 45 10000 5.14 60 18:48 20.04.2022
4167 Clear 16 1017 42 10000 5.14 80 17:50 20.04.2022
4168 Clear 16 1017 39 10000 5.14 80 16:39 20.04.2022
4169 Clear 16 1017 38 10000 5.14 80 15:26 20.04.2022
4170 Clear 14 1019 45 10000 4.63 50 12:46 20.04.2022
4171 Clear 12 1019 56 10000 4.63 70 11:42 20.04.2022
4172 Clear 10 1019 63 10000 4.12 60 10:44 20.04.2022
4173 Clear 8 1019 69 10000 3.6 60 09:31 20.04.2022
4174 Clear 7 1019 73 10000 2.57 60 08:40 20.04.2022
4175 Clear 6 1019 78 10000 2.57 60 08:18 20.04.2022
4176 Clear 4 1019 83 10000 3.6 50 06:23 20.04.2022
4177 Clear 6 1019 74 10000 2.57 50 02:34 20.04.2022
4178 Clear 8 1018 67 10000 4.12 60 00:22 20.04.2022
4179 Clear 10 1018 57 10000 3.6 50 23:19 19.04.2022
4180 Clear 11 1017 57 10000 3.6 50 22:24 19.04.2022
4181 Clear 11 1017 43 10000 4.12 50 21:55 19.04.2022
4182 Clear 13 1016 44 10000 4.12 60 20:59 19.04.2022
4183 Clouds 13 1017 47 10000 4.05 47 20:37 19.04.2022
4184 Clear 15 1016 36 10000 5.66 50 19:43 19.04.2022
4185 Clear 16 1015 40 10000 6.17 50 18:37 19.04.2022
4186 Clear 16 1016 42 10000 6.17 70 17:27 19.04.2022
4187 Clear 16 1015 42 10000 6.17 50 16:43 19.04.2022
4188 Clear 16 1016 42 10000 6.69 70 16:21 19.04.2022
4189 Clear 16 1016 45 10000 6.69 70 14:47 19.04.2022
4190 Clear 14 1017 45 10000 5.14 80 13:34 19.04.2022
4191 Clear 14 1017 46 10000 6.69 80 12:50 19.04.2022
4192 Clear 13 1017 53 10000 7.2 70 11:39 19.04.2022
4193 Clear 11 1017 56 10000 3.6 90 10:23 19.04.2022
4194 Clear 8 1017 69 10000 3.6 70 08:54 19.04.2022
4195 Clear 6 1016 74 10000 2.57 60 04:42 19.04.2022
4196 Clear 7 1017 71 10000 2.57 60 03:25 19.04.2022
4197 Clear 9 1017 70 10000 4.63 90 00:27 19.04.2022
4198 Clear 9 1017 67 10000 3.09 80 23:29 18.04.2022
4199 Clear 12 1017 55 10000 2.57 60 21:30 18.04.2022
4200 Clear 13 1017 53 10000 3.6 60 20:54 18.04.2022
4201 Clear 14 1017 47 10000 2.57 90 20:30 18.04.2022
4202 Clear 17 1017 34 10000 1.54 130 19:42 18.04.2022
4203 Clear 17 1017 34 10000 3.09 150 18:56 18.04.2022
4204 Clear 18 1018 33 10000 1.54 0 17:57 18.04.2022
4205 Clear 18 1018 33 10000 1.54 0 17:33 18.04.2022
4206 Clear 17 1018 34 10000 3.09 150 16:50 18.04.2022
4207 Clear 18 1018 32 10000 3.6 140 16:31 18.04.2022
4208 Clear 17 1020 35 10000 3.09 0 14:45 18.04.2022
4209 Clear 16 1020 38 10000 3.6 140 13:36 18.04.2022
4210 Clear 15 1021 42 10000 5.14 130 12:30 18.04.2022
4211 Clear 13 1021 51 10000 5.14 130 11:34 18.04.2022
4212 Clear 12 1022 51 10000 3.6 140 10:31 18.04.2022
4213 Clear 9 1022 66 10000 2.57 140 09:31 18.04.2022
4214 Clear 5 1021 66 10000 3.09 120 07:54 18.04.2022
4215 Clear 3 1022 73 10000 2.06 100 05:41 18.04.2022
4216 Clear 7 1024 64 10000 3.09 100 00:47 18.04.2022
4217 Clear 9 1024 54 10000 2.57 120 22:41 17.04.2022
4218 Clear 11 1025 51 10000 2.57 120 21:46 17.04.2022
4219 Clear 12 1025 46 10000 2.06 130 21:24 17.04.2022
4220 Clear 13 1025 33 10000 2.57 130 20:41 17.04.2022
4221 Clear 15 1025 29 10000 4.63 130 19:38 17.04.2022
4222 Clear 16 1026 28 10000 4.12 130 17:48 17.04.2022
4223 Clear 15 1027 28 10000 3.6 130 16:27 17.04.2022
4224 Clear 15 1028 28 10000 3.09 140 15:26 17.04.2022
4225 Clear 14 1029 31 10000 4.63 150 14:19 17.04.2022
4226 Clear 14 1029 37 10000 4.12 150 13:18 17.04.2022
4227 Clear 13 1030 42 10000 3.09 130 12:27 17.04.2022
4228 Clear 13 1030 43 10000 3.09 130 12:27 17.04.2022
4229 Clear 10 1031 62 10000 3.6 140 10:46 17.04.2022
4230 Clear 9 1031 63 10000 3.09 120 10:28 17.04.2022
4231 Clear 8 1031 67 10000 3.09 140 09:37 17.04.2022
4232 Clear 6 1032 72 10000 2.57 110 08:53 17.04.2022
4233 Clear 3 1032 80 10000 1.54 90 07:53 17.04.2022
4234 Clear 3 1032 83 10000 2.06 110 04:51 17.04.2022
4235 Clear 6 1033 74 10000 2.57 110 01:38 17.04.2022
4236 Clear 5 1035 86 10000 2.84 117 23:57 16.04.2022
4237 Clear 8 1034 62 10000 2.06 70 22:41 16.04.2022
4238 Clear 9 1034 58 10000 1.54 90 21:41 16.04.2022
4239 Clear 12 1033 40 10000 2.06 110 20:35 16.04.2022
4240 Clear 13 1033 44 10000 3.6 130 19:20 16.04.2022
4241 Clear 14 1033 32 10000 3.6 130 18:32 16.04.2022
4242 Clear 14 1034 35 10000 4.63 140 16:41 16.04.2022
4243 Clear 13 1035 36 10000 3.6 110 15:46 16.04.2022
4244 Clear 12 1035 38 10000 4.12 130 14:57 16.04.2022
4245 Clear 12 1035 41 10000 3.6 130 13:58 16.04.2022
4246 Clear 11 1035 42 10000 3.6 130 13:40 16.04.2022
4247 Clear 11 1036 54 10000 3.09 110 12:33 16.04.2022
4248 Clear 8 1036 63 10000 5.14 120 11:19 16.04.2022
4249 Clear 6 1036 74 10000 5.14 120 09:59 16.04.2022
4250 Clear 5 1036 78 10000 5.14 110 09:18 16.04.2022
4251 Clear 5 1035 80 10000 4.63 120 08:31 16.04.2022
4252 Clear 3 1034 83 10000 5.66 90 06:59 16.04.2022
4253 Clear 3 1034 83 10000 5.66 90 06:59 16.04.2022
4254 Clouds 6 1033 83 10000 6.17 80 04:36 16.04.2022
4255 Clouds 8 1031 89 10000 4.63 50 00:38 16.04.2022
4256 Clouds 9 1031 90 10000 4.63 60 23:34 15.04.2022
4257 Clouds 9 1031 91 10000 3.7 66 22:38 15.04.2022
4258 Clouds 9 1030 85 10000 3.09 350 21:59 15.04.2022
4259 Clouds 10 1030 84 10000 3.09 340 21:20 15.04.2022
4260 Clouds 10 1029 83 10000 3.09 360 20:31 15.04.2022
4261 Clouds 10 1029 85 10000 3.1 59 19:41 15.04.2022
4262 Clouds 10 1029 81 10000 3.6 310 18:55 15.04.2022
4263 Clouds 10 1029 79 10000 4.12 310 18:26 15.04.2022
4264 Clouds 11 1028 79 10000 4.63 300 17:56 15.04.2022
4265 Clouds 11 1028 75 10000 3.6 310 17:23 15.04.2022
4266 Clouds 10 1028 81 10000 3.09 290 16:24 15.04.2022
4267 Clouds 10 1028 79 10000 3.09 330 15:40 15.04.2022
4268 Clouds 9 1028 87 10000 4.12 300 13:55 15.04.2022
4269 Clouds 9 1028 85 10000 4.63 320 12:48 15.04.2022
4270 Clouds 8 1027 86 10000 3.6 330 12:21 15.04.2022
4271 Clouds 8 1027 90 10000 4.63 310 11:42 15.04.2022
4272 Clouds 7 1027 90 10000 4.63 330 10:46 15.04.2022
4273 Clouds 7 1026 91 10000 6.17 320 09:59 15.04.2022
4274 Drizzle 7 1026 93 8000 4.12 310 09:22 15.04.2022
4275 Clouds 7 1025 94 10000 4.63 300 08:39 15.04.2022
4276 Clouds 7 1024 91 10000 3.6 310 06:48 15.04.2022
4277 Clouds 8 1023 88 10000 3.6 330 04:43 15.04.2022
4278 Clouds 8 1023 87 10000 3.6 310 00:34 15.04.2022
4279 Clouds 8 1023 89 10000 4.63 310 23:22 14.04.2022
4280 Clear 8 1022 88 10000 4.63 330 22:45 14.04.2022
4281 Clear 8 1022 87 10000 4.12 330 22:26 14.04.2022
4282 Clear 9 1022 87 10000 4.12 340 21:47 14.04.2022
4283 Clouds 13 1020 77 10000 6.17 300 19:41 14.04.2022
4284 Clear 14 1020 74 10000 7.2 300 19:20 14.04.2022
4285 Clear 15 1020 75 10000 5.66 300 17:45 14.04.2022
4286 Clouds 15 1019 70 10000 5.14 310 16:51 14.04.2022
4287 Clear 16 1019 68 10000 7.2 310 15:52 14.04.2022
4288 Clouds 16 1019 67 10000 4.12 250 13:54 14.04.2022
4289 Clouds 16 1019 69 10000 3.6 270 13:21 14.04.2022
4290 Clouds 15 1019 75 10000 4.12 250 12:32 14.04.2022
4291 Clouds 15 1019 82 10000 3.09 240 11:47 14.04.2022
4292 Clouds 14 1020 87 10000 3.09 250 11:18 14.04.2022
4293 Clouds 13 1019 91 10000 3.6 260 10:31 14.04.2022
4294 Clouds 11 1019 96 7000 1.54 250 09:30 14.04.2022
4295 Mist 10 1019 98 5000 2.06 220 08:24 14.04.2022
4296 Clear 10 1019 97 10000 2.06 210 05:58 14.04.2022
4297 Rain 12 1019 94 6000 2.06 170 01:23 14.04.2022
4298 Rain 13 1019 88 10000 2.06 340 22:38 13.04.2022
4299 Drizzle 13 1019 88 10000 2.06 340 22:38 13.04.2022
4300 Rain 14 1018 84 10000 3.09 360 21:43 13.04.2022
4301 Rain 15 1017 80 10000 4.63 340 20:47 13.04.2022
4302 Clear 17 1017 70 10000 5.14 330 19:54 13.04.2022
4303 Clear 18 1016 64 10000 6.17 310 18:43 13.04.2022
4304 Clouds 19 1016 63 10000 6.69 310 17:52 13.04.2022
4305 Clouds 20 1016 61 10000 5.14 320 17:23 13.04.2022
4306 Clouds 21 1015 52 10000 4.12 270 16:24 13.04.2022
4307 Clouds 22 1015 54 10000 3.6 240 15:31 13.04.2022
4308 Clear 22 1015 49 10000 2.06 210 14:46 13.04.2022
4309 Clear 21 1015 53 10000 2.06 220 13:57 13.04.2022
4310 Clear 20 1015 55 10000 2.06 230 12:58 13.04.2022
4311 Clear 19 1015 60 10000 2.06 280 12:19 13.04.2022
4312 Clear 15 1015 64 10000 1.54 190 10:44 13.04.2022
4313 Clear 10 1013 67 10000 1.54 140 08:50 13.04.2022
4314 Clear 9 1013 68 10000 1.54 120 08:31 13.04.2022
4315 Clear 9 1012 67 10000 2.57 140 06:51 13.04.2022
4316 Clear 9 1012 71 10000 2.57 140 06:25 13.04.2022
4317 Clear 12 1012 57 10000 4.12 130 03:31 13.04.2022
4318 Clear 13 1012 53 10000 4.63 110 00:20 13.04.2022
4319 Clear 14 1012 48 10000 4.63 110 22:46 12.04.2022
4320 Clear 14 1012 55 10000 5.14 120 21:57 12.04.2022
4321 Clear 15 1012 53 10000 5.14 120 20:51 12.04.2022
4322 Clear 15 1012 50 10000 5.14 120 20:33 12.04.2022
4323 Clear 17 1011 39 10000 5.14 120 19:48 12.04.2022
4324 Clear 17 1011 49 10000 7.2 110 19:29 12.04.2022
4325 Clear 18 1012 38 10000 7.2 130 17:59 12.04.2022
4326 Clear 18 1012 39 10000 7.2 130 16:58 12.04.2022
4327 Clear 18 1012 38 10000 7.72 140 16:19 12.04.2022
4328 Clear 18 1013 39 10000 8.23 120 15:26 12.04.2022
4329 Clear 17 1013 41 10000 7.72 130 14:21 12.04.2022
4330 Clear 16 1013 40 10000 7.2 130 13:28 12.04.2022
4331 Clear 15 1014 43 10000 7.2 120 12:49 12.04.2022
4332 Clear 12 1015 60 10000 6.17 120 11:46 12.04.2022
4333 Clear 10 1015 68 10000 5.14 120 10:32 12.04.2022
4334 Clear 6 1015 72 10000 5.14 110 08:57 12.04.2022
4335 Clear 5 1015 78 10000 4.12 100 07:51 12.04.2022
4336 Clear 4 1015 80 10000 3.09 80 05:49 12.04.2022
4337 Clear 4 1015 79 10000 4.12 90 04:55 12.04.2022
4338 Clear 6 1017 75 10000 4.12 70 23:53 11.04.2022
4339 Clear 6 1016 74 10000 3.09 80 22:44 11.04.2022
4340 Clear 7 1016 67 10000 2.57 80 21:37 11.04.2022
4341 Clear 8 1016 66 10000 2.57 70 20:56 11.04.2022
4342 Clear 9 1016 60 10000 3.09 80 20:29 11.04.2022
4343 Clear 12 1016 47 10000 2.06 90 19:42 11.04.2022
4344 Clear 12 1016 53 10000 1.54 130 19:18 11.04.2022
4345 Clear 12 1016 53 10000 1.54 130 19:18 11.04.2022
4346 Clear 13 1016 50 10000 0.51 0 18:47 11.04.2022
4347 Clear 13 1017 41 10000 1.54 110 17:56 11.04.2022
4348 Clear 13 1017 41 10000 1.54 0 16:54 11.04.2022
4349 Clear 13 1018 42 10000 2.06 240 15:54 11.04.2022
4350 Clear 12 1018 46 10000 2.06 0 14:24 11.04.2022
4351 Clear 10 1019 50 10000 2.57 210 12:52 11.04.2022
4352 Clear 10 1019 54 10000 1.03 0 12:31 11.04.2022
4353 Clear 9 1020 64 10000 1.03 0 11:31 11.04.2022
4354 Clear 7 1020 83 10000 0.51 0 10:24 11.04.2022
4355 Clear 2 1020 94 10000 0.51 110 08:56 11.04.2022
4356 Clear 0 1019 93 10000 1.03 160 06:24 11.04.2022
4357 Clear 1 1020 88 10000 1.03 180 01:53 11.04.2022
4358 Clear 3 1020 82 10000 2.06 250 22:37 10.04.2022
4359 Clear 3 1020 84 10000 2.57 280 21:55 10.04.2022
4360 Clear 5 1019 78 10000 3.6 300 21:29 10.04.2022
4361 Clear 6 1019 74 10000 4.63 310 20:31 10.04.2022
4362 Clouds 7 1019 70 10000 6.69 300 19:44 10.04.2022
4363 Clouds 8 1019 68 10000 5.66 310 19:20 10.04.2022
4364 Clouds 9 1019 71 10000 5.66 310 18:42 10.04.2022
4365 Clouds 8 1019 70 10000 6.69 260 17:52 10.04.2022
4366 Rain 8 1019 68 10000 6.69 260 17:33 10.04.2022
4367 Clouds 9 1018 61 10000 7.72 310 16:22 10.04.2022
4368 Clouds 7 1018 73 10000 5.14 300 15:19 10.04.2022
4369 Clouds 7 1018 73 10000 7.2 300 13:58 10.04.2022
4370 Clouds 6 1017 80 10000 7.72 280 12:34 10.04.2022
4371 Clouds 7 1017 79 10000 7.2 270 11:46 10.04.2022
4372 Clouds 6 1017 82 10000 8.23 270 11:28 10.04.2022
4373 Clouds 6 1017 82 10000 7.72 270 10:48 10.04.2022
4374 Clouds 5 1016 86 10000 7.72 270 09:55 10.04.2022
4375 Clear 4 1016 86 10000 7.72 260 09:28 10.04.2022
4376 Clear 3 1015 91 10000 6.17 260 08:22 10.04.2022
4377 Clear 2 1015 91 10000 5.66 260 07:21 10.04.2022
4378 Clouds 2 1014 93 10000 4.12 260 05:27 10.04.2022
4379 Clear 2 1013 90 10000 5.66 260 02:21 10.04.2022
4380 Clear 2 1012 89 10000 6.69 270 00:25 10.04.2022
4381 Clouds 3 1012 86 10000 7.2 270 23:43 09.04.2022
4382 Clouds 4 1012 85 10000 4.64 265 22:45 09.04.2022
4383 Clouds 4 1011 82 10000 4.63 260 21:34 09.04.2022
4384 Clouds 5 1010 77 10000 7.2 290 20:48 09.04.2022
4385 Clear 6 1010 74 10000 6.69 290 20:25 09.04.2022
4386 Clouds 6 1010 74 10000 6.69 290 19:41 09.04.2022
4387 Rain 7 1009 75 10000 7.2 290 18:55 09.04.2022
4388 Clouds 7 1009 72 10000 8.75 290 18:19 09.04.2022
4389 Clouds 8 1008 63 10000 9.26 290 17:39 09.04.2022
4390 Clear 8 1008 69 10000 7.72 280 16:50 09.04.2022
4391 Rain 8 1007 72 10000 6.17 270 15:55 09.04.2022
4392 Rain 8 1007 69 10000 7.2 270 15:29 09.04.2022
4393 Rain 8 1007 73 10000 7.2 290 14:44 09.04.2022
4394 Rain 7 1007 73 10000 6.17 300 14:22 09.04.2022
4395 Rain 7 1006 86 10000 8.55 296 13:18 09.04.2022
4396 Rain 6 1006 86 10000 9.26 280 12:41 09.04.2022
4397 Rain 6 1005 85 10000 8.75 270 11:22 09.04.2022
4398 Clouds 6 1004 85 10000 8.75 260 10:21 09.04.2022
4399 Clouds 5 1003 88 10000 7.72 260 09:38 09.04.2022
4400 Clouds 4 1003 91 10000 7.72 260 08:53 09.04.2022
4401 Clouds 2 1002 94 10000 4.63 250 07:21 09.04.2022
4402 Clouds 3 998 92 10000 4.95 279 02:20 09.04.2022
4403 Clouds 4 996 87 10000 4.63 270 23:45 08.04.2022
4404 Clear 4 996 86 10000 4.12 270 22:55 08.04.2022
4405 Clear 5 996 80 10000 4.63 290 21:29 08.04.2022
4406 Clear 5 996 78 10000 5.14 280 20:39 08.04.2022
4407 Clouds 7 995 68 10000 7.2 290 19:20 08.04.2022
4408 Clouds 7 994 75 10000 6.69 260 18:30 08.04.2022
4409 Clouds 8 994 79 10000 3.09 260 17:52 08.04.2022
4410 Clouds 8 994 83 10000 3.6 250 17:26 08.04.2022
4411 Rain 7 995 83 10000 5.14 260 16:49 08.04.2022
4412 Clouds 7 994 80 10000 6.69 250 15:57 08.04.2022
4413 Clouds 7 995 79 10000 5.14 260 15:26 08.04.2022
4414 Rain 7 994 82 10000 7.22 271 14:33 08.04.2022
4415 Clouds 6 995 88 10000 4.63 270 13:48 08.04.2022
4416 Clouds 7 995 81 10000 7.2 250 13:29 08.04.2022
4417 Clouds 7 995 77 10000 7.72 260 12:18 08.04.2022
4418 Clouds 6 995 86 10000 8.23 260 10:37 08.04.2022
4419 Clouds 4 995 90 10000 6.69 260 09:39 08.04.2022
4420 Clouds 4 995 92 10000 7.72 250 08:58 08.04.2022
4421 Clouds 3 996 95 10000 5.94 255 07:31 08.04.2022
4422 Clear 3 993 92 10000 6.69 250 06:38 08.04.2022
4423 Clouds 6 987 90 10000 11.32 280 01:45 08.04.2022
4424 Clouds 6 984 91 10000 12.35 280 00:26 08.04.2022
4425 Clouds 6 982 88 10000 12.86 250 23:38 07.04.2022
4426 Clouds 6 981 88 10000 12.86 250 22:40 07.04.2022
4427 Clouds 7 981 85 10000 10.8 240 22:22 07.04.2022
4428 Clouds 7 981 86 10000 10.8 250 21:56 07.04.2022
4429 Clouds 6 981 86 10000 9.77 240 21:19 07.04.2022
4430 Clouds 7 981 85 10000 8.75 240 20:42 07.04.2022
4431 Clouds 6 980 89 10000 11.83 250 18:58 07.04.2022
4432 Clouds 7 979 85 10000 13.89 260 17:28 07.04.2022
4433 Clouds 10 978 79 10000 11.32 240 16:45 07.04.2022
4434 Clouds 10 978 70 10000 12.35 240 16:25 07.04.2022
4435 Clouds 11 978 71 10000 10.8 250 15:39 07.04.2022
4436 Clouds 9 979 82 10000 8.75 240 13:51 07.04.2022
4437 Clouds 7 979 85 10000 6.69 220 13:23 07.04.2022
4438 Clouds 5 981 95 10000 6.17 240 11:49 07.04.2022
4439 Clouds 4 981 94 6000 10.8 280 10:40 07.04.2022
4440 Clouds 9 982 90 6090 10.47 210 08:43 07.04.2022
4441 Clouds 9 985 88 10000 7.72 220 06:59 07.04.2022
4442 Clouds 9 987 86 10000 7.72 210 04:36 07.04.2022
4443 Clouds 10 990 85 10000 8.75 220 02:32 07.04.2022
4444 Clouds 10 991 85 10000 8.23 220 00:42 07.04.2022
4445 Clouds 9 992 87 10000 8.75 220 23:28 06.04.2022
4446 Clouds 9 992 87 10000 7.72 210 22:44 06.04.2022
4447 Clouds 9 993 89 10000 8.75 220 22:19 06.04.2022
4448 Clouds 10 993 84 10000 10.29 220 20:47 06.04.2022
4449 Clouds 10 993 84 10000 8.75 220 19:59 06.04.2022
4450 Clouds 10 994 85 10000 8.75 210 19:20 06.04.2022
4451 Clouds 10 994 86 10000 8.23 220 18:48 06.04.2022
4452 Clouds 10 995 88 10000 9.26 230 17:36 06.04.2022
4453 Clouds 10 996 87 10000 8.75 230 16:56 06.04.2022
4454 Clouds 10 996 87 10000 9.26 230 16:32 06.04.2022
4455 Clouds 10 996 87 10000 8.23 230 15:43 06.04.2022
4456 Clouds 10 997 84 10000 10.29 230 13:34 06.04.2022
4457 Clouds 10 998 85 10000 9.77 240 12:30 06.04.2022
4458 Clouds 9 998 85 10000 10.29 230 11:44 06.04.2022
4459 Clouds 10 998 86 10000 9.77 230 10:33 06.04.2022
4460 Clouds 9 998 88 10000 7.72 230 09:59 06.04.2022
4461 Clouds 9 998 92 10000 7.2 230 08:59 06.04.2022
4462 Clouds 8 998 93 10000 6.69 230 07:59 06.04.2022
4463 Clouds 9 998 93 10000 7.2 240 06:40 06.04.2022
4464 Clouds 8 1000 93 10000 6.69 250 01:26 06.04.2022
4465 Drizzle 9 1001 95 10000 6.69 260 23:50 05.04.2022
4466 Clouds 9 1001 95 10000 6.69 250 21:58 05.04.2022
4467 Clouds 9 1001 95 10000 5.66 260 21:18 05.04.2022
4468 Clouds 9 1000 95 10000 6.17 260 20:24 05.04.2022
4469 Clouds 8 1000 97 8000 1.03 0 18:45 05.04.2022
4470 Clouds 8 1001 93 10000 2.06 280 17:22 05.04.2022
4471 Clouds 8 1002 93 10000 2.57 270 16:44 05.04.2022
4472 Drizzle 7 1002 95 6000 2.57 310 15:52 05.04.2022
4473 Drizzle 7 1002 92 3400 3.6 310 15:31 05.04.2022
4474 Clouds 8 1003 85 10000 4.63 280 13:59 05.04.2022
4475 Clouds 8 1003 82 10000 4.63 280 12:41 05.04.2022
4476 Clouds 8 1003 81 10000 5.14 270 11:43 05.04.2022
4477 Clouds 8 1003 81 10000 5.66 280 11:25 05.04.2022
4478 Clouds 6 1003 90 10000 5.66 270 09:41 05.04.2022
4479 Clouds 6 1003 91 10000 4.63 260 08:52 05.04.2022
4480 Clouds 5 1001 91 10000 4.63 310 05:28 05.04.2022
4481 Clouds 7 1000 91 10000 7.72 270 00:39 05.04.2022
4482 Clouds 7 1000 88 10000 7.72 280 22:41 04.04.2022
4483 Clouds 7 999 89 10000 7.2 280 21:57 04.04.2022
4484 Clouds 7 999 89 10000 9.26 280 21:21 04.04.2022
4485 Clouds 8 999 89 10000 8.23 280 20:49 04.04.2022
4486 Clouds 8 998 94 10000 7.72 260 19:39 04.04.2022
4487 Clouds 7 998 95 10000 8.75 250 18:59 04.04.2022
4488 Clouds 7 998 93 8000 9.77 250 17:55 04.04.2022
4489 Rain 6 999 92 10000 12.86 240 16:36 04.04.2022
4490 Clouds 5 999 94 10000 10.8 240 15:43 04.04.2022
4491 Clouds 5 999 94 10000 11.32 240 15:25 04.04.2022
4492 Mist 5 1000 92 5000 11.32 240 14:45 04.04.2022
4493 Clouds 5 1001 88 10000 12.86 230 13:22 04.04.2022
4494 Clouds 4 1003 90 10000 12.86 230 11:49 04.04.2022
4495 Clouds 4 1004 85 10000 12.86 220 11:28 04.04.2022
4496 Clouds 4 1008 84 10000 9.26 230 08:29 04.04.2022
4497 Clear 2 1014 88 10000 5.14 230 03:52 04.04.2022
4498 Clear 2 1017 84 10000 3.6 230 00:41 04.04.2022
4499 Clouds 3 1017 82 10000 3.76 252 22:36 03.04.2022
4500 Clear 2 1018 76 10000 2.57 270 21:45 03.04.2022
4501 Clouds 4 1018 73 10000 4.12 310 20:54 03.04.2022
4502 Clear 6 1018 67 10000 5.66 310 19:49 03.04.2022
4503 Clear 7 1018 63 10000 5.14 300 18:32 03.04.2022
4504 Clouds 7 1018 62 10000 3.6 270 17:47 03.04.2022
4505 Clouds 7 1018 64 10000 5.14 260 16:57 03.04.2022
4506 Clouds 7 1018 63 10000 5.14 260 16:39 03.04.2022
4507 Clouds 7 1019 63 10000 6.69 280 14:48 03.04.2022
4508 Clear 7 1020 66 10000 4.63 270 13:53 03.04.2022
4509 Clouds 7 1020 76 10000 5.14 300 12:42 03.04.2022
4510 Clouds 4 1021 88 10000 4.63 280 11:29 03.04.2022
4511 Clear 2 1020 85 10000 4.12 270 09:38 03.04.2022
4512 Clear 1 1020 85 10000 2.57 260 08:36 03.04.2022
4513 Clear -1 1020 86 10000 2.06 270 05:42 03.04.2022
4514 Clear 0 1021 83 10000 1.03 220 02:53 03.04.2022
4515 Clear 2 1021 67 10000 3.09 360 23:21 02.04.2022
4516 Clear 2 1020 64 10000 3.6 350 22:18 02.04.2022
4517 Clear 3 1020 60 10000 3.6 350 21:47 02.04.2022
4518 Clear 3 1020 64 10000 4.63 360 21:19 02.04.2022
4519 Clear 4 1019 64 10000 4.63 350 20:29 02.04.2022
4520 Clear 5 1018 53 10000 5.66 10 18:27 02.04.2022
4521 Clear 7 1018 46 10000 6.17 20 17:53 02.04.2022
4522 Clear 7 1018 43 10000 6.69 20 16:30 02.04.2022
4523 Clear 6 1018 40 10000 6.69 40 15:23 02.04.2022
4524 Clear 7 1018 42 10000 7.2 40 14:51 02.04.2022
4525 Clear 6 1018 45 10000 6.69 50 13:56 02.04.2022
4526 Clear 6 1018 50 10000 8.23 30 13:19 02.04.2022
4527 Clouds 5 1018 55 10000 8.23 40 11:54 02.04.2022
4528 Clear 3 1017 75 10000 5.66 30 09:48 02.04.2022
4529 Clouds 1 1016 80 10000 5.14 20 06:58 02.04.2022
4530 Clear 2 1015 72 10000 5.66 20 03:59 02.04.2022
4531 Clear 3 1014 63 10000 6.17 40 00:27 02.04.2022
4532 Clear 3 1014 62 10000 5.66 40 23:53 01.04.2022
4533 Clear 3 1014 62 10000 8.23 40 22:24 01.04.2022
4534 Clouds 3 1014 66 10000 6.73 40 20:54 01.04.2022
4535 Clouds 3 1013 65 10000 7.45 38 20:32 01.04.2022
4536 Clouds 4 1012 61 10000 9.77 50 19:39 01.04.2022
4537 Clouds 4 1012 60 10000 9.77 40 19:18 01.04.2022
4538 Clouds 4 1011 60 10000 9.26 40 18:35 01.04.2022
4539 Clouds 4 1011 60 10000 10.29 30 17:36 01.04.2022
4540 Clouds 5 1011 57 10000 9.26 40 15:45 01.04.2022
4541 Clouds 5 1010 60 10000 9.77 40 14:47 01.04.2022
4542 Clouds 5 1010 61 10000 8.75 60 13:38 01.04.2022
4543 Clouds 4 1010 65 10000 7.72 50 12:33 01.04.2022
4544 Clear 4 1010 65 10000 8.23 60 11:45 01.04.2022
4545 Clouds 3 1009 68 10000 8.23 50 10:41 01.04.2022
4546 Clouds 2 1009 69 10000 7.2 40 09:35 01.04.2022
4547 Clouds 2 1007 68 10000 6.17 40 07:24 01.04.2022
4548 Clouds 1 1007 71 10000 6.17 50 04:57 01.04.2022
4549 Clouds 1 1007 69 10000 6.17 50 04:39 01.04.2022
4550 Clouds 1 1007 76 10000 6.69 50 02:37 01.04.2022
4551 Clouds 1 1007 78 7000 7.2 60 01:33 01.04.2022
4552 Clouds 2 1006 70 10000 10.29 70 22:27 31.03.2022
4553 Clouds 3 1005 66 10000 10.8 60 21:38 31.03.2022
4554 Clear 3 1004 59 10000 10.8 70 20:51 31.03.2022
4555 Clear 4 1004 53 10000 9.77 80 20:28 31.03.2022
4556 Clear 5 1003 50 10000 9.77 80 19:21 31.03.2022
4557 Clouds 5 1003 59 10000 7.11 75 18:31 31.03.2022
4558 Clouds 6 1002 61 10000 8.23 70 16:47 31.03.2022
4559 Clear 6 1002 63 10000 9.77 70 15:55 31.03.2022
4560 Clouds 6 1002 71 10000 8.23 70 15:26 31.03.2022
4561 Clouds 5 1002 83 10000 8.75 70 14:45 31.03.2022
4562 Clouds 3 1003 90 10000 7.2 60 13:28 31.03.2022
4563 Clouds 2 1002 95 10000 6.69 70 11:31 31.03.2022
4564 Clouds 1 1002 95 8000 6.69 80 10:26 31.03.2022
4565 Clouds 1 1002 95 8000 6.17 80 09:39 31.03.2022
4566 Mist 0 1002 97 3500 4.63 80 07:48 31.03.2022
4567 Clouds 4 1003 92 10000 4.12 50 03:30 31.03.2022
4568 Clouds 4 1004 86 10000 2.38 32 23:25 30.03.2022
4569 Clear 4 1004 84 10000 1.54 50 21:57 30.03.2022
4570 Clouds 4 1004 83 10000 1.54 50 21:31 30.03.2022
4571 Clear 5 1004 81 10000 2.06 70 20:44 30.03.2022
4572 Clouds 5 1004 76 10000 2.57 70 19:48 30.03.2022
4573 Clouds 6 1004 72 10000 3.6 60 18:44 30.03.2022
4574 Clouds 6 1004 72 10000 3.09 50 17:52 30.03.2022
4575 Clouds 6 1004 73 10000 2.57 60 17:23 30.03.2022
4576 Clouds 5 1004 77 10000 2.57 50 16:41 30.03.2022
4577 Clouds 5 1005 82 10000 2.57 40 16:18 30.03.2022
4578 Drizzle 4 1005 91 10000 3.09 20 14:42 30.03.2022
4579 Clouds 4 1006 94 10000 4.12 20 13:23 30.03.2022
4580 Clouds 4 1006 92 10000 2.06 320 12:32 30.03.2022
4581 Clouds 4 1006 92 10000 1.03 0 10:48 30.03.2022
4582 Drizzle 4 1006 92 10000 1.03 270 09:58 30.03.2022
4583 Clouds 3 1006 94 10000 1.54 260 08:28 30.03.2022
4584 Clouds 3 1006 91 10000 1.03 0 07:29 30.03.2022
4585 Clouds 3 1007 90 10000 1.03 210 05:40 30.03.2022
4586 Clear 3 1008 91 10000 1.54 190 02:40 30.03.2022
4587 Clear 4 1009 81 10000 2.57 340 22:43 29.03.2022
4588 Clouds 5 1010 77 10000 3.6 340 21:52 29.03.2022
4589 Clouds 5 1010 77 10000 3.6 340 21:34 29.03.2022
4590 Clouds 6 1010 75 10000 4.63 350 20:30 29.03.2022
4591 Clouds 7 1010 72 10000 4.63 340 19:34 29.03.2022
4592 Clouds 8 1010 70 10000 4.63 340 18:53 29.03.2022
4593 Clouds 8 1011 70 10000 5.14 330 17:52 29.03.2022
4594 Clouds 8 1011 70 10000 4.63 320 17:19 29.03.2022
4595 Clouds 9 1011 68 10000 5.14 320 16:53 29.03.2022
4596 Clouds 9 1012 69 10000 5.14 330 15:41 29.03.2022
4597 Clouds 9 1012 68 10000 5.66 310 14:43 29.03.2022
4598 Clouds 9 1012 68 10000 5.66 310 14:43 29.03.2022
4599 Clouds 9 1013 69 10000 4.63 310 13:36 29.03.2022
4600 Clouds 9 1013 68 10000 4.12 310 12:39 29.03.2022
4601 Clouds 7 1014 77 10000 5.14 300 11:24 29.03.2022
4602 Clouds 7 1014 81 10000 4.12 310 10:20 29.03.2022
4603 Clouds 6 1014 86 10000 2.57 300 08:52 29.03.2022
4604 Clouds 6 1014 88 10000 2.57 280 06:53 29.03.2022
4605 Clouds 6 1016 90 10000 3.09 290 02:52 29.03.2022
4606 Clouds 7 1018 87 10000 4.63 330 23:40 28.03.2022
4607 Clouds 7 1018 88 10000 4.63 340 22:58 28.03.2022
4608 Clouds 7 1018 88 10000 4.63 340 22:58 28.03.2022
4609 Clouds 7 1018 88 10000 4.63 340 22:35 28.03.2022
4610 Clouds 7 1018 87 10000 5.14 350 21:47 28.03.2022
4611 Clouds 8 1018 83 10000 4.12 350 20:41 28.03.2022
4612 Clouds 8 1018 82 10000 3.6 340 19:59 28.03.2022
4613 Clouds 8 1018 81 10000 3.6 340 19:40 28.03.2022
4614 Clouds 9 1019 79 10000 4.12 320 18:51 28.03.2022
4615 Clouds 9 1020 79 10000 3.6 330 17:41 28.03.2022
4616 Clouds 9 1020 77 10000 4.12 340 16:58 28.03.2022
4617 Clouds 9 1021 78 10000 4.12 290 15:38 28.03.2022
4618 Clouds 9 1022 81 10000 2.06 320 14:24 28.03.2022
4619 Clouds 7 1023 81 10000 3.09 280 13:26 28.03.2022
4620 Clouds 6 1024 87 10000 2.57 340 11:53 28.03.2022
4621 Clouds 5 1024 93 10000 3.6 350 10:39 28.03.2022
4622 Clouds 5 1025 93 10000 3.09 340 09:21 28.03.2022
4623 Clouds 5 1025 95 10000 3.09 350 08:45 28.03.2022
4624 Clouds 5 1025 95 8000 3.09 320 08:21 28.03.2022
4625 Clouds 5 1025 95 6000 2.57 310 07:26 28.03.2022
4626 Mist 5 1028 97 5000 3.09 350 02:46 28.03.2022
4627 Clear 6 1029 88 10000 2.57 330 22:57 27.03.2022
4628 Clear 7 1029 84 10000 3.6 350 21:55 27.03.2022
4629 Clear 8 1029 78 10000 4.12 350 21:36 27.03.2022
4630 Clear 9 1029 78 10000 3.6 340 20:42 27.03.2022
4631 Clear 11 1029 74 10000 2.57 290 19:44 27.03.2022
4632 Clear 13 1029 68 10000 3.09 300 18:47 27.03.2022
4633 Clear 14 1029 68 10000 1.54 0 18:25 27.03.2022
4634 Clear 14 1030 67 10000 2.57 20 17:37 27.03.2022
4635 Clear 13 1031 68 10000 3.09 360 15:55 27.03.2022
4636 Clouds 11 1032 75 10000 1.03 0 14:22 27.03.2022
4637 Haze 9 1032 76 5000 1.03 0 13:33 27.03.2022
4638 Mist 7 1033 87 5000 1.54 300 11:46 27.03.2022
4639 Clouds 6 1032 90 9000 1.03 0 10:23 27.03.2022
4640 Clouds 5 1032 93 6000 1.03 0 07:55 27.03.2022
4641 Clouds 6 1032 91 10000 1.54 300 05:18 27.03.2022
4642 Clear 5 1032 92 10000 2.21 332 00:37 27.03.2022
4643 Clouds 6 1033 90 10000 3.6 360 22:58 26.03.2022
4644 Clouds 6 1032 90 10000 4.12 340 22:27 26.03.2022
4645 Clouds 7 1032 89 10000 4.63 310 21:31 26.03.2022
4646 Clouds 8 1031 89 10000 4.12 320 19:46 26.03.2022
4647 Clouds 9 1031 86 10000 4.63 340 18:56 26.03.2022
4648 Clouds 9 1031 85 10000 5.66 350 17:44 26.03.2022
4649 Clouds 9 1031 85 10000 5.66 350 17:44 26.03.2022
4650 Clouds 9 1031 85 10000 5.66 350 17:44 26.03.2022
4651 Clouds 10 1030 84 10000 5.66 340 17:22 26.03.2022
4652 Clouds 13 1030 75 10000 6.69 300 15:52 26.03.2022
4653 Clouds 14 1031 68 10000 8.23 310 14:21 26.03.2022
4654 Clouds 14 1031 66 10000 7.2 310 13:51 26.03.2022
4655 Clouds 14 1031 65 10000 6.69 310 12:41 26.03.2022
4656 Clear 13 1031 68 10000 5.66 300 11:18 26.03.2022
4657 Clear 9 1031 76 7000 3.6 290 09:22 26.03.2022
4658 Mist 6 1031 84 4200 1.03 270 08:27 26.03.2022
4659 Mist 2 1030 93 5000 1.54 250 05:53 26.03.2022
4660 Mist 3 1031 90 5000 1.54 260 03:32 26.03.2022
4661 Clear 5 1031 81 10000 2.06 280 22:57 25.03.2022
4662 Clear 9 1031 66 10000 2.57 340 20:59 25.03.2022
4663 Clear 10 1030 62 10000 3.6 340 20:38 25.03.2022
4664 Clear 11 1030 53 10000 4.63 350 19:27 25.03.2022
4665 Clear 13 1029 45 10000 4.12 340 18:37 25.03.2022
4666 Clear 15 1029 51 10000 4.12 330 17:34 25.03.2022
4667 Clear 16 1030 45 10000 2.57 350 16:41 25.03.2022
4668 Clear 16 1030 46 10000 2.57 340 15:50 25.03.2022
4669 Clear 16 1031 43 10000 2.06 320 13:40 25.03.2022
4670 Clear 15 1031 50 10000 1.54 0 12:20 25.03.2022
4671 Clear 9 1031 72 10000 1.03 0 09:47 25.03.2022
4672 Clouds 8 1031 85 6000 1.03 0 09:19 25.03.2022
4673 Fog 0 1030 100 150 1.03 240 07:48 25.03.2022
4674 Fog 1 1030 91 250 0.51 0 07:21 25.03.2022
4675 Fog 1 1029 94 1500 1.03 230 04:35 25.03.2022
4676 Mist 5 1029 91 5000 0.51 0 00:29 25.03.2022
4677 Clear 6 1029 82 10000 2.06 300 22:29 24.03.2022
4678 Clear 8 1029 73 10000 2.06 310 21:33 24.03.2022
4679 Clear 11 1028 60 10000 2.06 90 19:50 24.03.2022
4680 Clear 14 1028 53 10000 1.03 90 18:49 24.03.2022
4681 Clear 17 1028 45 10000 0.51 0 17:39 24.03.2022
4682 Clear 17 1028 40 10000 1.03 0 16:44 24.03.2022
4683 Clear 17 1029 41 10000 1.54 120 14:59 24.03.2022
4684 Clear 17 1029 38 10000 1.54 120 14:41 24.03.2022
4685 Clear 17 1029 38 10000 1.54 120 14:41 24.03.2022
4686 Clear 17 1029 40 10000 2.06 160 13:54 24.03.2022
4687 Clear 16 1030 41 10000 2.57 150 12:39 24.03.2022
4688 Clear 14 1030 56 10000 2.06 140 11:31 24.03.2022
4689 Clear 9 1030 60 10000 2.06 150 09:36 24.03.2022
4690 Clear 7 1030 72 10000 1.54 80 08:40 24.03.2022
4691 Clear 3 1029 85 8000 1.54 60 06:19 24.03.2022
4692 Clear 6 1030 73 10000 1.54 60 01:28 24.03.2022
4693 Clear 9 1030 64 10000 3.09 80 22:29 23.03.2022
4694 Clear 11 1030 49 10000 1.54 70 21:25 23.03.2022
4695 Clear 11 1030 48 10000 1.54 60 20:47 23.03.2022
4696 Clear 13 1030 38 10000 2.06 70 19:43 23.03.2022
4697 Clear 13 1030 38 10000 2.06 70 19:43 23.03.2022
4698 Clear 16 1030 36 10000 0.51 0 18:22 23.03.2022
4699 Clear 18 1030 30 10000 1.54 150 17:36 23.03.2022
4700 Clear 18 1030 31 10000 1.54 220 16:20 23.03.2022
4701 Clear 17 1031 26 10000 2.06 0 14:50 23.03.2022
4702 Clear 17 1031 27 10000 3.09 160 14:21 23.03.2022
4703 Clear 16 1032 26 10000 3.09 110 12:24 23.03.2022
4704 Clear 11 1032 45 10000 1.03 0 09:38 23.03.2022
4705 Clear 2 1032 73 10000 1.03 50 06:41 23.03.2022
4706 Clear 4 1031 63 10000 1.03 70 04:31 23.03.2022
4707 Clear 8 1032 52 10000 1.54 80 00:29 23.03.2022
4708 Clear 11 1032 49 10000 2.57 90 22:33 22.03.2022
4709 Clear 13 1032 43 10000 2.57 110 21:29 22.03.2022
4710 Clear 11 1031 61 10000 3.09 90 20:39 22.03.2022
4711 Clear 14 1031 47 10000 1.03 0 19:41 22.03.2022
4712 Clear 13 1031 58 10000 0 0 19:18 22.03.2022
4713 Clear 16 1031 50 10000 1.03 190 18:22 22.03.2022
4714 Clear 17 1031 46 10000 2.06 170 17:29 22.03.2022
4715 Clear 18 1031 42 10000 2.57 130 16:21 22.03.2022
4716 Clear 18 1032 41 10000 2.57 150 15:22 22.03.2022
4717 Clear 18 1032 35 10000 2.06 120 14:46 22.03.2022
4718 Clear 18 1032 35 10000 2.57 110 14:27 22.03.2022
4719 Clear 18 1032 38 10000 3.09 150 13:27 22.03.2022
4720 Clear 15 1033 50 10000 1.03 0 11:52 22.03.2022
4721 Clear 15 1033 50 10000 1.03 0 11:52 22.03.2022
4722 Clear 12 1033 59 10000 1.54 140 10:40 22.03.2022
4723 Clear 6 1033 60 10000 2.57 130 08:29 22.03.2022
4724 Clear 4 1032 62 10000 2.06 120 05:25 22.03.2022
4725 Clear 5 1032 61 10000 1.54 110 03:47 22.03.2022
4726 Clear 7 1032 56 10000 2.06 100 00:28 22.03.2022
4727 Clear 9 1032 51 10000 3.6 120 22:42 21.03.2022
4728 Clear 10 1032 50 10000 3.6 110 21:18 21.03.2022
4729 Clear 11 1032 49 10000 3.6 120 20:40 21.03.2022
4730 Clear 11 1032 49 10000 3.6 110 19:58 21.03.2022
4731 Clear 12 1031 48 10000 2.06 100 19:34 21.03.2022
4732 Clear 13 1031 50 10000 4.12 130 18:31 21.03.2022
4733 Clear 15 1031 45 10000 3.6 160 17:19 21.03.2022
4734 Clear 15 1031 44 10000 3.6 130 16:45 21.03.2022
4735 Clear 15 1032 43 10000 3.6 130 15:59 21.03.2022
4736 Clear 15 1032 43 10000 3.09 140 15:20 21.03.2022
4737 Clear 14 1032 40 10000 3.09 140 14:26 21.03.2022
4738 Clear 13 1032 41 10000 3.09 130 12:43 21.03.2022
4739 Clear 12 1032 48 10000 4.63 140 11:54 21.03.2022
4740 Clear 10 1032 51 10000 5.14 130 10:44 21.03.2022
4741 Clear 6 1033 58 10000 3.6 130 08:56 21.03.2022
4742 Clear 6 1032 57 10000 2.57 120 06:59 21.03.2022
4743 Clear 5 1031 56 10000 4.12 120 03:29 21.03.2022
4744 Clear 7 1031 50 10000 1.54 150 00:35 21.03.2022
4745 Clear 9 1030 39 10000 6.17 120 22:55 20.03.2022
4746 Clear 10 1030 38 10000 6.69 120 21:57 20.03.2022
4747 Clear 10 1030 37 10000 7.2 120 21:30 20.03.2022
4748 Clear 11 1030 36 10000 7.2 120 20:47 20.03.2022
4749 Clear 11 1030 36 10000 7.2 120 20:24 20.03.2022
4750 Clear 11 1030 35 10000 6.69 110 19:43 20.03.2022
4751 Clear 12 1030 34 10000 7.2 120 18:44 20.03.2022
4752 Clear 12 1029 37 10000 8.23 120 17:38 20.03.2022
4753 Clear 13 1029 36 10000 10.29 120 16:59 20.03.2022
4754 Clear 13 1029 36 10000 10.8 120 15:56 20.03.2022
4755 Clear 13 1030 30 10000 11.32 120 14:36 20.03.2022
4756 Clear 12 1031 32 10000 11.32 120 13:31 20.03.2022
4757 Clear 10 1032 45 10000 8.75 110 11:51 20.03.2022
4758 Clear 6 1034 60 10000 6.17 100 09:58 20.03.2022
4759 Clear 2 1035 77 10000 6.17 90 07:51 20.03.2022
4760 Clear 2 1036 82 10000 4.63 80 05:49 20.03.2022
4761 Clear 3 1038 85 10000 6.17 70 03:18 20.03.2022
4762 Clear 4 1039 82 10000 6.17 70 00:51 20.03.2022
4763 Clear 5 1040 80 10000 6.69 60 23:37 19.03.2022
4764 Clear 6 1040 80 10000 7.2 60 21:58 19.03.2022
4765 Clear 6 1041 78 10000 7.2 60 21:25 19.03.2022
4766 Clear 8 1041 66 10000 7.2 60 19:22 19.03.2022
4767 Clear 9 1040 63 10000 7.72 70 18:38 19.03.2022
4768 Clear 10 1041 52 10000 7.2 80 17:48 19.03.2022
4769 Clear 11 1041 52 10000 9.77 80 16:46 19.03.2022
4770 Clear 12 1042 52 10000 8.23 70 15:26 19.03.2022
4771 Clear 11 1043 49 10000 8.75 70 13:45 19.03.2022
4772 Clear 11 1044 51 10000 7.72 70 12:43 19.03.2022
4773 Clear 11 1045 56 10000 6.69 70 12:20 19.03.2022
4774 Clear 10 1045 64 10000 5.14 80 11:45 19.03.2022
4775 Clear 5 1046 77 10000 3.6 60 09:22 19.03.2022
4776 Clear 2 1047 90 10000 2.06 70 04:53 19.03.2022
4777 Clear 4 1047 88 10000 1.54 60 02:33 19.03.2022
4778 Clear 6 1047 84 10000 3.6 60 23:52 18.03.2022
4779 Clear 6 1046 83 10000 4.12 40 22:58 18.03.2022
4780 Clear 7 1046 78 10000 4.63 30 22:21 18.03.2022
4781 Clouds 8 1046 82 10000 3.33 15 20:26 18.03.2022
4782 Clouds 8 1045 86 10000 3.49 10 19:25 18.03.2022
4783 Clouds 11 1044 75 10000 3.6 20 18:58 18.03.2022
4784 Clouds 13 1044 65 10000 3.6 50 16:56 18.03.2022
4785 Clouds 13 1044 64 10000 3.6 50 16:34 18.03.2022
4786 Clouds 14 1044 61 10000 1.54 0 14:29 18.03.2022
4787 Clear 13 1044 60 10000 1.03 0 13:41 18.03.2022
4788 Clouds 11 1044 74 10000 1.54 310 11:43 18.03.2022
4789 Clouds 8 1043 81 10000 1.54 230 10:27 18.03.2022
4790 Clear 3 1042 87 10000 0.51 0 08:50 18.03.2022
4791 Mist -1 1041 94 10000 1.54 150 07:26 18.03.2022
4792 Fog -1 1040 94 1000 1.03 180 05:20 18.03.2022
4793 Clear 0 1038 96 10000 1.03 120 01:55 18.03.2022
4794 Clear 0 1037 95 10000 0.51 220 00:20 18.03.2022
4795 Clear 1 1037 92 10000 0.51 260 22:54 17.03.2022
4796 Clear 2 1037 89 10000 1.03 270 22:20 17.03.2022
4797 Clear 2 1036 90 10000 1.03 250 21:46 17.03.2022
4798 Clear 3 1035 86 10000 2.06 310 20:58 17.03.2022
4799 Clear 4 1034 82 10000 2.57 310 20:30 17.03.2022
4800 Clear 5 1034 79 10000 2.57 310 19:39 17.03.2022
4801 Clear 7 1033 73 10000 4.63 310 18:55 17.03.2022
4802 Clear 9 1032 69 10000 6.17 320 17:47 17.03.2022
4803 Clouds 10 1030 66 10000 7.2 300 16:29 17.03.2022
4804 Clouds 10 1030 71 10000 5.66 290 15:43 17.03.2022
4805 Clouds 10 1030 73 10000 5.66 290 15:21 17.03.2022
4806 Clouds 8 1029 83 10000 8.23 300 13:48 17.03.2022
4807 Clouds 8 1027 87 10000 6.17 280 12:48 17.03.2022
4808 Clouds 8 1026 90 10000 6.69 270 11:47 17.03.2022
4809 Clouds 8 1025 91 10000 5.14 270 11:22 17.03.2022
4810 Clouds 7 1023 91 7000 3.09 170 09:47 17.03.2022
4811 Clouds 8 1022 83 10000 5.66 150 08:31 17.03.2022
4812 Clear 8 1021 78 10000 5.66 140 07:32 17.03.2022
4813 Clear 8 1021 77 10000 6.69 130 05:39 17.03.2022
4814 Clear 8 1021 77 10000 6.69 130 05:39 17.03.2022
4815 Clear 9 1023 75 10000 4.63 120 00:45 17.03.2022
4816 Clear 9 1023 75 10000 5.66 120 22:59 16.03.2022
4817 Clear 8 1023 75 10000 5.66 120 22:40 16.03.2022
4818 Clear 8 1023 75 10000 6.17 120 22:19 16.03.2022
4819 Clear 9 1024 69 10000 4.63 110 21:29 16.03.2022
4820 Clear 10 1024 63 10000 5.14 110 19:27 16.03.2022
4821 Clear 11 1024 62 10000 5.14 110 18:58 16.03.2022
4822 Clear 11 1024 58 10000 5.66 110 18:24 16.03.2022
4823 Clear 12 1025 55 10000 5.66 110 17:37 16.03.2022
4824 Clear 13 1025 58 10000 5.66 120 16:50 16.03.2022
4825 Clear 13 1026 61 10000 5.14 120 15:53 16.03.2022
4826 Clear 13 1026 58 10000 5.66 140 14:24 16.03.2022
4827 Clear 12 1027 65 10000 6.69 120 13:24 16.03.2022
4828 Clear 11 1028 82 10000 4.12 130 11:53 16.03.2022
4829 Clouds 9 1028 87 10000 4.12 120 11:20 16.03.2022
4830 Clear 7 1028 92 10000 4.63 110 10:18 16.03.2022
4831 Clouds 5 1027 96 8000 2.06 110 08:51 16.03.2022
4832 Clouds 5 1026 95 9000 2.06 80 04:45 16.03.2022
4833 Clear 5 1025 93 10000 0.51 160 00:48 16.03.2022
4834 Clear 7 1024 92 10000 3.09 80 22:38 15.03.2022
4835 Clear 7 1025 91 10000 2.57 70 21:52 15.03.2022
4836 Clear 7 1024 88 10000 3.6 70 20:18 15.03.2022
4837 Clouds 9 1024 81 10000 2.06 50 18:54 15.03.2022
4838 Clear 10 1024 86 10000 3.09 40 16:57 15.03.2022
4839 Clear 10 1024 85 10000 2.57 40 16:28 15.03.2022
4840 Clear 11 1024 84 10000 1.54 70 14:58 15.03.2022
4841 Clear 10 1024 84 10000 1.54 70 14:39 15.03.2022
4842 Clear 10 1025 88 10000 1.54 90 13:38 15.03.2022
4843 Clouds 8 1026 93 8000 2.57 60 12:24 15.03.2022
4844 Clouds 6 1027 96 6000 1.54 90 11:31 15.03.2022
4845 Mist 5 1027 95 4000 1.54 150 09:40 15.03.2022
4846 Fog 3 1027 93 2000 0.51 120 08:42 15.03.2022
4847 Fog 1 1028 100 600 1.54 150 07:51 15.03.2022
4848 Fog 1 1027 98 900 1.03 0 07:28 15.03.2022
4849 Fog 1 1028 98 400 1.54 140 03:30 15.03.2022
4850 Fog 3 1028 97 400 0 0 23:44 14.03.2022
4851 Fog 3 1028 97 400 0 0 23:23 14.03.2022
4852 Fog 4 1028 97 400 1.03 170 22:26 14.03.2022
4853 Fog 5 1028 97 800 1.54 190 21:30 14.03.2022
4854 Mist 6 1027 95 4000 2.57 200 20:48 14.03.2022
4855 Clouds 6 1027 97 6000 2.06 200 20:20 14.03.2022
4856 Clouds 8 1026 96 10000 1.19 227 18:55 14.03.2022
4857 Clouds 9 1025 95 8000 4.12 260 17:54 14.03.2022
4858 Clouds 9 1025 94 10000 5.14 270 16:58 14.03.2022
4859 Clouds 9 1024 94 8000 3.09 240 15:56 14.03.2022
4860 Clouds 9 1024 92 9000 3.09 200 14:40 14.03.2022
4861 Clouds 8 1023 93 10000 2.57 250 12:29 14.03.2022
4862 Mist 6 1023 91 4500 2.06 220 10:54 14.03.2022
4863 Clouds 5 1022 90 10000 2.06 200 09:52 14.03.2022
4864 Clouds 4 1022 86 10000 1.54 220 09:22 14.03.2022
4865 Clouds 4 1022 81 10000 1.54 190 08:55 14.03.2022
4866 Clouds 4 1021 61 10000 2.06 160 07:34 14.03.2022
4867 Clear 5 1020 54 10000 2.06 130 05:46 14.03.2022
4868 Clear 6 1018 49 10000 2.57 130 01:55 14.03.2022
4869 Clear 6 1018 48 10000 4.12 130 01:28 14.03.2022
4870 Clear 8 1018 39 10000 5.66 120 22:44 13.03.2022
4871 Clear 8 1017 38 10000 4.63 110 21:31 13.03.2022
4872 Clear 9 1017 37 10000 5.14 110 20:56 13.03.2022
4873 Clear 9 1017 36 10000 5.14 100 20:31 13.03.2022
4874 Clear 10 1017 35 10000 4.12 100 19:52 13.03.2022
4875 Clear 10 1017 35 10000 3.6 110 19:28 13.03.2022
4876 Clear 11 1016 34 10000 5.14 110 18:59 13.03.2022
4877 Clear 11 1016 32 10000 5.14 110 18:35 13.03.2022
4878 Clear 13 1016 30 10000 4.12 120 17:46 13.03.2022
4879 Clear 14 1016 28 10000 5.66 140 17:20 13.03.2022
4880 Clear 14 1016 33 10000 6.69 130 16:30 13.03.2022
4881 Clear 14 1016 33 10000 7.2 140 15:47 13.03.2022
4882 Clear 13 1016 32 10000 6.17 130 14:56 13.03.2022
4883 Clear 13 1016 28 10000 6.69 120 13:45 13.03.2022
4884 Clear 12 1017 30 10000 5.66 130 12:57 13.03.2022
4885 Clear 10 1017 39 10000 5.66 130 11:53 13.03.2022
4886 Clear 10 1017 39 10000 5.66 130 11:32 13.03.2022
4887 Clear 7 1018 47 10000 5.14 130 10:47 13.03.2022
4888 Clear 5 1018 49 10000 4.12 120 10:24 13.03.2022
4889 Clear 4 1018 52 10000 4.63 130 09:41 13.03.2022
4890 Clear 2 1018 50 10000 3.6 110 08:47 13.03.2022
4891 Clear 1 1018 59 10000 3.6 110 07:47 13.03.2022
4892 Clear 1 1017 59 10000 2.57 120 05:42 13.03.2022
4893 Clear 3 1018 54 10000 3.6 110 02:43 13.03.2022
4894 Clear 5 1018 52 10000 3.6 120 00:20 13.03.2022
4895 Clear 6 1019 42 10000 4.63 110 22:37 12.03.2022
4896 Clear 8 1019 47 10000 5.66 110 20:54 12.03.2022
4897 Clear 8 1019 51 10000 4.12 100 19:56 12.03.2022
4898 Clear 9 1019 44 10000 4.12 100 19:38 12.03.2022
4899 Clear 11 1019 42 10000 3.6 100 18:27 12.03.2022
4900 Clear 12 1019 41 10000 4.12 110 17:34 12.03.2022
4901 Clear 13 1019 45 10000 4.12 140 16:24 12.03.2022
4902 Clear 13 1019 44 10000 4.12 130 15:24 12.03.2022
4903 Clear 12 1019 43 10000 5.66 130 14:51 12.03.2022
4904 Clear 11 1020 38 10000 5.66 140 13:47 12.03.2022
4905 Clear 9 1020 42 10000 6.17 130 11:57 12.03.2022
4906 Clear 9 1020 41 10000 6.17 130 11:38 12.03.2022
4907 Clear 7 1020 44 10000 5.66 130 10:58 12.03.2022
4908 Clear 4 1020 45 10000 6.17 130 09:46 12.03.2022
4909 Clear 3 1020 48 10000 6.17 130 09:20 12.03.2022
4910 Clear 1 1019 51 10000 6.69 130 07:29 12.03.2022
4911 Clear 2 1018 50 10000 6.17 120 03:54 12.03.2022
4912 Clear 4 1019 42 10000 5.66 130 00:21 12.03.2022
4913 Clear 4 1019 47 10000 6.69 120 23:19 11.03.2022
4914 Clear 6 1019 39 10000 7.2 120 21:43 11.03.2022
4915 Clear 6 1019 38 10000 6.69 130 20:57 11.03.2022
4916 Clear 6 1019 38 10000 6.69 130 20:37 11.03.2022
4917 Clear 6 1019 38 10000 6.69 130 20:37 11.03.2022
4918 Clear 7 1018 34 10000 8.23 120 19:52 11.03.2022
4919 Clear 7 1018 34 10000 7.72 120 19:26 11.03.2022
4920 Clear 9 1018 32 10000 8.23 120 17:34 11.03.2022
4921 Clear 10 1018 30 10000 10.8 120 16:42 11.03.2022
4922 Clear 9 1019 37 10000 10.29 120 15:57 11.03.2022
4923 Clear 9 1019 30 10000 8.75 120 14:21 11.03.2022
4924 Clear 8 1021 34 10000 9.26 120 12:53 11.03.2022
4925 Clear 7 1021 37 10000 9.26 120 12:21 11.03.2022
4926 Clear 7 1021 46 10000 9.26 110 11:55 11.03.2022
4927 Clear 4 1022 57 10000 6.69 130 10:18 11.03.2022
4928 Clear 1 1023 67 10000 6.17 120 08:57 11.03.2022
4929 Clear 1 1023 68 10000 6.69 120 08:24 11.03.2022
4930 Clear 1 1023 70 10000 6.17 120 07:46 11.03.2022
4931 Clear 1 1023 71 10000 6.17 110 05:49 11.03.2022
4932 Clear 2 1023 70 10000 5.66 120 04:22 11.03.2022
4933 Clear 6 1024 66 10000 6.69 120 23:49 10.03.2022
4934 Clear 7 1024 67 10000 7.2 120 22:31 10.03.2022
4935 Clear 8 1025 61 10000 6.69 120 21:48 10.03.2022
4936 Clear 8 1024 61 10000 5.66 120 21:20 10.03.2022
4937 Clear 9 1025 47 10000 5.66 110 19:48 10.03.2022
4938 Clear 9 1025 49 10000 6.17 110 18:56 10.03.2022
4939 Clear 11 1025 45 10000 6.69 120 17:36 10.03.2022
4940 Clear 13 1025 44 10000 6.17 130 16:31 10.03.2022
4941 Clear 14 1025 44 10000 6.17 120 15:20 10.03.2022
4942 Clear 13 1026 41 10000 5.66 130 13:30 10.03.2022
4943 Clear 12 1027 44 10000 4.63 140 12:34 10.03.2022
4944 Clear 10 1027 55 10000 5.66 140 11:20 10.03.2022
4945 Clear 4 1027 63 10000 4.63 130 09:27 10.03.2022
4946 Clear 1 1027 71 10000 2.06 130 07:43 10.03.2022
4947 Clear 2 1026 70 10000 2.57 120 04:47 10.03.2022
4948 Clear 2 1026 68 10000 1.54 110 01:53 10.03.2022
4949 Clear 5 1025 57 10000 3.6 120 23:29 09.03.2022
4950 Clear 6 1025 50 10000 3.6 110 21:54 09.03.2022
4951 Clear 7 1025 49 10000 3.6 110 21:34 09.03.2022
4952 Clear 7 1024 45 10000 3.09 120 19:56 09.03.2022
4953 Clear 11 1023 32 10000 3.09 120 18:34 09.03.2022
4954 Clear 12 1023 35 10000 5.66 140 17:27 09.03.2022
4955 Clear 13 1023 32 10000 5.14 120 16:34 09.03.2022
4956 Clear 13 1024 36 10000 5.66 140 15:31 09.03.2022
4957 Clear 12 1024 40 10000 3.6 130 13:54 09.03.2022
4958 Clear 11 1025 42 10000 3.6 140 12:56 09.03.2022
4959 Clear 11 1025 47 10000 3.6 140 12:18 09.03.2022
4960 Clear 9 1025 53 10000 2.57 140 11:36 09.03.2022
4961 Clear 7 1025 61 10000 2.06 130 10:39 09.03.2022
4962 Clear 2 1025 71 10000 2.57 130 08:59 09.03.2022
4963 Clear 0 1024 77 10000 2.06 130 08:25 09.03.2022
4964 Clear 0 1024 78 10000 2.57 120 03:50 09.03.2022
4965 Clear 1 1024 75 10000 2.06 110 00:47 09.03.2022
4966 Clear 3 1024 72 10000 2.57 140 23:18 08.03.2022
4967 Clear 3 1024 70 10000 3.6 130 22:44 08.03.2022
4968 Clear 5 1023 66 10000 3.09 110 21:24 08.03.2022
4969 Clear 4 1023 66 10000 3.6 120 20:49 08.03.2022
4970 Clear 5 1023 63 10000 3.09 120 19:53 08.03.2022
4971 Clear 7 1023 59 10000 4.12 120 18:45 08.03.2022
4972 Clear 9 1023 55 10000 5.14 130 17:40 08.03.2022
4973 Clear 10 1023 43 10000 6.17 140 16:33 08.03.2022
4974 Clear 10 1024 54 10000 5.14 130 14:21 08.03.2022
4975 Clear 9 1025 53 10000 4.63 130 12:44 08.03.2022
4976 Clear 8 1025 66 10000 3.6 140 11:53 08.03.2022
4977 Clear 8 1025 66 10000 3.6 140 11:34 08.03.2022
4978 Clear 4 1026 69 10000 2.06 150 10:22 08.03.2022
4979 Clear -1 1026 81 10000 1.03 0 08:28 08.03.2022
4980 Clear -2 1025 89 10000 1.03 110 05:47 08.03.2022
4981 Clear -1 1027 85 10000 0.51 0 00:43 08.03.2022
4982 Clear 0 1027 83 10000 0 0 22:24 07.03.2022
4983 Clear 1 1026 79 10000 0.51 0 21:35 07.03.2022
4984 Clear 1 1026 76 10000 0.51 0 20:54 07.03.2022
4985 Clear 3 1026 67 10000 0.51 0 20:22 07.03.2022
4986 Clear 3 1026 72 10000 1.03 60 19:38 07.03.2022
4987 Clear 5 1026 56 10000 1.54 80 18:47 07.03.2022
4988 Clouds 6 1026 65 10000 3.09 70 17:58 07.03.2022
4989 Clouds 8 1026 49 10000 3.6 80 16:56 07.03.2022
4990 Clouds 8 1026 51 10000 1.54 80 16:30 07.03.2022
4991 Clear 7 1028 61 10000 3.6 40 14:40 07.03.2022
4992 Clouds 4 1028 80 10000 1.03 0 12:33 07.03.2022
4993 Fog 0 1029 100 200 0.51 0 10:45 07.03.2022
4994 Fog 0 1028 100 150 0.51 0 10:24 07.03.2022
4995 Fog -1 1028 97 100 1.54 270 07:24 07.03.2022
4996 Clear -2 1028 94 10000 1.54 280 00:24 07.03.2022
4997 Clear -2 1028 94 10000 1.03 320 23:58 06.03.2022
4998 Clear -2 1027 91 10000 1.03 330 23:18 06.03.2022
4999 Clear -1 1027 89 10000 1.03 310 22:24 06.03.2022
5000 Clouds 0 1027 84 10000 2.57 350 20:56 06.03.2022
5001 Clouds 1 1027 83 10000 2.57 350 20:28 06.03.2022
5002 Clouds 2 1027 73 10000 2.57 30 19:31 06.03.2022
5003 Clouds 3 1026 74 10000 4.12 30 18:25 06.03.2022
5004 Clouds 5 1026 69 10000 4.63 40 17:22 06.03.2022
5005 Clouds 5 1026 69 10000 4.12 50 16:52 06.03.2022
5006 Clouds 5 1026 69 10000 4.63 30 16:24 06.03.2022
5007 Clouds 5 1026 66 10000 5.14 60 15:23 06.03.2022
5008 Clouds 5 1027 64 10000 3.6 20 14:41 06.03.2022
5009 Clouds 4 1027 54 10000 4.63 30 13:48 06.03.2022
5010 Clouds 4 1028 55 10000 4.63 360 12:36 06.03.2022
5011 Clouds 4 1027 68 10000 3.09 40 11:30 06.03.2022
5012 Clouds 2 1027 72 10000 3.6 60 10:33 06.03.2022
5013 Clouds 0 1027 83 10000 4.63 40 08:51 06.03.2022
5014 Clouds 0 1027 85 10000 3.09 30 08:27 06.03.2022
5015 Clouds -1 1026 87 10000 3.09 40 07:18 06.03.2022
5016 Clear 0 1025 87 10000 3.6 40 01:37 06.03.2022
5017 Clear 0 1025 86 10000 3.6 50 00:34 06.03.2022
5018 Clear 0 1025 84 10000 3.6 40 23:56 05.03.2022
5019 Clear 0 1025 82 10000 2.06 50 23:18 05.03.2022
5020 Clear 0 1025 81 10000 2.06 70 22:31 05.03.2022
5021 Clear 0 1025 81 10000 2.06 70 22:31 05.03.2022
5022 Clouds 1 1024 77 10000 2.06 90 21:25 05.03.2022
5023 Clouds 3 1024 65 10000 2.06 90 19:59 05.03.2022
5024 Clouds 3 1023 64 10000 2.06 100 19:18 05.03.2022
5025 Clouds 4 1023 58 10000 3.09 100 18:37 05.03.2022
5026 Clouds 6 1023 54 10000 4.12 110 17:31 05.03.2022
5027 Clouds 6 1023 62 10000 3.6 130 16:18 05.03.2022
5028 Clouds 6 1023 63 10000 3.09 130 14:53 05.03.2022
5029 Clouds 6 1023 63 10000 3.09 130 14:35 05.03.2022
5030 Clouds 6 1023 63 10000 3.09 130 14:35 05.03.2022
5031 Clouds 6 1024 53 10000 4.12 120 13:37 05.03.2022
5032 Clouds 5 1024 56 10000 5.66 120 12:35 05.03.2022
5033 Clear 4 1024 74 10000 5.14 120 11:20 05.03.2022
5034 Clear 3 1024 76 10000 5.66 120 10:52 05.03.2022
5035 Clear 0 1024 83 10000 3.09 90 09:30 05.03.2022
5036 Clear -2 1024 87 10000 3.6 80 08:24 05.03.2022
5037 Clear -3 1024 90 10000 3.09 90 06:33 05.03.2022
5038 Clear -3 1024 90 10000 3.09 80 05:22 05.03.2022
5039 Clear -1 1024 88 10000 2.06 90 00:30 05.03.2022
5040 Clouds 0 1024 85 10000 2.06 100 22:45 04.03.2022
5041 Clouds 0 1024 84 10000 1.54 120 22:25 04.03.2022
5042 Clouds 1 1024 84 10000 1.54 140 21:43 04.03.2022
5043 Clouds 1 1024 83 10000 1.54 140 20:39 04.03.2022
5044 Clouds 2 1024 83 10000 1.03 150 19:37 04.03.2022
5045 Clouds 2 1024 80 10000 3.09 140 18:56 04.03.2022
5046 Clouds 3 1024 78 10000 4.12 130 18:33 04.03.2022
5047 Clouds 4 1024 77 10000 5.66 110 17:29 04.03.2022
5048 Clouds 5 1024 74 10000 4.63 130 15:54 04.03.2022
5049 Clouds 6 1024 75 10000 4.63 110 15:25 04.03.2022
5050 Clouds 5 1024 73 10000 5.14 130 13:36 04.03.2022
5051 Clouds 4 1025 75 10000 4.12 110 12:47 04.03.2022
5052 Clouds 2 1025 80 10000 4.63 120 11:37 04.03.2022
5053 Clouds 2 1025 80 10000 4.63 120 11:37 04.03.2022
5054 Clouds 1 1025 91 10000 3.6 120 10:26 04.03.2022
5055 Clouds 0 1024 95 10000 3.6 110 09:28 04.03.2022
5056 Clear -1 1024 96 10000 2.06 90 07:49 04.03.2022
5057 Clear -1 1023 96 10000 2.57 70 06:26 04.03.2022
5058 Clouds -1 1023 95 10000 2.57 90 02:26 04.03.2022
5059 Clear 0 1023 92 10000 3.6 120 23:43 03.03.2022
5060 Clear 1 1023 93 10000 2.57 90 22:18 03.03.2022
5061 Clear 1 1023 91 10000 2.57 90 21:36 03.03.2022
5062 Clear 1 1022 90 10000 3.6 90 20:50 03.03.2022
5063 Clear 3 1022 86 10000 4.63 80 19:34 03.03.2022
5064 Clear 4 1021 83 10000 5.14 70 18:44 03.03.2022
5065 Clear 6 1021 73 10000 5.14 70 17:43 03.03.2022
5066 Clear 6 1021 80 10000 6.17 60 17:24 03.03.2022
5067 Clear 7 1021 76 10000 4.63 80 15:47 03.03.2022
5068 Clear 7 1021 74 10000 4.12 60 14:51 03.03.2022
5069 Clear 7 1021 74 10000 4.63 60 14:32 03.03.2022
5070 Clear 6 1022 66 10000 3.6 60 12:44 03.03.2022
5071 Clear 4 1022 83 10000 2.06 60 11:32 03.03.2022
5072 Clear 2 1022 80 9000 2.57 70 10:40 03.03.2022
5073 Mist 0 1022 91 4800 1.03 80 08:45 03.03.2022
5074 Clouds -1 1022 93 5000 3.6 70 06:58 03.03.2022
5075 Clouds -2 1022 95 8000 2.06 70 06:33 03.03.2022
5076 Clear 1 1023 86 10000 2.57 80 01:21 03.03.2022
5077 Clear 2 1023 83 10000 3.09 60 23:28 02.03.2022
5078 Clear 2 1023 81 10000 2.57 70 22:49 02.03.2022
5079 Clear 3 1023 81 10000 2.06 50 21:25 02.03.2022
5080 Clear 4 1023 79 10000 2.57 60 20:44 02.03.2022
5081 Clear 5 1023 65 10000 3.09 50 19:56 02.03.2022
5082 Clear 5 1023 65 10000 3.09 40 19:34 02.03.2022
5083 Clear 5 1023 70 10000 3.09 50 18:44 02.03.2022
5084 Clear 8 1023 52 10000 3.09 60 17:59 02.03.2022
5085 Clear 9 1023 53 10000 3.09 60 17:23 02.03.2022
5086 Clear 9 1024 52 10000 4.12 60 16:45 02.03.2022
5087 Clear 9 1024 52 10000 4.12 60 16:45 02.03.2022
5088 Clear 9 1025 61 10000 2.57 50 14:44 02.03.2022
5089 Clear 9 1025 53 10000 2.06 70 13:24 02.03.2022
5090 Clear 8 1026 53 10000 2.57 60 12:43 02.03.2022
5091 Clear 7 1026 64 10000 2.06 80 11:47 02.03.2022
5092 Clear 6 1026 67 10000 2.06 60 11:24 02.03.2022
5093 Clear 3 1026 76 10000 2.06 80 09:42 02.03.2022
5094 Clear 1 1026 88 10000 2.06 70 08:59 02.03.2022
5095 Clear 1 1026 88 10000 1.54 90 07:39 02.03.2022
5096 Clear 1 1026 87 10000 2.06 80 06:51 02.03.2022
5097 Clear 3 1028 81 10000 2.06 50 02:54 02.03.2022
5098 Clear 4 1028 79 10000 1.54 70 00:29 02.03.2022
5099 Clear 4 1028 78 10000 1.03 0 22:48 01.03.2022
5100 Clear 4 1028 77 10000 1.54 90 22:21 01.03.2022
5101 Clear 5 1028 76 10000 1.54 60 21:25 01.03.2022
5102 Clear 5 1028 77 10000 1.54 110 20:32 01.03.2022
5103 Clear 5 1028 78 10000 1.03 110 19:45 01.03.2022
5104 Clear 5 1028 75 10000 1.54 100 18:51 01.03.2022
5105 Clear 6 1028 73 10000 2.06 110 18:21 01.03.2022
5106 Clear 7 1028 71 10000 3.09 130 17:37 01.03.2022
5107 Clear 8 1028 68 10000 2.06 120 16:35 01.03.2022
5108 Clear 9 1028 67 10000 2.57 140 15:45 01.03.2022
5109 Clear 9 1029 64 10000 3.09 150 14:41 01.03.2022
5110 Clear 9 1029 64 10000 3.09 150 14:23 01.03.2022
5111 Clear 8 1029 66 10000 2.57 180 13:26 01.03.2022
5112 Clear 8 1029 67 10000 3.6 180 12:35 01.03.2022
5113 Clear 8 1029 67 10000 3.6 180 12:35 01.03.2022
5114 Clear 5 1029 75 10000 2.57 150 10:52 01.03.2022
5115 Clear 1 1029 82 10000 4.12 140 09:27 01.03.2022
5116 Clear 0 1029 85 10000 3.6 140 08:19 01.03.2022
5117 Clear -1 1029 85 10000 3.09 140 06:28 01.03.2022
5118 Clear 0 1030 83 10000 2.06 120 02:57 01.03.2022
5119 Clear 1 1030 80 10000 4.12 130 00:47 01.03.2022
5120 Clear 1 1031 81 10000 4.63 130 23:36 28.02.2022
5121 Clear 2 1031 79 10000 5.66 130 22:38 28.02.2022
5122 Clear 2 1031 80 10000 5.14 130 21:43 28.02.2022
5123 Clear 3 1031 77 10000 6.17 130 20:46 28.02.2022
5124 Clear 4 1031 74 10000 5.66 130 19:51 28.02.2022
5125 Clear 5 1031 70 10000 5.14 130 18:50 28.02.2022
5126 Clear 6 1031 64 10000 5.66 140 17:43 28.02.2022
5127 Clear 8 1032 60 10000 4.63 150 17:21 28.02.2022
5128 Clear 8 1032 61 10000 6.17 140 16:21 28.02.2022
5129 Clear 9 1033 59 10000 5.66 150 14:33 28.02.2022
5130 Clear 9 1033 56 10000 5.14 140 13:56 28.02.2022
5131 Clear 8 1033 59 10000 5.14 130 13:24 28.02.2022
5132 Clear 7 1033 72 10000 4.12 140 12:25 28.02.2022
5133 Clear 5 1033 76 10000 4.63 140 11:19 28.02.2022
5134 Clear 3 1033 77 10000 3.6 130 10:23 28.02.2022
5135 Clear 2 1033 81 10000 3.09 130 09:51 28.02.2022
5136 Clear 1 1033 88 10000 3.6 130 09:23 28.02.2022
5137 Clear -1 1033 91 10000 2.57 130 08:21 28.02.2022
5138 Clear -1 1033 88 10000 2.57 140 06:31 28.02.2022
5139 Clear 0 1033 85 10000 4.63 130 04:31 28.02.2022
5140 Clear 1 1034 84 10000 3.6 110 01:24 28.02.2022
5141 Clear 2 1033 75 10000 2.57 110 22:55 27.02.2022
5142 Clear 2 1033 82 10000 2.57 110 22:32 27.02.2022
5143 Clear 3 1033 71 10000 3.09 110 21:42 27.02.2022
5144 Clear 4 1034 75 10000 3.09 110 20:51 27.02.2022
5145 Clear 4 1034 67 10000 2.57 110 20:22 27.02.2022
5146 Clear 4 1034 74 10000 2.57 100 19:50 27.02.2022
5147 Clear 5 1033 72 10000 3.6 120 19:24 27.02.2022
5148 Clear 6 1033 59 10000 4.12 120 18:37 27.02.2022
5149 Clear 6 1033 75 10000 5.66 130 17:53 27.02.2022
5150 Clear 8 1034 55 10000 6.17 140 16:31 27.02.2022
5151 Clouds 8 1034 56 10000 6.17 130 15:42 27.02.2022
5152 Clouds 7 1035 70 10000 6.69 140 12:53 27.02.2022
5153 Clouds 6 1036 78 10000 6.17 140 12:29 27.02.2022
5154 Clear 4 1036 85 10000 4.12 130 10:47 27.02.2022
5155 Clear 2 1036 87 10000 4.12 140 09:58 27.02.2022
5156 Clear 1 1036 88 10000 2.57 130 09:29 27.02.2022
5157 Clear 0 1036 89 10000 3.6 120 09:00 27.02.2022
5158 Clear 0 1035 88 10000 3.6 110 06:43 27.02.2022
5159 Clear -1 1035 89 10000 2.57 100 05:36 27.02.2022
5160 Clear 1 1035 81 10000 3.09 100 00:52 27.02.2022
5161 Clear 1 1035 85 10000 2.06 100 22:56 26.02.2022
5162 Clear 2 1035 86 10000 0.51 80 21:44 26.02.2022
5163 Clear 2 1035 85 10000 0.51 60 20:52 26.02.2022
5164 Clear 3 1035 81 10000 1.03 30 20:19 26.02.2022
5165 Clear 4 1035 79 10000 0.51 0 19:46 26.02.2022
5166 Clear 5 1034 77 10000 0.51 100 19:19 26.02.2022
5167 Clouds 6 1034 75 10000 2.57 80 17:46 26.02.2022
5168 Clouds 9 1034 55 10000 1.54 0 16:51 26.02.2022
5169 Clouds 8 1034 68 10000 1.03 0 15:57 26.02.2022
5170 Clouds 9 1034 69 10000 2.06 280 15:23 26.02.2022
5171 Clouds 9 1035 69 10000 1.03 0 14:54 26.02.2022
5172 Clouds 9 1035 69 10000 1.03 0 14:36 26.02.2022
5173 Clouds 8 1035 73 10000 2.06 290 13:19 26.02.2022
5174 Clouds 7 1035 81 10000 3.09 290 12:29 26.02.2022
5175 Clouds 6 1035 86 10000 2.06 260 11:28 26.02.2022
5176 Clouds 5 1034 91 10000 2.06 290 10:51 26.02.2022
5177 Clouds 1 1033 98 10000 1.54 290 08:59 26.02.2022
5178 Clouds 0 1033 96 10000 2.57 270 07:43 26.02.2022
5179 Clouds 4 1028 90 10000 4.63 280 01:53 26.02.2022
5180 Clouds 3 1026 88 10000 5.14 270 23:31 25.02.2022
5181 Clouds 4 1025 88 10000 4.63 290 21:48 25.02.2022
5182 Clouds 4 1024 89 10000 5.14 300 21:29 25.02.2022
5183 Clouds 4 1023 88 10000 5.14 290 20:33 25.02.2022
5184 Clouds 4 1022 89 10000 5.14 300 19:41 25.02.2022
5185 Clouds 5 1019 91 10000 8.23 320 17:35 25.02.2022
5186 Clouds 5 1018 90 6000 10.29 320 16:45 25.02.2022
5187 Clouds 6 1017 86 10000 9.77 280 15:49 25.02.2022
5188 Clouds 6 1016 84 10000 9.77 270 15:23 25.02.2022
5189 Clouds 6 1016 84 10000 9.26 270 14:49 25.02.2022
5190 Clouds 6 1016 83 10000 8.75 270 14:18 25.02.2022
5191 Clouds 5 1015 90 10000 6.69 260 13:20 25.02.2022
5192 Clouds 5 1014 89 10000 8.75 250 11:52 25.02.2022
5193 Clouds 5 1014 88 10000 8.75 240 11:18 25.02.2022
5194 Clouds 3 1014 93 10000 8.23 240 10:23 25.02.2022
5195 Clouds 4 1013 90 10000 8.75 230 09:41 25.02.2022
5196 Clouds 3 1013 88 10000 8.23 230 07:48 25.02.2022
5197 Clouds 3 1012 88 10000 7.72 230 06:51 25.02.2022
5198 Clouds 3 1012 88 10000 8.23 230 05:38 25.02.2022
5199 Clear 2 1010 90 10000 7.2 250 01:23 25.02.2022
5200 Clouds 3 1008 91 10000 6.69 250 22:31 24.02.2022
5201 Clouds 3 1007 93 10000 7.2 250 21:43 24.02.2022
5202 Clouds 3 1007 93 10000 7.72 270 21:21 24.02.2022
5203 Clouds 4 1006 91 10000 8.75 270 20:44 24.02.2022
5204 Clouds 4 1004 92 10000 8.23 270 19:31 24.02.2022
5205 Clouds 4 1003 92 10000 10.29 280 18:20 24.02.2022
5206 Clouds 4 1001 94 5000 16.98 270 17:54 24.02.2022
5207 Clouds 8 999 80 10000 7.72 210 17:20 24.02.2022
5208 Clouds 10 1001 69 10000 8.75 210 16:28 24.02.2022
5209 Clouds 10 1001 73 10000 8.23 210 15:43 24.02.2022
5210 Clouds 10 1003 73 10000 7.2 210 14:45 24.02.2022
5211 Clouds 10 1004 75 10000 8.23 210 13:59 24.02.2022
5212 Clouds 10 1004 76 10000 8.23 210 13:37 24.02.2022
5213 Clouds 9 1007 77 10000 7.72 210 11:38 24.02.2022
5214 Clouds 8 1008 79 10000 6.69 210 10:32 24.02.2022
5215 Clouds 7 1010 80 10000 4.12 210 08:43 24.02.2022
5216 Clouds 7 1011 80 10000 5.14 210 07:22 24.02.2022
5217 Clouds 7 1012 77 10000 4.63 210 05:40 24.02.2022
5218 Clear 7 1016 80 10000 4.12 190 00:32 24.02.2022
5219 Clouds 8 1018 71 10000 4.63 210 22:25 23.02.2022
5220 Clouds 7 1019 79 10000 2.57 200 20:48 23.02.2022
5221 Clear 6 1019 79 10000 3.6 210 20:28 23.02.2022
5222 Clouds 7 1020 76 10000 2.57 210 19:36 23.02.2022
5223 Clouds 8 1020 65 10000 4.63 220 18:31 23.02.2022
5224 Clouds 10 1020 60 10000 6.69 240 16:43 23.02.2022
5225 Clouds 10 1022 59 10000 8.75 240 14:33 23.02.2022
5226 Clouds 10 1023 73 10000 7.72 260 12:37 23.02.2022
5227 Clouds 8 1022 84 10000 6.17 260 11:23 23.02.2022
5228 Clouds 6 1022 88 10000 6.17 260 10:30 23.02.2022
5229 Clouds 4 1022 92 10000 5.14 240 08:57 23.02.2022
5230 Clouds 4 1021 92 10000 4.63 260 07:57 23.02.2022
5231 Clouds 5 1017 90 10000 7.72 270 03:48 23.02.2022
5232 Clear 5 1014 92 10000 6.69 270 00:19 23.02.2022
5233 Clear 5 1014 90 10000 7.2 270 23:35 22.02.2022
5234 Clouds 6 1013 93 10000 7.95 283 22:31 22.02.2022
5235 Clouds 6 1011 90 10000 9.26 290 21:49 22.02.2022
5236 Clouds 6 1010 90 10000 8.75 290 21:28 22.02.2022
5237 Clouds 7 1009 87 10000 9.77 300 20:51 22.02.2022
5238 Clouds 7 1009 94 10000 9.77 292 20:29 22.02.2022
5239 Clouds 7 1009 94 10000 9.77 292 20:29 22.02.2022
5240 Clouds 8 1007 96 10000 8.75 230 19:36 22.02.2022
5241 Clouds 8 1007 96 7000 8.23 230 19:18 22.02.2022
5242 Clouds 7 1008 96 8000 7.72 220 17:46 22.02.2022
5243 Clouds 7 1009 94 10000 6.69 220 17:20 22.02.2022
5244 Clouds 7 1009 93 10000 6.69 220 16:36 22.02.2022
5245 Clouds 6 1011 95 9000 6.17 210 15:39 22.02.2022
5246 Clouds 7 1012 85 10000 6.17 220 14:44 22.02.2022
5247 Clouds 7 1015 84 10000 6.69 250 12:21 22.02.2022
5248 Clouds 5 1015 88 10000 6.69 260 10:39 22.02.2022
5249 Clouds 3 1013 89 10000 5.66 270 07:52 22.02.2022
5250 Clouds 3 1013 88 10000 6.17 270 07:26 22.02.2022
5251 Clear 4 1011 88 10000 7.2 290 04:30 22.02.2022
5252 Clouds 5 1008 89 10000 6.69 300 01:44 22.02.2022
5253 Clouds 5 1004 92 10000 8.23 290 22:44 21.02.2022
5254 Clouds 6 1002 92 10000 7.2 290 21:31 21.02.2022
5255 Clouds 6 1001 91 10000 6.17 270 20:34 21.02.2022
5256 Clouds 5 998 92 10000 7.2 290 18:46 21.02.2022
5257 Clouds 5 993 93 10000 6.69 290 16:56 21.02.2022
5258 Clouds 4 990 94 8000 9.26 230 14:52 21.02.2022
5259 Clouds 3 990 93 10000 9.77 220 14:21 21.02.2022
5260 Clouds 3 991 95 10000 9.77 210 13:20 21.02.2022
5261 Clouds 4 992 92 10000 9.77 230 12:23 21.02.2022
5262 Clouds 4 992 86 10000 11.83 250 10:58 21.02.2022
5263 Clouds 4 991 90 10000 11.83 240 09:34 21.02.2022
5264 Clouds 4 990 88 10000 9.26 260 05:35 21.02.2022
5265 Clouds 10 984 93 10000 13.89 220 23:41 20.02.2022
5266 Clouds 10 988 93 10000 12.86 220 22:21 20.02.2022
5267 Clouds 9 989 94 10000 11.83 220 21:42 20.02.2022
5268 Clouds 9 991 94 10000 9.26 220 20:53 20.02.2022
5269 Clouds 9 991 93 10000 9.26 220 20:33 20.02.2022
5270 Clouds 9 993 93 10000 10.8 220 19:32 20.02.2022
5271 Clouds 9 994 93 8000 10.29 230 18:50 20.02.2022
5272 Clouds 9 995 96 7000 9.77 230 18:31 20.02.2022
5273 Clouds 9 996 96 7000 9.26 230 17:48 20.02.2022
5274 Clouds 9 998 93 7000 9.77 240 15:37 20.02.2022
5275 Clouds 9 999 94 7000 9.77 240 14:41 20.02.2022
5276 Clouds 8 1000 94 10000 8.75 230 13:23 20.02.2022
5277 Clouds 6 1001 96 8000 6.69 210 12:25 20.02.2022
5278 Clouds 4 1003 96 6000 5.66 180 10:38 20.02.2022
5279 Clouds 3 1003 96 6000 5.66 180 10:19 20.02.2022
5280 Clouds 3 1007 93 10000 5.66 220 08:25 20.02.2022
5281 Clouds 4 1003 93 10000 5.66 200 00:54 20.02.2022
5282 Clouds 4 1003 93 10000 5.66 200 00:54 20.02.2022
5283 Clouds 4 1003 93 10000 7.2 180 00:30 20.02.2022
5284 Clouds 4 1005 93 10000 5.14 180 22:47 19.02.2022
5285 Clouds 4 1006 92 10000 3.6 190 22:22 19.02.2022
5286 Clouds 4 1007 91 10000 6.69 220 21:25 19.02.2022
5287 Clouds 5 1008 78 10000 9.26 240 19:53 19.02.2022
5288 Clouds 5 1008 77 10000 6.17 220 19:30 19.02.2022
5289 Clear 5 1008 78 10000 6.17 230 18:33 19.02.2022
5290 Clouds 6 1008 68 10000 7.72 230 17:36 19.02.2022
5291 Clear 7 1009 63 10000 8.23 250 16:28 19.02.2022
5292 Clouds 6 1009 77 10000 9.77 250 15:18 19.02.2022
5293 Clouds 6 1009 79 10000 11.83 240 14:49 19.02.2022
5294 Clouds 6 1009 82 10000 10.8 260 13:45 19.02.2022
5295 Clouds 5 1008 86 10000 10.8 250 11:38 19.02.2022
5296 Clouds 4 1006 93 10000 10.29 250 09:55 19.02.2022
5297 Clouds 3 1001 93 10000 11.32 270 06:58 19.02.2022
5298 Clouds 4 995 91 10000 14.4 260 03:54 19.02.2022
5299 Clouds 6 989 71 10000 16.98 250 23:33 18.02.2022
5300 Clouds 6 987 79 8000 14.92 260 21:50 18.02.2022
5301 Clouds 6 986 84 5000 18.52 250 20:51 18.02.2022
5302 Clouds 8 984 76 10000 16.46 240 19:53 18.02.2022
5303 Clouds 9 983 73 10000 14.92 230 18:50 18.02.2022
5304 Clouds 9 984 68 10000 14.4 230 18:22 18.02.2022
5305 Clouds 9 985 72 10000 13.89 240 17:51 18.02.2022
5306 Clouds 9 989 93 10000 9.26 200 14:54 18.02.2022
5307 Clouds 8 992 95 10000 7.2 190 13:55 18.02.2022
5308 Clouds 7 994 96 7000 8.23 170 12:53 18.02.2022
5309 Clouds 6 994 95 7000 8.23 170 12:33 18.02.2022
5310 Clouds 6 998 94 10000 6.69 150 11:29 18.02.2022
5311 Clouds 5 1000 94 10000 4.63 150 10:23 18.02.2022
5312 Clear 4 1006 91 10000 3.09 210 06:57 18.02.2022
5313 Clear 4 1007 90 10000 3.09 230 05:41 18.02.2022
5314 Clear 6 1006 74 10000 7.72 260 23:34 17.02.2022
5315 Clouds 6 1006 74 10000 10.29 270 21:46 17.02.2022
5316 Clouds 6 1005 76 10000 9.77 270 21:20 17.02.2022
5317 Clouds 6 1005 77 10000 11.32 270 20:38 17.02.2022
5318 Clouds 6 1004 75 10000 11.83 270 19:50 17.02.2022
5319 Clouds 7 1003 75 10000 11.32 280 18:52 17.02.2022
5320 Clouds 7 1002 74 10000 13.38 280 17:55 17.02.2022
5321 Clouds 7 1001 79 10000 13.38 280 16:42 17.02.2022
5322 Clouds 8 999 70 10000 14.4 280 15:38 17.02.2022
5323 Clouds 8 999 72 10000 13.89 280 14:28 17.02.2022
5324 Clouds 6 997 87 5000 17.49 270 12:43 17.02.2022
5325 Clouds 6 995 84 9000 11.32 280 11:27 17.02.2022
5326 Clouds 7 991 83 10000 16.46 280 09:18 17.02.2022
5327 Clouds 9 985 69 10000 19.03 280 04:20 17.02.2022
5328 Clouds 11 981 90 6000 16.46 250 23:21 16.02.2022
5329 Clouds 11 983 94 5000 13.38 230 21:45 16.02.2022
5330 Clouds 11 986 92 8000 9.26 230 19:57 16.02.2022
5331 Clouds 11 988 85 10000 9.26 230 18:43 16.02.2022
5332 Clouds 12 988 87 10000 10.29 230 17:53 16.02.2022
5333 Clouds 12 991 88 10000 8.23 250 15:40 16.02.2022
5334 Clouds 12 991 90 10000 9.77 250 15:19 16.02.2022
5335 Clouds 11 990 96 10000 9.26 240 13:31 16.02.2022
5336 Clouds 10 990 96 8000 9.77 230 12:20 16.02.2022
5337 Mist 9 991 96 5000 10.29 220 11:28 16.02.2022
5338 Mist 8 991 96 4200 9.26 210 10:34 16.02.2022
5339 Clouds 8 995 96 7000 6.69 210 08:24 16.02.2022
5340 Clouds 7 997 95 10000 5.14 190 06:29 16.02.2022
5341 Clouds 6 1002 94 9000 7.72 210 23:45 15.02.2022
5342 Clouds 6 1002 91 10000 8.23 210 22:33 15.02.2022
5343 Clouds 6 1003 89 10000 8.23 210 21:48 15.02.2022
5344 Clouds 6 1003 88 10000 8.23 210 21:29 15.02.2022
5345 Clouds 6 1004 83 10000 8.75 200 20:56 15.02.2022
5346 Clouds 6 1004 79 10000 7.72 190 19:59 15.02.2022
5347 Clouds 7 1005 72 10000 6.69 190 19:21 15.02.2022
5348 Clear 7 1005 72 10000 6.17 200 18:23 15.02.2022
5349 Clouds 7 1006 71 10000 7.72 210 17:50 15.02.2022
5350 Clouds 7 1006 70 10000 6.17 220 17:21 15.02.2022
5351 Clouds 9 1007 73 10000 8.23 220 15:32 15.02.2022
5352 Clouds 8 1008 81 10000 6.69 230 13:28 15.02.2022
5353 Clouds 8 1009 84 10000 6.69 240 12:53 15.02.2022
5354 Clouds 7 1008 85 10000 6.69 230 11:40 15.02.2022
5355 Clouds 6 1008 91 10000 5.66 230 09:52 15.02.2022
5356 Clouds 6 1006 91 10000 5.14 230 06:59 15.02.2022
5357 Clouds 6 1005 90 10000 5.66 240 05:32 15.02.2022
5358 Clear 7 1002 80 10000 7.72 220 23:34 14.02.2022
5359 Clear 7 1002 83 10000 4.63 210 21:55 14.02.2022
5360 Clouds 7 1002 83 10000 4.12 210 20:50 14.02.2022
5361 Clouds 8 1002 82 10000 5.14 210 19:45 14.02.2022
5362 Clouds 8 1002 82 10000 5.14 210 19:45 14.02.2022
5363 Clouds 8 1002 84 10000 5.79 215 19:26 14.02.2022
5364 Clouds 10 1001 72 10000 5.14 210 18:23 14.02.2022
5365 Clouds 10 1001 75 10000 7.2 220 17:27 14.02.2022
5366 Clouds 10 1000 76 10000 7.2 220 16:25 14.02.2022
5367 Clouds 11 999 79 10000 7.72 230 14:42 14.02.2022
5368 Clouds 12 998 73 10000 6.17 210 13:34 14.02.2022
5369 Clouds 11 999 69 10000 8.23 200 12:56 14.02.2022
5370 Clouds 11 998 72 10000 8.23 190 11:55 14.02.2022
5371 Clouds 11 998 72 10000 7.72 200 11:37 14.02.2022
5372 Clear 8 998 75 10000 8.75 190 09:25 14.02.2022
5373 Clear 7 998 77 10000 6.69 170 07:34 14.02.2022
5374 Clear 7 998 77 10000 5.14 160 06:54 14.02.2022
5375 Clear 7 1003 74 10000 8.23 180 22:44 13.02.2022
5376 Clear 7 1004 75 10000 7.2 170 22:26 13.02.2022
5377 Clear 6 1004 75 10000 6.69 170 21:48 13.02.2022
5378 Clear 6 1005 75 10000 5.66 170 20:42 13.02.2022
5379 Clear 6 1006 71 10000 5.66 160 19:57 13.02.2022
5380 Clear 6 1006 66 10000 4.12 160 18:57 13.02.2022
5381 Clear 6 1007 66 10000 4.63 150 18:38 13.02.2022
5382 Clear 7 1008 63 10000 5.66 180 16:53 13.02.2022
5383 Clear 7 1009 64 10000 5.66 200 15:51 13.02.2022
5384 Clear 7 1010 65 10000 7.72 190 14:50 13.02.2022
5385 Clear 7 1012 67 10000 7.2 200 13:27 13.02.2022
5386 Clear 6 1012 67 10000 5.66 200 12:40 13.02.2022
5387 Clear 3 1013 71 10000 5.66 200 10:43 13.02.2022
5388 Clear 3 1013 72 10000 5.66 190 10:23 13.02.2022
5389 Clear 1 1014 80 10000 3.09 170 08:55 13.02.2022
5390 Clear 1 1019 82 10000 5.14 200 01:26 13.02.2022
5391 Clear 1 1019 81 10000 5.14 180 00:21 13.02.2022
5392 Clear 1 1020 83 10000 4.12 160 22:55 12.02.2022
5393 Clear 1 1021 83 10000 4.12 150 22:30 12.02.2022
5394 Clear 1 1022 82 10000 3.6 150 20:55 12.02.2022
5395 Clear 1 1022 82 10000 3.09 150 20:24 12.02.2022
5396 Clear 2 1023 76 10000 3.6 160 18:54 12.02.2022
5397 Clear 2 1023 75 10000 3.6 160 18:36 12.02.2022
5398 Clear 4 1023 66 10000 4.63 180 17:40 12.02.2022
5399 Clear 5 1024 69 10000 5.14 200 16:46 12.02.2022
5400 Clear 5 1025 67 10000 7.2 200 15:59 12.02.2022
5401 Clear 5 1026 67 10000 6.69 200 15:23 12.02.2022
5402 Clear 5 1027 66 10000 5.66 200 14:30 12.02.2022
5403 Clear 3 1029 78 10000 4.12 190 11:34 12.02.2022
5404 Clear 2 1030 84 10000 3.6 190 10:34 12.02.2022
5405 Clear 0 1030 90 10000 2.06 200 09:38 12.02.2022
5406 Clear -1 1030 90 10000 2.57 180 08:48 12.02.2022
5407 Clear -2 1031 93 10000 1.54 180 07:50 12.02.2022
5408 Clouds -1 1032 91 10000 2.57 210 05:31 12.02.2022
5409 Clouds 0 1033 94 10000 1.03 190 02:20 12.02.2022
5410 Clear -1 1033 95 10000 1.03 0 00:31 12.02.2022
5411 Clouds -1 1033 95 10000 2.06 240 22:27 11.02.2022
5412 Clouds 0 1032 94 10000 1.54 240 21:43 11.02.2022
5413 Clear 1 1032 89 10000 2.06 270 20:38 11.02.2022
5414 Clouds 2 1031 85 10000 3.6 300 19:33 11.02.2022
5415 Clouds 3 1031 85 10000 3.6 290 18:58 11.02.2022
5416 Clouds 4 1029 75 10000 5.14 320 17:28 11.02.2022
5417 Clouds 4 1029 72 10000 5.66 330 16:58 11.02.2022
5418 Clouds 5 1028 69 10000 8.75 330 15:33 11.02.2022
5419 Clouds 5 1025 80 10000 10.8 340 14:38 11.02.2022
5420 Clouds 5 1025 81 10000 10.8 340 14:20 11.02.2022
5421 Clouds 5 1024 86 10000 7.72 330 13:50 11.02.2022
5422 Clouds 5 1024 87 10000 7.2 350 13:31 11.02.2022
5423 Clouds 5 1020 95 7110 8.92 340 11:27 11.02.2022
5424 Clouds 5 1016 96 7000 7.2 260 09:39 11.02.2022
5425 Clouds 4 1015 96 7000 6.17 230 08:40 11.02.2022
5426 Clouds 4 1015 95 8000 6.17 220 08:22 11.02.2022
5427 Clouds 3 1015 93 9000 6.17 210 06:33 11.02.2022
5428 Clear 2 1018 91 10000 4.12 230 02:25 11.02.2022
5429 Clear 3 1018 91 10000 4.12 230 00:46 11.02.2022
5430 Clear 3 1018 89 10000 4.12 250 22:45 10.02.2022
5431 Clear 4 1019 88 10000 3.09 260 21:45 10.02.2022
5432 Clear 4 1018 86 10000 3.09 250 20:54 10.02.2022
5433 Clear 4 1018 85 10000 3.6 270 20:29 10.02.2022
5434 Clouds 5 1018 87 10000 2.57 270 19:25 10.02.2022
5435 Clouds 5 1018 88 10000 3.09 270 18:44 10.02.2022
5436 Clouds 6 1017 84 8000 5.14 260 17:26 10.02.2022
5437 Clouds 7 1017 83 10000 5.66 250 16:50 10.02.2022
5438 Clouds 7 1017 80 10000 5.14 270 15:47 10.02.2022
5439 Clouds 8 1017 80 10000 6.69 280 15:28 10.02.2022
5440 Clouds 8 1017 81 10000 6.17 270 14:47 10.02.2022
5441 Clouds 8 1017 84 10000 6.17 270 14:23 10.02.2022
5442 Clouds 7 1017 87 10000 4.12 260 13:26 10.02.2022
5443 Clouds 7 1017 94 10000 3.6 260 12:27 10.02.2022
5444 Rain 7 1017 94 9000 3.09 260 11:33 10.02.2022
5445 Clouds 7 1017 96 7000 3.6 280 10:43 10.02.2022
5446 Clouds 6 1017 96 7000 2.06 270 09:50 10.02.2022
5447 Drizzle 6 1017 98 5000 2.06 280 09:18 10.02.2022
5448 Clouds 7 1016 96 2000 4.63 220 06:50 10.02.2022
5449 Clouds 7 1018 98 1800 2.57 210 04:23 10.02.2022
5450 Drizzle 7 1020 96 2800 1.03 220 01:48 10.02.2022
5451 Clouds 6 1021 98 8000 0.51 0 00:44 10.02.2022
5452 Clouds 6 1021 98 8000 1.54 220 00:25 10.02.2022
5453 Clouds 7 1021 98 10000 2.57 230 22:58 09.02.2022
5454 Clouds 7 1021 98 10000 2.57 230 22:34 09.02.2022
5455 Clouds 7 1021 98 10000 2.57 240 21:49 09.02.2022
5456 Clouds 7 1021 98 10000 3.6 250 21:28 09.02.2022
5457 Clouds 8 1022 96 10000 5.14 280 20:47 09.02.2022
5458 Clouds 8 1022 96 10000 5.14 280 20:24 09.02.2022
5459 Clouds 8 1022 98 3200 4.63 280 19:44 09.02.2022
5460 Clouds 8 1022 98 3500 4.12 270 19:22 09.02.2022
5461 Drizzle 8 1021 98 2000 5.14 240 17:35 09.02.2022
5462 Drizzle 9 1021 95 4500 6.17 240 16:32 09.02.2022
5463 Drizzle 9 1021 95 4500 6.17 250 15:33 09.02.2022
5464 Clouds 9 1021 93 10000 6.69 250 14:25 09.02.2022
5465 Clouds 9 1021 86 10000 7.72 250 12:28 09.02.2022
5466 Clouds 9 1021 86 10000 7.2 240 10:47 09.02.2022
5467 Clouds 9 1021 88 10000 5.66 230 09:59 09.02.2022
5468 Clouds 8 1021 89 10000 6.17 230 09:23 09.02.2022
5469 Clouds 8 1021 91 10000 6.17 230 08:58 09.02.2022
5470 Clouds 8 1021 93 10000 6.17 220 07:34 09.02.2022
5471 Clouds 8 1022 95 10000 5.66 230 05:30 09.02.2022
5472 Drizzle 8 1023 95 10000 5.66 240 03:50 09.02.2022
5473 Drizzle 9 1023 96 7000 7.72 240 00:23 09.02.2022
5474 Drizzle 9 1023 96 3800 6.17 240 23:31 08.02.2022
5475 Drizzle 9 1023 96 4500 6.69 250 22:46 08.02.2022
5476 Drizzle 9 1023 96 3800 5.66 240 22:21 08.02.2022
5477 Drizzle 9 1023 96 3800 5.66 240 22:21 08.02.2022
5478 Drizzle 9 1023 96 3800 5.66 240 22:21 08.02.2022
5479 Drizzle 9 1023 96 4500 6.69 250 21:38 08.02.2022
5480 Drizzle 9 1023 96 4200 6.69 250 21:20 08.02.2022
5481 Drizzle 9 1023 96 8000 6.17 250 20:42 08.02.2022
5482 Drizzle 9 1023 96 4500 5.14 250 19:46 08.02.2022
5483 Drizzle 9 1022 96 10000 7.2 260 18:35 08.02.2022
5484 Clouds 9 1022 96 10000 6.69 260 17:38 08.02.2022
5485 Clouds 9 1022 96 8000 6.69 260 16:29 08.02.2022
5486 Clouds 9 1021 95 10000 7.72 260 15:29 08.02.2022
5487 Clouds 9 1021 93 10000 8.75 260 14:31 08.02.2022
5488 Clouds 9 1021 94 10000 8.75 250 13:20 08.02.2022
5489 Drizzle 9 1021 93 10000 8.75 260 11:33 08.02.2022
5490 Clouds 9 1020 92 10000 8.23 250 10:23 08.02.2022
5491 Clouds 9 1020 92 10000 8.23 250 09:44 08.02.2022
5492 Clouds 7 1020 95 10000 6.17 240 07:46 08.02.2022
5493 Clouds 6 1021 97 8000 5.66 230 05:37 08.02.2022
5494 Clouds 5 1021 92 10000 7.2 240 04:39 08.02.2022
5495 Clouds 5 1021 92 10000 7.2 240 04:21 08.02.2022
5496 Clouds 5 1021 91 10000 7.2 230 03:36 08.02.2022
5497 Clouds 5 1022 89 10000 8.23 240 03:18 08.02.2022
5498 Clouds 5 1022 88 10000 6.69 240 02:58 08.02.2022
5499 Clouds 5 1022 88 10000 6.69 240 02:36 08.02.2022
5500 Clouds 5 1022 87 10000 5.66 230 02:18 08.02.2022
5501 Clouds 5 1022 85 10000 6.17 240 01:43 08.02.2022
5502 Clouds 4 1023 87 10000 5.14 230 01:24 08.02.2022
5503 Clear 4 1023 85 10000 5.14 240 00:53 08.02.2022
5504 Clear 4 1023 86 10000 5.14 240 23:54 07.02.2022
5505 Clear 4 1023 86 10000 5.14 240 23:36 07.02.2022
5506 Clear 4 1023 86 10000 5.14 240 23:18 07.02.2022
5507 Clear 4 1023 91 10000 3.6 240 22:19 07.02.2022
5508 Clear 4 1023 91 10000 4.63 250 21:55 07.02.2022
5509 Clouds 4 1023 91 10000 4.63 250 21:29 07.02.2022
5510 Clear 4 1023 91 10000 5.14 260 20:56 07.02.2022
5511 Clear 4 1023 91 10000 5.14 260 20:38 07.02.2022
5512 Clear 4 1023 87 10000 6.17 270 19:49 07.02.2022
5513 Clouds 4 1023 89 10000 6.69 280 19:31 07.02.2022
5514 Clouds 5 1022 82 10000 8.75 280 17:52 07.02.2022
5515 Clouds 6 1021 77 10000 7.2 290 16:53 07.02.2022
5516 Clouds 7 1020 73 10000 10.8 300 15:49 07.02.2022
5517 Clouds 7 1019 75 10000 9.77 300 14:55 07.02.2022
5518 Clouds 6 1018 80 10000 6.69 300 13:28 07.02.2022
5519 Clouds 5 1018 86 10000 7.72 310 12:42 07.02.2022
5520 Rain 5 1017 84 10000 8.23 290 11:58 07.02.2022
5521 Clouds 6 1017 80 10000 8.23 290 11:35 07.02.2022
5522 Clouds 5 1015 83 10000 8.23 280 10:50 07.02.2022
5523 Clouds 5 1014 86 10000 7.2 280 10:30 07.02.2022
5524 Clouds 4 1014 88 10000 5.14 290 09:53 07.02.2022
5525 Clouds 3 1013 90 9000 8.75 320 09:18 07.02.2022
5526 Clouds 3 1012 89 10000 5.66 280 08:36 07.02.2022
5527 Clouds 4 1008 90 10000 6.69 290 06:54 07.02.2022
5528 Clouds 4 1008 89 10000 6.69 290 06:34 07.02.2022
5529 Clouds 3 1001 90 10000 8.23 270 02:59 07.02.2022
5530 Clouds 2 998 90 10000 6.69 290 00:45 07.02.2022
5531 Clouds 2 998 91 10000 6.69 290 00:45 07.02.2022
5532 Clouds 3 997 92 10000 7.2 290 23:47 06.02.2022
5533 Rain 3 996 93 10000 9.26 260 22:48 06.02.2022
5534 Clouds 3 995 92 10000 9.77 270 21:55 06.02.2022
5535 Clouds 3 995 92 10000 9.77 270 21:35 06.02.2022
5536 Clouds 3 994 91 10000 8.75 260 20:54 06.02.2022
5537 Clouds 3 994 90 10000 8.75 260 20:31 06.02.2022
5538 Clouds 4 994 93 10000 7.72 270 19:38 06.02.2022
5539 Clouds 3 994 95 10000 4.63 270 18:40 06.02.2022
5540 Rain 5 993 93 10000 7.2 260 17:56 06.02.2022
5541 Clouds 5 994 94 10000 8.23 260 17:19 06.02.2022
5542 Clouds 5 994 92 6000 9.77 280 16:38 06.02.2022
5543 Clouds 4 993 96 10000 5.66 250 15:49 06.02.2022
5544 Clouds 4 993 96 10000 3.6 240 15:27 06.02.2022
5545 Rain 4 993 98 10000 2.57 270 14:45 06.02.2022
5546 Rain 7 992 94 8000 10.29 230 13:26 06.02.2022
5547 Rain 8 993 96 8000 7.72 220 12:58 06.02.2022
5548 Rain 8 996 96 10000 8.75 230 11:35 06.02.2022
5549 Rain 8 998 96 10000 7.72 230 10:31 06.02.2022
5550 Clouds 8 999 94 10000 8.75 240 08:59 06.02.2022
5551 Clouds 7 999 94 10000 8.23 230 08:30 06.02.2022
5552 Rain 7 1001 96 10000 10.29 240 05:33 06.02.2022
5553 Clouds 6 1005 95 10000 10.29 230 02:50 06.02.2022
5554 Clouds 6 1005 95 10000 10.29 230 02:24 06.02.2022
5555 Clouds 6 1007 93 10000 9.26 240 00:29 06.02.2022
5556 Clouds 5 1009 92 10000 10.29 230 22:36 05.02.2022
5557 Clouds 5 1010 92 10000 10.29 230 21:32 05.02.2022
5558 Clouds 5 1011 85 10000 9.77 230 20:25 05.02.2022
5559 Clouds 6 1012 81 10000 9.77 230 19:48 05.02.2022
5560 Clouds 6 1012 79 10000 9.26 230 18:59 05.02.2022
5561 Clouds 6 1013 79 10000 6.69 230 17:45 05.02.2022
5562 Clouds 6 1014 79 10000 8.23 240 17:27 05.02.2022
5563 Clouds 6 1014 79 10000 8.23 240 15:42 05.02.2022
5564 Clouds 6 1014 79 10000 8.75 240 15:22 05.02.2022
5565 Clouds 6 1015 84 10000 10.29 250 12:54 05.02.2022
5566 Clouds 6 1015 85 10000 10.29 250 12:33 05.02.2022
5567 Clouds 5 1015 89 10000 7.2 250 10:53 05.02.2022
5568 Clouds 4 1015 91 10000 7.72 250 10:25 05.02.2022
5569 Clouds 3 1015 91 10000 6.69 250 09:46 05.02.2022
5570 Clouds 2 1014 93 10000 6.69 250 08:20 05.02.2022
5571 Clouds 3 1013 94 10000 6.69 250 06:58 05.02.2022
5572 Clouds 3 1011 92 10000 7.72 260 04:55 05.02.2022
5573 Clouds 3 1009 93 10000 8.75 270 01:19 05.02.2022
5574 Rain 3 1009 96 10000 8.23 255 00:54 05.02.2022
5575 Clouds 3 1008 93 10000 7.2 250 23:59 04.02.2022
5576 Clouds 3 1008 93 10000 7.2 250 23:33 04.02.2022
5577 Clouds 3 1007 95 10000 7.72 260 22:18 04.02.2022
5578 Clouds 3 1006 93 10000 5.66 280 21:36 04.02.2022
5579 Clouds 3 1006 95 10000 7.2 270 21:18 04.02.2022
5580 Clouds 3 1005 95 10000 6.69 280 20:20 04.02.2022
5581 Rain 4 1001 92 10000 9.77 310 18:27 04.02.2022
5582 Clouds 9 1001 83 10000 9.26 220 15:55 04.02.2022
5583 Clouds 9 1002 83 10000 9.26 220 14:56 04.02.2022
5584 Clouds 9 1003 84 10000 9.77 230 13:55 04.02.2022
5585 Clouds 9 1004 84 10000 9.26 220 12:43 04.02.2022
5586 Clouds 9 1005 85 10000 7.72 220 11:43 04.02.2022
5587 Clouds 8 1006 89 10000 6.69 210 10:48 04.02.2022
5588 Clouds 7 1007 92 10000 6.17 220 08:49 04.02.2022
5589 Clouds 7 1008 93 10000 5.14 220 06:58 04.02.2022
5590 Clouds 7 1009 94 10000 4.12 220 02:51 04.02.2022
5591 Clouds 6 1009 96 8000 4.63 240 01:56 04.02.2022
5592 Clouds 6 1009 95 10000 3.6 230 23:32 03.02.2022
5593 Clouds 6 1010 95 10000 3.6 240 22:48 03.02.2022
5594 Clouds 6 1010 96 10000 5.14 230 21:50 03.02.2022
5595 Clouds 6 1010 94 10000 5.66 230 20:43 03.02.2022
5596 Clouds 7 1010 93 10000 4.63 220 20:20 03.02.2022
5597 Clouds 6 1010 93 10000 5.14 220 19:34 03.02.2022
5598 Clouds 7 1010 94 10000 4.63 220 18:44 03.02.2022
5599 Clouds 7 1010 95 6000 4.12 220 17:47 03.02.2022
5600 Clouds 7 1011 95 6000 4.12 240 16:39 03.02.2022
5601 Clouds 8 1012 90 10000 5.14 220 14:54 03.02.2022
5602 Clouds 7 1013 93 10000 6.17 220 13:18 03.02.2022
5603 Drizzle 8 1014 96 7000 5.66 230 11:43 03.02.2022
5604 Drizzle 8 1014 96 3800 4.63 230 08:40 03.02.2022
5605 Drizzle 7 1015 98 4200 4.63 230 07:20 03.02.2022
5606 Clear 3 1019 91 10000 2.06 210 00:33 03.02.2022
5607 Clear 3 1019 93 10000 1.54 210 23:45 02.02.2022
5608 Clear 2 1019 93 10000 2.06 220 22:36 02.02.2022
5609 Clear 2 1019 91 10000 3.09 220 21:37 02.02.2022
5610 Clear 2 1019 90 10000 2.06 220 20:56 02.02.2022
5611 Clear 3 1019 89 10000 2.06 250 20:00 02.02.2022
5612 Clear 3 1019 89 10000 2.06 250 19:41 02.02.2022
5613 Clouds 4 1019 85 10000 3.6 300 18:53 02.02.2022
5614 Clouds 4 1019 85 10000 4.12 290 18:22 02.02.2022
5615 Clouds 6 1018 78 10000 6.17 310 17:20 02.02.2022
5616 Clouds 6 1018 75 10000 6.17 310 16:47 02.02.2022
5617 Clouds 6 1016 74 10000 10.8 310 14:18 02.02.2022
5618 Clouds 6 1014 79 10000 9.26 310 12:26 02.02.2022
5619 Clouds 6 1014 81 10000 7.72 300 11:42 02.02.2022
5620 Clouds 6 1013 82 10000 10.29 300 11:23 02.02.2022
5621 Clouds 5 1010 84 10000 8.75 300 07:59 02.02.2022
5622 Clouds 6 1006 86 10000 11.32 290 01:36 02.02.2022
5623 Clouds 7 1004 84 10000 13.38 300 21:59 01.02.2022
5624 Clouds 7 1004 82 10000 11.32 300 20:49 01.02.2022
5625 Clouds 7 1003 88 10000 11.83 300 18:55 01.02.2022
5626 Clouds 8 1003 92 10000 9.77 290 16:44 01.02.2022
5627 Clouds 7 1003 96 8000 8.23 260 15:30 01.02.2022
5628 Drizzle 5 1006 96 3800 9.77 240 12:49 01.02.2022
5629 Drizzle 4 1008 95 3500 7.72 230 11:48 01.02.2022
5630 Clouds 3 1013 93 10000 5.66 240 08:34 01.02.2022
5631 Clouds 3 1014 93 10000 2.06 240 00:28 01.02.2022
5632 Clouds 2 1014 95 10000 2.57 260 23:36 31.01.2022
5633 Clouds 2 1014 95 10000 2.57 290 22:30 31.01.2022
5634 Clouds 3 1014 93 10000 3.09 310 21:34 31.01.2022
5635 Clouds 2 1012 93 10000 4.12 320 20:34 31.01.2022
5636 Clouds 3 1012 93 10000 4.12 340 19:46 31.01.2022
5637 Clouds 3 1009 92 10000 3.6 350 18:31 31.01.2022
5638 Clouds 3 1008 93 10000 4.12 360 17:55 31.01.2022
5639 Clouds 3 1007 95 10000 4.63 20 16:58 31.01.2022
5640 Clouds 3 1006 95 10000 4.12 20 16:20 31.01.2022
5641 Drizzle 4 1004 95 3000 3.6 40 14:49 31.01.2022
5642 Drizzle 5 1002 94 7000 4.63 290 12:57 31.01.2022
5643 Clouds 5 1001 93 10000 5.66 280 12:36 31.01.2022
5644 Clouds 4 1000 93 10000 4.63 270 10:58 31.01.2022
5645 Clouds 4 1000 93 10000 4.63 270 10:38 31.01.2022
5646 Clouds 2 1000 97 8000 1.54 270 09:36 31.01.2022
5647 Rain 1 1000 97 7000 1.54 210 08:54 31.01.2022
5648 Snow 1 1001 93 7000 2.57 190 08:20 31.01.2022
5649 Clouds 1 1001 94 7000 5.14 180 07:29 31.01.2022
5650 Snow 2 1005 89 10000 4.63 180 05:24 31.01.2022
5651 Clouds 3 1017 84 10000 3.09 230 00:23 31.01.2022
5652 Clouds 3 1020 83 10000 4.12 250 22:31 30.01.2022
5653 Clouds 3 1021 83 10000 3.6 240 21:45 30.01.2022
5654 Clouds 4 1022 83 10000 4.59 253 21:24 30.01.2022
5655 Clouds 3 1022 82 10000 4.57 253 20:51 30.01.2022
5656 Clouds 3 1022 79 10000 4.63 270 20:31 30.01.2022
5657 Clouds 4 1022 77 10000 5.14 270 19:55 30.01.2022
5658 Clouds 5 1023 72 10000 6.17 280 18:51 30.01.2022
5659 Clouds 5 1023 71 10000 6.17 290 18:22 30.01.2022
5660 Clouds 5 1023 70 10000 6.17 300 17:31 30.01.2022
5661 Clouds 5 1024 73 10000 9.77 300 16:43 30.01.2022
5662 Clouds 6 1023 70 10000 9.26 310 16:23 30.01.2022
5663 Clouds 6 1024 71 10000 8.75 300 15:55 30.01.2022
5664 Clouds 6 1024 69 10000 8.75 300 15:33 30.01.2022
5665 Clouds 7 1023 68 10000 10.8 320 14:48 30.01.2022
5666 Clouds 7 1023 67 10000 10.29 310 13:49 30.01.2022
5667 Clouds 7 1023 67 10000 10.8 310 12:46 30.01.2022
5668 Clouds 6 1022 72 10000 12.86 300 11:23 30.01.2022
5669 Clouds 6 1022 70 10000 9.77 310 10:26 30.01.2022
5670 Clouds 6 1021 69 10000 10.8 300 09:23 30.01.2022
5671 Clouds 6 1020 67 10000 10.8 300 08:32 30.01.2022
5672 Clouds 6 1017 77 10000 12.86 280 02:55 30.01.2022
5673 Clouds 6 1017 77 10000 13.38 290 01:54 30.01.2022
5674 Clouds 6 1016 78 10000 12.86 280 23:49 29.01.2022
5675 Clouds 7 1016 72 10000 13.38 300 22:58 29.01.2022
5676 Clouds 8 1015 74 10000 11.83 290 21:35 29.01.2022
5677 Clouds 7 1014 74 10000 14.92 290 21:00 29.01.2022
5678 Clouds 8 1014 75 10000 13.38 290 20:20 29.01.2022
5679 Clouds 8 1013 81 10000 14.4 290 19:33 29.01.2022
5680 Clouds 9 1012 80 10000 14.4 290 18:51 29.01.2022
5681 Clouds 10 1011 81 10000 13.38 280 17:56 29.01.2022
5682 Clouds 11 1011 82 10000 11.32 270 17:19 29.01.2022
5683 Drizzle 10 1011 89 10000 12.35 260 15:35 29.01.2022
5684 Clouds 10 1013 88 10000 11.83 260 13:58 29.01.2022
5685 Clouds 10 1013 89 10000 11.83 260 13:36 29.01.2022
5686 Clouds 9 1014 93 10000 11.32 260 13:18 29.01.2022
5687 Clouds 8 1016 94 10000 8.75 250 11:39 29.01.2022
5688 Drizzle 8 1017 96 4000 7.72 250 10:34 29.01.2022
5689 Drizzle 7 1018 95 3300 8.75 250 08:20 29.01.2022
5690 Rain 6 1022 94 8000 6.69 230 03:25 29.01.2022
5691 Clouds 5 1026 89 10000 6.69 230 00:32 29.01.2022
5692 Clouds 5 1027 86 10000 4.63 220 23:32 28.01.2022
5693 Clouds 5 1027 86 10000 5.14 220 23:32 28.01.2022
5694 Clouds 5 1027 84 10000 4.12 210 22:48 28.01.2022
5695 Clouds 5 1028 83 10000 3.6 210 22:19 28.01.2022
5696 Clear 4 1029 84 10000 3.09 210 20:41 28.01.2022
5697 Clouds 5 1030 81 10000 3.09 220 19:59 28.01.2022
5698 Clouds 5 1030 82 10000 3.67 229 19:18 28.01.2022
5699 Clouds 5 1031 79 10000 3.09 240 18:35 28.01.2022
5700 Clouds 6 1031 76 10000 4.12 280 16:39 28.01.2022
5701 Clouds 7 1031 73 10000 5.14 300 14:59 28.01.2022
5702 Clouds 7 1031 71 10000 7.72 310 13:23 28.01.2022
5703 Clouds 7 1030 72 10000 6.69 310 12:26 28.01.2022
5704 Clouds 5 1029 76 10000 6.17 310 10:32 28.01.2022
5705 Clouds 5 1028 79 10000 6.17 310 09:47 28.01.2022
5706 Clouds 4 1027 83 10000 7.2 300 07:43 28.01.2022
5707 Clouds 4 1026 87 10000 8.23 300 06:31 28.01.2022
5708 Clouds 4 1023 86 10000 8.23 300 03:52 28.01.2022
5709 Clouds 5 1021 84 10000 8.23 290 02:29 28.01.2022
5710 Clouds 4 1021 86 10000 8.23 290 01:57 28.01.2022
5711 Clouds 4 1021 86 10000 8.23 290 01:57 28.01.2022
5712 Clouds 4 1021 84 10000 7.2 290 01:29 28.01.2022
5713 Clouds 4 1019 87 10000 8.23 290 22:39 27.01.2022
5714 Clouds 5 1018 88 10000 9.26 280 21:41 27.01.2022
5715 Clouds 5 1018 85 10000 8.23 280 21:21 27.01.2022
5716 Clouds 6 1017 83 10000 9.77 290 19:47 27.01.2022
5717 Clouds 6 1016 85 6000 13.38 310 18:22 27.01.2022
5718 Clouds 7 1016 85 10000 8.7 286 17:18 27.01.2022
5719 Clouds 8 1015 92 7000 9.26 280 14:24 27.01.2022
5720 Clouds 7 1016 96 5000 8.23 260 12:53 27.01.2022
5721 Clouds 7 1016 96 4700 8.75 260 12:20 27.01.2022
5722 Mist 5 1016 96 3300 9.77 240 09:51 27.01.2022
5723 Clouds 5 1017 95 2800 9.77 240 08:41 27.01.2022
5724 Drizzle 4 1017 95 5000 9.26 240 07:58 27.01.2022
5725 Clouds 5 1020 88 6000 9.26 240 03:34 27.01.2022
5726 Mist 5 1023 92 5000 5.66 230 00:25 27.01.2022
5727 Mist 4 1025 95 4500 6.17 240 22:31 26.01.2022
5728 Drizzle 4 1025 95 4800 4.63 230 21:44 26.01.2022
5729 Mist 4 1025 95 5000 5.66 230 20:57 26.01.2022
5730 Drizzle 4 1026 93 5000 5.66 240 20:33 26.01.2022
5731 Mist 4 1026 93 5000 6.17 240 19:49 26.01.2022
5732 Mist 4 1026 93 5000 5.66 240 18:52 26.01.2022
5733 Mist 4 1026 93 5000 5.66 240 18:52 26.01.2022
5734 Mist 4 1026 93 5000 5.66 240 18:24 26.01.2022
5735 Mist 4 1027 95 5000 5.66 250 17:39 26.01.2022
5736 Mist 3 1027 95 5000 5.14 250 17:19 26.01.2022
5737 Mist 3 1027 95 4500 5.14 250 16:25 26.01.2022
5738 Drizzle 3 1027 95 3000 6.17 240 15:23 26.01.2022
5739 Drizzle 2 1029 94 3800 4.63 240 12:52 26.01.2022
5740 Clouds 2 1029 92 6000 5.14 230 10:57 26.01.2022
5741 Drizzle 2 1029 95 5000 4.63 240 09:59 26.01.2022
5742 Drizzle 2 1029 95 5000 4.63 240 09:40 26.01.2022
5743 Drizzle 3 1029 93 7000 4.12 230 07:28 26.01.2022
5744 Mist 3 1031 95 3800 2.57 240 00:42 26.01.2022
5745 Drizzle 3 1031 95 3800 2.57 250 23:44 25.01.2022
5746 Mist 4 1031 95 4000 2.57 260 22:50 25.01.2022
5747 Drizzle 4 1032 95 4000 2.57 260 22:20 25.01.2022
5748 Drizzle 4 1032 95 4500 3.09 260 21:35 25.01.2022
5749 Drizzle 4 1032 95 4500 2.57 260 20:46 25.01.2022
5750 Drizzle 4 1032 95 4500 2.57 260 19:59 25.01.2022
5751 Drizzle 4 1032 95 4500 2.57 260 19:40 25.01.2022
5752 Mist 4 1032 94 5000 2.57 260 18:20 25.01.2022
5753 Mist 4 1032 94 5000 2.57 260 17:40 25.01.2022
5754 Mist 4 1032 94 5000 3.6 270 16:35 25.01.2022
5755 Mist 4 1032 93 5000 4.12 250 15:44 25.01.2022
5756 Drizzle 4 1032 93 5000 3.6 260 15:26 25.01.2022
5757 Drizzle 4 1032 94 4400 3.6 260 14:57 25.01.2022
5758 Drizzle 4 1033 94 4700 2.57 250 13:18 25.01.2022
5759 Mist 4 1033 91 4700 1.54 260 10:00 25.01.2022
5760 Mist 4 1033 91 4700 0.51 0 08:32 25.01.2022
5761 Mist 3 1033 90 4700 2.06 250 07:28 25.01.2022
5762 Mist 3 1033 90 5000 2.06 250 05:55 25.01.2022
5763 Clouds 4 1034 87 7000 2.06 260 01:34 25.01.2022
5764 Clouds 4 1034 86 7000 2.57 290 23:36 24.01.2022
5765 Clouds 4 1034 86 7000 2.57 300 23:18 24.01.2022
5766 Clouds 4 1034 85 8000 2.06 300 22:59 24.01.2022
5767 Clouds 4 1034 85 8000 2.06 300 22:41 24.01.2022
5768 Clouds 4 1034 85 10000 2.57 270 21:45 24.01.2022
5769 Clouds 4 1034 85 10000 2.06 280 21:27 24.01.2022
5770 Clouds 4 1034 85 10000 2.57 300 20:29 24.01.2022
5771 Clouds 5 1034 83 10000 3.09 310 19:39 24.01.2022
5772 Clouds 4 1034 84 10000 2.06 300 18:55 24.01.2022
5773 Clouds 5 1034 85 10000 1.54 310 17:44 24.01.2022
5774 Clouds 5 1034 85 10000 2.06 320 17:23 24.01.2022
5775 Clouds 5 1033 85 10000 1.54 310 16:32 24.01.2022
5776 Clouds 5 1033 85 10000 2.06 310 15:52 24.01.2022
5777 Clouds 6 1034 84 10000 2.57 310 14:27 24.01.2022
5778 Clouds 6 1034 86 10000 2.06 250 12:36 24.01.2022
5779 Clouds 6 1035 87 10000 1.54 250 11:53 24.01.2022
5780 Clouds 5 1035 89 10000 1.54 230 10:25 24.01.2022
5781 Clouds 5 1035 89 10000 2.57 240 09:47 24.01.2022
5782 Clouds 5 1035 87 10000 1.54 230 08:24 24.01.2022
5783 Clouds 5 1035 88 10000 3.09 260 02:51 24.01.2022
5784 Clouds 5 1035 90 10000 2.57 250 01:29 24.01.2022
5785 Clouds 5 1035 91 10000 1.54 250 00:34 24.01.2022
5786 Clouds 5 1035 93 10000 1.54 260 23:49 23.01.2022
5787 Clouds 6 1035 92 10000 2.06 260 22:27 23.01.2022
5788 Clouds 6 1035 91 10000 2.06 260 21:44 23.01.2022
5789 Clouds 6 1035 91 10000 2.57 270 21:24 23.01.2022
5790 Clouds 6 1035 92 10000 1.54 250 20:30 23.01.2022
5791 Clouds 6 1035 92 10000 3.09 270 19:21 23.01.2022
5792 Clouds 6 1035 92 10000 1.54 270 18:44 23.01.2022
5793 Clouds 7 1035 92 10000 2.57 290 17:34 23.01.2022
5794 Clouds 7 1035 92 10000 3.6 290 16:45 23.01.2022
5795 Clouds 7 1034 94 10000 2.59 273 14:59 23.01.2022
5796 Clouds 7 1034 94 10000 2.96 272 14:21 23.01.2022
5797 Clouds 7 1035 93 10000 3.09 270 12:54 23.01.2022
5798 Clouds 7 1035 93 10000 3.6 280 12:22 23.01.2022
5799 Clouds 7 1035 94 10000 4.12 270 11:52 23.01.2022
5800 Clouds 6 1035 96 10000 4.12 280 11:18 23.01.2022
5801 Clouds 6 1035 96 9000 3.6 290 10:27 23.01.2022
5802 Clouds 6 1034 96 10000 3.09 280 09:51 23.01.2022
5803 Clouds 5 1034 98 6000 3.09 280 08:53 23.01.2022
5804 Clouds 5 1033 96 10000 3.09 260 05:56 23.01.2022
5805 Clouds 5 1033 96 6000 2.06 270 01:52 23.01.2022
5806 Clouds 5 1033 98 10000 3.09 270 01:26 23.01.2022
5807 Clouds 5 1032 96 10000 2.57 290 00:23 23.01.2022
5808 Clouds 5 1032 98 10000 3.09 280 23:56 22.01.2022
5809 Clouds 5 1032 96 10000 3.09 290 22:46 22.01.2022
5810 Drizzle 5 1032 94 10000 3.6 290 21:36 22.01.2022
5811 Clouds 6 1032 94 10000 3.6 280 20:21 22.01.2022
5812 Clouds 6 1031 95 10000 2.57 300 18:56 22.01.2022
5813 Clouds 6 1031 96 10000 3.09 290 18:24 22.01.2022
5814 Clouds 6 1031 95 10000 3.6 290 17:40 22.01.2022
5815 Clouds 6 1031 96 10000 3.98 295 16:56 22.01.2022
5816 Clouds 7 1030 95 10000 5.14 310 15:53 22.01.2022
5817 Clouds 6 1030 94 10000 5.14 310 15:26 22.01.2022
5818 Drizzle 7 1030 94 9000 6.69 310 13:51 22.01.2022
5819 Clouds 7 1030 96 10000 5.14 300 12:53 22.01.2022
5820 Drizzle 7 1030 96 7000 6.69 310 12:29 22.01.2022
5821 Drizzle 7 1030 96 5000 5.66 300 11:44 22.01.2022
5822 Drizzle 6 1030 98 2400 3.6 290 10:29 22.01.2022
5823 Drizzle 6 1029 98 2500 3.6 300 09:59 22.01.2022
5824 Clouds 6 1029 96 10000 4.63 300 08:53 22.01.2022
5825 Drizzle 6 1029 98 7000 4.12 300 07:56 22.01.2022
5826 Drizzle 7 1028 96 1900 5.66 310 04:53 22.01.2022
5827 Drizzle 7 1027 96 6000 6.17 310 01:49 22.01.2022
5828 Drizzle 6 1027 98 4000 6.69 290 23:46 21.01.2022
5829 Drizzle 6 1027 98 2800 7.72 290 22:41 21.01.2022
5830 Drizzle 6 1027 98 2400 7.2 300 20:32 21.01.2022
5831 Clouds 6 1027 96 2000 6.17 280 18:41 21.01.2022
5832 Clouds 5 1027 95 3800 4.12 240 17:45 21.01.2022
5833 Clouds 5 1028 93 10000 5.66 280 15:47 21.01.2022
5834 Clouds 5 1028 93 10000 4.63 280 14:37 21.01.2022
5835 Clouds 4 1029 95 10000 5.52 308 12:40 21.01.2022
5836 Clouds 3 1029 96 10000 5.66 290 11:29 21.01.2022
5837 Clouds 2 1029 95 10000 4.63 290 10:22 21.01.2022
5838 Clouds 1 1029 95 10000 4.63 280 08:50 21.01.2022
5839 Clouds 1 1028 94 6000 3.6 280 07:26 21.01.2022
5840 Clouds 0 1027 90 10000 3.33 294 00:59 21.01.2022
5841 Clear -1 1027 83 10000 3.6 280 22:46 20.01.2022
5842 Clear 0 1026 87 10000 2.57 300 21:48 20.01.2022
5843 Clouds 1 1025 81 10000 4.63 320 20:57 20.01.2022
5844 Clouds 2 1025 81 10000 4.63 330 19:40 20.01.2022
5845 Clouds 2 1024 78 10000 6.69 330 19:18 20.01.2022
5846 Clouds 2 1022 85 10000 8.23 300 17:32 20.01.2022
5847 Snow 2 1022 87 10000 9.26 310 15:46 20.01.2022
5848 Clouds 2 1021 88 10000 8.75 300 15:26 20.01.2022
5849 Clouds 3 1021 83 10000 9.26 310 13:54 20.01.2022
5850 Clouds 3 1021 83 10000 10.29 320 12:44 20.01.2022
5851 Clouds 3 1021 86 10000 5.66 300 12:26 20.01.2022
5852 Snow 1 1021 91 10000 8.23 300 10:58 20.01.2022
5853 Clouds 1 1020 86 10000 7.72 290 09:43 20.01.2022
5854 Clouds 1 1020 85 10000 6.69 300 08:36 20.01.2022
5855 Clouds 2 1018 89 10000 8.73 314 06:19 20.01.2022
5856 Clear 4 1017 81 10000 7.2 300 23:56 19.01.2022
5857 Clouds 4 1016 87 10000 7.72 290 22:38 19.01.2022
5858 Rain 5 1015 94 10000 8.75 270 21:33 19.01.2022
5859 Drizzle 5 1015 98 6000 7.2 260 20:55 19.01.2022
5860 Mist 5 1014 96 4600 7.2 260 20:30 19.01.2022
5861 Drizzle 4 1015 97 2500 8.23 240 18:49 19.01.2022
5862 Mist 4 1015 95 4200 7.72 240 17:51 19.01.2022
5863 Drizzle 4 1016 95 3400 7.72 240 17:18 19.01.2022
5864 Drizzle 4 1016 95 3400 7.72 240 17:18 19.01.2022
5865 Drizzle 4 1016 95 3400 7.72 240 17:18 19.01.2022
5866 Clouds 4 1017 91 7000 6.17 220 15:31 19.01.2022
5867 Clouds 4 1020 90 10000 5.14 220 13:25 19.01.2022
5868 Clouds 3 1022 93 9000 5.14 240 11:58 19.01.2022
5869 Clouds 3 1022 93 9000 5.14 240 11:38 19.01.2022
5870 Mist 3 1024 94 4200 2.06 180 09:35 19.01.2022
5871 Mist 2 1025 96 3500 1.54 190 08:33 19.01.2022
5872 Clouds 3 1027 95 10000 3.09 190 05:20 19.01.2022
5873 Clouds 5 1033 91 10000 5.14 230 00:21 19.01.2022
5874 Clouds 5 1034 90 10000 4.12 240 23:18 18.01.2022
5875 Clouds 5 1034 90 10000 4.12 240 23:18 18.01.2022
5876 Clouds 5 1035 91 10000 3.09 230 21:45 18.01.2022
5877 Clouds 5 1035 89 10000 2.57 220 20:34 18.01.2022
5878 Clouds 5 1035 92 10000 2.57 230 19:49 18.01.2022
5879 Clouds 6 1036 90 10000 2.57 220 19:31 18.01.2022
5880 Clouds 6 1036 90 10000 3.09 240 18:19 18.01.2022
5881 Clouds 6 1036 90 10000 3.6 270 17:32 18.01.2022
5882 Clouds 6 1036 89 10000 5.14 270 16:22 18.01.2022
5883 Clouds 6 1036 89 10000 5.14 260 15:25 18.01.2022
5884 Clouds 7 1037 88 10000 4.63 260 14:22 18.01.2022
5885 Clouds 7 1037 91 10000 3.6 250 11:37 18.01.2022
5886 Clouds 7 1037 92 10000 2.57 260 10:30 18.01.2022
5887 Clouds 6 1036 95 10000 3.09 280 08:29 18.01.2022
5888 Clouds 6 1036 95 10000 3.6 280 07:44 18.01.2022
5889 Clouds 6 1034 89 10000 4.12 320 00:42 18.01.2022
5890 Clouds 6 1034 91 10000 3.6 300 22:46 17.01.2022
5891 Clouds 5 1033 90 10000 4.12 300 21:44 17.01.2022
5892 Clouds 5 1033 90 10000 3.6 290 21:24 17.01.2022
5893 Clouds 6 1031 86 10000 6.17 330 18:51 17.01.2022
5894 Clouds 6 1030 84 10000 5.14 320 18:26 17.01.2022
5895 Clouds 6 1030 82 10000 7.2 330 17:22 17.01.2022
5896 Clouds 7 1028 83 10000 11.32 330 15:58 17.01.2022
5897 Clouds 8 1027 83 10000 9.26 320 14:58 17.01.2022
5898 Clouds 8 1027 84 10000 9.26 330 14:32 17.01.2022
5899 Clouds 8 1026 86 10000 11.32 320 13:18 17.01.2022
5900 Clouds 8 1025 96 5000 8.75 300 12:22 17.01.2022
5901 Clouds 7 1024 95 10000 10.29 290 10:53 17.01.2022
5902 Drizzle 7 1024 93 10000 9.77 280 09:53 17.01.2022
5903 Clouds 6 1024 95 10000 10.29 280 08:44 17.01.2022
5904 Clouds 6 1023 88 10000 10.8 280 07:20 17.01.2022
5905 Clouds 6 1024 87 10000 7.2 270 01:52 17.01.2022
5906 Drizzle 6 1023 95 8000 6.17 300 23:44 16.01.2022
5907 Clouds 6 1022 95 7000 6.69 270 21:21 16.01.2022
5908 Clouds 6 1022 93 10000 6.69 260 20:28 16.01.2022
5909 Clouds 6 1021 92 10000 7.2 260 18:46 16.01.2022
5910 Clouds 6 1020 90 10000 6.69 250 17:50 16.01.2022
5911 Clouds 6 1020 93 10000 6.69 250 16:54 16.01.2022
5912 Drizzle 6 1020 93 9000 6.17 260 15:40 16.01.2022
5913 Mist 5 1020 95 5000 6.17 250 14:29 16.01.2022
5914 Mist 5 1020 96 5000 6.69 250 13:33 16.01.2022
5915 Mist 4 1020 96 4500 5.66 240 12:21 16.01.2022
5916 Mist 3 1020 96 2500 5.66 240 11:27 16.01.2022
5917 Mist 3 1019 96 3000 5.14 230 10:27 16.01.2022
5918 Mist 3 1019 96 3200 5.66 230 09:58 16.01.2022
5919 Mist 3 1020 95 3200 5.14 230 09:37 16.01.2022
5920 Mist 3 1020 95 3200 5.14 230 09:19 16.01.2022
5921 Mist 2 1020 95 5000 6.17 250 06:35 16.01.2022
5922 Mist 3 1023 95 5000 3.6 180 00:19 16.01.2022
5923 Clouds 4 1023 94 7000 4.63 170 22:50 15.01.2022
5924 Clouds 4 1025 94 10000 2.57 170 21:21 15.01.2022
5925 Clouds 5 1025 92 10000 3.09 180 20:44 15.01.2022
5926 Clouds 5 1025 92 10000 3.09 190 20:22 15.01.2022
5927 Clouds 5 1025 92 10000 2.57 190 19:27 15.01.2022
5928 Clouds 5 1026 91 10000 3.09 180 18:18 15.01.2022
5929 Clouds 5 1026 91 10000 2.57 180 16:49 15.01.2022
5930 Clouds 6 1027 89 10000 3.6 180 14:38 15.01.2022
5931 Clouds 6 1029 92 10000 2.06 200 12:40 15.01.2022
5932 Clouds 5 1029 96 8000 1.03 0 11:26 15.01.2022
5933 Mist 4 1030 98 4800 1.03 0 09:46 15.01.2022
5934 Fog 4 1030 98 400 1.54 220 04:46 15.01.2022
5935 Clouds 6 1032 96 10000 2.06 290 23:21 14.01.2022
5936 Clouds 6 1033 94 10000 3.09 340 21:18 14.01.2022
5937 Clouds 6 1032 96 10000 2.57 310 20:25 14.01.2022
5938 Clouds 7 1032 96 10000 2.57 300 19:50 14.01.2022
5939 Drizzle 7 1032 98 5000 3.6 300 18:41 14.01.2022
5940 Drizzle 7 1032 95 3500 5.14 280 17:39 14.01.2022
5941 Drizzle 7 1032 95 2500 5.14 270 16:43 14.01.2022
5942 Drizzle 7 1032 95 2000 4.63 280 15:32 14.01.2022
5943 Mist 7 1032 95 5000 5.66 270 14:28 14.01.2022
5944 Clouds 7 1033 93 8000 5.14 270 12:58 14.01.2022
5945 Clouds 7 1033 91 9000 5.14 270 11:53 14.01.2022
5946 Clouds 6 1033 91 9000 4.63 280 10:39 14.01.2022
5947 Clouds 6 1032 92 10000 5.66 280 08:53 14.01.2022
5948 Clouds 6 1032 92 10000 5.66 270 07:32 14.01.2022
5949 Clouds 6 1034 89 10000 6.17 290 02:27 14.01.2022
5950 Clouds 6 1034 92 10000 5.66 280 00:22 14.01.2022
5951 Clouds 6 1035 94 9000 4.12 260 21:47 13.01.2022
5952 Clouds 6 1035 95 8000 4.63 250 21:29 13.01.2022
5953 Clouds 5 1035 96 6000 4.63 230 19:58 13.01.2022
5954 Clouds 5 1036 96 6000 4.12 240 19:29 13.01.2022
5955 Mist 5 1036 96 5000 4.63 240 18:40 13.01.2022
5956 Mist 5 1036 96 3500 4.63 240 16:57 13.01.2022
5957 Clouds 5 1036 96 6000 5.66 250 15:45 13.01.2022
5958 Clouds 5 1036 96 7000 5.66 250 15:26 13.01.2022
5959 Mist 5 1037 96 4000 5.66 240 13:29 13.01.2022
5960 Mist 5 1037 98 3500 6.69 260 11:38 13.01.2022
5961 Mist 4 1037 98 3000 5.66 250 09:24 13.01.2022
5962 Mist 4 1037 98 2800 6.69 260 08:52 13.01.2022
5963 Mist 4 1036 98 1500 6.17 250 08:18 13.01.2022
5964 Mist 4 1037 98 1200 5.66 250 07:20 13.01.2022
5965 Mist 4 1037 98 1600 5.14 250 05:21 13.01.2022
5966 Mist 4 1037 98 1500 5.14 250 04:55 13.01.2022
5967 Mist 4 1038 98 1500 4.12 240 01:41 13.01.2022
5968 Mist 4 1038 96 5000 5.14 250 23:54 12.01.2022
5969 Mist 4 1038 96 5000 5.14 250 23:34 12.01.2022
5970 Clouds 4 1038 96 8000 5.14 260 22:49 12.01.2022
5971 Clouds 4 1038 96 9000 3.6 250 21:54 12.01.2022
5972 Clouds 4 1038 96 9000 3.09 220 21:21 12.01.2022
5973 Clouds 4 1038 94 9000 3.6 240 20:53 12.01.2022
5974 Clouds 4 1038 96 10000 5.14 270 19:28 12.01.2022
5975 Clouds 4 1037 96 10000 5.66 250 18:28 12.01.2022
5976 Clouds 4 1038 94 10000 4.12 270 16:59 12.01.2022
5977 Clouds 5 1037 96 10000 4.12 250 15:58 12.01.2022
5978 Clouds 5 1037 94 10000 4.63 270 14:47 12.01.2022
5979 Clouds 5 1038 96 6000 1.54 250 12:58 12.01.2022
5980 Clouds 5 1038 96 6000 1.54 250 12:58 12.01.2022
5981 Mist 3 1037 98 3500 2.57 260 09:59 12.01.2022
5982 Mist 3 1036 98 3000 2.57 270 08:36 12.01.2022
5983 Mist 3 1035 98 3000 2.57 240 07:34 12.01.2022
5984 Mist 3 1035 98 2600 2.57 240 06:49 12.01.2022
5985 Clear 3 1034 89 10000 1.54 210 23:31 11.01.2022
5986 Clear 3 1034 89 10000 2.06 210 22:49 11.01.2022
5987 Clear 2 1034 91 10000 2.06 180 22:21 11.01.2022
5988 Clear 2 1034 91 10000 1.54 180 20:51 11.01.2022
5989 Clear 2 1033 91 10000 2.57 160 19:48 11.01.2022
5990 Clear 2 1033 92 10000 2.06 150 18:31 11.01.2022
5991 Clear 2 1033 94 10000 2.06 140 17:24 11.01.2022
5992 Clear 2 1033 94 10000 2.57 150 16:37 11.01.2022
5993 Clear 2 1033 95 10000 2.57 150 15:36 11.01.2022
5994 Clear 2 1033 95 10000 2.57 150 14:42 11.01.2022
5995 Clouds 2 1033 96 6000 4.12 140 13:55 11.01.2022
5996 Clouds 2 1033 96 6000 4.12 140 13:34 11.01.2022
5997 Clear 3 1033 96 10000 3.5 200 12:43 11.01.2022
5998 Fog 0 1033 100 700 2.06 150 11:43 11.01.2022
5999 Fog -1 1033 98 400 2.57 130 09:29 11.01.2022
6000 Fog -1 1032 98 450 1.54 130 07:18 11.01.2022
6001 Fog 0 1030 98 800 1.03 150 00:32 11.01.2022
6002 Fog 0 1030 98 900 1.03 150 23:43 10.01.2022
6003 Fog 1 1029 98 700 1.54 160 23:22 10.01.2022
6004 Fog 1 1029 98 450 1.03 0 22:19 10.01.2022
6005 Fog 1 1029 98 300 1.54 170 21:54 10.01.2022
6006 Fog 2 1029 98 500 0.51 0 21:21 10.01.2022
6007 Fog 2 1028 98 650 0.51 80 20:57 10.01.2022
6008 Fog 2 1028 98 350 1.03 100 20:28 10.01.2022
6009 Fog 2 1028 98 400 2.06 70 19:44 10.01.2022
6010 Fog 2 1027 96 2000 1.03 120 19:21 10.01.2022
6011 Clouds 3 1027 96 10000 1.03 70 18:50 10.01.2022
6012 Clouds 3 1026 95 10000 1.03 280 17:56 10.01.2022
6013 Clouds 4 1025 93 10000 1.54 280 16:42 10.01.2022
6014 Clouds 5 1024 92 10000 2.06 270 15:49 10.01.2022
6015 Clouds 5 1022 93 10000 1.54 310 14:34 10.01.2022
6016 Clouds 4 1021 96 10000 2.57 280 12:22 10.01.2022
6017 Clouds 3 1020 96 10000 2.06 260 11:25 10.01.2022
6018 Clouds 1 1018 96 7000 2.57 230 09:53 10.01.2022
6019 Clouds 1 1016 98 10000 2.06 260 08:22 10.01.2022
6020 Clouds 2 1013 98 10000 2.57 260 05:50 10.01.2022
6021 Clouds 3 1008 96 10000 2.57 270 01:33 10.01.2022
6022 Clouds 3 1008 96 10000 2.57 260 00:33 10.01.2022
6023 Clouds 3 1007 95 10000 2.57 260 23:43 09.01.2022
6024 Clouds 3 1005 96 10000 3.09 250 22:42 09.01.2022
6025 Clouds 3 1004 96 10000 3.6 250 21:47 09.01.2022
6026 Clouds 3 1004 96 10000 3.09 240 21:24 09.01.2022
6027 Clouds 3 1003 96 10000 3.09 240 20:55 09.01.2022
6028 Clouds 3 1003 96 10000 3.09 240 20:37 09.01.2022
6029 Clouds 4 1003 94 10000 4.12 250 20:18 09.01.2022
6030 Clouds 4 1002 94 10000 4.12 260 19:37 09.01.2022
6031 Clouds 4 1001 96 10000 4.12 250 19:18 09.01.2022
6032 Clouds 4 1001 94 10000 4.63 250 18:37 09.01.2022
6033 Clouds 4 1000 94 10000 4.63 250 17:48 09.01.2022
6034 Clouds 5 999 94 10000 4.63 260 17:29 09.01.2022
6035 Clouds 5 999 96 10000 4.63 260 16:40 09.01.2022
6036 Clouds 5 998 94 10000 6.17 260 15:40 09.01.2022
6037 Clouds 5 997 96 10000 6.69 260 14:58 09.01.2022
6038 Clouds 5 996 96 10000 7.72 270 14:24 09.01.2022
6039 Clouds 5 996 93 10000 7.72 260 13:48 09.01.2022
6040 Clouds 5 994 94 10000 7.72 280 11:56 09.01.2022
6041 Clouds 5 993 96 10000 7.2 280 11:26 09.01.2022
6042 Rain 3 992 96 9000 2.57 240 09:55 09.01.2022
6043 Rain 2 991 95 10000 3.09 200 08:59 09.01.2022
6044 Rain 2 989 95 10000 3.6 170 06:57 09.01.2022
6045 Clouds 3 990 88 10000 7.2 160 01:30 09.01.2022
6046 Clouds 3 991 86 10000 7.2 160 00:38 09.01.2022
6047 Clouds 3 992 86 10000 7.72 160 23:34 08.01.2022
6048 Clouds 3 993 88 10000 7.2 160 22:48 08.01.2022
6049 Clouds 2 996 91 10000 6.69 160 21:28 08.01.2022
6050 Clouds 2 996 91 10000 7.2 160 20:44 08.01.2022
6051 Clouds 2 996 91 10000 7.2 160 20:44 08.01.2022
6052 Clouds 2 997 91 10000 7.72 160 20:22 08.01.2022
6053 Clouds 3 999 85 10000 8.75 170 19:22 08.01.2022
6054 Clouds 3 1002 88 10000 5.66 170 17:38 08.01.2022
6055 Clouds 3 1003 88 10000 5.14 180 16:57 08.01.2022
6056 Clouds 3 1005 88 10000 6.69 200 15:34 08.01.2022
6057 Clouds 4 1005 88 10000 5.66 210 14:25 08.01.2022
6058 Clear 3 1008 92 10000 5.66 230 11:43 08.01.2022
6059 Clear 1 1008 94 10000 5.14 230 10:43 08.01.2022
6060 Clear 1 1008 95 10000 4.63 220 10:23 08.01.2022
6061 Clear 1 1008 95 10000 4.63 220 10:23 08.01.2022
6062 Clouds 1 1008 95 10000 4.12 220 09:34 08.01.2022
6063 Clouds 1 1008 95 10000 5.14 240 07:18 08.01.2022
6064 Clouds 1 1008 95 10000 3.09 220 01:49 08.01.2022
6065 Clouds 1 1008 94 10000 4.63 220 00:23 08.01.2022
6066 Clouds 2 1008 92 10000 5.14 220 22:21 07.01.2022
6067 Clouds 3 1007 94 10000 3.6 200 20:35 07.01.2022
6068 Clouds 3 1007 95 10000 3.6 180 19:34 07.01.2022
6069 Clouds 3 1007 94 10000 2.57 180 18:50 07.01.2022
6070 Clouds 2 1007 94 10000 2.06 190 18:26 07.01.2022
6071 Clouds 3 1008 92 10000 3.6 210 17:24 07.01.2022
6072 Clouds 4 1008 90 10000 5.14 220 15:55 07.01.2022
6073 Clouds 4 1008 93 10000 6.17 220 13:52 07.01.2022
6074 Clouds 4 1008 93 10000 6.17 220 13:18 07.01.2022
6075 Clouds 3 1008 96 10000 6.17 220 12:25 07.01.2022
6076 Clouds 2 1009 95 10000 5.14 200 07:31 07.01.2022
6077 Clear 2 1013 91 10000 5.14 180 02:54 07.01.2022
6078 Clear 2 1014 91 10000 4.12 190 01:52 07.01.2022
6079 Clear 2 1014 92 10000 4.12 190 01:27 07.01.2022
6080 Clear 2 1015 91 10000 4.12 190 00:55 07.01.2022
6081 Clear 2 1016 94 10000 4.12 200 22:46 06.01.2022
6082 Clear 2 1016 91 10000 3.6 210 21:23 06.01.2022
6083 Clear 2 1017 91 10000 3.09 210 20:20 06.01.2022
6084 Clear 1 1017 90 10000 3.09 210 19:40 06.01.2022
6085 Clouds 2 1017 91 10000 2.57 210 17:53 06.01.2022
6086 Clear 2 1017 91 10000 2.57 230 17:32 06.01.2022
6087 Clouds 3 1017 90 10000 2.57 220 16:40 06.01.2022
6088 Clouds 4 1017 88 10000 3.09 240 15:45 06.01.2022
6089 Clouds 4 1017 86 10000 4.63 250 15:24 06.01.2022
6090 Clouds 4 1017 86 10000 3.6 260 14:21 06.01.2022
6091 Clouds 4 1017 87 10000 3.09 250 13:47 06.01.2022
6092 Clear 3 1017 90 10000 2.06 230 12:43 06.01.2022
6093 Clear 2 1016 93 10000 1.03 0 11:41 06.01.2022
6094 Clear 1 1016 93 10000 1.03 0 11:21 06.01.2022
6095 Clouds 0 1015 96 10000 2.43 226 08:51 06.01.2022
6096 Clouds 3 1008 94 8000 7.2 320 00:43 06.01.2022
6097 Rain 4 1006 93 10000 7.2 280 23:36 05.01.2022
6098 Rain 3 1006 93 10000 4.12 310 22:56 05.01.2022
6099 Clouds 4 1005 92 10000 5.66 270 22:31 05.01.2022
6100 Clouds 4 1005 90 9000 8.23 310 21:47 05.01.2022
6101 Clouds 4 1004 89 10000 7.2 290 20:50 05.01.2022
6102 Clouds 5 1004 88 10000 7.2 290 20:18 05.01.2022
6103 Clouds 5 1002 91 10000 8.75 290 18:42 05.01.2022
6104 Clouds 5 1000 91 10000 8.23 280 17:23 05.01.2022
6105 Clouds 5 999 90 10000 8.23 290 16:38 05.01.2022
6106 Clouds 6 997 87 10000 7.72 290 15:21 05.01.2022
6107 Clouds 4 997 94 10000 8.23 260 13:51 05.01.2022
6108 Clouds 4 996 95 10000 7.72 250 12:59 05.01.2022
6109 Clouds 3 996 91 10000 9.26 240 10:32 05.01.2022
6110 Clear 2 995 87 10000 8.23 230 07:45 05.01.2022
6111 Clear 2 995 87 10000 7.72 230 06:24 05.01.2022
6112 Clouds 3 996 92 10000 5.14 250 00:58 05.01.2022
6113 Clear 3 996 91 10000 4.63 250 23:28 04.01.2022
6114 Clear 3 996 91 10000 4.12 240 22:46 04.01.2022
6115 Clear 3 995 92 10000 5.14 240 21:24 04.01.2022
6116 Clear 3 995 94 10000 4.12 250 19:20 04.01.2022
6117 Clouds 4 995 94 10000 3.09 270 17:51 04.01.2022
6118 Clouds 4 994 94 10000 3.09 290 16:43 04.01.2022
6119 Clouds 5 994 92 10000 3.6 310 16:23 04.01.2022
6120 Clouds 6 993 95 10000 5.66 310 14:54 04.01.2022
6121 Clouds 6 993 95 10000 5.66 310 14:34 04.01.2022
6122 Clouds 7 993 93 10000 5.14 260 13:27 04.01.2022
6123 Clouds 8 993 91 10000 4.63 220 10:41 04.01.2022
6124 Clouds 8 994 91 10000 4.63 220 09:47 04.01.2022
6125 Clouds 8 994 91 10000 4.63 220 08:32 04.01.2022
6126 Clouds 8 999 90 10000 5.14 220 02:52 04.01.2022
6127 Clouds 8 1000 86 10000 4.63 230 00:41 04.01.2022
6128 Clouds 8 1001 87 10000 5.14 240 23:34 03.01.2022
6129 Clouds 8 1002 88 10000 6.17 240 21:52 03.01.2022
6130 Clouds 8 1002 88 10000 5.66 230 21:34 03.01.2022
6131 Clouds 8 1003 86 10000 5.66 240 20:26 03.01.2022
6132 Clouds 8 1003 85 10000 5.66 250 18:54 03.01.2022
6133 Clouds 8 1003 85 10000 9.26 260 18:28 03.01.2022
6134 Clouds 9 1004 80 10000 7.2 240 16:59 03.01.2022
6135 Clouds 10 1004 79 10000 8.23 240 15:50 03.01.2022
6136 Clouds 10 1005 80 10000 7.72 240 14:31 03.01.2022
6137 Clouds 10 1006 86 10000 6.69 240 12:49 03.01.2022
6138 Clouds 10 1006 84 10000 7.72 250 11:50 03.01.2022
6139 Clouds 10 1007 83 10000 7.72 240 10:37 03.01.2022
6140 Clouds 9 1007 87 10000 7.2 240 08:54 03.01.2022
6141 Clouds 9 1007 90 10000 7.2 250 07:51 03.01.2022
6142 Rain 8 1005 96 10000 8.06 276 01:55 03.01.2022
6143 Rain 10 1005 88 10000 2.57 200 23:22 02.01.2022
6144 Clouds 10 1006 87 10000 4.12 220 22:56 02.01.2022
6145 Clouds 10 1007 86 10000 3.6 220 21:52 02.01.2022
6146 Clouds 10 1007 85 10000 4.63 250 20:45 02.01.2022
6147 Clouds 11 1008 83 10000 5.14 250 20:25 02.01.2022
6148 Clouds 11 1008 83 10000 5.14 250 19:31 02.01.2022
6149 Clouds 11 1008 83 10000 5.66 260 18:55 02.01.2022
6150 Clouds 11 1008 81 10000 8.75 260 17:56 02.01.2022
6151 Clouds 11 1008 81 10000 8.75 260 17:38 02.01.2022
6152 Clouds 11 1007 79 10000 8.75 260 17:20 02.01.2022
6153 Clouds 12 1007 80 10000 11.32 260 16:27 02.01.2022
6154 Clouds 12 1006 82 10000 9.26 240 14:41 02.01.2022
6155 Clouds 13 1006 84 10000 9.77 240 13:25 02.01.2022
6156 Clouds 12 1007 89 10000 7.72 220 12:31 02.01.2022
6157 Clouds 12 1008 92 10000 7.2 220 11:41 02.01.2022
6158 Rain 12 1008 90 10000 7.72 220 10:53 02.01.2022
6159 Clouds 12 1009 92 10000 6.17 210 09:56 02.01.2022
6160 Clouds 11 1011 93 10000 6.69 230 07:34 02.01.2022
6161 Rain 11 1016 92 10000 4.12 220 02:51 02.01.2022
6162 Clear 12 1017 87 10000 3.6 220 23:42 01.01.2022
6163 Clear 12 1017 87 10000 6.17 180 23:24 01.01.2022
6164 Clear 12 1018 87 10000 4.12 190 22:25 01.01.2022
6165 Clear 12 1018 87 10000 4.12 190 21:45 01.01.2022
6166 Clear 12 1018 87 10000 4.63 190 21:21 01.01.2022
6167 Clear 12 1019 87 10000 4.63 190 20:25 01.01.2022
6168 Clear 12 1019 87 10000 4.12 180 19:34 01.01.2022
6169 Clear 12 1020 89 10000 4.63 200 18:51 01.01.2022
6170 Clear 13 1020 87 10000 4.12 210 17:38 01.01.2022
6171 Clear 13 1021 88 10000 3.6 210 16:34 01.01.2022
6172 Clear 13 1021 87 10000 3.6 210 15:37 01.01.2022
6173 Clouds 13 1021 91 10000 5.14 230 14:25 01.01.2022
6174 Clouds 13 1021 90 10000 4.63 220 13:41 01.01.2022
6175 Clouds 12 1022 92 10000 3.09 220 12:25 01.01.2022
6176 Clouds 12 1022 92 8000 3.6 230 11:25 01.01.2022
6177 Clouds 12 1022 92 8000 4.12 230 10:58 01.01.2022
6178 Clouds 12 1022 92 6000 4.63 240 09:48 01.01.2022
6179 Clouds 12 1022 93 6000 4.63 250 08:39 01.01.2022
6180 Clouds 12 1021 93 7000 3.6 250 07:57 01.01.2022
6181 Clouds 12 1021 93 7000 3.6 250 07:38 01.01.2022
6182 Clouds 11 1021 93 10000 5.66 260 06:44 01.01.2022
6183 Clouds 12 1020 92 10000 5.14 260 05:24 01.01.2022
6184 Clouds 12 1020 92 10000 5.14 250 04:35 01.01.2022
6185 Clouds 12 1018 96 10000 6.69 260 00:23 01.01.2022
6186 Drizzle 12 1017 96 10000 7.2 260 22:30 31.12.2021
6187 Drizzle 12 1017 96 10000 7.2 260 21:47 31.12.2021
6188 Clouds 12 1016 96 6000 7.2 260 19:48 31.12.2021
6189 Mist 12 1015 96 5000 6.17 260 19:28 31.12.2021
6190 Clouds 12 1014 94 10000 7.72 260 18:18 31.12.2021
6191 Clouds 12 1014 96 10000 8.23 260 17:28 31.12.2021
6192 Clouds 12 1013 96 9000 8.23 250 16:56 31.12.2021
6193 Clouds 12 1013 96 9000 6.69 240 16:18 31.12.2021
6194 Clouds 12 1013 95 10000 6.17 240 15:50 31.12.2021
6195 Clouds 12 1012 95 6000 6.69 240 15:28 31.12.2021
6196 Clouds 13 1012 87 10000 6.69 240 14:41 31.12.2021
6197 Clouds 13 1013 86 10000 8.75 250 13:56 31.12.2021
6198 Clouds 13 1013 85 10000 8.23 240 13:23 31.12.2021
6199 Clouds 13 1013 88 10000 8.73 248 12:33 31.12.2021
6200 Clouds 13 1013 85 10000 8.23 240 11:42 31.12.2021
6201 Clouds 14 1013 82 10000 8.75 240 11:19 31.12.2021
6202 Clouds 13 1013 85 10000 9.77 240 10:30 31.12.2021
6203 Clouds 13 1013 85 10000 6.69 240 09:35 31.12.2021
6204 Clouds 13 1013 90 10000 7.2 230 08:56 31.12.2021
6205 Clouds 13 1013 90 10000 7.2 240 08:25 31.12.2021
6206 Clouds 13 1013 91 10000 7.2 230 06:39 31.12.2021
6207 Drizzle 12 1013 97 4000 6.69 240 23:23 30.12.2021
6208 Drizzle 12 1013 99 6000 6.69 240 22:33 30.12.2021
6209 Drizzle 12 1013 99 3300 6.17 240 21:51 30.12.2021
6210 Drizzle 12 1013 99 3300 6.17 240 21:33 30.12.2021
6211 Drizzle 12 1013 99 8000 6.69 250 20:44 30.12.2021
6212 Drizzle 12 1013 99 4500 6.17 250 20:24 30.12.2021
6213 Drizzle 12 1012 99 4000 6.17 250 19:43 30.12.2021
6214 Drizzle 12 1012 99 3500 6.69 250 18:29 30.12.2021
6215 Mist 12 1012 99 3800 7.72 250 17:45 30.12.2021
6216 Mist 12 1011 99 2000 7.2 250 16:19 30.12.2021
6217 Mist 12 1010 99 2500 6.69 250 15:42 30.12.2021
6218 Mist 12 1010 97 2000 7.2 250 14:38 30.12.2021
6219 Mist 12 1009 97 1600 8.23 250 13:33 30.12.2021
6220 Mist 12 1009 99 3000 6.69 240 12:40 30.12.2021
6221 Clouds 11 1009 99 10000 5.14 230 10:58 30.12.2021
6222 Mist 10 1009 99 3500 3.09 210 09:58 30.12.2021
6223 Clouds 10 1009 96 9000 2.57 230 08:58 30.12.2021
6224 Clouds 9 1009 96 10000 4.12 240 06:52 30.12.2021
6225 Clear 9 1008 96 10000 5.66 240 03:43 30.12.2021
6226 Clear 8 1008 99 10000 5.14 240 03:23 30.12.2021
6227 Clouds 8 1005 96 4200 3.09 210 23:50 29.12.2021
6228 Mist 7 1004 99 2500 2.57 190 23:23 29.12.2021
6229 Mist 7 1004 99 2300 3.6 170 22:22 29.12.2021
6230 Mist 7 1004 99 2300 3.6 170 22:22 29.12.2021
6231 Mist 7 1004 99 2500 5.14 150 21:43 29.12.2021
6232 Clouds 7 1004 96 5000 4.12 140 20:39 29.12.2021
6233 Clouds 7 1004 96 5000 2.57 150 19:50 29.12.2021
6234 Rain 7 1004 96 7000 3.09 160 18:57 29.12.2021
6235 Clouds 7 1005 99 6000 2.57 180 17:57 29.12.2021
6236 Clouds 7 1005 99 6000 2.57 180 17:28 29.12.2021
6237 Mist 7 1006 99 5000 2.06 200 16:49 29.12.2021
6238 Mist 7 1005 99 5000 2.57 190 16:19 29.12.2021
6239 Mist 7 1005 99 1500 2.06 220 14:46 29.12.2021
6240 Clouds 7 1005 99 7000 2.57 250 12:49 29.12.2021
6241 Clouds 6 1005 99 7000 3.6 260 12:27 29.12.2021
6242 Mist 6 1004 99 3500 2.57 260 10:38 29.12.2021
6243 Fog 5 1002 99 700 2.06 250 08:37 29.12.2021
6244 Mist 5 1001 99 1700 1.54 250 06:48 29.12.2021
6245 Fog 5 1000 99 900 2.57 250 06:27 29.12.2021
6246 Drizzle 5 1000 99 1700 2.06 270 05:50 29.12.2021
6247 Mist 5 998 99 3200 1.03 240 03:46 29.12.2021
6248 Clouds 5 995 96 10000 2.06 250 00:28 29.12.2021
6249 Clouds 5 995 99 10000 2.06 250 23:56 28.12.2021
6250 Clouds 6 994 96 10000 2.57 230 22:56 28.12.2021
6251 Clouds 6 993 99 10000 2.57 220 22:24 28.12.2021
6252 Clouds 6 992 99 10000 2.06 220 21:54 28.12.2021
6253 Clouds 6 992 99 10000 2.57 200 21:28 28.12.2021
6254 Clouds 6 991 96 10000 3.6 220 19:52 28.12.2021
6255 Clouds 6 990 98 10000 2.57 170 18:53 28.12.2021
6256 Rain 6 990 96 10000 3.09 150 18:25 28.12.2021
6257 Rain 6 990 96 3800 5.14 120 17:29 28.12.2021
6258 Rain 6 990 96 10000 5.14 130 15:53 28.12.2021
6259 Rain 6 990 95 10000 4.63 130 15:29 28.12.2021
6260 Clear 6 990 93 10000 4.63 120 14:55 28.12.2021
6261 Clear 6 990 93 10000 4.63 120 14:37 28.12.2021
6262 Clouds 6 991 93 10000 4.12 130 14:18 28.12.2021
6263 Clouds 5 992 93 10000 5.14 130 13:37 28.12.2021
6264 Clouds 5 993 93 10000 4.63 130 12:56 28.12.2021
6265 Clouds 5 993 95 10000 4.63 130 12:20 28.12.2021
6266 Clouds 3 994 96 10000 4.63 140 10:19 28.12.2021
6267 Clouds 3 995 96 8000 3.6 130 07:33 28.12.2021
6268 Clouds 3 997 96 10000 5.14 130 03:37 28.12.2021
6269 Clouds 2 999 95 10000 5.14 120 23:40 27.12.2021
6270 Clouds 2 999 93 10000 3.6 120 22:21 27.12.2021
6271 Clouds 2 1000 92 10000 3.6 120 21:31 27.12.2021
6272 Clouds 1 1000 94 10000 3.09 110 20:39 27.12.2021
6273 Clouds 1 1000 94 10000 4.12 120 19:49 27.12.2021
6274 Clouds 1 1000 94 10000 4.12 110 19:27 27.12.2021
6275 Clouds 1 1001 91 10000 3.6 100 17:54 27.12.2021
6276 Clouds 1 1001 91 10000 3.6 100 17:54 27.12.2021
6277 Clouds 1 1001 91 10000 3.09 130 17:29 27.12.2021
6278 Clouds 1 1001 88 10000 3.6 110 16:26 27.12.2021
6279 Clouds 0 1001 91 10000 4.12 110 15:49 27.12.2021
6280 Clouds 0 1001 91 7000 3.09 120 14:26 27.12.2021
6281 Clouds -1 1002 93 6000 4.12 120 13:31 27.12.2021
6282 Clouds -1 1003 88 7000 4.12 120 11:34 27.12.2021
6283 Clouds -2 1003 87 8000 5.14 110 10:27 27.12.2021
6284 Clouds -2 1003 87 10000 3.6 120 09:38 27.12.2021
6285 Clouds -2 1003 74 10000 4.63 120 07:35 27.12.2021
6286 Clouds -3 1004 82 10000 4.63 110 06:30 27.12.2021
6287 Clouds -3 1006 77 10000 5.66 110 01:59 27.12.2021
6288 Clouds -4 1007 74 10000 5.14 110 23:52 26.12.2021
6289 Clouds -3 1007 74 10000 5.14 110 23:34 26.12.2021
6290 Clouds -4 1008 77 10000 6.69 110 21:48 26.12.2021
6291 Clouds -4 1009 69 10000 5.14 110 20:31 26.12.2021
6292 Clear -4 1009 68 10000 5.14 120 19:31 26.12.2021
6293 Clear -3 1009 65 10000 5.66 110 18:23 26.12.2021
6294 Clear -2 1010 67 10000 5.14 110 15:56 26.12.2021
6295 Clear -2 1010 60 10000 5.14 100 14:27 26.12.2021
6296 Clear -2 1011 61 10000 5.66 110 13:40 26.12.2021
6297 Clear -3 1011 64 10000 5.66 110 13:18 26.12.2021
6298 Clear -4 1012 67 10000 4.63 110 12:27 26.12.2021
6299 Clear -7 1012 74 10000 3.09 100 10:22 26.12.2021
6300 Clear -8 1012 82 10000 4.36 95 09:19 26.12.2021
6301 Clear -9 1012 78 10000 4.12 90 08:40 26.12.2021
6302 Clear -9 1012 79 10000 3.6 80 07:34 26.12.2021
6303 Clear -7 1013 90 10000 2.57 100 01:24 26.12.2021
6304 Clear -7 1014 90 10000 1.54 100 23:53 25.12.2021
6305 Clear -7 1014 93 10000 3.04 103 23:27 25.12.2021
6306 Clear -7 1014 90 10000 2.57 100 22:23 25.12.2021
6307 Clear -6 1014 89 10000 3.09 80 20:57 25.12.2021
6308 Clear -5 1014 86 10000 2.06 90 19:26 25.12.2021
6309 Clear -5 1014 86 10000 2.06 110 18:55 25.12.2021
6310 Clear -4 1014 77 10000 2.57 90 17:33 25.12.2021
6311 Clear -4 1014 78 10000 3.09 90 16:36 25.12.2021
6312 Clear -2 1014 72 10000 2.57 120 15:18 25.12.2021
6313 Clear -2 1014 73 10000 3.6 120 13:30 25.12.2021
6314 Clear -3 1014 75 10000 2.57 100 11:51 25.12.2021
6315 Clear -6 1013 85 10000 2.57 60 09:54 25.12.2021
6316 Clear -7 1013 86 10000 2.57 60 09:34 25.12.2021
6317 Clear -6 1011 82 10000 3.6 80 04:34 25.12.2021
6318 Clear -3 1010 70 10000 5.66 70 01:25 25.12.2021
6319 Clear -2 1009 70 10000 6.69 70 23:42 24.12.2021
6320 Clouds 0 1006 92 10000 5.14 40 19:50 24.12.2021
6321 Snow 0 1005 95 10000 4.63 50 19:24 24.12.2021
6322 Clouds 2 1003 94 7000 2.06 10 16:59 24.12.2021
6323 Clouds 3 1003 96 6000 1.54 300 16:23 24.12.2021
6324 Clouds 3 1002 96 6000 2.06 300 15:48 24.12.2021
6325 Clouds 3 1002 96 5000 2.06 310 15:20 24.12.2021
6326 Clouds 3 1001 94 4500 2.57 340 14:31 24.12.2021
6327 Clouds 3 1001 96 6000 2.06 330 13:44 24.12.2021
6328 Clouds 3 1000 96 4500 4.12 340 12:49 24.12.2021
6329 Clouds 3 1000 96 4800 4.63 360 12:23 24.12.2021
6330 Clouds 3 1000 96 3800 4.63 360 11:40 24.12.2021
6331 Clouds 4 999 96 3500 3.6 330 11:18 24.12.2021
6332 Clouds 4 999 96 2700 4.63 320 10:33 24.12.2021
6333 Drizzle 6 998 96 2700 2.57 320 08:38 24.12.2021
6334 Drizzle 6 998 96 2800 4.12 280 07:58 24.12.2021
6335 Drizzle 6 998 99 2000 4.63 260 06:18 24.12.2021
6336 Clouds 4 1000 99 5000 6.69 250 00:21 24.12.2021
6337 Clouds 4 1000 99 4500 6.17 250 23:39 23.12.2021
6338 Clouds 4 1001 96 4000 6.17 260 22:50 23.12.2021
6339 Clouds 3 1001 99 3500 6.69 250 22:22 23.12.2021
6340 Rain 3 1001 99 2200 6.17 250 21:39 23.12.2021
6341 Mist 2 1002 96 3500 6.17 230 20:27 23.12.2021
6342 Rain 1 1003 96 7000 5.14 230 19:28 23.12.2021
6343 Rain 1 1004 96 4800 4.63 230 18:18 23.12.2021
6344 Rain 1 1004 96 4500 5.66 210 17:29 23.12.2021
6345 Snow 0 1005 96 6000 3.09 210 16:26 23.12.2021
6346 Mist 0 1006 96 4800 3.6 220 15:40 23.12.2021
6347 Mist 0 1006 99 4500 4.12 230 15:22 23.12.2021
6348 Mist 0 1007 96 5000 4.12 220 14:40 23.12.2021
6349 Snow 0 1008 90 10000 3.6 210 13:31 23.12.2021
6350 Snow 0 1010 93 10000 2.06 180 11:49 23.12.2021
6351 Clouds -1 1011 96 10000 1.03 0 09:53 23.12.2021
6352 Clouds -1 1011 96 10000 1.03 0 09:53 23.12.2021
6353 Clouds -1 1011 96 10000 1.03 0 09:34 23.12.2021
6354 Clear -2 1012 96 10000 1.03 0 08:28 23.12.2021
6355 Snow -2 1014 96 10000 1.54 130 05:39 23.12.2021
6356 Clear -3 1017 96 10000 1.03 0 02:56 23.12.2021
6357 Mist -3 1020 99 5000 1.03 130 22:53 22.12.2021
6358 Mist -3 1020 98 4500 1.54 130 22:19 22.12.2021
6359 Mist -3 1021 98 3500 1.03 150 21:37 22.12.2021
6360 Mist -3 1021 98 3000 2.06 140 21:19 22.12.2021
6361 Mist -3 1021 98 2800 1.54 130 20:40 22.12.2021
6362 Mist -3 1022 98 1800 2.06 130 19:57 22.12.2021
6363 Mist -3 1023 98 2000 1.54 130 18:55 22.12.2021
6364 Mist -3 1023 98 2800 1.54 130 17:38 22.12.2021
6365 Mist -3 1024 98 4000 1.54 120 16:25 22.12.2021
6366 Clouds -2 1024 93 6000 1.54 150 15:21 22.12.2021
6367 Mist -3 1026 93 4500 1.54 140 12:59 22.12.2021
6368 Mist -4 1026 93 5000 1.54 160 11:50 22.12.2021
6369 Mist -4 1026 93 3200 2.06 170 09:53 22.12.2021
6370 Mist -5 1026 99 1100 2.06 170 08:34 22.12.2021
6371 Fog -5 1027 94 800 1.54 170 07:21 22.12.2021
6372 Fog -5 1027 94 500 1.54 150 05:39 22.12.2021
6373 Fog -5 1027 93 600 1.54 150 05:20 22.12.2021
6374 Fog -5 1027 93 600 1.54 140 04:42 22.12.2021
6375 Fog -5 1027 93 600 2.06 140 03:54 22.12.2021
6376 Fog -5 1027 93 600 1.54 140 03:31 22.12.2021
6377 Mist -5 1027 95 1100 2.06 150 23:57 21.12.2021
6378 Fog -5 1027 98 1000 2.06 150 22:44 21.12.2021
6379 Fog -5 1027 98 400 2.06 170 22:24 21.12.2021
6380 Fog -4 1027 98 350 2.06 160 21:42 21.12.2021
6381 Mist -4 1027 98 1200 2.57 170 20:44 21.12.2021
6382 Fog -4 1027 98 3000 1.54 190 20:20 21.12.2021
6383 Fog -3 1027 98 3000 1.54 190 20:20 21.12.2021
6384 Fog -3 1027 98 400 2.06 150 19:41 21.12.2021
6385 Fog -3 1026 98 200 1.54 150 18:36 21.12.2021
6386 Fog -2 1026 95 200 1.54 150 17:59 21.12.2021
6387 Fog -2 1026 95 200 1.54 150 17:40 21.12.2021
6388 Clear 1 1026 92 10000 1.54 160 15:46 21.12.2021
6389 Clear 1 1026 93 10000 0.51 0 14:59 21.12.2021
6390 Clear 0 1026 95 10000 1.03 0 13:44 21.12.2021
6391 Mist 0 1027 95 5000 0.51 0 12:58 21.12.2021
6392 Fog -4 1027 93 800 0.51 0 10:55 21.12.2021
6393 Fog -6 1027 100 250 1.03 230 09:57 21.12.2021
6394 Fog -6 1027 93 200 1.54 250 09:18 21.12.2021
6395 Fog -4 1027 93 300 0.51 220 07:50 21.12.2021
6396 Fog -5 1027 97 300 1.03 230 07:25 21.12.2021
6397 Fog -4 1027 93 700 1.03 230 04:48 21.12.2021
6398 Fog -4 1027 98 500 1.54 240 02:39 21.12.2021
6399 Fog -2 1028 94 800 0.51 290 23:58 20.12.2021
6400 Fog -2 1028 94 900 1.03 250 22:49 20.12.2021
6401 Fog -2 1028 97 4000 1.54 240 22:28 20.12.2021
6402 Clear -1 1028 97 10000 1.03 0 21:43 20.12.2021
6403 Clear -1 1028 97 10000 1.54 280 21:23 20.12.2021
6404 Clear -1 1028 94 10000 2.57 310 20:42 20.12.2021
6405 Clear 0 1028 94 10000 1.54 290 19:48 20.12.2021
6406 Clear 0 1028 94 10000 2.57 310 19:29 20.12.2021
6407 Clear 0 1028 94 10000 1.54 290 18:49 20.12.2021
6408 Clear 1 1028 90 10000 2.57 300 17:52 20.12.2021
6409 Clear 2 1028 90 10000 2.57 310 16:56 20.12.2021
6410 Clear 3 1028 90 10000 2.57 310 16:36 20.12.2021
6411 Clear 4 1028 86 10000 3.09 310 15:47 20.12.2021
6412 Clear 4 1028 85 10000 2.57 300 14:42 20.12.2021
6413 Clear 3 1028 92 10000 3.6 310 12:51 20.12.2021
6414 Clear 1 1028 98 10000 1.54 260 11:19 20.12.2021
6415 Mist -2 1028 95 1800 1.03 300 09:47 20.12.2021
6416 Fog -2 1027 98 800 1.54 290 08:58 20.12.2021
6417 Fog -2 1027 98 800 1.54 290 08:40 20.12.2021
6418 Fog -2 1027 98 800 1.54 290 07:49 20.12.2021
6419 Fog -2 1027 100 10000 1.54 280 06:47 20.12.2021
6420 Fog -1 1027 98 10000 1.54 310 03:42 20.12.2021
6421 Clear 2 1026 95 10000 2.06 340 23:51 19.12.2021
6422 Clear 4 1026 92 10000 2.06 320 22:45 19.12.2021
6423 Clouds 5 1025 91 10000 3.09 340 21:49 19.12.2021
6424 Clouds 5 1025 88 10000 3.6 350 21:26 19.12.2021
6425 Clouds 6 1025 85 10000 4.12 340 20:30 19.12.2021
6426 Clouds 6 1025 84 10000 6.69 350 19:46 19.12.2021
6427 Clouds 7 1025 82 10000 6.17 340 18:58 19.12.2021
6428 Clouds 7 1024 80 10000 6.17 340 18:27 19.12.2021
6429 Clouds 7 1024 82 10000 7.72 340 17:49 19.12.2021
6430 Clouds 8 1024 83 10000 7.2 320 17:18 19.12.2021
6431 Clouds 8 1024 86 10000 7.2 310 16:25 19.12.2021
6432 Clouds 8 1025 89 10000 6.17 300 15:31 19.12.2021
6433 Drizzle 8 1025 90 10000 5.66 310 14:59 19.12.2021
6434 Drizzle 8 1025 91 10000 5.66 310 14:36 19.12.2021
6435 Clouds 8 1026 89 10000 6.69 300 13:22 19.12.2021
6436 Clouds 8 1026 89 10000 6.17 300 12:33 19.12.2021
6437 Drizzle 8 1027 91 10000 6.69 300 11:44 19.12.2021
6438 Drizzle 7 1028 94 8000 7.2 310 10:58 19.12.2021
6439 Drizzle 7 1028 95 10000 7.2 290 10:25 19.12.2021
6440 Drizzle 7 1028 95 10000 6.17 290 09:37 19.12.2021
6441 Clouds 7 1029 95 10000 6.17 310 07:50 19.12.2021
6442 Clouds 7 1030 91 10000 7.2 300 04:45 19.12.2021
6443 Clouds 7 1032 91 10000 5.66 300 01:19 19.12.2021
6444 Clouds 7 1032 91 10000 5.66 300 00:52 19.12.2021
6445 Clouds 8 1033 89 10000 5.66 290 22:36 18.12.2021
6446 Clouds 8 1034 92 10000 5.66 290 21:57 18.12.2021
6447 Clouds 8 1034 92 10000 5.66 290 21:35 18.12.2021
6448 Clouds 8 1034 92 10000 4.63 300 20:44 18.12.2021
6449 Clouds 8 1034 93 10000 5.66 310 19:54 18.12.2021
6450 Clouds 8 1035 92 10000 5.14 300 19:20 18.12.2021
6451 Clouds 8 1035 95 10000 5.66 300 18:21 18.12.2021
6452 Clouds 8 1035 96 10000 5.66 300 17:48 18.12.2021
6453 Clouds 8 1035 97 10000 4.25 288 16:26 18.12.2021
6454 Clouds 9 1035 93 10000 4.63 290 15:26 18.12.2021
6455 Clouds 9 1036 94 10000 4.63 300 14:32 18.12.2021
6456 Clouds 8 1036 96 10000 3.09 300 13:21 18.12.2021
6457 Drizzle 8 1037 96 5000 4.12 300 11:22 18.12.2021
6458 Drizzle 7 1038 100 2500 4.12 290 09:40 18.12.2021
6459 Mist 7 1038 99 3300 4.12 290 08:47 18.12.2021
6460 Mist 7 1038 99 3000 4.12 280 08:19 18.12.2021
6461 Clouds 7 1039 96 10000 3.6 290 03:42 18.12.2021
6462 Clouds 7 1039 96 10000 3.6 330 00:28 18.12.2021
6463 Clouds 7 1039 96 10000 4.12 320 23:44 17.12.2021
6464 Clouds 8 1039 96 10000 4.12 320 21:57 17.12.2021
6465 Clouds 8 1039 96 10000 4.12 330 21:19 17.12.2021
6466 Clouds 8 1039 96 10000 4.12 320 20:40 17.12.2021
6467 Clouds 8 1039 96 10000 4.63 330 19:24 17.12.2021
6468 Clouds 8 1039 96 10000 4.12 330 18:38 17.12.2021
6469 Clouds 8 1039 96 10000 3.09 320 17:31 17.12.2021
6470 Drizzle 8 1039 96 4500 2.57 290 16:49 17.12.2021
6471 Clouds 8 1039 96 10000 1.54 290 16:22 17.12.2021
6472 Clouds 8 1039 93 10000 3.09 320 15:25 17.12.2021
6473 Clouds 8 1039 93 10000 2.57 300 14:40 17.12.2021
6474 Clouds 8 1039 92 10000 2.57 330 13:21 17.12.2021
6475 Clouds 8 1039 93 10000 4.12 310 11:50 17.12.2021
6476 Clouds 7 1039 96 10000 2.57 300 10:37 17.12.2021
6477 Clouds 7 1039 98 10000 2.57 300 09:34 17.12.2021
6478 Clouds 7 1039 98 10000 1.54 280 08:30 17.12.2021
6479 Clouds 7 1038 96 10000 1.54 300 06:47 17.12.2021
6480 Drizzle 8 1039 95 8000 4.12 300 02:54 17.12.2021
6481 Clouds 8 1039 95 10000 2.06 300 23:47 16.12.2021
6482 Clouds 8 1039 95 10000 2.06 280 22:24 16.12.2021
6483 Clouds 8 1039 95 10000 1.54 250 21:51 16.12.2021
6484 Clouds 8 1039 92 10000 1.03 0 21:30 16.12.2021
6485 Clouds 8 1038 92 10000 1.54 300 20:31 16.12.2021
6486 Clouds 9 1038 92 10000 1.03 310 19:49 16.12.2021
6487 Clouds 9 1038 92 10000 1.54 320 18:41 16.12.2021
6488 Drizzle 9 1038 95 10000 2.57 310 17:57 16.12.2021
6489 Clouds 9 1037 92 10000 3.6 300 17:31 16.12.2021
6490 Clouds 9 1037 92 10000 4.12 310 16:23 16.12.2021
6491 Clouds 9 1036 95 10000 2.57 300 14:54 16.12.2021
6492 Clouds 9 1036 96 10000 3.09 290 13:43 16.12.2021
6493 Mist 9 1036 96 3000 3.09 260 11:46 16.12.2021
6494 Drizzle 9 1036 96 2000 2.57 280 11:18 16.12.2021
6495 Drizzle 9 1035 96 1800 2.06 270 10:27 16.12.2021
6496 Drizzle 8 1034 98 3800 3.09 280 08:37 16.12.2021
6497 Clouds 8 1032 95 10000 3.09 270 06:22 16.12.2021
6498 Clouds 7 1031 94 10000 3.09 220 02:59 16.12.2021
6499 Clouds 7 1031 91 10000 3.6 230 23:35 15.12.2021
6500 Clouds 7 1030 91 10000 2.57 210 22:48 15.12.2021
6501 Clouds 7 1030 87 10000 3.09 230 21:58 15.12.2021
6502 Clouds 7 1030 87 10000 3.09 230 21:28 15.12.2021
6503 Clouds 7 1030 89 10000 3.6 240 20:31 15.12.2021
6504 Clouds 7 1030 92 10000 2.57 250 19:52 15.12.2021
6505 Clouds 8 1029 93 10000 3.09 250 18:40 15.12.2021
6506 Clouds 8 1029 90 10000 3.6 250 17:57 15.12.2021
6507 Clouds 9 1029 91 10000 5.02 267 17:39 15.12.2021
6508 Clouds 9 1028 89 10000 3.6 240 16:35 15.12.2021
6509 Clouds 10 1028 89 10000 4.63 250 15:47 15.12.2021
6510 Clouds 10 1028 89 10000 4.12 240 15:29 15.12.2021
6511 Clouds 10 1028 90 9000 4.12 240 14:44 15.12.2021
6512 Clouds 10 1028 92 8000 5.14 240 13:27 15.12.2021
6513 Mist 10 1028 94 5000 5.14 240 10:58 15.12.2021
6514 Clouds 10 1027 94 6000 5.14 230 09:31 15.12.2021
6515 Clouds 10 1027 96 6000 5.66 230 07:52 15.12.2021
6516 Mist 9 1027 99 2500 4.63 230 03:58 15.12.2021
6517 Drizzle 9 1026 96 2500 3.09 210 23:47 14.12.2021
6518 Drizzle 8 1026 99 3000 3.09 210 22:55 14.12.2021
6519 Drizzle 8 1026 99 3000 3.09 210 22:37 14.12.2021
6520 Mist 8 1026 99 4000 3.09 230 21:25 14.12.2021
6521 Mist 8 1026 98 2500 3.6 220 20:20 14.12.2021
6522 Drizzle 8 1026 98 5000 3.09 240 19:21 14.12.2021
6523 Drizzle 8 1026 98 4000 3.6 230 18:38 14.12.2021
6524 Drizzle 8 1025 98 2800 3.6 220 17:51 14.12.2021
6525 Drizzle 8 1025 98 2000 3.6 220 16:43 14.12.2021
6526 Drizzle 8 1025 98 1600 3.09 230 15:54 14.12.2021
6527 Drizzle 8 1025 98 4500 4.12 250 13:58 14.12.2021
6528 Clouds 8 1025 93 6000 5.14 250 12:47 14.12.2021
6529 Clouds 8 1025 94 9000 5.14 250 11:25 14.12.2021
6530 Clouds 8 1025 92 10000 4.63 250 10:45 14.12.2021
6531 Clouds 8 1025 91 10000 4.12 240 09:54 14.12.2021
6532 Clouds 8 1024 91 10000 4.12 240 08:48 14.12.2021
6533 Clouds 8 1024 88 10000 3.6 240 08:21 14.12.2021
6534 Clouds 8 1024 87 10000 4.63 230 06:40 14.12.2021
6535 Clouds 8 1025 92 10000 3.6 210 23:42 13.12.2021
6536 Clouds 8 1025 90 10000 4.12 210 22:24 13.12.2021
6537 Clouds 8 1025 93 10000 3.6 210 21:39 13.12.2021
6538 Clouds 9 1026 93 10000 3.09 220 20:51 13.12.2021
6539 Clouds 9 1026 93 10000 3.09 220 20:51 13.12.2021
6540 Clouds 9 1026 93 10000 2.57 220 20:21 13.12.2021
6541 Clouds 9 1026 93 10000 3.6 210 19:49 13.12.2021
6542 Clouds 9 1026 93 10000 4.12 230 17:27 13.12.2021
6543 Clouds 9 1026 93 10000 4.12 220 16:32 13.12.2021
6544 Clouds 9 1025 94 10000 4.12 220 15:43 13.12.2021
6545 Clouds 9 1025 96 10000 3.09 220 14:42 13.12.2021
6546 Clouds 9 1026 98 10000 4.68 224 13:37 13.12.2021
6547 Clouds 9 1025 98 10000 4.97 225 12:40 13.12.2021
6548 Clouds 9 1025 98 10000 4.84 228 11:52 13.12.2021
6549 Clouds 9 1026 94 10000 3.09 220 11:29 13.12.2021
6550 Clouds 10 1026 96 10000 3.09 220 10:37 13.12.2021
6551 Clouds 10 1025 96 7000 4.12 250 08:44 13.12.2021
6552 Mist 10 1024 96 5000 3.6 240 06:55 13.12.2021
6553 Mist 10 1023 96 3500 3.09 230 05:19 13.12.2021
6554 Mist 9 1022 99 2300 3.09 230 00:27 13.12.2021
6555 Mist 9 1022 96 3400 3.6 230 21:59 12.12.2021
6556 Drizzle 9 1021 96 3000 3.6 240 21:29 12.12.2021
6557 Mist 8 1021 99 2800 3.09 230 19:36 12.12.2021
6558 Drizzle 8 1020 96 3000 4.12 240 18:23 12.12.2021
6559 Drizzle 8 1019 96 3000 3.6 230 16:47 12.12.2021
6560 Drizzle 7 1019 99 2200 3.6 230 16:22 12.12.2021
6561 Drizzle 7 1019 96 3000 4.12 230 15:28 12.12.2021
6562 Drizzle 7 1019 96 2200 4.63 230 14:54 12.12.2021
6563 Drizzle 7 1018 96 3000 5.66 230 14:19 12.12.2021
6564 Clouds 6 1018 96 10000 4.63 230 12:51 12.12.2021
6565 Drizzle 6 1018 96 4000 4.63 210 12:23 12.12.2021
6566 Drizzle 6 1018 96 4000 4.63 210 12:23 12.12.2021
6567 Drizzle 5 1018 96 6000 5.66 220 11:43 12.12.2021
6568 Drizzle 5 1019 96 8000 5.14 200 10:44 12.12.2021
6569 Drizzle 5 1019 96 8000 5.14 200 10:44 12.12.2021
6570 Drizzle 5 1018 96 4400 5.66 200 10:21 12.12.2021
6571 Drizzle 4 1018 96 3400 6.69 170 08:50 12.12.2021
6572 Clouds 4 1019 96 9000 5.14 170 07:30 12.12.2021
6573 Clouds 4 1019 93 9000 3.6 200 05:56 12.12.2021
6574 Mist 4 1019 96 5000 3.09 190 04:53 12.12.2021
6575 Mist 3 1020 96 4500 3.09 180 02:52 12.12.2021
6576 Mist 2 1020 95 2800 5.14 240 23:28 11.12.2021
6577 Mist 1 1019 98 2500 4.12 240 22:21 11.12.2021
6578 Mist 1 1019 98 2500 4.12 240 21:47 11.12.2021
6579 Mist 0 1018 97 2800 3.6 220 20:20 11.12.2021
6580 Clouds 1 1018 94 6000 6.17 220 19:21 11.12.2021
6581 Clouds 1 1018 94 6000 6.17 220 19:21 11.12.2021
6582 Clear 1 1017 90 10000 5.66 220 18:49 11.12.2021
6583 Clear 2 1017 86 10000 4.63 220 17:56 11.12.2021
6584 Clear 3 1015 84 10000 4.63 220 16:40 11.12.2021
6585 Clear 4 1015 80 10000 4.63 230 15:46 11.12.2021
6586 Clear 5 1014 79 10000 4.63 230 14:54 11.12.2021
6587 Clouds 4 1013 86 10000 2.57 230 12:42 11.12.2021
6588 Clouds 2 1013 92 9000 2.57 220 11:24 11.12.2021
6589 Mist 0 1012 96 4500 2.06 250 09:45 11.12.2021
6590 Mist 0 1012 96 4500 2.06 250 09:45 11.12.2021
6591 Mist 0 1012 96 4500 2.06 250 09:45 11.12.2021
6592 Mist 0 1012 96 4500 2.06 250 09:45 11.12.2021
6593 Clear 1 1009 95 10000 2.57 210 07:30 11.12.2021
6594 Clouds 2 1003 91 10000 1.54 60 00:51 11.12.2021
6595 Clouds 2 1002 88 10000 1.54 40 23:49 10.12.2021
6596 Clouds 3 1002 87 10000 0.51 0 23:18 10.12.2021
6597 Clouds 3 1001 81 10000 1.03 110 21:52 10.12.2021
6598 Clouds 3 999 81 10000 2.57 100 20:57 10.12.2021
6599 Clouds 3 998 84 10000 3.09 80 19:21 10.12.2021
6600 Clouds 3 997 86 10000 4.12 90 17:55 10.12.2021
6601 Clouds 4 996 85 10000 3.6 80 16:55 10.12.2021
6602 Clouds 4 996 85 10000 2.57 90 16:19 10.12.2021
6603 Clouds 4 996 83 10000 3.09 100 15:39 10.12.2021
6604 Clouds 4 996 83 10000 2.57 100 15:20 10.12.2021
6605 Clouds 5 995 82 10000 3.6 120 13:51 10.12.2021
6606 Clouds 4 995 85 10000 2.57 120 13:26 10.12.2021
6607 Clouds 4 995 87 10000 3.09 140 12:34 10.12.2021
6608 Clear 3 996 92 10000 4.63 120 11:28 10.12.2021
6609 Clear 3 996 91 10000 4.63 120 11:28 10.12.2021
6610 Clear 2 996 95 10000 2.57 100 09:54 10.12.2021
6611 Clouds 3 996 92 10000 3.6 110 08:52 10.12.2021
6612 Clouds 3 997 91 10000 4.63 120 06:22 10.12.2021
6613 Clouds 3 999 91 10000 3.6 140 02:48 10.12.2021
6614 Clouds 4 1001 89 10000 3.09 150 23:54 09.12.2021
6615 Clouds 4 1002 89 10000 3.6 170 23:20 09.12.2021
6616 Clouds 4 1002 89 10000 3.09 180 22:24 09.12.2021
6617 Clouds 4 1002 89 10000 3.6 190 21:59 09.12.2021
6618 Clouds 3 1003 92 10000 2.57 180 20:44 09.12.2021
6619 Clouds 3 1003 89 10000 3.09 150 20:22 09.12.2021
6620 Clouds 3 1003 89 10000 1.54 150 19:21 09.12.2021
6621 Clouds 3 1003 89 10000 3.09 170 18:48 09.12.2021
6622 Clouds 3 1003 90 10000 2.57 190 17:56 09.12.2021
6623 Mist 3 1003 96 5000 3.6 140 17:26 09.12.2021
6624 Mist 3 1003 96 4500 2.06 140 16:55 09.12.2021
6625 Mist 3 1003 96 5000 2.57 130 15:46 09.12.2021
6626 Mist 3 1003 96 4000 3.09 160 14:50 09.12.2021
6627 Mist 2 1003 96 2000 3.6 140 13:25 09.12.2021
6628 Mist 2 1004 96 1800 3.6 140 12:42 09.12.2021
6629 Fog 1 1004 98 600 3.6 130 11:24 09.12.2021
6630 Fog 1 1004 98 800 3.6 150 09:44 09.12.2021
6631 Mist 1 1003 96 3800 3.09 120 06:51 09.12.2021
6632 Clouds 1 1003 93 10000 2.57 140 03:43 09.12.2021
6633 Clouds 2 1002 95 10000 1.54 140 23:46 08.12.2021
6634 Clouds 2 1002 95 10000 2.06 130 23:26 08.12.2021
6635 Clouds 2 1002 93 10000 2.57 130 22:50 08.12.2021
6636 Clear 2 1002 95 10000 4.12 130 21:46 08.12.2021
6637 Clear 2 1001 95 10000 3.6 110 21:28 08.12.2021
6638 Clear 2 1001 95 10000 3.09 110 20:18 08.12.2021
6639 Clear 3 1001 92 10000 4.12 120 19:37 08.12.2021
6640 Clear 3 1000 92 10000 4.63 120 18:53 08.12.2021
6641 Clear 3 1000 92 10000 4.63 120 18:53 08.12.2021
6642 Clear 3 1000 89 10000 3.6 130 17:52 08.12.2021
6643 Clear 5 999 87 10000 2.57 140 15:59 08.12.2021
6644 Clouds 5 999 87 10000 3.6 160 15:31 08.12.2021
6645 Clouds 5 999 87 10000 4.12 160 14:52 08.12.2021
6646 Clouds 5 998 88 10000 4.67 192 12:39 08.12.2021
6647 Clouds 4 998 92 10000 5.66 140 10:36 08.12.2021
6648 Clouds 3 997 92 10000 6.17 140 09:31 08.12.2021
6649 Clouds 2 996 95 10000 5.66 140 07:34 08.12.2021
6650 Snow 1 996 94 8000 7.2 130 04:58 08.12.2021
6651 Clear 2 1001 92 10000 6.69 110 23:56 07.12.2021
6652 Clouds 2 1002 94 10000 6.17 130 22:37 07.12.2021
6653 Clouds 2 1003 95 6000 6.17 120 21:24 07.12.2021
6654 Clouds 3 1005 94 8000 5.66 130 20:25 07.12.2021
6655 Clouds 4 1006 94 9000 3.6 140 18:57 07.12.2021
6656 Clouds 4 1007 95 9000 4.12 150 18:19 07.12.2021
6657 Clouds 4 1007 95 8000 4.12 130 17:20 07.12.2021
6658 Clouds 4 1007 95 8000 3.09 150 16:37 07.12.2021
6659 Clouds 4 1008 95 8000 3.6 160 15:59 07.12.2021
6660 Clouds 4 1008 95 8000 3.09 160 14:37 07.12.2021
6661 Clouds 3 1008 96